<?xml version="1.0" encoding="UTF-8" standalone="no" ?>
<gpx xmlns="http://www.topografix.com/GPX/1/1" xmlns:xsi="http://www.w3.org/2001/XMLSchema-instance" xsi:schemaLocation="http://www.topografix.com/GPX/1/1 http://www.topografix.com/GPX/1/1/gpx.xsd" version="1.1" creator="VisuGPX - https://www.visugpx.com">
  <metadata>
    <name>Rando vtt Smarves, Ligugé,St Benoît version2</name>
  </metadata>
  <trk>
    <name><![CDATA[Rando vtt Smarves, Ligugé,St Benoît version2_1]]></name>
    <trkseg>
      <trkpt lat="46.50621" lon="0.36858">
        <ele>136.4</ele>
        <time>2021-05-02T12:54:00Z</time>
      </trkpt>
      <trkpt lat="46.50614" lon="0.3685">
        <ele>136.4</ele>
        <time>2021-05-02T12:54:10Z</time>
      </trkpt>
      <trkpt lat="46.50604" lon="0.36842">
        <ele>136.4</ele>
        <time>2021-05-02T12:54:16Z</time>
      </trkpt>
      <trkpt lat="46.50602" lon="0.36829">
        <ele>136</ele>
        <time>2021-05-02T12:54:20Z</time>
      </trkpt>
      <trkpt lat="46.50602" lon="0.36826">
        <ele>135.8</ele>
        <time>2021-05-02T12:54:21Z</time>
      </trkpt>
      <trkpt lat="46.506" lon="0.36803">
        <ele>135.4</ele>
        <time>2021-05-02T12:54:27Z</time>
      </trkpt>
      <trkpt lat="46.50602" lon="0.36798">
        <ele>135.4</ele>
        <time>2021-05-02T12:54:28Z</time>
      </trkpt>
      <trkpt lat="46.50605" lon="0.36788">
        <ele>134.8</ele>
        <time>2021-05-02T12:54:31Z</time>
      </trkpt>
      <trkpt lat="46.50607" lon="0.36788">
        <ele>134.6</ele>
        <time>2021-05-02T12:54:32Z</time>
      </trkpt>
      <trkpt lat="46.50607" lon="0.36789">
        <ele>134.6</ele>
        <time>2021-05-02T12:54:33Z</time>
      </trkpt>
      <trkpt lat="46.50605" lon="0.36792">
        <ele>134.6</ele>
        <time>2021-05-02T12:54:35Z</time>
      </trkpt>
      <trkpt lat="46.50599" lon="0.36789">
        <ele>135</ele>
        <time>2021-05-02T12:54:38Z</time>
      </trkpt>
      <trkpt lat="46.50597" lon="0.36786">
        <ele>135</ele>
        <time>2021-05-02T12:54:39Z</time>
      </trkpt>
      <trkpt lat="46.5059" lon="0.36781">
        <ele>135</ele>
        <time>2021-05-02T12:54:42Z</time>
      </trkpt>
      <trkpt lat="46.50589" lon="0.36778">
        <ele>135</ele>
        <time>2021-05-02T12:54:43Z</time>
      </trkpt>
      <trkpt lat="46.50588" lon="0.36775">
        <ele>135</ele>
        <time>2021-05-02T12:54:44Z</time>
      </trkpt>
      <trkpt lat="46.50586" lon="0.3677">
        <ele>134.6</ele>
        <time>2021-05-02T12:54:46Z</time>
      </trkpt>
      <trkpt lat="46.50579" lon="0.36765">
        <ele>134</ele>
        <time>2021-05-02T12:54:48Z</time>
      </trkpt>
      <trkpt lat="46.50568" lon="0.36759">
        <ele>133.2</ele>
        <time>2021-05-02T12:54:51Z</time>
      </trkpt>
      <trkpt lat="46.50556" lon="0.36756">
        <ele>133</ele>
        <time>2021-05-02T12:54:54Z</time>
      </trkpt>
      <trkpt lat="46.50541" lon="0.36757">
        <ele>133.4</ele>
        <time>2021-05-02T12:54:59Z</time>
      </trkpt>
      <trkpt lat="46.50538" lon="0.36756">
        <ele>133.6</ele>
        <time>2021-05-02T12:55:00Z</time>
      </trkpt>
      <trkpt lat="46.50529" lon="0.36752">
        <ele>133.6</ele>
        <time>2021-05-02T12:55:03Z</time>
      </trkpt>
      <trkpt lat="46.50515" lon="0.36754">
        <ele>133.2</ele>
        <time>2021-05-02T12:55:08Z</time>
      </trkpt>
      <trkpt lat="46.50509" lon="0.36753">
        <ele>133.2</ele>
        <time>2021-05-02T12:55:11Z</time>
      </trkpt>
      <trkpt lat="46.50506" lon="0.3675">
        <ele>133.4</ele>
        <time>2021-05-02T12:55:13Z</time>
      </trkpt>
      <trkpt lat="46.50496" lon="0.36744">
        <ele>133.2</ele>
        <time>2021-05-02T12:55:17Z</time>
      </trkpt>
      <trkpt lat="46.50492" lon="0.36743">
        <ele>133.2</ele>
        <time>2021-05-02T12:55:18Z</time>
      </trkpt>
      <trkpt lat="46.50488" lon="0.36742">
        <ele>133</ele>
        <time>2021-05-02T12:55:19Z</time>
      </trkpt>
      <trkpt lat="46.50467" lon="0.36731">
        <ele>132.8</ele>
        <time>2021-05-02T12:55:24Z</time>
      </trkpt>
      <trkpt lat="46.50448" lon="0.36725">
        <ele>132.4</ele>
        <time>2021-05-02T12:55:28Z</time>
      </trkpt>
      <trkpt lat="46.50439" lon="0.36724">
        <ele>132.4</ele>
        <time>2021-05-02T12:55:30Z</time>
      </trkpt>
      <trkpt lat="46.50431" lon="0.36724">
        <ele>132.6</ele>
        <time>2021-05-02T12:55:32Z</time>
      </trkpt>
      <trkpt lat="46.50411" lon="0.36721">
        <ele>133.2</ele>
        <time>2021-05-02T12:55:37Z</time>
      </trkpt>
      <trkpt lat="46.50406" lon="0.3672">
        <ele>133.2</ele>
        <time>2021-05-02T12:55:38Z</time>
      </trkpt>
      <trkpt lat="46.50398" lon="0.36717">
        <ele>133.2</ele>
        <time>2021-05-02T12:55:40Z</time>
      </trkpt>
      <trkpt lat="46.5039" lon="0.36713">
        <ele>133.2</ele>
        <time>2021-05-02T12:55:42Z</time>
      </trkpt>
      <trkpt lat="46.50386" lon="0.36711">
        <ele>133.2</ele>
        <time>2021-05-02T12:55:43Z</time>
      </trkpt>
      <trkpt lat="46.50383" lon="0.36709">
        <ele>133.2</ele>
        <time>2021-05-02T12:55:44Z</time>
      </trkpt>
      <trkpt lat="46.50374" lon="0.36704">
        <ele>133.6</ele>
        <time>2021-05-02T12:55:46Z</time>
      </trkpt>
      <trkpt lat="46.50368" lon="0.36702">
        <ele>133.6</ele>
        <time>2021-05-02T12:55:47Z</time>
      </trkpt>
      <trkpt lat="46.50364" lon="0.36702">
        <ele>133.4</ele>
        <time>2021-05-02T12:55:48Z</time>
      </trkpt>
      <trkpt lat="46.50357" lon="0.367">
        <ele>133.6</ele>
        <time>2021-05-02T12:55:50Z</time>
      </trkpt>
      <trkpt lat="46.50355" lon="0.36698">
        <ele>133.6</ele>
        <time>2021-05-02T12:55:51Z</time>
      </trkpt>
      <trkpt lat="46.50354" lon="0.36683">
        <ele>133.2</ele>
        <time>2021-05-02T12:55:55Z</time>
      </trkpt>
      <trkpt lat="46.50353" lon="0.36679">
        <ele>133</ele>
        <time>2021-05-02T12:55:56Z</time>
      </trkpt>
      <trkpt lat="46.50353" lon="0.36676">
        <ele>133</ele>
        <time>2021-05-02T12:55:57Z</time>
      </trkpt>
      <trkpt lat="46.50348" lon="0.3667">
        <ele>132.8</ele>
        <time>2021-05-02T12:55:59Z</time>
      </trkpt>
      <trkpt lat="46.50345" lon="0.36669">
        <ele>132.6</ele>
        <time>2021-05-02T12:56:00Z</time>
      </trkpt>
      <trkpt lat="46.50333" lon="0.36669">
        <ele>132.2</ele>
        <time>2021-05-02T12:56:05Z</time>
      </trkpt>
      <trkpt lat="46.50328" lon="0.36672">
        <ele>132.2</ele>
        <time>2021-05-02T12:56:09Z</time>
      </trkpt>
      <trkpt lat="46.50327" lon="0.36672">
        <ele>132.4</ele>
        <time>2021-05-02T12:56:10Z</time>
      </trkpt>
      <trkpt lat="46.50314" lon="0.36672">
        <ele>132.8</ele>
        <time>2021-05-02T12:56:15Z</time>
      </trkpt>
      <trkpt lat="46.50306" lon="0.36666">
        <ele>133</ele>
        <time>2021-05-02T12:56:18Z</time>
      </trkpt>
      <trkpt lat="46.50304" lon="0.36664">
        <ele>133</ele>
        <time>2021-05-02T12:56:19Z</time>
      </trkpt>
      <trkpt lat="46.50302" lon="0.36661">
        <ele>133.4</ele>
        <time>2021-05-02T12:56:20Z</time>
      </trkpt>
      <trkpt lat="46.50297" lon="0.36656">
        <ele>133.4</ele>
        <time>2021-05-02T12:56:22Z</time>
      </trkpt>
      <trkpt lat="46.50291" lon="0.36654">
        <ele>133</ele>
        <time>2021-05-02T12:56:24Z</time>
      </trkpt>
      <trkpt lat="46.50274" lon="0.36659">
        <ele>133</ele>
        <time>2021-05-02T12:56:29Z</time>
      </trkpt>
      <trkpt lat="46.50272" lon="0.3666">
        <ele>133</ele>
        <time>2021-05-02T12:56:30Z</time>
      </trkpt>
      <trkpt lat="46.5027" lon="0.36662">
        <ele>133</ele>
        <time>2021-05-02T12:56:31Z</time>
      </trkpt>
      <trkpt lat="46.5026" lon="0.36673">
        <ele>133.8</ele>
        <time>2021-05-02T12:56:35Z</time>
      </trkpt>
      <trkpt lat="46.50255" lon="0.3668">
        <ele>134</ele>
        <time>2021-05-02T12:56:37Z</time>
      </trkpt>
      <trkpt lat="46.5025" lon="0.36685">
        <ele>134.4</ele>
        <time>2021-05-02T12:56:39Z</time>
      </trkpt>
      <trkpt lat="46.50246" lon="0.36688">
        <ele>134.6</ele>
        <time>2021-05-02T12:56:41Z</time>
      </trkpt>
      <trkpt lat="46.50244" lon="0.36694">
        <ele>134.6</ele>
        <time>2021-05-02T12:56:43Z</time>
      </trkpt>
      <trkpt lat="46.5024" lon="0.36706">
        <ele>134.8</ele>
        <time>2021-05-02T12:56:46Z</time>
      </trkpt>
      <trkpt lat="46.5024" lon="0.3671">
        <ele>134.8</ele>
        <time>2021-05-02T12:56:47Z</time>
      </trkpt>
      <trkpt lat="46.5024" lon="0.36713">
        <ele>134.8</ele>
        <time>2021-05-02T12:56:48Z</time>
      </trkpt>
      <trkpt lat="46.50243" lon="0.36728">
        <ele>135</ele>
        <time>2021-05-02T12:56:52Z</time>
      </trkpt>
      <trkpt lat="46.50245" lon="0.36737">
        <ele>134.8</ele>
        <time>2021-05-02T12:56:54Z</time>
      </trkpt>
      <trkpt lat="46.50249" lon="0.36744">
        <ele>134.8</ele>
        <time>2021-05-02T12:56:56Z</time>
      </trkpt>
      <trkpt lat="46.50254" lon="0.36752">
        <ele>134.8</ele>
        <time>2021-05-02T12:56:59Z</time>
      </trkpt>
      <trkpt lat="46.50258" lon="0.36755">
        <ele>134.8</ele>
        <time>2021-05-02T12:57:01Z</time>
      </trkpt>
      <trkpt lat="46.50264" lon="0.36768">
        <ele>135</ele>
        <time>2021-05-02T12:57:05Z</time>
      </trkpt>
      <trkpt lat="46.50265" lon="0.36771">
        <ele>135</ele>
        <time>2021-05-02T12:57:06Z</time>
      </trkpt>
      <trkpt lat="46.50265" lon="0.36773">
        <ele>135</ele>
        <time>2021-05-02T12:57:07Z</time>
      </trkpt>
      <trkpt lat="46.5027" lon="0.36776">
        <ele>135</ele>
        <time>2021-05-02T12:57:10Z</time>
      </trkpt>
      <trkpt lat="46.50273" lon="0.36774">
        <ele>135</ele>
        <time>2021-05-02T12:57:12Z</time>
      </trkpt>
      <trkpt lat="46.50277" lon="0.36777">
        <ele>135</ele>
        <time>2021-05-02T12:57:14Z</time>
      </trkpt>
      <trkpt lat="46.50284" lon="0.36778">
        <ele>135</ele>
        <time>2021-05-02T12:57:15Z</time>
      </trkpt>
      <trkpt lat="46.50288" lon="0.36777">
        <ele>134.8</ele>
        <time>2021-05-02T12:57:17Z</time>
      </trkpt>
      <trkpt lat="46.50296" lon="0.36775">
        <ele>135</ele>
        <time>2021-05-02T12:57:19Z</time>
      </trkpt>
      <trkpt lat="46.50307" lon="0.36775">
        <ele>135.2</ele>
        <time>2021-05-02T12:57:22Z</time>
      </trkpt>
      <trkpt lat="46.50314" lon="0.36777">
        <ele>135.2</ele>
        <time>2021-05-02T12:57:24Z</time>
      </trkpt>
      <trkpt lat="46.50318" lon="0.36779">
        <ele>135</ele>
        <time>2021-05-02T12:57:25Z</time>
      </trkpt>
      <trkpt lat="46.50325" lon="0.36781">
        <ele>135</ele>
        <time>2021-05-02T12:57:27Z</time>
      </trkpt>
      <trkpt lat="46.5033" lon="0.36782">
        <ele>135</ele>
        <time>2021-05-02T12:57:28Z</time>
      </trkpt>
      <trkpt lat="46.50338" lon="0.36784">
        <ele>135</ele>
        <time>2021-05-02T12:57:30Z</time>
      </trkpt>
      <trkpt lat="46.5035" lon="0.36791">
        <ele>135</ele>
        <time>2021-05-02T12:57:33Z</time>
      </trkpt>
      <trkpt lat="46.50353" lon="0.36793">
        <ele>135</ele>
        <time>2021-05-02T12:57:34Z</time>
      </trkpt>
      <trkpt lat="46.50362" lon="0.36799">
        <ele>135</ele>
        <time>2021-05-02T12:57:36Z</time>
      </trkpt>
      <trkpt lat="46.50367" lon="0.36801">
        <ele>135</ele>
        <time>2021-05-02T12:57:37Z</time>
      </trkpt>
      <trkpt lat="46.50376" lon="0.36806">
        <ele>134.8</ele>
        <time>2021-05-02T12:57:39Z</time>
      </trkpt>
      <trkpt lat="46.50386" lon="0.36809">
        <ele>135</ele>
        <time>2021-05-02T12:57:41Z</time>
      </trkpt>
      <trkpt lat="46.5039" lon="0.3681">
        <ele>135</ele>
        <time>2021-05-02T12:57:42Z</time>
      </trkpt>
      <trkpt lat="46.50428" lon="0.36821">
        <ele>134.8</ele>
        <time>2021-05-02T12:57:49Z</time>
      </trkpt>
      <trkpt lat="46.50459" lon="0.36828">
        <ele>134.8</ele>
        <time>2021-05-02T12:57:55Z</time>
      </trkpt>
      <trkpt lat="46.50481" lon="0.36831">
        <ele>135.4</ele>
        <time>2021-05-02T12:58:00Z</time>
      </trkpt>
      <trkpt lat="46.50496" lon="0.36832">
        <ele>135.4</ele>
        <time>2021-05-02T12:58:03Z</time>
      </trkpt>
      <trkpt lat="46.50507" lon="0.36829">
        <ele>135.4</ele>
        <time>2021-05-02T12:58:05Z</time>
      </trkpt>
      <trkpt lat="46.50517" lon="0.36826">
        <ele>135.4</ele>
        <time>2021-05-02T12:58:07Z</time>
      </trkpt>
      <trkpt lat="46.50526" lon="0.36828">
        <ele>135.4</ele>
        <time>2021-05-02T12:58:09Z</time>
      </trkpt>
      <trkpt lat="46.50538" lon="0.36829">
        <ele>135.2</ele>
        <time>2021-05-02T12:58:13Z</time>
      </trkpt>
      <trkpt lat="46.50551" lon="0.36834">
        <ele>135</ele>
        <time>2021-05-02T12:58:19Z</time>
      </trkpt>
      <trkpt lat="46.50554" lon="0.36837">
        <ele>135.2</ele>
        <time>2021-05-02T12:58:20Z</time>
      </trkpt>
      <trkpt lat="46.50562" lon="0.36846">
        <ele>135.2</ele>
        <time>2021-05-02T12:58:23Z</time>
      </trkpt>
      <trkpt lat="46.50575" lon="0.3685">
        <ele>135.6</ele>
        <time>2021-05-02T12:58:27Z</time>
      </trkpt>
      <trkpt lat="46.50578" lon="0.36853">
        <ele>135.8</ele>
        <time>2021-05-02T12:58:28Z</time>
      </trkpt>
      <trkpt lat="46.50585" lon="0.36861">
        <ele>136</ele>
        <time>2021-05-02T12:58:31Z</time>
      </trkpt>
      <trkpt lat="46.5059" lon="0.36865">
        <ele>136</ele>
        <time>2021-05-02T12:58:33Z</time>
      </trkpt>
      <trkpt lat="46.50591" lon="0.36869">
        <ele>136</ele>
        <time>2021-05-02T12:58:34Z</time>
      </trkpt>
      <trkpt lat="46.50595" lon="0.36878">
        <ele>136</ele>
        <time>2021-05-02T12:58:36Z</time>
      </trkpt>
      <trkpt lat="46.50597" lon="0.36899">
        <ele>136.4</ele>
        <time>2021-05-02T12:58:40Z</time>
      </trkpt>
      <trkpt lat="46.50598" lon="0.36904">
        <ele>136.2</ele>
        <time>2021-05-02T12:58:41Z</time>
      </trkpt>
      <trkpt lat="46.50596" lon="0.36931">
        <ele>136.2</ele>
        <time>2021-05-02T12:58:46Z</time>
      </trkpt>
      <trkpt lat="46.50591" lon="0.3696">
        <ele>136</ele>
        <time>2021-05-02T12:58:52Z</time>
      </trkpt>
      <trkpt lat="46.50588" lon="0.36963">
        <ele>135.8</ele>
        <time>2021-05-02T12:58:54Z</time>
      </trkpt>
      <trkpt lat="46.50584" lon="0.36963">
        <ele>135.6</ele>
        <time>2021-05-02T12:58:56Z</time>
      </trkpt>
      <trkpt lat="46.50576" lon="0.36962">
        <ele>135.4</ele>
        <time>2021-05-02T12:59:01Z</time>
      </trkpt>
      <trkpt lat="46.50573" lon="0.36966">
        <ele>135.4</ele>
        <time>2021-05-02T12:59:03Z</time>
      </trkpt>
      <trkpt lat="46.50571" lon="0.36972">
        <ele>135.6</ele>
        <time>2021-05-02T12:59:07Z</time>
      </trkpt>
      <trkpt lat="46.50572" lon="0.36979">
        <ele>135.8</ele>
        <time>2021-05-02T12:59:09Z</time>
      </trkpt>
      <trkpt lat="46.50573" lon="0.36988">
        <ele>135.8</ele>
        <time>2021-05-02T12:59:11Z</time>
      </trkpt>
      <trkpt lat="46.50576" lon="0.37001">
        <ele>136</ele>
        <time>2021-05-02T12:59:14Z</time>
      </trkpt>
      <trkpt lat="46.50578" lon="0.37005">
        <ele>135.8</ele>
        <time>2021-05-02T12:59:15Z</time>
      </trkpt>
      <trkpt lat="46.50579" lon="0.37011">
        <ele>135.6</ele>
        <time>2021-05-02T12:59:16Z</time>
      </trkpt>
      <trkpt lat="46.50583" lon="0.37021">
        <ele>135.6</ele>
        <time>2021-05-02T12:59:18Z</time>
      </trkpt>
      <trkpt lat="46.50586" lon="0.37032">
        <ele>135</ele>
        <time>2021-05-02T12:59:20Z</time>
      </trkpt>
      <trkpt lat="46.50587" lon="0.37038">
        <ele>135</ele>
        <time>2021-05-02T12:59:21Z</time>
      </trkpt>
      <trkpt lat="46.50591" lon="0.37051">
        <ele>134.8</ele>
        <time>2021-05-02T12:59:23Z</time>
      </trkpt>
      <trkpt lat="46.50593" lon="0.37057">
        <ele>134.6</ele>
        <time>2021-05-02T12:59:24Z</time>
      </trkpt>
      <trkpt lat="46.50594" lon="0.37062">
        <ele>134.6</ele>
        <time>2021-05-02T12:59:25Z</time>
      </trkpt>
      <trkpt lat="46.50593" lon="0.37072">
        <ele>133.8</ele>
        <time>2021-05-02T12:59:27Z</time>
      </trkpt>
      <trkpt lat="46.50592" lon="0.37077">
        <ele>133.6</ele>
        <time>2021-05-02T12:59:28Z</time>
      </trkpt>
      <trkpt lat="46.50592" lon="0.37087">
        <ele>132.8</ele>
        <time>2021-05-02T12:59:30Z</time>
      </trkpt>
      <trkpt lat="46.50591" lon="0.37097">
        <ele>131.8</ele>
        <time>2021-05-02T12:59:32Z</time>
      </trkpt>
      <trkpt lat="46.50587" lon="0.37104">
        <ele>131</ele>
        <time>2021-05-02T12:59:34Z</time>
      </trkpt>
      <trkpt lat="46.50584" lon="0.37107">
        <ele>130.4</ele>
        <time>2021-05-02T12:59:35Z</time>
      </trkpt>
      <trkpt lat="46.5058" lon="0.3711">
        <ele>129.8</ele>
        <time>2021-05-02T12:59:36Z</time>
      </trkpt>
      <trkpt lat="46.50578" lon="0.37114">
        <ele>129.2</ele>
        <time>2021-05-02T12:59:37Z</time>
      </trkpt>
      <trkpt lat="46.50578" lon="0.37123">
        <ele>128.4</ele>
        <time>2021-05-02T12:59:39Z</time>
      </trkpt>
      <trkpt lat="46.50579" lon="0.37128">
        <ele>128.2</ele>
        <time>2021-05-02T12:59:40Z</time>
      </trkpt>
      <trkpt lat="46.50579" lon="0.37134">
        <ele>127.6</ele>
        <time>2021-05-02T12:59:41Z</time>
      </trkpt>
      <trkpt lat="46.50577" lon="0.37149">
        <ele>127.4</ele>
        <time>2021-05-02T12:59:43Z</time>
      </trkpt>
      <trkpt lat="46.50565" lon="0.37188">
        <ele>127.8</ele>
        <time>2021-05-02T12:59:48Z</time>
      </trkpt>
      <trkpt lat="46.50562" lon="0.3721">
        <ele>128.8</ele>
        <time>2021-05-02T12:59:51Z</time>
      </trkpt>
      <trkpt lat="46.5056" lon="0.37224">
        <ele>129</ele>
        <time>2021-05-02T12:59:53Z</time>
      </trkpt>
      <trkpt lat="46.50559" lon="0.37231">
        <ele>129</ele>
        <time>2021-05-02T12:59:54Z</time>
      </trkpt>
      <trkpt lat="46.50559" lon="0.37237">
        <ele>129</ele>
        <time>2021-05-02T12:59:55Z</time>
      </trkpt>
      <trkpt lat="46.5056" lon="0.37243">
        <ele>129.4</ele>
        <time>2021-05-02T12:59:56Z</time>
      </trkpt>
      <trkpt lat="46.50561" lon="0.37255">
        <ele>129.8</ele>
        <time>2021-05-02T12:59:58Z</time>
      </trkpt>
      <trkpt lat="46.50559" lon="0.37266">
        <ele>130</ele>
        <time>2021-05-02T13:00:00Z</time>
      </trkpt>
      <trkpt lat="46.50558" lon="0.37271">
        <ele>130</ele>
        <time>2021-05-02T13:00:01Z</time>
      </trkpt>
      <trkpt lat="46.50557" lon="0.37281">
        <ele>130</ele>
        <time>2021-05-02T13:00:03Z</time>
      </trkpt>
      <trkpt lat="46.50559" lon="0.37294">
        <ele>130.4</ele>
        <time>2021-05-02T13:00:07Z</time>
      </trkpt>
      <trkpt lat="46.50558" lon="0.37298">
        <ele>130.4</ele>
        <time>2021-05-02T13:00:08Z</time>
      </trkpt>
      <trkpt lat="46.50558" lon="0.37302">
        <ele>130.6</ele>
        <time>2021-05-02T13:00:09Z</time>
      </trkpt>
      <trkpt lat="46.50557" lon="0.37331">
        <ele>131.2</ele>
        <time>2021-05-02T13:00:14Z</time>
      </trkpt>
      <trkpt lat="46.50557" lon="0.37338">
        <ele>131.2</ele>
        <time>2021-05-02T13:00:15Z</time>
      </trkpt>
      <trkpt lat="46.50557" lon="0.3735">
        <ele>131.2</ele>
        <time>2021-05-02T13:00:17Z</time>
      </trkpt>
      <trkpt lat="46.50561" lon="0.37361">
        <ele>131.4</ele>
        <time>2021-05-02T13:00:19Z</time>
      </trkpt>
      <trkpt lat="46.50565" lon="0.3737">
        <ele>131.2</ele>
        <time>2021-05-02T13:00:21Z</time>
      </trkpt>
      <trkpt lat="46.5057" lon="0.37378">
        <ele>130.8</ele>
        <time>2021-05-02T13:00:23Z</time>
      </trkpt>
      <trkpt lat="46.50575" lon="0.37379">
        <ele>130.2</ele>
        <time>2021-05-02T13:00:25Z</time>
      </trkpt>
      <trkpt lat="46.50583" lon="0.37372">
        <ele>129.6</ele>
        <time>2021-05-02T13:00:28Z</time>
      </trkpt>
      <trkpt lat="46.50586" lon="0.37368">
        <ele>129.6</ele>
        <time>2021-05-02T13:00:29Z</time>
      </trkpt>
      <trkpt lat="46.50589" lon="0.37363">
        <ele>129.2</ele>
        <time>2021-05-02T13:00:30Z</time>
      </trkpt>
      <trkpt lat="46.50596" lon="0.37352">
        <ele>128</ele>
        <time>2021-05-02T13:00:32Z</time>
      </trkpt>
      <trkpt lat="46.50602" lon="0.3734">
        <ele>127.6</ele>
        <time>2021-05-02T13:00:34Z</time>
      </trkpt>
      <trkpt lat="46.50608" lon="0.37329">
        <ele>127</ele>
        <time>2021-05-02T13:00:36Z</time>
      </trkpt>
      <trkpt lat="46.50614" lon="0.37325">
        <ele>126.4</ele>
        <time>2021-05-02T13:00:38Z</time>
      </trkpt>
      <trkpt lat="46.50621" lon="0.37329">
        <ele>125.6</ele>
        <time>2021-05-02T13:00:40Z</time>
      </trkpt>
      <trkpt lat="46.5063" lon="0.37333">
        <ele>124.4</ele>
        <time>2021-05-02T13:00:42Z</time>
      </trkpt>
      <trkpt lat="46.50635" lon="0.37336">
        <ele>124</ele>
        <time>2021-05-02T13:00:43Z</time>
      </trkpt>
      <trkpt lat="46.50651" lon="0.37348">
        <ele>123.2</ele>
        <time>2021-05-02T13:00:46Z</time>
      </trkpt>
      <trkpt lat="46.50656" lon="0.37352">
        <ele>123.2</ele>
        <time>2021-05-02T13:00:47Z</time>
      </trkpt>
      <trkpt lat="46.50668" lon="0.3736">
        <ele>123.2</ele>
        <time>2021-05-02T13:00:49Z</time>
      </trkpt>
      <trkpt lat="46.50686" lon="0.37371">
        <ele>122.6</ele>
        <time>2021-05-02T13:00:52Z</time>
      </trkpt>
      <trkpt lat="46.50723" lon="0.37393">
        <ele>123.8</ele>
        <time>2021-05-02T13:00:59Z</time>
      </trkpt>
      <trkpt lat="46.50732" lon="0.37398">
        <ele>124.6</ele>
        <time>2021-05-02T13:01:01Z</time>
      </trkpt>
      <trkpt lat="46.50739" lon="0.37402">
        <ele>124.8</ele>
        <time>2021-05-02T13:01:03Z</time>
      </trkpt>
      <trkpt lat="46.50748" lon="0.37407">
        <ele>125.6</ele>
        <time>2021-05-02T13:01:07Z</time>
      </trkpt>
      <trkpt lat="46.50751" lon="0.37408">
        <ele>125.8</ele>
        <time>2021-05-02T13:01:08Z</time>
      </trkpt>
      <trkpt lat="46.50761" lon="0.37415">
        <ele>126.8</ele>
        <time>2021-05-02T13:01:12Z</time>
      </trkpt>
      <trkpt lat="46.50768" lon="0.37423">
        <ele>127.2</ele>
        <time>2021-05-02T13:01:15Z</time>
      </trkpt>
      <trkpt lat="46.50781" lon="0.37433">
        <ele>127.6</ele>
        <time>2021-05-02T13:01:20Z</time>
      </trkpt>
      <trkpt lat="46.50784" lon="0.37435">
        <ele>127.8</ele>
        <time>2021-05-02T13:01:21Z</time>
      </trkpt>
      <trkpt lat="46.50795" lon="0.37442">
        <ele>127.8</ele>
        <time>2021-05-02T13:01:26Z</time>
      </trkpt>
      <trkpt lat="46.50804" lon="0.37447">
        <ele>127.8</ele>
        <time>2021-05-02T13:01:31Z</time>
      </trkpt>
      <trkpt lat="46.5081" lon="0.37445">
        <ele>128.2</ele>
        <time>2021-05-02T13:01:33Z</time>
      </trkpt>
      <trkpt lat="46.50813" lon="0.37444">
        <ele>128.8</ele>
        <time>2021-05-02T13:01:34Z</time>
      </trkpt>
      <trkpt lat="46.50821" lon="0.37438">
        <ele>130</ele>
        <time>2021-05-02T13:01:37Z</time>
      </trkpt>
      <trkpt lat="46.50826" lon="0.37434">
        <ele>130.4</ele>
        <time>2021-05-02T13:01:39Z</time>
      </trkpt>
      <trkpt lat="46.50832" lon="0.37434">
        <ele>130.6</ele>
        <time>2021-05-02T13:01:41Z</time>
      </trkpt>
      <trkpt lat="46.50834" lon="0.37437">
        <ele>130.6</ele>
        <time>2021-05-02T13:01:42Z</time>
      </trkpt>
      <trkpt lat="46.50841" lon="0.37454">
        <ele>130.8</ele>
        <time>2021-05-02T13:01:46Z</time>
      </trkpt>
      <trkpt lat="46.50846" lon="0.37462">
        <ele>131.2</ele>
        <time>2021-05-02T13:01:48Z</time>
      </trkpt>
      <trkpt lat="46.50847" lon="0.37466">
        <ele>131</ele>
        <time>2021-05-02T13:01:49Z</time>
      </trkpt>
      <trkpt lat="46.50858" lon="0.37487">
        <ele>130.8</ele>
        <time>2021-05-02T13:01:53Z</time>
      </trkpt>
      <trkpt lat="46.50876" lon="0.37519">
        <ele>130.2</ele>
        <time>2021-05-02T13:01:59Z</time>
      </trkpt>
      <trkpt lat="46.50879" lon="0.37524">
        <ele>130.2</ele>
        <time>2021-05-02T13:02:00Z</time>
      </trkpt>
      <trkpt lat="46.50882" lon="0.37528">
        <ele>130</ele>
        <time>2021-05-02T13:02:01Z</time>
      </trkpt>
      <trkpt lat="46.50888" lon="0.37533">
        <ele>129.8</ele>
        <time>2021-05-02T13:02:03Z</time>
      </trkpt>
      <trkpt lat="46.5089" lon="0.37535">
        <ele>129.8</ele>
        <time>2021-05-02T13:02:04Z</time>
      </trkpt>
      <trkpt lat="46.50899" lon="0.37537">
        <ele>130</ele>
        <time>2021-05-02T13:02:09Z</time>
      </trkpt>
      <trkpt lat="46.50902" lon="0.37537">
        <ele>130.2</ele>
        <time>2021-05-02T13:02:11Z</time>
      </trkpt>
      <trkpt lat="46.50907" lon="0.37538">
        <ele>130.4</ele>
        <time>2021-05-02T13:02:14Z</time>
      </trkpt>
      <trkpt lat="46.50908" lon="0.3754">
        <ele>130.4</ele>
        <time>2021-05-02T13:02:15Z</time>
      </trkpt>
      <trkpt lat="46.50907" lon="0.37544">
        <ele>130.4</ele>
        <time>2021-05-02T13:02:19Z</time>
      </trkpt>
      <trkpt lat="46.50907" lon="0.37545">
        <ele>130.4</ele>
        <time>2021-05-02T13:02:21Z</time>
      </trkpt>
      <trkpt lat="46.50907" lon="0.37547">
        <ele>130</ele>
        <time>2021-05-02T13:02:33Z</time>
      </trkpt>
      <trkpt lat="46.50908" lon="0.37549">
        <ele>130.2</ele>
        <time>2021-05-02T13:02:51Z</time>
      </trkpt>
      <trkpt lat="46.50908" lon="0.37549">
        <ele>130.2</ele>
        <time>2021-05-02T13:03:09Z</time>
      </trkpt>
      <trkpt lat="46.50907" lon="0.37549">
        <ele>130</ele>
        <time>2021-05-02T13:03:24Z</time>
      </trkpt>
      <trkpt lat="46.50908" lon="0.37551">
        <ele>130</ele>
        <time>2021-05-02T13:03:44Z</time>
      </trkpt>
      <trkpt lat="46.50909" lon="0.37551">
        <ele>130</ele>
        <time>2021-05-02T13:03:59Z</time>
      </trkpt>
      <trkpt lat="46.50911" lon="0.37554">
        <ele>130</ele>
        <time>2021-05-02T13:04:13Z</time>
      </trkpt>
      <trkpt lat="46.50911" lon="0.37552">
        <ele>130</ele>
        <time>2021-05-02T13:04:14Z</time>
      </trkpt>
      <trkpt lat="46.50912" lon="0.3755">
        <ele>130</ele>
        <time>2021-05-02T13:04:16Z</time>
      </trkpt>
      <trkpt lat="46.50917" lon="0.37544">
        <ele>130</ele>
        <time>2021-05-02T13:04:19Z</time>
      </trkpt>
      <trkpt lat="46.50926" lon="0.37538">
        <ele>130.4</ele>
        <time>2021-05-02T13:04:24Z</time>
      </trkpt>
      <trkpt lat="46.50933" lon="0.37545">
        <ele>130.8</ele>
        <time>2021-05-02T13:04:28Z</time>
      </trkpt>
      <trkpt lat="46.50934" lon="0.37548">
        <ele>131</ele>
        <time>2021-05-02T13:04:29Z</time>
      </trkpt>
      <trkpt lat="46.50936" lon="0.3755">
        <ele>131</ele>
        <time>2021-05-02T13:04:30Z</time>
      </trkpt>
      <trkpt lat="46.50942" lon="0.37555">
        <ele>131</ele>
        <time>2021-05-02T13:04:32Z</time>
      </trkpt>
      <trkpt lat="46.5095" lon="0.37559">
        <ele>131.2</ele>
        <time>2021-05-02T13:04:34Z</time>
      </trkpt>
      <trkpt lat="46.50954" lon="0.37561">
        <ele>131.4</ele>
        <time>2021-05-02T13:04:35Z</time>
      </trkpt>
      <trkpt lat="46.50961" lon="0.37565">
        <ele>131.6</ele>
        <time>2021-05-02T13:04:37Z</time>
      </trkpt>
      <trkpt lat="46.50968" lon="0.37568">
        <ele>131.8</ele>
        <time>2021-05-02T13:04:39Z</time>
      </trkpt>
      <trkpt lat="46.50989" lon="0.37579">
        <ele>132</ele>
        <time>2021-05-02T13:04:45Z</time>
      </trkpt>
      <trkpt lat="46.51" lon="0.37581">
        <ele>132</ele>
        <time>2021-05-02T13:04:48Z</time>
      </trkpt>
      <trkpt lat="46.51006" lon="0.37585">
        <ele>132</ele>
        <time>2021-05-02T13:04:50Z</time>
      </trkpt>
      <trkpt lat="46.51012" lon="0.37593">
        <ele>132.2</ele>
        <time>2021-05-02T13:04:52Z</time>
      </trkpt>
      <trkpt lat="46.5102" lon="0.37601">
        <ele>132.2</ele>
        <time>2021-05-02T13:04:54Z</time>
      </trkpt>
      <trkpt lat="46.51024" lon="0.37604">
        <ele>132.2</ele>
        <time>2021-05-02T13:04:55Z</time>
      </trkpt>
      <trkpt lat="46.51028" lon="0.37606">
        <ele>132.2</ele>
        <time>2021-05-02T13:04:56Z</time>
      </trkpt>
      <trkpt lat="46.51045" lon="0.37616">
        <ele>131.6</ele>
        <time>2021-05-02T13:05:01Z</time>
      </trkpt>
      <trkpt lat="46.51069" lon="0.37631">
        <ele>131.4</ele>
        <time>2021-05-02T13:05:09Z</time>
      </trkpt>
      <trkpt lat="46.51093" lon="0.37648">
        <ele>131.4</ele>
        <time>2021-05-02T13:05:16Z</time>
      </trkpt>
      <trkpt lat="46.5111" lon="0.37659">
        <ele>130.8</ele>
        <time>2021-05-02T13:05:22Z</time>
      </trkpt>
      <trkpt lat="46.51127" lon="0.37671">
        <ele>130.6</ele>
        <time>2021-05-02T13:05:27Z</time>
      </trkpt>
      <trkpt lat="46.51131" lon="0.37674">
        <ele>130.8</ele>
        <time>2021-05-02T13:05:28Z</time>
      </trkpt>
      <trkpt lat="46.51144" lon="0.3768">
        <ele>130.8</ele>
        <time>2021-05-02T13:05:31Z</time>
      </trkpt>
      <trkpt lat="46.51147" lon="0.37683">
        <ele>130.8</ele>
        <time>2021-05-02T13:05:32Z</time>
      </trkpt>
      <trkpt lat="46.51156" lon="0.37687">
        <ele>130.6</ele>
        <time>2021-05-02T13:05:35Z</time>
      </trkpt>
      <trkpt lat="46.51172" lon="0.37696">
        <ele>130.4</ele>
        <time>2021-05-02T13:05:39Z</time>
      </trkpt>
      <trkpt lat="46.51191" lon="0.37706">
        <ele>130</ele>
        <time>2021-05-02T13:05:44Z</time>
      </trkpt>
      <trkpt lat="46.51195" lon="0.37709">
        <ele>129.8</ele>
        <time>2021-05-02T13:05:45Z</time>
      </trkpt>
      <trkpt lat="46.51217" lon="0.37725">
        <ele>129.4</ele>
        <time>2021-05-02T13:05:51Z</time>
      </trkpt>
      <trkpt lat="46.51226" lon="0.37731">
        <ele>129.2</ele>
        <time>2021-05-02T13:05:55Z</time>
      </trkpt>
      <trkpt lat="46.51229" lon="0.37732">
        <ele>129</ele>
        <time>2021-05-02T13:05:56Z</time>
      </trkpt>
      <trkpt lat="46.51244" lon="0.37744">
        <ele>128.4</ele>
        <time>2021-05-02T13:06:03Z</time>
      </trkpt>
      <trkpt lat="46.51251" lon="0.37748">
        <ele>128.2</ele>
        <time>2021-05-02T13:06:06Z</time>
      </trkpt>
      <trkpt lat="46.51259" lon="0.37754">
        <ele>127.6</ele>
        <time>2021-05-02T13:06:09Z</time>
      </trkpt>
      <trkpt lat="46.51265" lon="0.37757">
        <ele>127.6</ele>
        <time>2021-05-02T13:06:11Z</time>
      </trkpt>
      <trkpt lat="46.51273" lon="0.37764">
        <ele>127.2</ele>
        <time>2021-05-02T13:06:14Z</time>
      </trkpt>
      <trkpt lat="46.51276" lon="0.37766">
        <ele>127.2</ele>
        <time>2021-05-02T13:06:15Z</time>
      </trkpt>
      <trkpt lat="46.5128" lon="0.37769">
        <ele>127</ele>
        <time>2021-05-02T13:06:16Z</time>
      </trkpt>
      <trkpt lat="46.51291" lon="0.37775">
        <ele>126.6</ele>
        <time>2021-05-02T13:06:19Z</time>
      </trkpt>
      <trkpt lat="46.51297" lon="0.37779">
        <ele>126.2</ele>
        <time>2021-05-02T13:06:21Z</time>
      </trkpt>
      <trkpt lat="46.5131" lon="0.37788">
        <ele>125.2</ele>
        <time>2021-05-02T13:06:25Z</time>
      </trkpt>
      <trkpt lat="46.51313" lon="0.3779">
        <ele>125</ele>
        <time>2021-05-02T13:06:26Z</time>
      </trkpt>
      <trkpt lat="46.51328" lon="0.37803">
        <ele>124.2</ele>
        <time>2021-05-02T13:06:31Z</time>
      </trkpt>
      <trkpt lat="46.51334" lon="0.37807">
        <ele>123.8</ele>
        <time>2021-05-02T13:06:33Z</time>
      </trkpt>
      <trkpt lat="46.51349" lon="0.37817">
        <ele>123.2</ele>
        <time>2021-05-02T13:06:37Z</time>
      </trkpt>
      <trkpt lat="46.51356" lon="0.3782">
        <ele>122.8</ele>
        <time>2021-05-02T13:06:40Z</time>
      </trkpt>
      <trkpt lat="46.5136" lon="0.37823">
        <ele>122.4</ele>
        <time>2021-05-02T13:06:42Z</time>
      </trkpt>
      <trkpt lat="46.51381" lon="0.3784">
        <ele>122.2</ele>
        <time>2021-05-02T13:06:48Z</time>
      </trkpt>
      <trkpt lat="46.51386" lon="0.37846">
        <ele>121.8</ele>
        <time>2021-05-02T13:06:50Z</time>
      </trkpt>
      <trkpt lat="46.51393" lon="0.37852">
        <ele>121.6</ele>
        <time>2021-05-02T13:06:52Z</time>
      </trkpt>
      <trkpt lat="46.51397" lon="0.37854">
        <ele>121.4</ele>
        <time>2021-05-02T13:06:53Z</time>
      </trkpt>
      <trkpt lat="46.51411" lon="0.37862">
        <ele>120.6</ele>
        <time>2021-05-02T13:06:57Z</time>
      </trkpt>
      <trkpt lat="46.51415" lon="0.37864">
        <ele>120.4</ele>
        <time>2021-05-02T13:06:58Z</time>
      </trkpt>
      <trkpt lat="46.51424" lon="0.37869">
        <ele>119.6</ele>
        <time>2021-05-02T13:07:01Z</time>
      </trkpt>
      <trkpt lat="46.51433" lon="0.37874">
        <ele>118.8</ele>
        <time>2021-05-02T13:07:04Z</time>
      </trkpt>
      <trkpt lat="46.51436" lon="0.37876">
        <ele>118.6</ele>
        <time>2021-05-02T13:07:05Z</time>
      </trkpt>
      <trkpt lat="46.51447" lon="0.37887">
        <ele>117.6</ele>
        <time>2021-05-02T13:07:09Z</time>
      </trkpt>
      <trkpt lat="46.51451" lon="0.37889">
        <ele>117.4</ele>
        <time>2021-05-02T13:07:10Z</time>
      </trkpt>
      <trkpt lat="46.51457" lon="0.37894">
        <ele>117</ele>
        <time>2021-05-02T13:07:12Z</time>
      </trkpt>
      <trkpt lat="46.51466" lon="0.379">
        <ele>116.6</ele>
        <time>2021-05-02T13:07:14Z</time>
      </trkpt>
      <trkpt lat="46.5147" lon="0.37902">
        <ele>116.2</ele>
        <time>2021-05-02T13:07:15Z</time>
      </trkpt>
      <trkpt lat="46.51482" lon="0.37911">
        <ele>115.6</ele>
        <time>2021-05-02T13:07:18Z</time>
      </trkpt>
      <trkpt lat="46.51484" lon="0.37914">
        <ele>115.2</ele>
        <time>2021-05-02T13:07:19Z</time>
      </trkpt>
      <trkpt lat="46.51488" lon="0.37917">
        <ele>115</ele>
        <time>2021-05-02T13:07:20Z</time>
      </trkpt>
      <trkpt lat="46.51495" lon="0.37924">
        <ele>114.6</ele>
        <time>2021-05-02T13:07:22Z</time>
      </trkpt>
      <trkpt lat="46.51498" lon="0.37927">
        <ele>114.4</ele>
        <time>2021-05-02T13:07:23Z</time>
      </trkpt>
      <trkpt lat="46.51502" lon="0.37935">
        <ele>114</ele>
        <time>2021-05-02T13:07:27Z</time>
      </trkpt>
      <trkpt lat="46.51504" lon="0.37938">
        <ele>113.6</ele>
        <time>2021-05-02T13:07:29Z</time>
      </trkpt>
      <trkpt lat="46.51506" lon="0.37939">
        <ele>113.6</ele>
        <time>2021-05-02T13:07:30Z</time>
      </trkpt>
      <trkpt lat="46.51508" lon="0.3794">
        <ele>113.6</ele>
        <time>2021-05-02T13:07:32Z</time>
      </trkpt>
      <trkpt lat="46.51513" lon="0.3794">
        <ele>113.8</ele>
        <time>2021-05-02T13:07:35Z</time>
      </trkpt>
      <trkpt lat="46.51511" lon="0.37939">
        <ele>113.8</ele>
        <time>2021-05-02T13:07:36Z</time>
      </trkpt>
      <trkpt lat="46.51509" lon="0.37941">
        <ele>114</ele>
        <time>2021-05-02T13:07:38Z</time>
      </trkpt>
      <trkpt lat="46.51509" lon="0.37945">
        <ele>114.2</ele>
        <time>2021-05-02T13:07:40Z</time>
      </trkpt>
      <trkpt lat="46.51508" lon="0.3796">
        <ele>114</ele>
        <time>2021-05-02T13:07:44Z</time>
      </trkpt>
      <trkpt lat="46.51508" lon="0.37966">
        <ele>114</ele>
        <time>2021-05-02T13:07:45Z</time>
      </trkpt>
      <trkpt lat="46.51508" lon="0.37981">
        <ele>113.6</ele>
        <time>2021-05-02T13:07:47Z</time>
      </trkpt>
      <trkpt lat="46.51509" lon="0.37996">
        <ele>113.2</ele>
        <time>2021-05-02T13:07:49Z</time>
      </trkpt>
      <trkpt lat="46.51508" lon="0.38006">
        <ele>111.4</ele>
        <time>2021-05-02T13:07:51Z</time>
      </trkpt>
      <trkpt lat="46.51507" lon="0.38012">
        <ele>110</ele>
        <time>2021-05-02T13:07:53Z</time>
      </trkpt>
      <trkpt lat="46.51506" lon="0.38016">
        <ele>108.8</ele>
        <time>2021-05-02T13:07:55Z</time>
      </trkpt>
      <trkpt lat="46.51507" lon="0.38019">
        <ele>108.2</ele>
        <time>2021-05-02T13:07:59Z</time>
      </trkpt>
      <trkpt lat="46.51509" lon="0.38033">
        <ele>107.8</ele>
        <time>2021-05-02T13:08:05Z</time>
      </trkpt>
      <trkpt lat="46.51509" lon="0.38036">
        <ele>106.8</ele>
        <time>2021-05-02T13:08:06Z</time>
      </trkpt>
      <trkpt lat="46.51507" lon="0.38045">
        <ele>105.8</ele>
        <time>2021-05-02T13:08:08Z</time>
      </trkpt>
      <trkpt lat="46.51505" lon="0.38054">
        <ele>105.2</ele>
        <time>2021-05-02T13:08:09Z</time>
      </trkpt>
      <trkpt lat="46.51504" lon="0.38058">
        <ele>104</ele>
        <time>2021-05-02T13:08:11Z</time>
      </trkpt>
      <trkpt lat="46.51502" lon="0.38063">
        <ele>103.2</ele>
        <time>2021-05-02T13:08:12Z</time>
      </trkpt>
      <trkpt lat="46.51501" lon="0.38068">
        <ele>102.6</ele>
        <time>2021-05-02T13:08:13Z</time>
      </trkpt>
      <trkpt lat="46.51499" lon="0.38077">
        <ele>101</ele>
        <time>2021-05-02T13:08:15Z</time>
      </trkpt>
      <trkpt lat="46.51492" lon="0.38083">
        <ele>99.2</ele>
        <time>2021-05-02T13:08:17Z</time>
      </trkpt>
      <trkpt lat="46.51484" lon="0.38086">
        <ele>98</ele>
        <time>2021-05-02T13:08:19Z</time>
      </trkpt>
      <trkpt lat="46.51472" lon="0.38088">
        <ele>97.6</ele>
        <time>2021-05-02T13:08:22Z</time>
      </trkpt>
      <trkpt lat="46.51457" lon="0.38088">
        <ele>97.4</ele>
        <time>2021-05-02T13:08:25Z</time>
      </trkpt>
      <trkpt lat="46.51453" lon="0.38087">
        <ele>97.2</ele>
        <time>2021-05-02T13:08:26Z</time>
      </trkpt>
      <trkpt lat="46.51441" lon="0.38085">
        <ele>97</ele>
        <time>2021-05-02T13:08:29Z</time>
      </trkpt>
      <trkpt lat="46.51435" lon="0.38085">
        <ele>97</ele>
        <time>2021-05-02T13:08:31Z</time>
      </trkpt>
      <trkpt lat="46.5142" lon="0.38088">
        <ele>96.4</ele>
        <time>2021-05-02T13:08:38Z</time>
      </trkpt>
      <trkpt lat="46.51416" lon="0.3809">
        <ele>96.4</ele>
        <time>2021-05-02T13:08:41Z</time>
      </trkpt>
      <trkpt lat="46.51412" lon="0.38091">
        <ele>96.2</ele>
        <time>2021-05-02T13:08:44Z</time>
      </trkpt>
      <trkpt lat="46.51408" lon="0.38095">
        <ele>96.2</ele>
        <time>2021-05-02T13:08:48Z</time>
      </trkpt>
      <trkpt lat="46.51409" lon="0.38095">
        <ele>96.2</ele>
        <time>2021-05-02T13:08:50Z</time>
      </trkpt>
      <trkpt lat="46.51411" lon="0.38095">
        <ele>96</ele>
        <time>2021-05-02T13:08:52Z</time>
      </trkpt>
      <trkpt lat="46.51413" lon="0.38094">
        <ele>96.2</ele>
        <time>2021-05-02T13:08:55Z</time>
      </trkpt>
      <trkpt lat="46.51418" lon="0.38093">
        <ele>96.4</ele>
        <time>2021-05-02T13:09:00Z</time>
      </trkpt>
      <trkpt lat="46.51421" lon="0.38094">
        <ele>96.4</ele>
        <time>2021-05-02T13:09:02Z</time>
      </trkpt>
      <trkpt lat="46.51424" lon="0.38089">
        <ele>96.8</ele>
        <time>2021-05-02T13:09:06Z</time>
      </trkpt>
      <trkpt lat="46.51425" lon="0.38087">
        <ele>97</ele>
        <time>2021-05-02T13:09:07Z</time>
      </trkpt>
      <trkpt lat="46.51426" lon="0.38081">
        <ele>98</ele>
        <time>2021-05-02T13:09:10Z</time>
      </trkpt>
      <trkpt lat="46.51423" lon="0.38076">
        <ele>99.2</ele>
        <time>2021-05-02T13:09:13Z</time>
      </trkpt>
      <trkpt lat="46.51421" lon="0.38074">
        <ele>99.2</ele>
        <time>2021-05-02T13:09:14Z</time>
      </trkpt>
      <trkpt lat="46.5141" lon="0.38068">
        <ele>100</ele>
        <time>2021-05-02T13:09:20Z</time>
      </trkpt>
      <trkpt lat="46.51409" lon="0.38067">
        <ele>100.2</ele>
        <time>2021-05-02T13:09:21Z</time>
      </trkpt>
      <trkpt lat="46.51406" lon="0.38064">
        <ele>101.2</ele>
        <time>2021-05-02T13:09:24Z</time>
      </trkpt>
      <trkpt lat="46.51406" lon="0.38063">
        <ele>101.4</ele>
        <time>2021-05-02T13:09:25Z</time>
      </trkpt>
      <trkpt lat="46.51402" lon="0.38062">
        <ele>102.2</ele>
        <time>2021-05-02T13:09:33Z</time>
      </trkpt>
      <trkpt lat="46.51402" lon="0.3806">
        <ele>102.4</ele>
        <time>2021-05-02T13:09:34Z</time>
      </trkpt>
      <trkpt lat="46.514" lon="0.38057">
        <ele>103.2</ele>
        <time>2021-05-02T13:09:37Z</time>
      </trkpt>
      <trkpt lat="46.51396" lon="0.38055">
        <ele>104.4</ele>
        <time>2021-05-02T13:09:42Z</time>
      </trkpt>
      <trkpt lat="46.51396" lon="0.38054">
        <ele>104.6</ele>
        <time>2021-05-02T13:09:43Z</time>
      </trkpt>
      <trkpt lat="46.51392" lon="0.38054">
        <ele>105.4</ele>
        <time>2021-05-02T13:09:52Z</time>
      </trkpt>
      <trkpt lat="46.51389" lon="0.38054">
        <ele>105.6</ele>
        <time>2021-05-02T13:09:54Z</time>
      </trkpt>
      <trkpt lat="46.51378" lon="0.38053">
        <ele>106</ele>
        <time>2021-05-02T13:09:59Z</time>
      </trkpt>
      <trkpt lat="46.51362" lon="0.38053">
        <ele>106.2</ele>
        <time>2021-05-02T13:10:04Z</time>
      </trkpt>
      <trkpt lat="46.51355" lon="0.38053">
        <ele>106.2</ele>
        <time>2021-05-02T13:10:06Z</time>
      </trkpt>
      <trkpt lat="46.51344" lon="0.38052">
        <ele>105.8</ele>
        <time>2021-05-02T13:10:09Z</time>
      </trkpt>
      <trkpt lat="46.5134" lon="0.38052">
        <ele>105.6</ele>
        <time>2021-05-02T13:10:10Z</time>
      </trkpt>
      <trkpt lat="46.51336" lon="0.38051">
        <ele>105.6</ele>
        <time>2021-05-02T13:10:11Z</time>
      </trkpt>
      <trkpt lat="46.51323" lon="0.38048">
        <ele>105.4</ele>
        <time>2021-05-02T13:10:15Z</time>
      </trkpt>
      <trkpt lat="46.5132" lon="0.38047">
        <ele>105.4</ele>
        <time>2021-05-02T13:10:16Z</time>
      </trkpt>
      <trkpt lat="46.51309" lon="0.38037">
        <ele>105.8</ele>
        <time>2021-05-02T13:10:22Z</time>
      </trkpt>
      <trkpt lat="46.51295" lon="0.38028">
        <ele>106.6</ele>
        <time>2021-05-02T13:10:27Z</time>
      </trkpt>
      <trkpt lat="46.51292" lon="0.38026">
        <ele>106.6</ele>
        <time>2021-05-02T13:10:28Z</time>
      </trkpt>
      <trkpt lat="46.51271" lon="0.38011">
        <ele>107.4</ele>
        <time>2021-05-02T13:10:33Z</time>
      </trkpt>
      <trkpt lat="46.51251" lon="0.38001">
        <ele>106.8</ele>
        <time>2021-05-02T13:10:38Z</time>
      </trkpt>
      <trkpt lat="46.51247" lon="0.37999">
        <ele>106.8</ele>
        <time>2021-05-02T13:10:39Z</time>
      </trkpt>
      <trkpt lat="46.51241" lon="0.37996">
        <ele>106.6</ele>
        <time>2021-05-02T13:10:41Z</time>
      </trkpt>
      <trkpt lat="46.5123" lon="0.37989">
        <ele>106.4</ele>
        <time>2021-05-02T13:10:44Z</time>
      </trkpt>
      <trkpt lat="46.51227" lon="0.37987">
        <ele>106.4</ele>
        <time>2021-05-02T13:10:45Z</time>
      </trkpt>
      <trkpt lat="46.51221" lon="0.37983">
        <ele>106.4</ele>
        <time>2021-05-02T13:10:47Z</time>
      </trkpt>
      <trkpt lat="46.51212" lon="0.37979">
        <ele>106.6</ele>
        <time>2021-05-02T13:10:49Z</time>
      </trkpt>
      <trkpt lat="46.51184" lon="0.37967">
        <ele>106.8</ele>
        <time>2021-05-02T13:10:55Z</time>
      </trkpt>
      <trkpt lat="46.5115" lon="0.37959">
        <ele>105.6</ele>
        <time>2021-05-02T13:11:01Z</time>
      </trkpt>
      <trkpt lat="46.51146" lon="0.37958">
        <ele>105.4</ele>
        <time>2021-05-02T13:11:02Z</time>
      </trkpt>
      <trkpt lat="46.51139" lon="0.37956">
        <ele>105.2</ele>
        <time>2021-05-02T13:11:04Z</time>
      </trkpt>
      <trkpt lat="46.51138" lon="0.37954">
        <ele>105.4</ele>
        <time>2021-05-02T13:11:05Z</time>
      </trkpt>
      <trkpt lat="46.51135" lon="0.3795">
        <ele>105.6</ele>
        <time>2021-05-02T13:11:07Z</time>
      </trkpt>
      <trkpt lat="46.51135" lon="0.37946">
        <ele>106.2</ele>
        <time>2021-05-02T13:11:09Z</time>
      </trkpt>
      <trkpt lat="46.51132" lon="0.37942">
        <ele>106.6</ele>
        <time>2021-05-02T13:11:11Z</time>
      </trkpt>
      <trkpt lat="46.5113" lon="0.37937">
        <ele>108.2</ele>
        <time>2021-05-02T13:11:14Z</time>
      </trkpt>
      <trkpt lat="46.5113" lon="0.37935">
        <ele>109.2</ele>
        <time>2021-05-02T13:11:15Z</time>
      </trkpt>
      <trkpt lat="46.51129" lon="0.37934">
        <ele>110</ele>
        <time>2021-05-02T13:11:16Z</time>
      </trkpt>
      <trkpt lat="46.51129" lon="0.37933">
        <ele>110.4</ele>
        <time>2021-05-02T13:11:17Z</time>
      </trkpt>
      <trkpt lat="46.51129" lon="0.37929">
        <ele>111.4</ele>
        <time>2021-05-02T13:11:19Z</time>
      </trkpt>
      <trkpt lat="46.51129" lon="0.37927">
        <ele>111.6</ele>
        <time>2021-05-02T13:11:20Z</time>
      </trkpt>
      <trkpt lat="46.51129" lon="0.37923">
        <ele>112.8</ele>
        <time>2021-05-02T13:11:22Z</time>
      </trkpt>
      <trkpt lat="46.51129" lon="0.37919">
        <ele>113.8</ele>
        <time>2021-05-02T13:11:24Z</time>
      </trkpt>
      <trkpt lat="46.51129" lon="0.37911">
        <ele>115.2</ele>
        <time>2021-05-02T13:11:28Z</time>
      </trkpt>
      <trkpt lat="46.51129" lon="0.37909">
        <ele>115.6</ele>
        <time>2021-05-02T13:11:29Z</time>
      </trkpt>
      <trkpt lat="46.51132" lon="0.37901">
        <ele>116.4</ele>
        <time>2021-05-02T13:11:33Z</time>
      </trkpt>
      <trkpt lat="46.51134" lon="0.37895">
        <ele>117.6</ele>
        <time>2021-05-02T13:11:36Z</time>
      </trkpt>
      <trkpt lat="46.51135" lon="0.37889">
        <ele>118.8</ele>
        <time>2021-05-02T13:11:39Z</time>
      </trkpt>
      <trkpt lat="46.51136" lon="0.37887">
        <ele>119</ele>
        <time>2021-05-02T13:11:40Z</time>
      </trkpt>
      <trkpt lat="46.51137" lon="0.37879">
        <ele>119.8</ele>
        <time>2021-05-02T13:11:44Z</time>
      </trkpt>
      <trkpt lat="46.51138" lon="0.37872">
        <ele>120.8</ele>
        <time>2021-05-02T13:11:48Z</time>
      </trkpt>
      <trkpt lat="46.5114" lon="0.37864">
        <ele>122.2</ele>
        <time>2021-05-02T13:11:52Z</time>
      </trkpt>
      <trkpt lat="46.51142" lon="0.37854">
        <ele>123.2</ele>
        <time>2021-05-02T13:11:57Z</time>
      </trkpt>
      <trkpt lat="46.51145" lon="0.37842">
        <ele>124.2</ele>
        <time>2021-05-02T13:12:03Z</time>
      </trkpt>
      <trkpt lat="46.51146" lon="0.37838">
        <ele>124.6</ele>
        <time>2021-05-02T13:12:05Z</time>
      </trkpt>
      <trkpt lat="46.51148" lon="0.37831">
        <ele>125.2</ele>
        <time>2021-05-02T13:12:08Z</time>
      </trkpt>
      <trkpt lat="46.51152" lon="0.37822">
        <ele>125.6</ele>
        <time>2021-05-02T13:12:12Z</time>
      </trkpt>
      <trkpt lat="46.51157" lon="0.37817">
        <ele>126</ele>
        <time>2021-05-02T13:12:17Z</time>
      </trkpt>
      <trkpt lat="46.51159" lon="0.37817">
        <ele>126.2</ele>
        <time>2021-05-02T13:12:18Z</time>
      </trkpt>
      <trkpt lat="46.51172" lon="0.37818">
        <ele>126.2</ele>
        <time>2021-05-02T13:12:25Z</time>
      </trkpt>
      <trkpt lat="46.51184" lon="0.37821">
        <ele>126.2</ele>
        <time>2021-05-02T13:12:31Z</time>
      </trkpt>
      <trkpt lat="46.51187" lon="0.37821">
        <ele>126.4</ele>
        <time>2021-05-02T13:12:32Z</time>
      </trkpt>
      <trkpt lat="46.51197" lon="0.37823">
        <ele>126.4</ele>
        <time>2021-05-02T13:12:37Z</time>
      </trkpt>
      <trkpt lat="46.51214" lon="0.37835">
        <ele>126.2</ele>
        <time>2021-05-02T13:12:43Z</time>
      </trkpt>
      <trkpt lat="46.5122" lon="0.3784">
        <ele>126.2</ele>
        <time>2021-05-02T13:12:45Z</time>
      </trkpt>
      <trkpt lat="46.51232" lon="0.37845">
        <ele>126</ele>
        <time>2021-05-02T13:12:48Z</time>
      </trkpt>
      <trkpt lat="46.51236" lon="0.37848">
        <ele>125.8</ele>
        <time>2021-05-02T13:12:49Z</time>
      </trkpt>
      <trkpt lat="46.5124" lon="0.3785">
        <ele>125.2</ele>
        <time>2021-05-02T13:12:50Z</time>
      </trkpt>
      <trkpt lat="46.51251" lon="0.37856">
        <ele>124.6</ele>
        <time>2021-05-02T13:12:53Z</time>
      </trkpt>
      <trkpt lat="46.51254" lon="0.37858">
        <ele>124.6</ele>
        <time>2021-05-02T13:12:54Z</time>
      </trkpt>
      <trkpt lat="46.51259" lon="0.3786">
        <ele>124.6</ele>
        <time>2021-05-02T13:12:55Z</time>
      </trkpt>
      <trkpt lat="46.51269" lon="0.37864">
        <ele>124.4</ele>
        <time>2021-05-02T13:12:57Z</time>
      </trkpt>
      <trkpt lat="46.51273" lon="0.37866">
        <ele>124.4</ele>
        <time>2021-05-02T13:12:58Z</time>
      </trkpt>
      <trkpt lat="46.51277" lon="0.37868">
        <ele>124.2</ele>
        <time>2021-05-02T13:12:59Z</time>
      </trkpt>
      <trkpt lat="46.51286" lon="0.37872">
        <ele>123.2</ele>
        <time>2021-05-02T13:13:03Z</time>
      </trkpt>
      <trkpt lat="46.51289" lon="0.37874">
        <ele>123</ele>
        <time>2021-05-02T13:13:04Z</time>
      </trkpt>
      <trkpt lat="46.51292" lon="0.37876">
        <ele>122.8</ele>
        <time>2021-05-02T13:13:07Z</time>
      </trkpt>
      <trkpt lat="46.51302" lon="0.37881">
        <ele>122.6</ele>
        <time>2021-05-02T13:13:10Z</time>
      </trkpt>
      <trkpt lat="46.51304" lon="0.37881">
        <ele>122.4</ele>
        <time>2021-05-02T13:13:11Z</time>
      </trkpt>
      <trkpt lat="46.51305" lon="0.3788">
        <ele>122.4</ele>
        <time>2021-05-02T13:13:13Z</time>
      </trkpt>
      <trkpt lat="46.51304" lon="0.37882">
        <ele>122.4</ele>
        <time>2021-05-02T13:13:15Z</time>
      </trkpt>
      <trkpt lat="46.51304" lon="0.37884">
        <ele>122.4</ele>
        <time>2021-05-02T13:13:16Z</time>
      </trkpt>
      <trkpt lat="46.51302" lon="0.37893">
        <ele>122.4</ele>
        <time>2021-05-02T13:13:19Z</time>
      </trkpt>
      <trkpt lat="46.51301" lon="0.37898">
        <ele>122.4</ele>
        <time>2021-05-02T13:13:20Z</time>
      </trkpt>
      <trkpt lat="46.51296" lon="0.37916">
        <ele>122.2</ele>
        <time>2021-05-02T13:13:23Z</time>
      </trkpt>
      <trkpt lat="46.51295" lon="0.37925">
        <ele>121.8</ele>
        <time>2021-05-02T13:13:24Z</time>
      </trkpt>
      <trkpt lat="46.51293" lon="0.37933">
        <ele>120.6</ele>
        <time>2021-05-02T13:13:25Z</time>
      </trkpt>
      <trkpt lat="46.51289" lon="0.3795">
        <ele>119.6</ele>
        <time>2021-05-02T13:13:27Z</time>
      </trkpt>
      <trkpt lat="46.51285" lon="0.37964">
        <ele>118</ele>
        <time>2021-05-02T13:13:29Z</time>
      </trkpt>
      <trkpt lat="46.51284" lon="0.3797">
        <ele>117</ele>
        <time>2021-05-02T13:13:30Z</time>
      </trkpt>
      <trkpt lat="46.51283" lon="0.37976">
        <ele>115.4</ele>
        <time>2021-05-02T13:13:31Z</time>
      </trkpt>
      <trkpt lat="46.51281" lon="0.37982">
        <ele>114.2</ele>
        <time>2021-05-02T13:13:32Z</time>
      </trkpt>
      <trkpt lat="46.5128" lon="0.37988">
        <ele>112.4</ele>
        <time>2021-05-02T13:13:33Z</time>
      </trkpt>
      <trkpt lat="46.51278" lon="0.37993">
        <ele>111</ele>
        <time>2021-05-02T13:13:34Z</time>
      </trkpt>
      <trkpt lat="46.51277" lon="0.37999">
        <ele>109.4</ele>
        <time>2021-05-02T13:13:35Z</time>
      </trkpt>
      <trkpt lat="46.51276" lon="0.38003">
        <ele>108</ele>
        <time>2021-05-02T13:13:36Z</time>
      </trkpt>
      <trkpt lat="46.51275" lon="0.38007">
        <ele>106.4</ele>
        <time>2021-05-02T13:13:37Z</time>
      </trkpt>
      <trkpt lat="46.51274" lon="0.38012">
        <ele>105.4</ele>
        <time>2021-05-02T13:13:38Z</time>
      </trkpt>
      <trkpt lat="46.51269" lon="0.38026">
        <ele>100.8</ele>
        <time>2021-05-02T13:13:40Z</time>
      </trkpt>
      <trkpt lat="46.51269" lon="0.38026">
        <ele>100.8</ele>
        <time>2021-05-02T13:13:41Z</time>
      </trkpt>
      <trkpt lat="46.51266" lon="0.3803">
        <ele>99.6</ele>
        <time>2021-05-02T13:13:43Z</time>
      </trkpt>
      <trkpt lat="46.51263" lon="0.38033">
        <ele>98.6</ele>
        <time>2021-05-02T13:13:44Z</time>
      </trkpt>
      <trkpt lat="46.51261" lon="0.38033">
        <ele>98</ele>
        <time>2021-05-02T13:13:45Z</time>
      </trkpt>
      <trkpt lat="46.51259" lon="0.38033">
        <ele>97.6</ele>
        <time>2021-05-02T13:13:46Z</time>
      </trkpt>
      <trkpt lat="46.51244" lon="0.38034">
        <ele>98</ele>
        <time>2021-05-02T13:13:53Z</time>
      </trkpt>
      <trkpt lat="46.51231" lon="0.38031">
        <ele>98.6</ele>
        <time>2021-05-02T13:14:00Z</time>
      </trkpt>
      <trkpt lat="46.51224" lon="0.38028">
        <ele>99</ele>
        <time>2021-05-02T13:14:03Z</time>
      </trkpt>
      <trkpt lat="46.51216" lon="0.38023">
        <ele>100.2</ele>
        <time>2021-05-02T13:14:08Z</time>
      </trkpt>
      <trkpt lat="46.51204" lon="0.38017">
        <ele>101.2</ele>
        <time>2021-05-02T13:14:12Z</time>
      </trkpt>
      <trkpt lat="46.51195" lon="0.38011">
        <ele>101.6</ele>
        <time>2021-05-02T13:14:15Z</time>
      </trkpt>
      <trkpt lat="46.5118" lon="0.38003">
        <ele>102.4</ele>
        <time>2021-05-02T13:14:20Z</time>
      </trkpt>
      <trkpt lat="46.51177" lon="0.38001">
        <ele>102.8</ele>
        <time>2021-05-02T13:14:21Z</time>
      </trkpt>
      <trkpt lat="46.5117" lon="0.37996">
        <ele>103.4</ele>
        <time>2021-05-02T13:14:24Z</time>
      </trkpt>
      <trkpt lat="46.51162" lon="0.37995">
        <ele>103.8</ele>
        <time>2021-05-02T13:14:27Z</time>
      </trkpt>
      <trkpt lat="46.51153" lon="0.37991">
        <ele>104.6</ele>
        <time>2021-05-02T13:14:30Z</time>
      </trkpt>
      <trkpt lat="46.51144" lon="0.37991">
        <ele>105</ele>
        <time>2021-05-02T13:14:33Z</time>
      </trkpt>
      <trkpt lat="46.51135" lon="0.37987">
        <ele>105.6</ele>
        <time>2021-05-02T13:14:36Z</time>
      </trkpt>
      <trkpt lat="46.51125" lon="0.37986">
        <ele>106</ele>
        <time>2021-05-02T13:14:39Z</time>
      </trkpt>
      <trkpt lat="46.51108" lon="0.37985">
        <ele>106.2</ele>
        <time>2021-05-02T13:14:44Z</time>
      </trkpt>
      <trkpt lat="46.51103" lon="0.37984">
        <ele>106.6</ele>
        <time>2021-05-02T13:14:46Z</time>
      </trkpt>
      <trkpt lat="46.5109" lon="0.37982">
        <ele>107.2</ele>
        <time>2021-05-02T13:14:49Z</time>
      </trkpt>
      <trkpt lat="46.51072" lon="0.37981">
        <ele>107.2</ele>
        <time>2021-05-02T13:14:55Z</time>
      </trkpt>
      <trkpt lat="46.51059" lon="0.37982">
        <ele>107</ele>
        <time>2021-05-02T13:15:01Z</time>
      </trkpt>
      <trkpt lat="46.51041" lon="0.37983">
        <ele>107.8</ele>
        <time>2021-05-02T13:15:07Z</time>
      </trkpt>
      <trkpt lat="46.51013" lon="0.37983">
        <ele>108.6</ele>
        <time>2021-05-02T13:15:13Z</time>
      </trkpt>
      <trkpt lat="46.50999" lon="0.37983">
        <ele>108.8</ele>
        <time>2021-05-02T13:15:16Z</time>
      </trkpt>
      <trkpt lat="46.50992" lon="0.37983">
        <ele>108.8</ele>
        <time>2021-05-02T13:15:18Z</time>
      </trkpt>
      <trkpt lat="46.50974" lon="0.37982">
        <ele>109.2</ele>
        <time>2021-05-02T13:15:23Z</time>
      </trkpt>
      <trkpt lat="46.50959" lon="0.37978">
        <ele>109.6</ele>
        <time>2021-05-02T13:15:27Z</time>
      </trkpt>
      <trkpt lat="46.50954" lon="0.37977">
        <ele>109.8</ele>
        <time>2021-05-02T13:15:29Z</time>
      </trkpt>
      <trkpt lat="46.5095" lon="0.37976">
        <ele>110</ele>
        <time>2021-05-02T13:15:30Z</time>
      </trkpt>
      <trkpt lat="46.50927" lon="0.37971">
        <ele>110.2</ele>
        <time>2021-05-02T13:15:36Z</time>
      </trkpt>
      <trkpt lat="46.5092" lon="0.37981">
        <ele>111.4</ele>
        <time>2021-05-02T13:15:40Z</time>
      </trkpt>
      <trkpt lat="46.50919" lon="0.37983">
        <ele>111.8</ele>
        <time>2021-05-02T13:15:41Z</time>
      </trkpt>
      <trkpt lat="46.50919" lon="0.37992">
        <ele>112.4</ele>
        <time>2021-05-02T13:15:44Z</time>
      </trkpt>
      <trkpt lat="46.50918" lon="0.37995">
        <ele>113.2</ele>
        <time>2021-05-02T13:15:46Z</time>
      </trkpt>
      <trkpt lat="46.50917" lon="0.37998">
        <ele>113.8</ele>
        <time>2021-05-02T13:15:47Z</time>
      </trkpt>
      <trkpt lat="46.50915" lon="0.38003">
        <ele>114.8</ele>
        <time>2021-05-02T13:15:50Z</time>
      </trkpt>
      <trkpt lat="46.50916" lon="0.3801">
        <ele>115.6</ele>
        <time>2021-05-02T13:15:53Z</time>
      </trkpt>
      <trkpt lat="46.50918" lon="0.38014">
        <ele>116.2</ele>
        <time>2021-05-02T13:15:55Z</time>
      </trkpt>
      <trkpt lat="46.50922" lon="0.38023">
        <ele>117.2</ele>
        <time>2021-05-02T13:15:59Z</time>
      </trkpt>
      <trkpt lat="46.50923" lon="0.38025">
        <ele>117.4</ele>
        <time>2021-05-02T13:16:00Z</time>
      </trkpt>
      <trkpt lat="46.50926" lon="0.38033">
        <ele>118.4</ele>
        <time>2021-05-02T13:16:03Z</time>
      </trkpt>
      <trkpt lat="46.50927" lon="0.38045">
        <ele>119.4</ele>
        <time>2021-05-02T13:16:07Z</time>
      </trkpt>
      <trkpt lat="46.50932" lon="0.38061">
        <ele>120.4</ele>
        <time>2021-05-02T13:16:12Z</time>
      </trkpt>
      <trkpt lat="46.50934" lon="0.38068">
        <ele>121</ele>
        <time>2021-05-02T13:16:14Z</time>
      </trkpt>
      <trkpt lat="46.50935" lon="0.38076">
        <ele>121.8</ele>
        <time>2021-05-02T13:16:17Z</time>
      </trkpt>
      <trkpt lat="46.5094" lon="0.38093">
        <ele>122.2</ele>
        <time>2021-05-02T13:16:22Z</time>
      </trkpt>
      <trkpt lat="46.50946" lon="0.38112">
        <ele>122.8</ele>
        <time>2021-05-02T13:16:27Z</time>
      </trkpt>
      <trkpt lat="46.50947" lon="0.38115">
        <ele>122.8</ele>
        <time>2021-05-02T13:16:28Z</time>
      </trkpt>
      <trkpt lat="46.5095" lon="0.38135">
        <ele>122.8</ele>
        <time>2021-05-02T13:16:33Z</time>
      </trkpt>
      <trkpt lat="46.50951" lon="0.38151">
        <ele>122.8</ele>
        <time>2021-05-02T13:16:36Z</time>
      </trkpt>
      <trkpt lat="46.50952" lon="0.38162">
        <ele>122.6</ele>
        <time>2021-05-02T13:16:38Z</time>
      </trkpt>
      <trkpt lat="46.50952" lon="0.3818">
        <ele>122.2</ele>
        <time>2021-05-02T13:16:41Z</time>
      </trkpt>
      <trkpt lat="46.50953" lon="0.38192">
        <ele>121.8</ele>
        <time>2021-05-02T13:16:43Z</time>
      </trkpt>
      <trkpt lat="46.50954" lon="0.38197">
        <ele>121.6</ele>
        <time>2021-05-02T13:16:44Z</time>
      </trkpt>
      <trkpt lat="46.50955" lon="0.38202">
        <ele>121.4</ele>
        <time>2021-05-02T13:16:45Z</time>
      </trkpt>
      <trkpt lat="46.50955" lon="0.38221">
        <ele>121</ele>
        <time>2021-05-02T13:16:48Z</time>
      </trkpt>
      <trkpt lat="46.50955" lon="0.38235">
        <ele>120.2</ele>
        <time>2021-05-02T13:16:50Z</time>
      </trkpt>
      <trkpt lat="46.50953" lon="0.38264">
        <ele>119</ele>
        <time>2021-05-02T13:16:54Z</time>
      </trkpt>
      <trkpt lat="46.50953" lon="0.38271">
        <ele>119</ele>
        <time>2021-05-02T13:16:55Z</time>
      </trkpt>
      <trkpt lat="46.50952" lon="0.38277">
        <ele>118.8</ele>
        <time>2021-05-02T13:16:56Z</time>
      </trkpt>
      <trkpt lat="46.50952" lon="0.38281">
        <ele>118</ele>
        <time>2021-05-02T13:16:57Z</time>
      </trkpt>
      <trkpt lat="46.50953" lon="0.38285">
        <ele>117.6</ele>
        <time>2021-05-02T13:16:58Z</time>
      </trkpt>
      <trkpt lat="46.50955" lon="0.38285">
        <ele>117</ele>
        <time>2021-05-02T13:17:00Z</time>
      </trkpt>
      <trkpt lat="46.50957" lon="0.38284">
        <ele>116.8</ele>
        <time>2021-05-02T13:17:01Z</time>
      </trkpt>
      <trkpt lat="46.50964" lon="0.38272">
        <ele>117.4</ele>
        <time>2021-05-02T13:17:06Z</time>
      </trkpt>
      <trkpt lat="46.50965" lon="0.3827">
        <ele>117.4</ele>
        <time>2021-05-02T13:17:07Z</time>
      </trkpt>
      <trkpt lat="46.50969" lon="0.38264">
        <ele>118</ele>
        <time>2021-05-02T13:17:09Z</time>
      </trkpt>
      <trkpt lat="46.50971" lon="0.38261">
        <ele>118.2</ele>
        <time>2021-05-02T13:17:10Z</time>
      </trkpt>
      <trkpt lat="46.50973" lon="0.38257">
        <ele>118.2</ele>
        <time>2021-05-02T13:17:11Z</time>
      </trkpt>
      <trkpt lat="46.50982" lon="0.38242">
        <ele>118.4</ele>
        <time>2021-05-02T13:17:15Z</time>
      </trkpt>
      <trkpt lat="46.50984" lon="0.38238">
        <ele>118.4</ele>
        <time>2021-05-02T13:17:16Z</time>
      </trkpt>
      <trkpt lat="46.50996" lon="0.38223">
        <ele>118.6</ele>
        <time>2021-05-02T13:17:20Z</time>
      </trkpt>
      <trkpt lat="46.51" lon="0.38218">
        <ele>118.8</ele>
        <time>2021-05-02T13:17:22Z</time>
      </trkpt>
      <trkpt lat="46.51013" lon="0.38204">
        <ele>119</ele>
        <time>2021-05-02T13:17:27Z</time>
      </trkpt>
      <trkpt lat="46.51022" lon="0.3819">
        <ele>119</ele>
        <time>2021-05-02T13:17:31Z</time>
      </trkpt>
      <trkpt lat="46.51024" lon="0.38186">
        <ele>119</ele>
        <time>2021-05-02T13:17:32Z</time>
      </trkpt>
      <trkpt lat="46.51037" lon="0.38167">
        <ele>119.2</ele>
        <time>2021-05-02T13:17:37Z</time>
      </trkpt>
      <trkpt lat="46.51039" lon="0.38165">
        <ele>119.4</ele>
        <time>2021-05-02T13:17:38Z</time>
      </trkpt>
      <trkpt lat="46.51047" lon="0.3815">
        <ele>119.8</ele>
        <time>2021-05-02T13:17:43Z</time>
      </trkpt>
      <trkpt lat="46.51049" lon="0.38145">
        <ele>120.2</ele>
        <time>2021-05-02T13:17:45Z</time>
      </trkpt>
      <trkpt lat="46.51053" lon="0.38136">
        <ele>120.4</ele>
        <time>2021-05-02T13:17:49Z</time>
      </trkpt>
      <trkpt lat="46.51061" lon="0.38119">
        <ele>120.4</ele>
        <time>2021-05-02T13:17:54Z</time>
      </trkpt>
      <trkpt lat="46.51063" lon="0.38119">
        <ele>120.4</ele>
        <time>2021-05-02T13:17:55Z</time>
      </trkpt>
      <trkpt lat="46.51066" lon="0.38121">
        <ele>120</ele>
        <time>2021-05-02T13:17:57Z</time>
      </trkpt>
      <trkpt lat="46.51068" lon="0.38131">
        <ele>119.2</ele>
        <time>2021-05-02T13:18:02Z</time>
      </trkpt>
      <trkpt lat="46.51069" lon="0.38135">
        <ele>117</ele>
        <time>2021-05-02T13:18:05Z</time>
      </trkpt>
      <trkpt lat="46.51069" lon="0.38135">
        <ele>116.2</ele>
        <time>2021-05-02T13:18:06Z</time>
      </trkpt>
      <trkpt lat="46.51071" lon="0.38134">
        <ele>115.8</ele>
        <time>2021-05-02T13:18:07Z</time>
      </trkpt>
      <trkpt lat="46.51076" lon="0.38132">
        <ele>114.6</ele>
        <time>2021-05-02T13:18:10Z</time>
      </trkpt>
      <trkpt lat="46.51077" lon="0.38132">
        <ele>113.8</ele>
        <time>2021-05-02T13:18:11Z</time>
      </trkpt>
      <trkpt lat="46.51079" lon="0.38132">
        <ele>113.4</ele>
        <time>2021-05-02T13:18:12Z</time>
      </trkpt>
      <trkpt lat="46.51081" lon="0.38132">
        <ele>113</ele>
        <time>2021-05-02T13:18:13Z</time>
      </trkpt>
      <trkpt lat="46.51083" lon="0.3813">
        <ele>111.8</ele>
        <time>2021-05-02T13:18:14Z</time>
      </trkpt>
      <trkpt lat="46.51086" lon="0.38129">
        <ele>110.6</ele>
        <time>2021-05-02T13:18:15Z</time>
      </trkpt>
      <trkpt lat="46.51088" lon="0.38128">
        <ele>109.8</ele>
        <time>2021-05-02T13:18:16Z</time>
      </trkpt>
      <trkpt lat="46.51091" lon="0.38126">
        <ele>109.4</ele>
        <time>2021-05-02T13:18:17Z</time>
      </trkpt>
      <trkpt lat="46.51098" lon="0.3812">
        <ele>108.2</ele>
        <time>2021-05-02T13:18:20Z</time>
      </trkpt>
      <trkpt lat="46.51099" lon="0.38118">
        <ele>108</ele>
        <time>2021-05-02T13:18:21Z</time>
      </trkpt>
      <trkpt lat="46.51103" lon="0.38115">
        <ele>107.8</ele>
        <time>2021-05-02T13:18:23Z</time>
      </trkpt>
      <trkpt lat="46.51109" lon="0.3811">
        <ele>108</ele>
        <time>2021-05-02T13:18:27Z</time>
      </trkpt>
      <trkpt lat="46.51125" lon="0.381">
        <ele>109</ele>
        <time>2021-05-02T13:18:34Z</time>
      </trkpt>
      <trkpt lat="46.51139" lon="0.38097">
        <ele>108.4</ele>
        <time>2021-05-02T13:18:40Z</time>
      </trkpt>
      <trkpt lat="46.5115" lon="0.38092">
        <ele>109</ele>
        <time>2021-05-02T13:18:45Z</time>
      </trkpt>
      <trkpt lat="46.51154" lon="0.38091">
        <ele>109.4</ele>
        <time>2021-05-02T13:18:47Z</time>
      </trkpt>
      <trkpt lat="46.51165" lon="0.38087">
        <ele>108.8</ele>
        <time>2021-05-02T13:18:52Z</time>
      </trkpt>
      <trkpt lat="46.51168" lon="0.38087">
        <ele>108.2</ele>
        <time>2021-05-02T13:18:54Z</time>
      </trkpt>
      <trkpt lat="46.51172" lon="0.38085">
        <ele>106.6</ele>
        <time>2021-05-02T13:18:56Z</time>
      </trkpt>
      <trkpt lat="46.51174" lon="0.38084">
        <ele>105.6</ele>
        <time>2021-05-02T13:18:57Z</time>
      </trkpt>
      <trkpt lat="46.51176" lon="0.38084">
        <ele>104.6</ele>
        <time>2021-05-02T13:18:58Z</time>
      </trkpt>
      <trkpt lat="46.51181" lon="0.38084">
        <ele>102.6</ele>
        <time>2021-05-02T13:19:00Z</time>
      </trkpt>
      <trkpt lat="46.51183" lon="0.38083">
        <ele>101.8</ele>
        <time>2021-05-02T13:19:01Z</time>
      </trkpt>
      <trkpt lat="46.51185" lon="0.38082">
        <ele>101.2</ele>
        <time>2021-05-02T13:19:02Z</time>
      </trkpt>
      <trkpt lat="46.51187" lon="0.3808">
        <ele>101</ele>
        <time>2021-05-02T13:19:03Z</time>
      </trkpt>
      <trkpt lat="46.51207" lon="0.38082">
        <ele>101</ele>
        <time>2021-05-02T13:19:10Z</time>
      </trkpt>
      <trkpt lat="46.5122" lon="0.38082">
        <ele>100.8</ele>
        <time>2021-05-02T13:19:15Z</time>
      </trkpt>
      <trkpt lat="46.51223" lon="0.3808">
        <ele>100.8</ele>
        <time>2021-05-02T13:19:16Z</time>
      </trkpt>
      <trkpt lat="46.51233" lon="0.38073">
        <ele>100.4</ele>
        <time>2021-05-02T13:19:20Z</time>
      </trkpt>
      <trkpt lat="46.51238" lon="0.38069">
        <ele>99.4</ele>
        <time>2021-05-02T13:19:22Z</time>
      </trkpt>
      <trkpt lat="46.5124" lon="0.38069">
        <ele>98.8</ele>
        <time>2021-05-02T13:19:23Z</time>
      </trkpt>
      <trkpt lat="46.51242" lon="0.38069">
        <ele>98</ele>
        <time>2021-05-02T13:19:24Z</time>
      </trkpt>
      <trkpt lat="46.51251" lon="0.38072">
        <ele>97</ele>
        <time>2021-05-02T13:19:28Z</time>
      </trkpt>
      <trkpt lat="46.51256" lon="0.38072">
        <ele>96.8</ele>
        <time>2021-05-02T13:19:30Z</time>
      </trkpt>
      <trkpt lat="46.5127" lon="0.38076">
        <ele>96.4</ele>
        <time>2021-05-02T13:19:37Z</time>
      </trkpt>
      <trkpt lat="46.5129" lon="0.38083">
        <ele>96.4</ele>
        <time>2021-05-02T13:19:43Z</time>
      </trkpt>
      <trkpt lat="46.51315" lon="0.38092">
        <ele>96.6</ele>
        <time>2021-05-02T13:19:50Z</time>
      </trkpt>
      <trkpt lat="46.5134" lon="0.381">
        <ele>96.6</ele>
        <time>2021-05-02T13:19:58Z</time>
      </trkpt>
      <trkpt lat="46.51355" lon="0.38104">
        <ele>96.4</ele>
        <time>2021-05-02T13:20:03Z</time>
      </trkpt>
      <trkpt lat="46.51367" lon="0.38099">
        <ele>96.6</ele>
        <time>2021-05-02T13:20:07Z</time>
      </trkpt>
      <trkpt lat="46.51387" lon="0.3809">
        <ele>97.2</ele>
        <time>2021-05-02T13:20:15Z</time>
      </trkpt>
      <trkpt lat="46.514" lon="0.3809">
        <ele>97.8</ele>
        <time>2021-05-02T13:20:18Z</time>
      </trkpt>
      <trkpt lat="46.51406" lon="0.38086">
        <ele>97.8</ele>
        <time>2021-05-02T13:20:20Z</time>
      </trkpt>
      <trkpt lat="46.51408" lon="0.38083">
        <ele>98</ele>
        <time>2021-05-02T13:20:21Z</time>
      </trkpt>
      <trkpt lat="46.5141" lon="0.38075">
        <ele>99</ele>
        <time>2021-05-02T13:20:24Z</time>
      </trkpt>
      <trkpt lat="46.51414" lon="0.38075">
        <ele>99.4</ele>
        <time>2021-05-02T13:20:25Z</time>
      </trkpt>
      <trkpt lat="46.51413" lon="0.38073">
        <ele>100</ele>
        <time>2021-05-02T13:20:26Z</time>
      </trkpt>
      <trkpt lat="46.51406" lon="0.3807">
        <ele>99.8</ele>
        <time>2021-05-02T13:20:31Z</time>
      </trkpt>
      <trkpt lat="46.51405" lon="0.38069">
        <ele>100.2</ele>
        <time>2021-05-02T13:20:33Z</time>
      </trkpt>
      <trkpt lat="46.51403" lon="0.38066">
        <ele>101.2</ele>
        <time>2021-05-02T13:20:37Z</time>
      </trkpt>
      <trkpt lat="46.51404" lon="0.38065">
        <ele>101.8</ele>
        <time>2021-05-02T13:20:38Z</time>
      </trkpt>
      <trkpt lat="46.51403" lon="0.38064">
        <ele>102.2</ele>
        <time>2021-05-02T13:20:39Z</time>
      </trkpt>
      <trkpt lat="46.51401" lon="0.38062">
        <ele>102.8</ele>
        <time>2021-05-02T13:20:41Z</time>
      </trkpt>
      <trkpt lat="46.514" lon="0.38061">
        <ele>103</ele>
        <time>2021-05-02T13:20:42Z</time>
      </trkpt>
      <trkpt lat="46.51398" lon="0.38061">
        <ele>104.6</ele>
        <time>2021-05-02T13:20:45Z</time>
      </trkpt>
      <trkpt lat="46.51396" lon="0.3806">
        <ele>104.6</ele>
        <time>2021-05-02T13:20:50Z</time>
      </trkpt>
      <trkpt lat="46.51385" lon="0.38057">
        <ele>104.6</ele>
        <time>2021-05-02T13:20:59Z</time>
      </trkpt>
      <trkpt lat="46.51383" lon="0.38056">
        <ele>104.6</ele>
        <time>2021-05-02T13:21:00Z</time>
      </trkpt>
      <trkpt lat="46.51371" lon="0.38055">
        <ele>104.4</ele>
        <time>2021-05-02T13:21:06Z</time>
      </trkpt>
      <trkpt lat="46.51352" lon="0.38056">
        <ele>104.4</ele>
        <time>2021-05-02T13:21:12Z</time>
      </trkpt>
      <trkpt lat="46.51334" lon="0.38056">
        <ele>104</ele>
        <time>2021-05-02T13:21:17Z</time>
      </trkpt>
      <trkpt lat="46.51331" lon="0.38055">
        <ele>103.8</ele>
        <time>2021-05-02T13:21:18Z</time>
      </trkpt>
      <trkpt lat="46.51325" lon="0.38052">
        <ele>103.6</ele>
        <time>2021-05-02T13:21:20Z</time>
      </trkpt>
      <trkpt lat="46.51321" lon="0.3805">
        <ele>103.4</ele>
        <time>2021-05-02T13:21:22Z</time>
      </trkpt>
      <trkpt lat="46.51319" lon="0.38048">
        <ele>103.6</ele>
        <time>2021-05-02T13:21:23Z</time>
      </trkpt>
      <trkpt lat="46.51318" lon="0.38046">
        <ele>103.8</ele>
        <time>2021-05-02T13:21:24Z</time>
      </trkpt>
      <trkpt lat="46.51312" lon="0.38039">
        <ele>104.2</ele>
        <time>2021-05-02T13:21:27Z</time>
      </trkpt>
      <trkpt lat="46.51307" lon="0.38036">
        <ele>104.6</ele>
        <time>2021-05-02T13:21:29Z</time>
      </trkpt>
      <trkpt lat="46.51304" lon="0.38034">
        <ele>106</ele>
        <time>2021-05-02T13:21:30Z</time>
      </trkpt>
      <trkpt lat="46.51299" lon="0.38032">
        <ele>106</ele>
        <time>2021-05-02T13:21:32Z</time>
      </trkpt>
      <trkpt lat="46.51297" lon="0.38033">
        <ele>106</ele>
        <time>2021-05-02T13:21:33Z</time>
      </trkpt>
      <trkpt lat="46.51295" lon="0.38035">
        <ele>104.6</ele>
        <time>2021-05-02T13:21:35Z</time>
      </trkpt>
      <trkpt lat="46.51291" lon="0.3804">
        <ele>102.2</ele>
        <time>2021-05-02T13:21:37Z</time>
      </trkpt>
      <trkpt lat="46.5129" lon="0.38042">
        <ele>101.2</ele>
        <time>2021-05-02T13:21:38Z</time>
      </trkpt>
      <trkpt lat="46.51287" lon="0.38043">
        <ele>100.2</ele>
        <time>2021-05-02T13:21:39Z</time>
      </trkpt>
      <trkpt lat="46.51284" lon="0.38044">
        <ele>99.2</ele>
        <time>2021-05-02T13:21:40Z</time>
      </trkpt>
      <trkpt lat="46.51281" lon="0.38044">
        <ele>97.8</ele>
        <time>2021-05-02T13:21:41Z</time>
      </trkpt>
      <trkpt lat="46.51279" lon="0.38046">
        <ele>97</ele>
        <time>2021-05-02T13:21:42Z</time>
      </trkpt>
      <trkpt lat="46.51277" lon="0.3805">
        <ele>96.6</ele>
        <time>2021-05-02T13:21:43Z</time>
      </trkpt>
      <trkpt lat="46.51276" lon="0.38053">
        <ele>96.4</ele>
        <time>2021-05-02T13:21:44Z</time>
      </trkpt>
      <trkpt lat="46.51278" lon="0.38059">
        <ele>96</ele>
        <time>2021-05-02T13:21:47Z</time>
      </trkpt>
      <trkpt lat="46.5128" lon="0.38064">
        <ele>95.6</ele>
        <time>2021-05-02T13:21:50Z</time>
      </trkpt>
      <trkpt lat="46.51285" lon="0.38069">
        <ele>95.4</ele>
        <time>2021-05-02T13:21:53Z</time>
      </trkpt>
      <trkpt lat="46.51303" lon="0.38078">
        <ele>95.4</ele>
        <time>2021-05-02T13:22:00Z</time>
      </trkpt>
      <trkpt lat="46.51319" lon="0.38084">
        <ele>95.6</ele>
        <time>2021-05-02T13:22:05Z</time>
      </trkpt>
      <trkpt lat="46.51336" lon="0.38091">
        <ele>95.6</ele>
        <time>2021-05-02T13:22:11Z</time>
      </trkpt>
      <trkpt lat="46.5135" lon="0.38095">
        <ele>95.4</ele>
        <time>2021-05-02T13:22:17Z</time>
      </trkpt>
      <trkpt lat="46.51352" lon="0.38095">
        <ele>95.2</ele>
        <time>2021-05-02T13:22:18Z</time>
      </trkpt>
      <trkpt lat="46.5136" lon="0.38094">
        <ele>95.4</ele>
        <time>2021-05-02T13:22:21Z</time>
      </trkpt>
      <trkpt lat="46.5138" lon="0.38086">
        <ele>95.8</ele>
        <time>2021-05-02T13:22:27Z</time>
      </trkpt>
      <trkpt lat="46.51395" lon="0.38085">
        <ele>96.8</ele>
        <time>2021-05-02T13:22:32Z</time>
      </trkpt>
      <trkpt lat="46.51416" lon="0.38091">
        <ele>97.2</ele>
        <time>2021-05-02T13:22:37Z</time>
      </trkpt>
      <trkpt lat="46.5142" lon="0.38093">
        <ele>97.2</ele>
        <time>2021-05-02T13:22:38Z</time>
      </trkpt>
      <trkpt lat="46.51426" lon="0.38095">
        <ele>97.2</ele>
        <time>2021-05-02T13:22:39Z</time>
      </trkpt>
      <trkpt lat="46.51434" lon="0.38098">
        <ele>97.2</ele>
        <time>2021-05-02T13:22:41Z</time>
      </trkpt>
      <trkpt lat="46.51441" lon="0.38101">
        <ele>97.8</ele>
        <time>2021-05-02T13:22:43Z</time>
      </trkpt>
      <trkpt lat="46.51445" lon="0.38102">
        <ele>97.8</ele>
        <time>2021-05-02T13:22:44Z</time>
      </trkpt>
      <trkpt lat="46.51448" lon="0.38103">
        <ele>98</ele>
        <time>2021-05-02T13:22:45Z</time>
      </trkpt>
      <trkpt lat="46.51458" lon="0.38106">
        <ele>97.8</ele>
        <time>2021-05-02T13:22:49Z</time>
      </trkpt>
      <trkpt lat="46.5147" lon="0.38101">
        <ele>98</ele>
        <time>2021-05-02T13:22:54Z</time>
      </trkpt>
      <trkpt lat="46.51482" lon="0.38095">
        <ele>99.2</ele>
        <time>2021-05-02T13:22:58Z</time>
      </trkpt>
      <trkpt lat="46.51488" lon="0.3809">
        <ele>100.4</ele>
        <time>2021-05-02T13:23:01Z</time>
      </trkpt>
      <trkpt lat="46.5149" lon="0.38087">
        <ele>101.4</ele>
        <time>2021-05-02T13:23:03Z</time>
      </trkpt>
      <trkpt lat="46.51493" lon="0.38082">
        <ele>102.4</ele>
        <time>2021-05-02T13:23:06Z</time>
      </trkpt>
      <trkpt lat="46.51495" lon="0.38077">
        <ele>103</ele>
        <time>2021-05-02T13:23:08Z</time>
      </trkpt>
      <trkpt lat="46.51498" lon="0.38072">
        <ele>103.4</ele>
        <time>2021-05-02T13:23:10Z</time>
      </trkpt>
      <trkpt lat="46.51501" lon="0.38066">
        <ele>104.8</ele>
        <time>2021-05-02T13:23:13Z</time>
      </trkpt>
      <trkpt lat="46.51505" lon="0.38059">
        <ele>105.8</ele>
        <time>2021-05-02T13:23:16Z</time>
      </trkpt>
      <trkpt lat="46.51506" lon="0.38056">
        <ele>106.6</ele>
        <time>2021-05-02T13:23:17Z</time>
      </trkpt>
      <trkpt lat="46.51507" lon="0.38054">
        <ele>107.2</ele>
        <time>2021-05-02T13:23:18Z</time>
      </trkpt>
      <trkpt lat="46.51514" lon="0.38036">
        <ele>108.2</ele>
        <time>2021-05-02T13:23:24Z</time>
      </trkpt>
      <trkpt lat="46.51514" lon="0.38033">
        <ele>108.4</ele>
        <time>2021-05-02T13:23:25Z</time>
      </trkpt>
      <trkpt lat="46.51517" lon="0.38021">
        <ele>109.4</ele>
        <time>2021-05-02T13:23:29Z</time>
      </trkpt>
      <trkpt lat="46.51517" lon="0.38017">
        <ele>110</ele>
        <time>2021-05-02T13:23:31Z</time>
      </trkpt>
      <trkpt lat="46.51518" lon="0.38006">
        <ele>110.6</ele>
        <time>2021-05-02T13:23:36Z</time>
      </trkpt>
      <trkpt lat="46.51518" lon="0.37997">
        <ele>111.4</ele>
        <time>2021-05-02T13:23:40Z</time>
      </trkpt>
      <trkpt lat="46.51519" lon="0.37996">
        <ele>111.6</ele>
        <time>2021-05-02T13:23:41Z</time>
      </trkpt>
      <trkpt lat="46.51523" lon="0.37981">
        <ele>112.2</ele>
        <time>2021-05-02T13:23:47Z</time>
      </trkpt>
      <trkpt lat="46.51524" lon="0.37973">
        <ele>112.6</ele>
        <time>2021-05-02T13:23:50Z</time>
      </trkpt>
      <trkpt lat="46.51526" lon="0.37967">
        <ele>113.4</ele>
        <time>2021-05-02T13:23:53Z</time>
      </trkpt>
      <trkpt lat="46.51526" lon="0.37965">
        <ele>113.4</ele>
        <time>2021-05-02T13:23:54Z</time>
      </trkpt>
      <trkpt lat="46.51531" lon="0.37963">
        <ele>113.8</ele>
        <time>2021-05-02T13:23:58Z</time>
      </trkpt>
      <trkpt lat="46.51534" lon="0.37962">
        <ele>113.8</ele>
        <time>2021-05-02T13:24:00Z</time>
      </trkpt>
      <trkpt lat="46.51547" lon="0.37959">
        <ele>113.6</ele>
        <time>2021-05-02T13:24:05Z</time>
      </trkpt>
      <trkpt lat="46.51561" lon="0.3796">
        <ele>113.4</ele>
        <time>2021-05-02T13:24:11Z</time>
      </trkpt>
      <trkpt lat="46.51573" lon="0.37965">
        <ele>112.8</ele>
        <time>2021-05-02T13:24:16Z</time>
      </trkpt>
      <trkpt lat="46.51575" lon="0.37967">
        <ele>112.6</ele>
        <time>2021-05-02T13:24:17Z</time>
      </trkpt>
      <trkpt lat="46.51583" lon="0.37977">
        <ele>112.2</ele>
        <time>2021-05-02T13:24:21Z</time>
      </trkpt>
      <trkpt lat="46.51588" lon="0.37981">
        <ele>111.8</ele>
        <time>2021-05-02T13:24:23Z</time>
      </trkpt>
      <trkpt lat="46.51591" lon="0.37981">
        <ele>111.6</ele>
        <time>2021-05-02T13:24:24Z</time>
      </trkpt>
      <trkpt lat="46.51596" lon="0.37976">
        <ele>110.8</ele>
        <time>2021-05-02T13:24:26Z</time>
      </trkpt>
      <trkpt lat="46.51601" lon="0.37968">
        <ele>110.6</ele>
        <time>2021-05-02T13:24:28Z</time>
      </trkpt>
      <trkpt lat="46.51608" lon="0.37959">
        <ele>110.6</ele>
        <time>2021-05-02T13:24:31Z</time>
      </trkpt>
      <trkpt lat="46.51619" lon="0.37941">
        <ele>111.6</ele>
        <time>2021-05-02T13:24:35Z</time>
      </trkpt>
      <trkpt lat="46.51622" lon="0.37936">
        <ele>111.8</ele>
        <time>2021-05-02T13:24:36Z</time>
      </trkpt>
      <trkpt lat="46.51625" lon="0.3793">
        <ele>111.8</ele>
        <time>2021-05-02T13:24:37Z</time>
      </trkpt>
      <trkpt lat="46.51636" lon="0.37905">
        <ele>111.4</ele>
        <time>2021-05-02T13:24:41Z</time>
      </trkpt>
      <trkpt lat="46.5165" lon="0.37868">
        <ele>111</ele>
        <time>2021-05-02T13:24:46Z</time>
      </trkpt>
      <trkpt lat="46.51658" lon="0.37853">
        <ele>111.8</ele>
        <time>2021-05-02T13:24:50Z</time>
      </trkpt>
      <trkpt lat="46.51665" lon="0.37834">
        <ele>112.8</ele>
        <time>2021-05-02T13:24:54Z</time>
      </trkpt>
      <trkpt lat="46.51668" lon="0.37824">
        <ele>113.4</ele>
        <time>2021-05-02T13:24:56Z</time>
      </trkpt>
      <trkpt lat="46.5168" lon="0.37796">
        <ele>113.8</ele>
        <time>2021-05-02T13:25:01Z</time>
      </trkpt>
      <trkpt lat="46.51682" lon="0.3779">
        <ele>114</ele>
        <time>2021-05-02T13:25:02Z</time>
      </trkpt>
      <trkpt lat="46.51693" lon="0.37752">
        <ele>114.2</ele>
        <time>2021-05-02T13:25:09Z</time>
      </trkpt>
      <trkpt lat="46.51705" lon="0.37711">
        <ele>114.2</ele>
        <time>2021-05-02T13:25:15Z</time>
      </trkpt>
      <trkpt lat="46.51718" lon="0.37673">
        <ele>112.8</ele>
        <time>2021-05-02T13:25:20Z</time>
      </trkpt>
      <trkpt lat="46.5172" lon="0.37665">
        <ele>112.6</ele>
        <time>2021-05-02T13:25:21Z</time>
      </trkpt>
      <trkpt lat="46.51725" lon="0.37649">
        <ele>112.2</ele>
        <time>2021-05-02T13:25:23Z</time>
      </trkpt>
      <trkpt lat="46.51733" lon="0.37625">
        <ele>112</ele>
        <time>2021-05-02T13:25:26Z</time>
      </trkpt>
      <trkpt lat="46.51736" lon="0.37616">
        <ele>111.4</ele>
        <time>2021-05-02T13:25:27Z</time>
      </trkpt>
      <trkpt lat="46.51747" lon="0.37588">
        <ele>110</ele>
        <time>2021-05-02T13:25:30Z</time>
      </trkpt>
      <trkpt lat="46.51751" lon="0.37577">
        <ele>109.6</ele>
        <time>2021-05-02T13:25:31Z</time>
      </trkpt>
      <trkpt lat="46.51755" lon="0.37561">
        <ele>108.2</ele>
        <time>2021-05-02T13:25:32Z</time>
      </trkpt>
      <trkpt lat="46.5176" lon="0.37548">
        <ele>106.8</ele>
        <time>2021-05-02T13:25:35Z</time>
      </trkpt>
      <trkpt lat="46.51765" lon="0.37537">
        <ele>104.4</ele>
        <time>2021-05-02T13:25:37Z</time>
      </trkpt>
      <trkpt lat="46.51765" lon="0.37532">
        <ele>102.6</ele>
        <time>2021-05-02T13:25:38Z</time>
      </trkpt>
      <trkpt lat="46.51765" lon="0.37528">
        <ele>101</ele>
        <time>2021-05-02T13:25:39Z</time>
      </trkpt>
      <trkpt lat="46.51763" lon="0.37524">
        <ele>99.8</ele>
        <time>2021-05-02T13:25:40Z</time>
      </trkpt>
      <trkpt lat="46.51762" lon="0.3752">
        <ele>99</ele>
        <time>2021-05-02T13:25:41Z</time>
      </trkpt>
      <trkpt lat="46.51761" lon="0.37516">
        <ele>97</ele>
        <time>2021-05-02T13:25:42Z</time>
      </trkpt>
      <trkpt lat="46.5176" lon="0.37513">
        <ele>95.8</ele>
        <time>2021-05-02T13:25:43Z</time>
      </trkpt>
      <trkpt lat="46.51758" lon="0.37511">
        <ele>95.2</ele>
        <time>2021-05-02T13:25:44Z</time>
      </trkpt>
      <trkpt lat="46.51757" lon="0.37509">
        <ele>94.6</ele>
        <time>2021-05-02T13:25:45Z</time>
      </trkpt>
      <trkpt lat="46.51752" lon="0.37507">
        <ele>93.8</ele>
        <time>2021-05-02T13:25:49Z</time>
      </trkpt>
      <trkpt lat="46.51751" lon="0.37507">
        <ele>93.8</ele>
        <time>2021-05-02T13:25:50Z</time>
      </trkpt>
      <trkpt lat="46.51748" lon="0.37504">
        <ele>93.6</ele>
        <time>2021-05-02T13:25:54Z</time>
      </trkpt>
      <trkpt lat="46.51745" lon="0.37497">
        <ele>93.6</ele>
        <time>2021-05-02T13:25:59Z</time>
      </trkpt>
      <trkpt lat="46.5174" lon="0.37491">
        <ele>93.6</ele>
        <time>2021-05-02T13:26:03Z</time>
      </trkpt>
      <trkpt lat="46.51732" lon="0.37484">
        <ele>93.4</ele>
        <time>2021-05-02T13:26:08Z</time>
      </trkpt>
      <trkpt lat="46.51718" lon="0.3747">
        <ele>94</ele>
        <time>2021-05-02T13:26:16Z</time>
      </trkpt>
      <trkpt lat="46.517" lon="0.37461">
        <ele>94.2</ele>
        <time>2021-05-02T13:26:22Z</time>
      </trkpt>
      <trkpt lat="46.51678" lon="0.37446">
        <ele>94</ele>
        <time>2021-05-02T13:26:28Z</time>
      </trkpt>
      <trkpt lat="46.51669" lon="0.37438">
        <ele>93.8</ele>
        <time>2021-05-02T13:26:31Z</time>
      </trkpt>
      <trkpt lat="46.51655" lon="0.37426">
        <ele>93.2</ele>
        <time>2021-05-02T13:26:35Z</time>
      </trkpt>
      <trkpt lat="46.5164" lon="0.37411">
        <ele>94</ele>
        <time>2021-05-02T13:26:40Z</time>
      </trkpt>
      <trkpt lat="46.51626" lon="0.37393">
        <ele>93.6</ele>
        <time>2021-05-02T13:26:46Z</time>
      </trkpt>
      <trkpt lat="46.5161" lon="0.37369">
        <ele>93.2</ele>
        <time>2021-05-02T13:26:53Z</time>
      </trkpt>
      <trkpt lat="46.51606" lon="0.3736">
        <ele>93.2</ele>
        <time>2021-05-02T13:26:56Z</time>
      </trkpt>
      <trkpt lat="46.51605" lon="0.37355">
        <ele>93</ele>
        <time>2021-05-02T13:26:58Z</time>
      </trkpt>
      <trkpt lat="46.51602" lon="0.37351">
        <ele>93.2</ele>
        <time>2021-05-02T13:26:59Z</time>
      </trkpt>
      <trkpt lat="46.51595" lon="0.37349">
        <ele>93.4</ele>
        <time>2021-05-02T13:27:02Z</time>
      </trkpt>
      <trkpt lat="46.51581" lon="0.37343">
        <ele>95.2</ele>
        <time>2021-05-02T13:27:07Z</time>
      </trkpt>
      <trkpt lat="46.51576" lon="0.3734">
        <ele>96</ele>
        <time>2021-05-02T13:27:09Z</time>
      </trkpt>
      <trkpt lat="46.51574" lon="0.3734">
        <ele>96.8</ele>
        <time>2021-05-02T13:27:10Z</time>
      </trkpt>
      <trkpt lat="46.51568" lon="0.37339">
        <ele>98</ele>
        <time>2021-05-02T13:27:13Z</time>
      </trkpt>
      <trkpt lat="46.51564" lon="0.37338">
        <ele>99.2</ele>
        <time>2021-05-02T13:27:15Z</time>
      </trkpt>
      <trkpt lat="46.51562" lon="0.37338">
        <ele>99.6</ele>
        <time>2021-05-02T13:27:16Z</time>
      </trkpt>
      <trkpt lat="46.51557" lon="0.37339">
        <ele>100.6</ele>
        <time>2021-05-02T13:27:18Z</time>
      </trkpt>
      <trkpt lat="46.5155" lon="0.37341">
        <ele>101.6</ele>
        <time>2021-05-02T13:27:22Z</time>
      </trkpt>
      <trkpt lat="46.51548" lon="0.37341">
        <ele>102.2</ele>
        <time>2021-05-02T13:27:23Z</time>
      </trkpt>
      <trkpt lat="46.51547" lon="0.37342">
        <ele>102.8</ele>
        <time>2021-05-02T13:27:24Z</time>
      </trkpt>
      <trkpt lat="46.51543" lon="0.37344">
        <ele>103.8</ele>
        <time>2021-05-02T13:27:27Z</time>
      </trkpt>
      <trkpt lat="46.51538" lon="0.37346">
        <ele>105</ele>
        <time>2021-05-02T13:27:31Z</time>
      </trkpt>
      <trkpt lat="46.51537" lon="0.37346">
        <ele>105.4</ele>
        <time>2021-05-02T13:27:32Z</time>
      </trkpt>
      <trkpt lat="46.51535" lon="0.37347">
        <ele>106.2</ele>
        <time>2021-05-02T13:27:33Z</time>
      </trkpt>
      <trkpt lat="46.51532" lon="0.37348">
        <ele>107.2</ele>
        <time>2021-05-02T13:27:35Z</time>
      </trkpt>
      <trkpt lat="46.51531" lon="0.37349">
        <ele>107.4</ele>
        <time>2021-05-02T13:27:36Z</time>
      </trkpt>
      <trkpt lat="46.51525" lon="0.3735">
        <ele>108.2</ele>
        <time>2021-05-02T13:27:39Z</time>
      </trkpt>
      <trkpt lat="46.5152" lon="0.3735">
        <ele>109.4</ele>
        <time>2021-05-02T13:27:43Z</time>
      </trkpt>
      <trkpt lat="46.51519" lon="0.3735">
        <ele>109.8</ele>
        <time>2021-05-02T13:27:44Z</time>
      </trkpt>
      <trkpt lat="46.51517" lon="0.3735">
        <ele>110.2</ele>
        <time>2021-05-02T13:27:46Z</time>
      </trkpt>
      <trkpt lat="46.51516" lon="0.3735">
        <ele>110.4</ele>
        <time>2021-05-02T13:27:47Z</time>
      </trkpt>
      <trkpt lat="46.5151" lon="0.37352">
        <ele>111.6</ele>
        <time>2021-05-02T13:27:51Z</time>
      </trkpt>
      <trkpt lat="46.51507" lon="0.37352">
        <ele>112.4</ele>
        <time>2021-05-02T13:27:54Z</time>
      </trkpt>
      <trkpt lat="46.51506" lon="0.37352">
        <ele>112.6</ele>
        <time>2021-05-02T13:27:55Z</time>
      </trkpt>
      <trkpt lat="46.51505" lon="0.37351">
        <ele>112.8</ele>
        <time>2021-05-02T13:27:56Z</time>
      </trkpt>
      <trkpt lat="46.51502" lon="0.3735">
        <ele>113.4</ele>
        <time>2021-05-02T13:27:58Z</time>
      </trkpt>
      <trkpt lat="46.51498" lon="0.37348">
        <ele>113.8</ele>
        <time>2021-05-02T13:28:00Z</time>
      </trkpt>
      <trkpt lat="46.51496" lon="0.37347">
        <ele>114.4</ele>
        <time>2021-05-02T13:28:02Z</time>
      </trkpt>
      <trkpt lat="46.51492" lon="0.37345">
        <ele>114.8</ele>
        <time>2021-05-02T13:28:05Z</time>
      </trkpt>
      <trkpt lat="46.51487" lon="0.37344">
        <ele>115.8</ele>
        <time>2021-05-02T13:28:09Z</time>
      </trkpt>
      <trkpt lat="46.51486" lon="0.37345">
        <ele>116.2</ele>
        <time>2021-05-02T13:28:10Z</time>
      </trkpt>
      <trkpt lat="46.5148" lon="0.37346">
        <ele>117.6</ele>
        <time>2021-05-02T13:28:14Z</time>
      </trkpt>
      <trkpt lat="46.51478" lon="0.37346">
        <ele>118</ele>
        <time>2021-05-02T13:28:15Z</time>
      </trkpt>
      <trkpt lat="46.51475" lon="0.37347">
        <ele>118.2</ele>
        <time>2021-05-02T13:28:18Z</time>
      </trkpt>
      <trkpt lat="46.51474" lon="0.37349">
        <ele>118.4</ele>
        <time>2021-05-02T13:28:20Z</time>
      </trkpt>
      <trkpt lat="46.51468" lon="0.37357">
        <ele>118.2</ele>
        <time>2021-05-02T13:28:28Z</time>
      </trkpt>
      <trkpt lat="46.51462" lon="0.3737">
        <ele>118.4</ele>
        <time>2021-05-02T13:28:38Z</time>
      </trkpt>
      <trkpt lat="46.51459" lon="0.37374">
        <ele>118.6</ele>
        <time>2021-05-02T13:28:40Z</time>
      </trkpt>
      <trkpt lat="46.51458" lon="0.37375">
        <ele>118.6</ele>
        <time>2021-05-02T13:28:41Z</time>
      </trkpt>
      <trkpt lat="46.51451" lon="0.37394">
        <ele>119.6</ele>
        <time>2021-05-02T13:28:51Z</time>
      </trkpt>
      <trkpt lat="46.51447" lon="0.374">
        <ele>120.2</ele>
        <time>2021-05-02T13:28:54Z</time>
      </trkpt>
      <trkpt lat="46.51444" lon="0.37407">
        <ele>120.6</ele>
        <time>2021-05-02T13:28:58Z</time>
      </trkpt>
      <trkpt lat="46.5144" lon="0.37421">
        <ele>121.4</ele>
        <time>2021-05-02T13:29:04Z</time>
      </trkpt>
      <trkpt lat="46.51439" lon="0.37426">
        <ele>121.6</ele>
        <time>2021-05-02T13:29:06Z</time>
      </trkpt>
      <trkpt lat="46.51438" lon="0.37435">
        <ele>122</ele>
        <time>2021-05-02T13:29:10Z</time>
      </trkpt>
      <trkpt lat="46.51435" lon="0.37449">
        <ele>122.8</ele>
        <time>2021-05-02T13:29:15Z</time>
      </trkpt>
      <trkpt lat="46.51434" lon="0.37451">
        <ele>123</ele>
        <time>2021-05-02T13:29:16Z</time>
      </trkpt>
      <trkpt lat="46.51429" lon="0.37469">
        <ele>123.8</ele>
        <time>2021-05-02T13:29:22Z</time>
      </trkpt>
      <trkpt lat="46.5142" lon="0.37492">
        <ele>124.4</ele>
        <time>2021-05-02T13:29:29Z</time>
      </trkpt>
      <trkpt lat="46.51416" lon="0.37514">
        <ele>124.4</ele>
        <time>2021-05-02T13:29:35Z</time>
      </trkpt>
      <trkpt lat="46.51421" lon="0.37545">
        <ele>124</ele>
        <time>2021-05-02T13:29:43Z</time>
      </trkpt>
      <trkpt lat="46.51424" lon="0.37564">
        <ele>123.8</ele>
        <time>2021-05-02T13:29:49Z</time>
      </trkpt>
      <trkpt lat="46.51431" lon="0.37581">
        <ele>123</ele>
        <time>2021-05-02T13:29:55Z</time>
      </trkpt>
      <trkpt lat="46.51432" lon="0.37585">
        <ele>122.8</ele>
        <time>2021-05-02T13:29:56Z</time>
      </trkpt>
      <trkpt lat="46.51435" lon="0.37601">
        <ele>122</ele>
        <time>2021-05-02T13:30:00Z</time>
      </trkpt>
      <trkpt lat="46.51437" lon="0.37605">
        <ele>121.8</ele>
        <time>2021-05-02T13:30:01Z</time>
      </trkpt>
      <trkpt lat="46.51438" lon="0.3761">
        <ele>121.8</ele>
        <time>2021-05-02T13:30:02Z</time>
      </trkpt>
      <trkpt lat="46.5144" lon="0.37614">
        <ele>121.6</ele>
        <time>2021-05-02T13:30:03Z</time>
      </trkpt>
      <trkpt lat="46.51446" lon="0.37621">
        <ele>121.4</ele>
        <time>2021-05-02T13:30:05Z</time>
      </trkpt>
      <trkpt lat="46.51459" lon="0.37632">
        <ele>121.4</ele>
        <time>2021-05-02T13:30:10Z</time>
      </trkpt>
      <trkpt lat="46.51459" lon="0.37633">
        <ele>121.4</ele>
        <time>2021-05-02T13:30:11Z</time>
      </trkpt>
      <trkpt lat="46.51459" lon="0.37634">
        <ele>121.4</ele>
        <time>2021-05-02T13:30:13Z</time>
      </trkpt>
      <trkpt lat="46.51459" lon="0.37631">
        <ele>121.4</ele>
        <time>2021-05-02T13:30:15Z</time>
      </trkpt>
      <trkpt lat="46.51458" lon="0.37627">
        <ele>121.8</ele>
        <time>2021-05-02T13:30:18Z</time>
      </trkpt>
      <trkpt lat="46.51462" lon="0.37621">
        <ele>122.2</ele>
        <time>2021-05-02T13:30:23Z</time>
      </trkpt>
      <trkpt lat="46.51462" lon="0.37619">
        <ele>122</ele>
        <time>2021-05-02T13:30:26Z</time>
      </trkpt>
      <trkpt lat="46.51461" lon="0.3762">
        <ele>121.8</ele>
        <time>2021-05-02T13:30:35Z</time>
      </trkpt>
      <trkpt lat="46.51464" lon="0.37618">
        <ele>121.6</ele>
        <time>2021-05-02T13:30:49Z</time>
      </trkpt>
      <trkpt lat="46.51466" lon="0.37615">
        <ele>122</ele>
        <time>2021-05-02T13:30:55Z</time>
      </trkpt>
      <trkpt lat="46.51467" lon="0.37612">
        <ele>122.2</ele>
        <time>2021-05-02T13:30:57Z</time>
      </trkpt>
      <trkpt lat="46.51469" lon="0.3761">
        <ele>122.8</ele>
        <time>2021-05-02T13:30:59Z</time>
      </trkpt>
      <trkpt lat="46.51474" lon="0.3761">
        <ele>122.8</ele>
        <time>2021-05-02T13:31:04Z</time>
      </trkpt>
      <trkpt lat="46.51478" lon="0.37609">
        <ele>122.6</ele>
        <time>2021-05-02T13:31:08Z</time>
      </trkpt>
      <trkpt lat="46.51485" lon="0.37608">
        <ele>122</ele>
        <time>2021-05-02T13:31:18Z</time>
      </trkpt>
      <trkpt lat="46.5149" lon="0.37608">
        <ele>122.2</ele>
        <time>2021-05-02T13:31:21Z</time>
      </trkpt>
      <trkpt lat="46.51503" lon="0.37606">
        <ele>122</ele>
        <time>2021-05-02T13:31:27Z</time>
      </trkpt>
      <trkpt lat="46.51505" lon="0.37606">
        <ele>121.8</ele>
        <time>2021-05-02T13:31:28Z</time>
      </trkpt>
      <trkpt lat="46.51517" lon="0.37608">
        <ele>121.8</ele>
        <time>2021-05-02T13:31:34Z</time>
      </trkpt>
      <trkpt lat="46.51525" lon="0.37608">
        <ele>121</ele>
        <time>2021-05-02T13:31:40Z</time>
      </trkpt>
      <trkpt lat="46.5153" lon="0.37604">
        <ele>121.2</ele>
        <time>2021-05-02T13:31:43Z</time>
      </trkpt>
      <trkpt lat="46.51536" lon="0.37596">
        <ele>121.2</ele>
        <time>2021-05-02T13:31:47Z</time>
      </trkpt>
      <trkpt lat="46.51544" lon="0.37579">
        <ele>121.4</ele>
        <time>2021-05-02T13:31:53Z</time>
      </trkpt>
      <trkpt lat="46.51548" lon="0.37572">
        <ele>120.6</ele>
        <time>2021-05-02T13:31:56Z</time>
      </trkpt>
      <trkpt lat="46.51553" lon="0.37562">
        <ele>120.6</ele>
        <time>2021-05-02T13:31:59Z</time>
      </trkpt>
      <trkpt lat="46.51563" lon="0.37544">
        <ele>120.2</ele>
        <time>2021-05-02T13:32:05Z</time>
      </trkpt>
      <trkpt lat="46.51567" lon="0.37534">
        <ele>119.4</ele>
        <time>2021-05-02T13:32:08Z</time>
      </trkpt>
      <trkpt lat="46.5157" lon="0.37525">
        <ele>118.6</ele>
        <time>2021-05-02T13:32:11Z</time>
      </trkpt>
      <trkpt lat="46.51576" lon="0.37514">
        <ele>118.2</ele>
        <time>2021-05-02T13:32:15Z</time>
      </trkpt>
      <trkpt lat="46.51579" lon="0.37509">
        <ele>117.4</ele>
        <time>2021-05-02T13:32:17Z</time>
      </trkpt>
      <trkpt lat="46.51581" lon="0.37503">
        <ele>117</ele>
        <time>2021-05-02T13:32:19Z</time>
      </trkpt>
      <trkpt lat="46.51586" lon="0.37492">
        <ele>115.8</ele>
        <time>2021-05-02T13:32:24Z</time>
      </trkpt>
      <trkpt lat="46.51587" lon="0.3749">
        <ele>115</ele>
        <time>2021-05-02T13:32:25Z</time>
      </trkpt>
      <trkpt lat="46.51588" lon="0.37487">
        <ele>114.2</ele>
        <time>2021-05-02T13:32:26Z</time>
      </trkpt>
      <trkpt lat="46.51589" lon="0.37484">
        <ele>113.6</ele>
        <time>2021-05-02T13:32:29Z</time>
      </trkpt>
      <trkpt lat="46.5159" lon="0.37482">
        <ele>113.2</ele>
        <time>2021-05-02T13:32:32Z</time>
      </trkpt>
      <trkpt lat="46.51593" lon="0.3747">
        <ele>112.6</ele>
        <time>2021-05-02T13:32:39Z</time>
      </trkpt>
      <trkpt lat="46.51598" lon="0.37456">
        <ele>112</ele>
        <time>2021-05-02T13:32:43Z</time>
      </trkpt>
      <trkpt lat="46.516" lon="0.37452">
        <ele>111.6</ele>
        <time>2021-05-02T13:32:44Z</time>
      </trkpt>
      <trkpt lat="46.51604" lon="0.37444">
        <ele>110.6</ele>
        <time>2021-05-02T13:32:46Z</time>
      </trkpt>
      <trkpt lat="46.51607" lon="0.37436">
        <ele>109.4</ele>
        <time>2021-05-02T13:32:48Z</time>
      </trkpt>
      <trkpt lat="46.51608" lon="0.37434">
        <ele>108</ele>
        <time>2021-05-02T13:32:49Z</time>
      </trkpt>
      <trkpt lat="46.51609" lon="0.37432">
        <ele>107</ele>
        <time>2021-05-02T13:32:50Z</time>
      </trkpt>
      <trkpt lat="46.51609" lon="0.3743">
        <ele>105.8</ele>
        <time>2021-05-02T13:32:51Z</time>
      </trkpt>
      <trkpt lat="46.51609" lon="0.37429">
        <ele>104.6</ele>
        <time>2021-05-02T13:32:53Z</time>
      </trkpt>
      <trkpt lat="46.5161" lon="0.37429">
        <ele>104.2</ele>
        <time>2021-05-02T13:32:55Z</time>
      </trkpt>
      <trkpt lat="46.5161" lon="0.37427">
        <ele>104.2</ele>
        <time>2021-05-02T13:33:09Z</time>
      </trkpt>
      <trkpt lat="46.51612" lon="0.37422">
        <ele>104.2</ele>
        <time>2021-05-02T13:33:24Z</time>
      </trkpt>
      <trkpt lat="46.51613" lon="0.37422">
        <ele>104</ele>
        <time>2021-05-02T13:33:38Z</time>
      </trkpt>
      <trkpt lat="46.51615" lon="0.37415">
        <ele>103.6</ele>
        <time>2021-05-02T13:33:43Z</time>
      </trkpt>
      <trkpt lat="46.51617" lon="0.37406">
        <ele>102.2</ele>
        <time>2021-05-02T13:33:45Z</time>
      </trkpt>
      <trkpt lat="46.51618" lon="0.37401">
        <ele>100</ele>
        <time>2021-05-02T13:33:46Z</time>
      </trkpt>
      <trkpt lat="46.51619" lon="0.37396">
        <ele>99</ele>
        <time>2021-05-02T13:33:47Z</time>
      </trkpt>
      <trkpt lat="46.51619" lon="0.37395">
        <ele>96.6</ele>
        <time>2021-05-02T13:33:48Z</time>
      </trkpt>
      <trkpt lat="46.51619" lon="0.37393">
        <ele>95.4</ele>
        <time>2021-05-02T13:33:49Z</time>
      </trkpt>
      <trkpt lat="46.51618" lon="0.3739">
        <ele>94.2</ele>
        <time>2021-05-02T13:33:51Z</time>
      </trkpt>
      <trkpt lat="46.51615" lon="0.37383">
        <ele>93.6</ele>
        <time>2021-05-02T13:33:54Z</time>
      </trkpt>
      <trkpt lat="46.5161" lon="0.37371">
        <ele>93.6</ele>
        <time>2021-05-02T13:34:01Z</time>
      </trkpt>
      <trkpt lat="46.51604" lon="0.3736">
        <ele>93.8</ele>
        <time>2021-05-02T13:34:08Z</time>
      </trkpt>
      <trkpt lat="46.51603" lon="0.37358">
        <ele>93.8</ele>
        <time>2021-05-02T13:34:09Z</time>
      </trkpt>
      <trkpt lat="46.51601" lon="0.37354">
        <ele>93.8</ele>
        <time>2021-05-02T13:34:11Z</time>
      </trkpt>
      <trkpt lat="46.51601" lon="0.37349">
        <ele>93.8</ele>
        <time>2021-05-02T13:34:13Z</time>
      </trkpt>
      <trkpt lat="46.51597" lon="0.37338">
        <ele>93.8</ele>
        <time>2021-05-02T13:34:18Z</time>
      </trkpt>
      <trkpt lat="46.51588" lon="0.37316">
        <ele>93.6</ele>
        <time>2021-05-02T13:34:25Z</time>
      </trkpt>
      <trkpt lat="46.51581" lon="0.37297">
        <ele>94</ele>
        <time>2021-05-02T13:34:30Z</time>
      </trkpt>
      <trkpt lat="46.51577" lon="0.37272">
        <ele>93.6</ele>
        <time>2021-05-02T13:34:36Z</time>
      </trkpt>
      <trkpt lat="46.51574" lon="0.37248">
        <ele>93.6</ele>
        <time>2021-05-02T13:34:41Z</time>
      </trkpt>
      <trkpt lat="46.51571" lon="0.37218">
        <ele>93.4</ele>
        <time>2021-05-02T13:34:47Z</time>
      </trkpt>
      <trkpt lat="46.5157" lon="0.37194">
        <ele>93.8</ele>
        <time>2021-05-02T13:34:52Z</time>
      </trkpt>
      <trkpt lat="46.51563" lon="0.37168">
        <ele>94.6</ele>
        <time>2021-05-02T13:34:58Z</time>
      </trkpt>
      <trkpt lat="46.5156" lon="0.37152">
        <ele>95.6</ele>
        <time>2021-05-02T13:35:03Z</time>
      </trkpt>
      <trkpt lat="46.5156" lon="0.37148">
        <ele>96</ele>
        <time>2021-05-02T13:35:04Z</time>
      </trkpt>
      <trkpt lat="46.51556" lon="0.37136">
        <ele>96.8</ele>
        <time>2021-05-02T13:35:08Z</time>
      </trkpt>
      <trkpt lat="46.51555" lon="0.37126">
        <ele>97.6</ele>
        <time>2021-05-02T13:35:11Z</time>
      </trkpt>
      <trkpt lat="46.51554" lon="0.37123">
        <ele>98</ele>
        <time>2021-05-02T13:35:12Z</time>
      </trkpt>
      <trkpt lat="46.51545" lon="0.37106">
        <ele>98.8</ele>
        <time>2021-05-02T13:35:18Z</time>
      </trkpt>
      <trkpt lat="46.51543" lon="0.37103">
        <ele>98.8</ele>
        <time>2021-05-02T13:35:19Z</time>
      </trkpt>
      <trkpt lat="46.51541" lon="0.37101">
        <ele>98.8</ele>
        <time>2021-05-02T13:35:20Z</time>
      </trkpt>
      <trkpt lat="46.51536" lon="0.37103">
        <ele>99</ele>
        <time>2021-05-02T13:35:22Z</time>
      </trkpt>
      <trkpt lat="46.51531" lon="0.37103">
        <ele>100</ele>
        <time>2021-05-02T13:35:25Z</time>
      </trkpt>
      <trkpt lat="46.51527" lon="0.37103">
        <ele>100.6</ele>
        <time>2021-05-02T13:35:27Z</time>
      </trkpt>
      <trkpt lat="46.51522" lon="0.37101">
        <ele>101</ele>
        <time>2021-05-02T13:35:29Z</time>
      </trkpt>
      <trkpt lat="46.51511" lon="0.371">
        <ele>102.4</ele>
        <time>2021-05-02T13:35:33Z</time>
      </trkpt>
      <trkpt lat="46.51502" lon="0.371">
        <ele>103.6</ele>
        <time>2021-05-02T13:35:37Z</time>
      </trkpt>
      <trkpt lat="46.51497" lon="0.371">
        <ele>104.2</ele>
        <time>2021-05-02T13:35:39Z</time>
      </trkpt>
      <trkpt lat="46.51496" lon="0.37101">
        <ele>104.4</ele>
        <time>2021-05-02T13:35:40Z</time>
      </trkpt>
      <trkpt lat="46.51494" lon="0.37102">
        <ele>105</ele>
        <time>2021-05-02T13:35:41Z</time>
      </trkpt>
      <trkpt lat="46.51489" lon="0.37108">
        <ele>106.6</ele>
        <time>2021-05-02T13:35:45Z</time>
      </trkpt>
      <trkpt lat="46.51488" lon="0.37109">
        <ele>107</ele>
        <time>2021-05-02T13:35:46Z</time>
      </trkpt>
      <trkpt lat="46.51484" lon="0.37113">
        <ele>107.8</ele>
        <time>2021-05-02T13:35:48Z</time>
      </trkpt>
      <trkpt lat="46.51473" lon="0.3712">
        <ele>109.2</ele>
        <time>2021-05-02T13:35:53Z</time>
      </trkpt>
      <trkpt lat="46.51468" lon="0.37127">
        <ele>110.4</ele>
        <time>2021-05-02T13:35:57Z</time>
      </trkpt>
      <trkpt lat="46.51461" lon="0.37132">
        <ele>111.4</ele>
        <time>2021-05-02T13:36:00Z</time>
      </trkpt>
      <trkpt lat="46.51458" lon="0.37135">
        <ele>111.6</ele>
        <time>2021-05-02T13:36:01Z</time>
      </trkpt>
      <trkpt lat="46.51454" lon="0.37139">
        <ele>112.8</ele>
        <time>2021-05-02T13:36:05Z</time>
      </trkpt>
      <trkpt lat="46.5145" lon="0.37146">
        <ele>113.6</ele>
        <time>2021-05-02T13:36:08Z</time>
      </trkpt>
      <trkpt lat="46.51449" lon="0.37148">
        <ele>113.8</ele>
        <time>2021-05-02T13:36:09Z</time>
      </trkpt>
      <trkpt lat="46.51446" lon="0.3716">
        <ele>115</ele>
        <time>2021-05-02T13:36:14Z</time>
      </trkpt>
      <trkpt lat="46.51444" lon="0.37165">
        <ele>115.2</ele>
        <time>2021-05-02T13:36:16Z</time>
      </trkpt>
      <trkpt lat="46.5144" lon="0.37176">
        <ele>116</ele>
        <time>2021-05-02T13:36:21Z</time>
      </trkpt>
      <trkpt lat="46.51439" lon="0.37178">
        <ele>116.4</ele>
        <time>2021-05-02T13:36:22Z</time>
      </trkpt>
      <trkpt lat="46.51437" lon="0.37183">
        <ele>117.2</ele>
        <time>2021-05-02T13:36:25Z</time>
      </trkpt>
      <trkpt lat="46.51433" lon="0.37191">
        <ele>118.2</ele>
        <time>2021-05-02T13:36:30Z</time>
      </trkpt>
      <trkpt lat="46.51426" lon="0.372">
        <ele>119.4</ele>
        <time>2021-05-02T13:36:35Z</time>
      </trkpt>
      <trkpt lat="46.51424" lon="0.37204">
        <ele>119.8</ele>
        <time>2021-05-02T13:36:37Z</time>
      </trkpt>
      <trkpt lat="46.51421" lon="0.37214">
        <ele>120.6</ele>
        <time>2021-05-02T13:36:43Z</time>
      </trkpt>
      <trkpt lat="46.5142" lon="0.37218">
        <ele>121.2</ele>
        <time>2021-05-02T13:36:45Z</time>
      </trkpt>
      <trkpt lat="46.51418" lon="0.37222">
        <ele>121.6</ele>
        <time>2021-05-02T13:36:47Z</time>
      </trkpt>
      <trkpt lat="46.51416" lon="0.37233">
        <ele>122.4</ele>
        <time>2021-05-02T13:36:53Z</time>
      </trkpt>
      <trkpt lat="46.51414" lon="0.37238">
        <ele>122.8</ele>
        <time>2021-05-02T13:36:55Z</time>
      </trkpt>
      <trkpt lat="46.51414" lon="0.37251">
        <ele>123</ele>
        <time>2021-05-02T13:37:00Z</time>
      </trkpt>
      <trkpt lat="46.51415" lon="0.37268">
        <ele>123.6</ele>
        <time>2021-05-02T13:37:06Z</time>
      </trkpt>
      <trkpt lat="46.51416" lon="0.37274">
        <ele>123.8</ele>
        <time>2021-05-02T13:37:08Z</time>
      </trkpt>
      <trkpt lat="46.5142" lon="0.37276">
        <ele>123.8</ele>
        <time>2021-05-02T13:37:10Z</time>
      </trkpt>
      <trkpt lat="46.51427" lon="0.37275">
        <ele>123.4</ele>
        <time>2021-05-02T13:37:13Z</time>
      </trkpt>
      <trkpt lat="46.51433" lon="0.37273">
        <ele>123</ele>
        <time>2021-05-02T13:37:15Z</time>
      </trkpt>
      <trkpt lat="46.51437" lon="0.37272">
        <ele>122.4</ele>
        <time>2021-05-02T13:37:16Z</time>
      </trkpt>
      <trkpt lat="46.51446" lon="0.37269">
        <ele>120.8</ele>
        <time>2021-05-02T13:37:18Z</time>
      </trkpt>
      <trkpt lat="46.51449" lon="0.37268">
        <ele>119.8</ele>
        <time>2021-05-02T13:37:19Z</time>
      </trkpt>
      <trkpt lat="46.51453" lon="0.37266">
        <ele>118.8</ele>
        <time>2021-05-02T13:37:20Z</time>
      </trkpt>
      <trkpt lat="46.51456" lon="0.37263">
        <ele>118.4</ele>
        <time>2021-05-02T13:37:21Z</time>
      </trkpt>
      <trkpt lat="46.51458" lon="0.3726">
        <ele>118</ele>
        <time>2021-05-02T13:37:22Z</time>
      </trkpt>
      <trkpt lat="46.51461" lon="0.37254">
        <ele>117.8</ele>
        <time>2021-05-02T13:37:24Z</time>
      </trkpt>
      <trkpt lat="46.51466" lon="0.37249">
        <ele>116.8</ele>
        <time>2021-05-02T13:37:27Z</time>
      </trkpt>
      <trkpt lat="46.51468" lon="0.37244">
        <ele>115.6</ele>
        <time>2021-05-02T13:37:29Z</time>
      </trkpt>
      <trkpt lat="46.51473" lon="0.37235">
        <ele>114.4</ele>
        <time>2021-05-02T13:37:32Z</time>
      </trkpt>
      <trkpt lat="46.51475" lon="0.37233">
        <ele>114.2</ele>
        <time>2021-05-02T13:37:33Z</time>
      </trkpt>
      <trkpt lat="46.51477" lon="0.37231">
        <ele>113.8</ele>
        <time>2021-05-02T13:37:34Z</time>
      </trkpt>
      <trkpt lat="46.51479" lon="0.37228">
        <ele>113.2</ele>
        <time>2021-05-02T13:37:35Z</time>
      </trkpt>
      <trkpt lat="46.51485" lon="0.37222">
        <ele>111.2</ele>
        <time>2021-05-02T13:37:37Z</time>
      </trkpt>
      <trkpt lat="46.51488" lon="0.37221">
        <ele>110.4</ele>
        <time>2021-05-02T13:37:38Z</time>
      </trkpt>
      <trkpt lat="46.5149" lon="0.37219">
        <ele>109.4</ele>
        <time>2021-05-02T13:37:39Z</time>
      </trkpt>
      <trkpt lat="46.51492" lon="0.37217">
        <ele>108.2</ele>
        <time>2021-05-02T13:37:40Z</time>
      </trkpt>
      <trkpt lat="46.51494" lon="0.37215">
        <ele>106.8</ele>
        <time>2021-05-02T13:37:41Z</time>
      </trkpt>
      <trkpt lat="46.51499" lon="0.37212">
        <ele>105.6</ele>
        <time>2021-05-02T13:37:43Z</time>
      </trkpt>
      <trkpt lat="46.51502" lon="0.3721">
        <ele>105</ele>
        <time>2021-05-02T13:37:44Z</time>
      </trkpt>
      <trkpt lat="46.51508" lon="0.37208">
        <ele>102.8</ele>
        <time>2021-05-02T13:37:45Z</time>
      </trkpt>
      <trkpt lat="46.51512" lon="0.37205">
        <ele>101.2</ele>
        <time>2021-05-02T13:37:46Z</time>
      </trkpt>
      <trkpt lat="46.51515" lon="0.37202">
        <ele>100</ele>
        <time>2021-05-02T13:37:47Z</time>
      </trkpt>
      <trkpt lat="46.51517" lon="0.37201">
        <ele>98.4</ele>
        <time>2021-05-02T13:37:48Z</time>
      </trkpt>
      <trkpt lat="46.51519" lon="0.372">
        <ele>97</ele>
        <time>2021-05-02T13:37:49Z</time>
      </trkpt>
      <trkpt lat="46.51521" lon="0.37199">
        <ele>95.8</ele>
        <time>2021-05-02T13:37:50Z</time>
      </trkpt>
      <trkpt lat="46.51524" lon="0.37194">
        <ele>94.6</ele>
        <time>2021-05-02T13:37:52Z</time>
      </trkpt>
      <trkpt lat="46.51525" lon="0.37191">
        <ele>94.2</ele>
        <time>2021-05-02T13:37:54Z</time>
      </trkpt>
      <trkpt lat="46.51529" lon="0.37172">
        <ele>94.4</ele>
        <time>2021-05-02T13:38:00Z</time>
      </trkpt>
      <trkpt lat="46.51532" lon="0.37149">
        <ele>95.6</ele>
        <time>2021-05-02T13:38:08Z</time>
      </trkpt>
      <trkpt lat="46.51531" lon="0.37147">
        <ele>95.8</ele>
        <time>2021-05-02T13:38:09Z</time>
      </trkpt>
      <trkpt lat="46.5153" lon="0.37143">
        <ele>96</ele>
        <time>2021-05-02T13:38:11Z</time>
      </trkpt>
      <trkpt lat="46.5153" lon="0.37139">
        <ele>96.4</ele>
        <time>2021-05-02T13:38:13Z</time>
      </trkpt>
      <trkpt lat="46.51531" lon="0.37133">
        <ele>96.8</ele>
        <time>2021-05-02T13:38:16Z</time>
      </trkpt>
      <trkpt lat="46.51532" lon="0.37127">
        <ele>97.4</ele>
        <time>2021-05-02T13:38:19Z</time>
      </trkpt>
      <trkpt lat="46.51531" lon="0.37121">
        <ele>97.8</ele>
        <time>2021-05-02T13:38:23Z</time>
      </trkpt>
      <trkpt lat="46.51531" lon="0.37116">
        <ele>98.4</ele>
        <time>2021-05-02T13:38:26Z</time>
      </trkpt>
      <trkpt lat="46.51531" lon="0.37114">
        <ele>98.6</ele>
        <time>2021-05-02T13:38:27Z</time>
      </trkpt>
      <trkpt lat="46.5153" lon="0.37108">
        <ele>99</ele>
        <time>2021-05-02T13:38:30Z</time>
      </trkpt>
      <trkpt lat="46.51528" lon="0.37102">
        <ele>99.2</ele>
        <time>2021-05-02T13:38:34Z</time>
      </trkpt>
      <trkpt lat="46.51525" lon="0.37095">
        <ele>99.4</ele>
        <time>2021-05-02T13:38:37Z</time>
      </trkpt>
      <trkpt lat="46.51523" lon="0.37096">
        <ele>99.6</ele>
        <time>2021-05-02T13:38:39Z</time>
      </trkpt>
      <trkpt lat="46.51521" lon="0.37099">
        <ele>100</ele>
        <time>2021-05-02T13:38:41Z</time>
      </trkpt>
      <trkpt lat="46.51519" lon="0.37099">
        <ele>100.2</ele>
        <time>2021-05-02T13:38:42Z</time>
      </trkpt>
      <trkpt lat="46.51516" lon="0.37099">
        <ele>100.6</ele>
        <time>2021-05-02T13:38:44Z</time>
      </trkpt>
      <trkpt lat="46.51514" lon="0.37098">
        <ele>101</ele>
        <time>2021-05-02T13:38:45Z</time>
      </trkpt>
      <trkpt lat="46.51503" lon="0.37098">
        <ele>102</ele>
        <time>2021-05-02T13:38:50Z</time>
      </trkpt>
      <trkpt lat="46.51501" lon="0.37098">
        <ele>102.6</ele>
        <time>2021-05-02T13:38:51Z</time>
      </trkpt>
      <trkpt lat="46.51497" lon="0.37099">
        <ele>103.2</ele>
        <time>2021-05-02T13:38:53Z</time>
      </trkpt>
      <trkpt lat="46.51491" lon="0.371">
        <ele>104.4</ele>
        <time>2021-05-02T13:38:56Z</time>
      </trkpt>
      <trkpt lat="46.51486" lon="0.37102">
        <ele>105.4</ele>
        <time>2021-05-02T13:38:59Z</time>
      </trkpt>
      <trkpt lat="46.51481" lon="0.37104">
        <ele>106.6</ele>
        <time>2021-05-02T13:39:01Z</time>
      </trkpt>
      <trkpt lat="46.51477" lon="0.37108">
        <ele>107.8</ele>
        <time>2021-05-02T13:39:04Z</time>
      </trkpt>
      <trkpt lat="46.51473" lon="0.37111">
        <ele>108.2</ele>
        <time>2021-05-02T13:39:06Z</time>
      </trkpt>
      <trkpt lat="46.51467" lon="0.37116">
        <ele>109</ele>
        <time>2021-05-02T13:39:10Z</time>
      </trkpt>
      <trkpt lat="46.51462" lon="0.3712">
        <ele>110.2</ele>
        <time>2021-05-02T13:39:13Z</time>
      </trkpt>
      <trkpt lat="46.51457" lon="0.37127">
        <ele>111.2</ele>
        <time>2021-05-02T13:39:17Z</time>
      </trkpt>
      <trkpt lat="46.51454" lon="0.37132">
        <ele>112</ele>
        <time>2021-05-02T13:39:20Z</time>
      </trkpt>
      <trkpt lat="46.51451" lon="0.37135">
        <ele>112.8</ele>
        <time>2021-05-02T13:39:22Z</time>
      </trkpt>
      <trkpt lat="46.51447" lon="0.37141">
        <ele>114</ele>
        <time>2021-05-02T13:39:26Z</time>
      </trkpt>
      <trkpt lat="46.51447" lon="0.37143">
        <ele>114.2</ele>
        <time>2021-05-02T13:39:27Z</time>
      </trkpt>
      <trkpt lat="46.51442" lon="0.3716">
        <ele>115.2</ele>
        <time>2021-05-02T13:39:34Z</time>
      </trkpt>
      <trkpt lat="46.51444" lon="0.37176">
        <ele>115.8</ele>
        <time>2021-05-02T13:39:40Z</time>
      </trkpt>
      <trkpt lat="46.51445" lon="0.3718">
        <ele>116</ele>
        <time>2021-05-02T13:39:42Z</time>
      </trkpt>
      <trkpt lat="46.51449" lon="0.37181">
        <ele>116</ele>
        <time>2021-05-02T13:39:44Z</time>
      </trkpt>
      <trkpt lat="46.51463" lon="0.37175">
        <ele>115.8</ele>
        <time>2021-05-02T13:39:48Z</time>
      </trkpt>
      <trkpt lat="46.51477" lon="0.37167">
        <ele>114.8</ele>
        <time>2021-05-02T13:39:51Z</time>
      </trkpt>
      <trkpt lat="46.51482" lon="0.37163">
        <ele>113</ele>
        <time>2021-05-02T13:39:52Z</time>
      </trkpt>
      <trkpt lat="46.51486" lon="0.3716">
        <ele>112</ele>
        <time>2021-05-02T13:39:53Z</time>
      </trkpt>
      <trkpt lat="46.51488" lon="0.37159">
        <ele>111.2</ele>
        <time>2021-05-02T13:39:54Z</time>
      </trkpt>
      <trkpt lat="46.5149" lon="0.37158">
        <ele>109.8</ele>
        <time>2021-05-02T13:39:55Z</time>
      </trkpt>
      <trkpt lat="46.51491" lon="0.3716">
        <ele>108.4</ele>
        <time>2021-05-02T13:39:56Z</time>
      </trkpt>
      <trkpt lat="46.51492" lon="0.37163">
        <ele>107.2</ele>
        <time>2021-05-02T13:39:58Z</time>
      </trkpt>
      <trkpt lat="46.51494" lon="0.37165">
        <ele>106.4</ele>
        <time>2021-05-02T13:40:00Z</time>
      </trkpt>
      <trkpt lat="46.51495" lon="0.37165">
        <ele>106.2</ele>
        <time>2021-05-02T13:40:01Z</time>
      </trkpt>
      <trkpt lat="46.51496" lon="0.37166">
        <ele>106</ele>
        <time>2021-05-02T13:40:02Z</time>
      </trkpt>
      <trkpt lat="46.51503" lon="0.37165">
        <ele>105.4</ele>
        <time>2021-05-02T13:40:09Z</time>
      </trkpt>
      <trkpt lat="46.51506" lon="0.37159">
        <ele>105.4</ele>
        <time>2021-05-02T13:40:16Z</time>
      </trkpt>
      <trkpt lat="46.5151" lon="0.37153">
        <ele>105.4</ele>
        <time>2021-05-02T13:40:19Z</time>
      </trkpt>
      <trkpt lat="46.51513" lon="0.3715">
        <ele>104.8</ele>
        <time>2021-05-02T13:40:21Z</time>
      </trkpt>
      <trkpt lat="46.5152" lon="0.37148">
        <ele>103.4</ele>
        <time>2021-05-02T13:40:25Z</time>
      </trkpt>
      <trkpt lat="46.51525" lon="0.37145">
        <ele>101.8</ele>
        <time>2021-05-02T13:40:27Z</time>
      </trkpt>
      <trkpt lat="46.51526" lon="0.37144">
        <ele>100.8</ele>
        <time>2021-05-02T13:40:28Z</time>
      </trkpt>
      <trkpt lat="46.51528" lon="0.37145">
        <ele>100.2</ele>
        <time>2021-05-02T13:40:29Z</time>
      </trkpt>
      <trkpt lat="46.5153" lon="0.37147">
        <ele>99.4</ele>
        <time>2021-05-02T13:40:30Z</time>
      </trkpt>
      <trkpt lat="46.51533" lon="0.3715">
        <ele>98.4</ele>
        <time>2021-05-02T13:40:31Z</time>
      </trkpt>
      <trkpt lat="46.51535" lon="0.37153">
        <ele>96.4</ele>
        <time>2021-05-02T13:40:32Z</time>
      </trkpt>
      <trkpt lat="46.51536" lon="0.37156">
        <ele>95.2</ele>
        <time>2021-05-02T13:40:33Z</time>
      </trkpt>
      <trkpt lat="46.51536" lon="0.37161">
        <ele>94.2</ele>
        <time>2021-05-02T13:40:35Z</time>
      </trkpt>
      <trkpt lat="46.51535" lon="0.37163">
        <ele>94</ele>
        <time>2021-05-02T13:40:36Z</time>
      </trkpt>
      <trkpt lat="46.51534" lon="0.37161">
        <ele>93.6</ele>
        <time>2021-05-02T13:40:38Z</time>
      </trkpt>
      <trkpt lat="46.51534" lon="0.37156">
        <ele>93.6</ele>
        <time>2021-05-02T13:40:40Z</time>
      </trkpt>
      <trkpt lat="46.51532" lon="0.37141">
        <ele>94</ele>
        <time>2021-05-02T13:40:47Z</time>
      </trkpt>
      <trkpt lat="46.51529" lon="0.37132">
        <ele>95.2</ele>
        <time>2021-05-02T13:40:52Z</time>
      </trkpt>
      <trkpt lat="46.51528" lon="0.37127">
        <ele>95.6</ele>
        <time>2021-05-02T13:40:55Z</time>
      </trkpt>
      <trkpt lat="46.51528" lon="0.37121">
        <ele>96.2</ele>
        <time>2021-05-02T13:40:58Z</time>
      </trkpt>
      <trkpt lat="46.51529" lon="0.37117">
        <ele>98.2</ele>
        <time>2021-05-02T13:41:01Z</time>
      </trkpt>
      <trkpt lat="46.51529" lon="0.37115">
        <ele>98.2</ele>
        <time>2021-05-02T13:41:02Z</time>
      </trkpt>
      <trkpt lat="46.51529" lon="0.37113">
        <ele>98.2</ele>
        <time>2021-05-02T13:41:03Z</time>
      </trkpt>
      <trkpt lat="46.51527" lon="0.37105">
        <ele>98.6</ele>
        <time>2021-05-02T13:41:08Z</time>
      </trkpt>
      <trkpt lat="46.51527" lon="0.37104">
        <ele>98.8</ele>
        <time>2021-05-02T13:41:09Z</time>
      </trkpt>
      <trkpt lat="46.51525" lon="0.371">
        <ele>99.2</ele>
        <time>2021-05-02T13:41:13Z</time>
      </trkpt>
      <trkpt lat="46.51523" lon="0.37095">
        <ele>99.4</ele>
        <time>2021-05-02T13:41:16Z</time>
      </trkpt>
      <trkpt lat="46.51518" lon="0.3708">
        <ele>99.2</ele>
        <time>2021-05-02T13:41:22Z</time>
      </trkpt>
      <trkpt lat="46.51511" lon="0.37052">
        <ele>99.2</ele>
        <time>2021-05-02T13:41:29Z</time>
      </trkpt>
      <trkpt lat="46.51509" lon="0.37026">
        <ele>99.8</ele>
        <time>2021-05-02T13:41:35Z</time>
      </trkpt>
      <trkpt lat="46.51509" lon="0.36997">
        <ele>98.8</ele>
        <time>2021-05-02T13:41:42Z</time>
      </trkpt>
      <trkpt lat="46.5151" lon="0.36975">
        <ele>98.6</ele>
        <time>2021-05-02T13:41:49Z</time>
      </trkpt>
      <trkpt lat="46.51507" lon="0.36968">
        <ele>98.8</ele>
        <time>2021-05-02T13:41:52Z</time>
      </trkpt>
      <trkpt lat="46.51506" lon="0.36967">
        <ele>99.6</ele>
        <time>2021-05-02T13:41:54Z</time>
      </trkpt>
      <trkpt lat="46.51503" lon="0.36966">
        <ele>100</ele>
        <time>2021-05-02T13:41:56Z</time>
      </trkpt>
      <trkpt lat="46.51501" lon="0.36965">
        <ele>100.6</ele>
        <time>2021-05-02T13:41:58Z</time>
      </trkpt>
      <trkpt lat="46.51498" lon="0.36964">
        <ele>101.4</ele>
        <time>2021-05-02T13:42:00Z</time>
      </trkpt>
      <trkpt lat="46.51498" lon="0.36963">
        <ele>101.8</ele>
        <time>2021-05-02T13:42:01Z</time>
      </trkpt>
      <trkpt lat="46.51493" lon="0.36966">
        <ele>103</ele>
        <time>2021-05-02T13:42:04Z</time>
      </trkpt>
      <trkpt lat="46.51492" lon="0.36967">
        <ele>103.2</ele>
        <time>2021-05-02T13:42:05Z</time>
      </trkpt>
      <trkpt lat="46.51484" lon="0.3698">
        <ele>104</ele>
        <time>2021-05-02T13:42:13Z</time>
      </trkpt>
      <trkpt lat="46.51478" lon="0.3699">
        <ele>105</ele>
        <time>2021-05-02T13:42:20Z</time>
      </trkpt>
      <trkpt lat="46.51471" lon="0.37001">
        <ele>105.6</ele>
        <time>2021-05-02T13:42:27Z</time>
      </trkpt>
      <trkpt lat="46.51466" lon="0.37008">
        <ele>106.2</ele>
        <time>2021-05-02T13:42:32Z</time>
      </trkpt>
      <trkpt lat="46.51462" lon="0.37012">
        <ele>106.4</ele>
        <time>2021-05-02T13:42:34Z</time>
      </trkpt>
      <trkpt lat="46.51452" lon="0.37022">
        <ele>106.8</ele>
        <time>2021-05-02T13:42:41Z</time>
      </trkpt>
      <trkpt lat="46.51443" lon="0.37032">
        <ele>107.2</ele>
        <time>2021-05-02T13:42:48Z</time>
      </trkpt>
      <trkpt lat="46.51442" lon="0.37033">
        <ele>107.2</ele>
        <time>2021-05-02T13:42:49Z</time>
      </trkpt>
      <trkpt lat="46.51439" lon="0.37039">
        <ele>107.4</ele>
        <time>2021-05-02T13:42:53Z</time>
      </trkpt>
      <trkpt lat="46.51436" lon="0.3704">
        <ele>107.6</ele>
        <time>2021-05-02T13:42:55Z</time>
      </trkpt>
      <trkpt lat="46.51434" lon="0.37039">
        <ele>108</ele>
        <time>2021-05-02T13:42:58Z</time>
      </trkpt>
      <trkpt lat="46.51433" lon="0.37039">
        <ele>108</ele>
        <time>2021-05-02T13:42:59Z</time>
      </trkpt>
      <trkpt lat="46.51432" lon="0.37039">
        <ele>108.4</ele>
        <time>2021-05-02T13:43:00Z</time>
      </trkpt>
      <trkpt lat="46.51431" lon="0.37038">
        <ele>108.8</ele>
        <time>2021-05-02T13:43:02Z</time>
      </trkpt>
      <trkpt lat="46.5143" lon="0.37037">
        <ele>109.4</ele>
        <time>2021-05-02T13:43:03Z</time>
      </trkpt>
      <trkpt lat="46.51429" lon="0.37034">
        <ele>110.6</ele>
        <time>2021-05-02T13:43:05Z</time>
      </trkpt>
      <trkpt lat="46.51425" lon="0.37033">
        <ele>111.6</ele>
        <time>2021-05-02T13:43:08Z</time>
      </trkpt>
      <trkpt lat="46.51423" lon="0.37032">
        <ele>112.4</ele>
        <time>2021-05-02T13:43:10Z</time>
      </trkpt>
      <trkpt lat="46.51422" lon="0.37032">
        <ele>112.8</ele>
        <time>2021-05-02T13:43:11Z</time>
      </trkpt>
      <trkpt lat="46.5142" lon="0.37029">
        <ele>113.6</ele>
        <time>2021-05-02T13:43:13Z</time>
      </trkpt>
      <trkpt lat="46.51418" lon="0.37027">
        <ele>114</ele>
        <time>2021-05-02T13:43:15Z</time>
      </trkpt>
      <trkpt lat="46.51415" lon="0.37024">
        <ele>114.6</ele>
        <time>2021-05-02T13:43:18Z</time>
      </trkpt>
      <trkpt lat="46.51414" lon="0.37023">
        <ele>115</ele>
        <time>2021-05-02T13:43:19Z</time>
      </trkpt>
      <trkpt lat="46.51413" lon="0.3702">
        <ele>115.8</ele>
        <time>2021-05-02T13:43:21Z</time>
      </trkpt>
      <trkpt lat="46.51413" lon="0.37018">
        <ele>116.2</ele>
        <time>2021-05-02T13:43:22Z</time>
      </trkpt>
      <trkpt lat="46.51409" lon="0.37017">
        <ele>116.6</ele>
        <time>2021-05-02T13:43:24Z</time>
      </trkpt>
      <trkpt lat="46.51408" lon="0.37017">
        <ele>116.8</ele>
        <time>2021-05-02T13:43:25Z</time>
      </trkpt>
      <trkpt lat="46.514" lon="0.37016">
        <ele>117.2</ele>
        <time>2021-05-02T13:43:28Z</time>
      </trkpt>
      <trkpt lat="46.51392" lon="0.37015">
        <ele>117.8</ele>
        <time>2021-05-02T13:43:32Z</time>
      </trkpt>
      <trkpt lat="46.51388" lon="0.37013">
        <ele>118.4</ele>
        <time>2021-05-02T13:43:35Z</time>
      </trkpt>
      <trkpt lat="46.51385" lon="0.37012">
        <ele>119</ele>
        <time>2021-05-02T13:43:37Z</time>
      </trkpt>
      <trkpt lat="46.5138" lon="0.3701">
        <ele>119.4</ele>
        <time>2021-05-02T13:43:39Z</time>
      </trkpt>
      <trkpt lat="46.51369" lon="0.37002">
        <ele>120.6</ele>
        <time>2021-05-02T13:43:45Z</time>
      </trkpt>
      <trkpt lat="46.51369" lon="0.37001">
        <ele>120.8</ele>
        <time>2021-05-02T13:43:46Z</time>
      </trkpt>
      <trkpt lat="46.51366" lon="0.36997">
        <ele>121.2</ele>
        <time>2021-05-02T13:43:49Z</time>
      </trkpt>
      <trkpt lat="46.51365" lon="0.36994">
        <ele>121.6</ele>
        <time>2021-05-02T13:43:51Z</time>
      </trkpt>
      <trkpt lat="46.51361" lon="0.3699">
        <ele>122.2</ele>
        <time>2021-05-02T13:43:54Z</time>
      </trkpt>
      <trkpt lat="46.5136" lon="0.3699">
        <ele>122.4</ele>
        <time>2021-05-02T13:43:55Z</time>
      </trkpt>
      <trkpt lat="46.51358" lon="0.36988">
        <ele>122.8</ele>
        <time>2021-05-02T13:43:56Z</time>
      </trkpt>
      <trkpt lat="46.51353" lon="0.36986">
        <ele>123.6</ele>
        <time>2021-05-02T13:43:59Z</time>
      </trkpt>
      <trkpt lat="46.5135" lon="0.36984">
        <ele>123.8</ele>
        <time>2021-05-02T13:44:01Z</time>
      </trkpt>
      <trkpt lat="46.51349" lon="0.36984">
        <ele>123.8</ele>
        <time>2021-05-02T13:44:02Z</time>
      </trkpt>
      <trkpt lat="46.51347" lon="0.36984">
        <ele>124</ele>
        <time>2021-05-02T13:44:04Z</time>
      </trkpt>
      <trkpt lat="46.51335" lon="0.36981">
        <ele>125</ele>
        <time>2021-05-02T13:44:09Z</time>
      </trkpt>
      <trkpt lat="46.51327" lon="0.36977">
        <ele>126</ele>
        <time>2021-05-02T13:44:15Z</time>
      </trkpt>
      <trkpt lat="46.51326" lon="0.36976">
        <ele>126</ele>
        <time>2021-05-02T13:44:16Z</time>
      </trkpt>
      <trkpt lat="46.51324" lon="0.36972">
        <ele>126.2</ele>
        <time>2021-05-02T13:44:18Z</time>
      </trkpt>
      <trkpt lat="46.51323" lon="0.36968">
        <ele>126.6</ele>
        <time>2021-05-02T13:44:20Z</time>
      </trkpt>
      <trkpt lat="46.5132" lon="0.36965">
        <ele>126.8</ele>
        <time>2021-05-02T13:44:22Z</time>
      </trkpt>
      <trkpt lat="46.51319" lon="0.36965">
        <ele>127.2</ele>
        <time>2021-05-02T13:44:23Z</time>
      </trkpt>
      <trkpt lat="46.51311" lon="0.36966">
        <ele>127.6</ele>
        <time>2021-05-02T13:44:27Z</time>
      </trkpt>
      <trkpt lat="46.51301" lon="0.36968">
        <ele>128.2</ele>
        <time>2021-05-02T13:44:32Z</time>
      </trkpt>
      <trkpt lat="46.51299" lon="0.36968">
        <ele>128.4</ele>
        <time>2021-05-02T13:44:33Z</time>
      </trkpt>
      <trkpt lat="46.51286" lon="0.36973">
        <ele>128.6</ele>
        <time>2021-05-02T13:44:38Z</time>
      </trkpt>
      <trkpt lat="46.51273" lon="0.36982">
        <ele>128.8</ele>
        <time>2021-05-02T13:44:43Z</time>
      </trkpt>
      <trkpt lat="46.5127" lon="0.36984">
        <ele>129</ele>
        <time>2021-05-02T13:44:44Z</time>
      </trkpt>
      <trkpt lat="46.51259" lon="0.36989">
        <ele>129.2</ele>
        <time>2021-05-02T13:44:47Z</time>
      </trkpt>
      <trkpt lat="46.51252" lon="0.3699">
        <ele>129.2</ele>
        <time>2021-05-02T13:44:49Z</time>
      </trkpt>
      <trkpt lat="46.51237" lon="0.36995">
        <ele>129.8</ele>
        <time>2021-05-02T13:44:55Z</time>
      </trkpt>
      <trkpt lat="46.51234" lon="0.36996">
        <ele>130</ele>
        <time>2021-05-02T13:44:56Z</time>
      </trkpt>
      <trkpt lat="46.51226" lon="0.37004">
        <ele>130.2</ele>
        <time>2021-05-02T13:44:59Z</time>
      </trkpt>
      <trkpt lat="46.51208" lon="0.37017">
        <ele>130.8</ele>
        <time>2021-05-02T13:45:06Z</time>
      </trkpt>
      <trkpt lat="46.51196" lon="0.37019">
        <ele>131.4</ele>
        <time>2021-05-02T13:45:10Z</time>
      </trkpt>
      <trkpt lat="46.51192" lon="0.37019">
        <ele>131.8</ele>
        <time>2021-05-02T13:45:11Z</time>
      </trkpt>
      <trkpt lat="46.51175" lon="0.37019">
        <ele>132.6</ele>
        <time>2021-05-02T13:45:17Z</time>
      </trkpt>
      <trkpt lat="46.5116" lon="0.3702">
        <ele>132.8</ele>
        <time>2021-05-02T13:45:23Z</time>
      </trkpt>
      <trkpt lat="46.51159" lon="0.37019">
        <ele>132.8</ele>
        <time>2021-05-02T13:45:24Z</time>
      </trkpt>
      <trkpt lat="46.51154" lon="0.37018">
        <ele>133.2</ele>
        <time>2021-05-02T13:45:28Z</time>
      </trkpt>
      <trkpt lat="46.51154" lon="0.37017">
        <ele>133</ele>
        <time>2021-05-02T13:45:29Z</time>
      </trkpt>
      <trkpt lat="46.51153" lon="0.37009">
        <ele>133</ele>
        <time>2021-05-02T13:45:34Z</time>
      </trkpt>
      <trkpt lat="46.51152" lon="0.37008">
        <ele>133</ele>
        <time>2021-05-02T13:45:35Z</time>
      </trkpt>
      <trkpt lat="46.51151" lon="0.37004">
        <ele>133</ele>
        <time>2021-05-02T13:45:37Z</time>
      </trkpt>
      <trkpt lat="46.51149" lon="0.36993">
        <ele>133.2</ele>
        <time>2021-05-02T13:45:42Z</time>
      </trkpt>
      <trkpt lat="46.51149" lon="0.36989">
        <ele>133</ele>
        <time>2021-05-02T13:45:44Z</time>
      </trkpt>
      <trkpt lat="46.51148" lon="0.3698">
        <ele>133</ele>
        <time>2021-05-02T13:45:48Z</time>
      </trkpt>
      <trkpt lat="46.5114" lon="0.36967">
        <ele>133.2</ele>
        <time>2021-05-02T13:45:53Z</time>
      </trkpt>
      <trkpt lat="46.51136" lon="0.36949">
        <ele>133.4</ele>
        <time>2021-05-02T13:46:00Z</time>
      </trkpt>
      <trkpt lat="46.51132" lon="0.36929">
        <ele>133.4</ele>
        <time>2021-05-02T13:46:06Z</time>
      </trkpt>
      <trkpt lat="46.5113" lon="0.36921">
        <ele>133.6</ele>
        <time>2021-05-02T13:46:09Z</time>
      </trkpt>
      <trkpt lat="46.51129" lon="0.36907">
        <ele>133.6</ele>
        <time>2021-05-02T13:46:13Z</time>
      </trkpt>
      <trkpt lat="46.51131" lon="0.36884">
        <ele>133</ele>
        <time>2021-05-02T13:46:19Z</time>
      </trkpt>
      <trkpt lat="46.51131" lon="0.36864">
        <ele>132.6</ele>
        <time>2021-05-02T13:46:24Z</time>
      </trkpt>
      <trkpt lat="46.51131" lon="0.36862">
        <ele>132.4</ele>
        <time>2021-05-02T13:46:25Z</time>
      </trkpt>
      <trkpt lat="46.5113" lon="0.36857">
        <ele>132.2</ele>
        <time>2021-05-02T13:46:26Z</time>
      </trkpt>
      <trkpt lat="46.51135" lon="0.36845">
        <ele>131.6</ele>
        <time>2021-05-02T13:46:31Z</time>
      </trkpt>
      <trkpt lat="46.51139" lon="0.36838">
        <ele>131.4</ele>
        <time>2021-05-02T13:46:34Z</time>
      </trkpt>
      <trkpt lat="46.51145" lon="0.36834">
        <ele>131.2</ele>
        <time>2021-05-02T13:46:37Z</time>
      </trkpt>
      <trkpt lat="46.51147" lon="0.3683">
        <ele>131</ele>
        <time>2021-05-02T13:46:39Z</time>
      </trkpt>
      <trkpt lat="46.5115" lon="0.36823">
        <ele>130.8</ele>
        <time>2021-05-02T13:46:41Z</time>
      </trkpt>
      <trkpt lat="46.51161" lon="0.36812">
        <ele>130.4</ele>
        <time>2021-05-02T13:46:46Z</time>
      </trkpt>
      <trkpt lat="46.5117" lon="0.36812">
        <ele>129.8</ele>
        <time>2021-05-02T13:46:51Z</time>
      </trkpt>
      <trkpt lat="46.51172" lon="0.36813">
        <ele>129.8</ele>
        <time>2021-05-02T13:46:52Z</time>
      </trkpt>
      <trkpt lat="46.51178" lon="0.36813">
        <ele>130.2</ele>
        <time>2021-05-02T13:46:55Z</time>
      </trkpt>
      <trkpt lat="46.51182" lon="0.36812">
        <ele>130.2</ele>
        <time>2021-05-02T13:46:56Z</time>
      </trkpt>
      <trkpt lat="46.51192" lon="0.36808">
        <ele>129.4</ele>
        <time>2021-05-02T13:47:01Z</time>
      </trkpt>
      <trkpt lat="46.51194" lon="0.36808">
        <ele>129.4</ele>
        <time>2021-05-02T13:47:02Z</time>
      </trkpt>
      <trkpt lat="46.51196" lon="0.3681">
        <ele>129.4</ele>
        <time>2021-05-02T13:47:04Z</time>
      </trkpt>
      <trkpt lat="46.51202" lon="0.3681">
        <ele>129.4</ele>
        <time>2021-05-02T13:47:06Z</time>
      </trkpt>
      <trkpt lat="46.51215" lon="0.3681">
        <ele>129.6</ele>
        <time>2021-05-02T13:47:10Z</time>
      </trkpt>
      <trkpt lat="46.51217" lon="0.36811">
        <ele>129.6</ele>
        <time>2021-05-02T13:47:11Z</time>
      </trkpt>
      <trkpt lat="46.51219" lon="0.36812">
        <ele>129.4</ele>
        <time>2021-05-02T13:47:12Z</time>
      </trkpt>
      <trkpt lat="46.51229" lon="0.36809">
        <ele>128.8</ele>
        <time>2021-05-02T13:47:15Z</time>
      </trkpt>
      <trkpt lat="46.51235" lon="0.3681">
        <ele>128.8</ele>
        <time>2021-05-02T13:47:17Z</time>
      </trkpt>
      <trkpt lat="46.51243" lon="0.3681">
        <ele>128.8</ele>
        <time>2021-05-02T13:47:19Z</time>
      </trkpt>
      <trkpt lat="46.5125" lon="0.36811">
        <ele>128.8</ele>
        <time>2021-05-02T13:47:21Z</time>
      </trkpt>
      <trkpt lat="46.51266" lon="0.36811">
        <ele>128.4</ele>
        <time>2021-05-02T13:47:24Z</time>
      </trkpt>
      <trkpt lat="46.51271" lon="0.36811">
        <ele>128.2</ele>
        <time>2021-05-02T13:47:25Z</time>
      </trkpt>
      <trkpt lat="46.51277" lon="0.3681">
        <ele>127.6</ele>
        <time>2021-05-02T13:47:26Z</time>
      </trkpt>
      <trkpt lat="46.51285" lon="0.36808">
        <ele>127</ele>
        <time>2021-05-02T13:47:28Z</time>
      </trkpt>
      <trkpt lat="46.51293" lon="0.36811">
        <ele>126</ele>
        <time>2021-05-02T13:47:30Z</time>
      </trkpt>
      <trkpt lat="46.51297" lon="0.36813">
        <ele>125.6</ele>
        <time>2021-05-02T13:47:31Z</time>
      </trkpt>
      <trkpt lat="46.51301" lon="0.36815">
        <ele>125.4</ele>
        <time>2021-05-02T13:47:32Z</time>
      </trkpt>
      <trkpt lat="46.51305" lon="0.36817">
        <ele>125.2</ele>
        <time>2021-05-02T13:47:33Z</time>
      </trkpt>
      <trkpt lat="46.51311" lon="0.36821">
        <ele>124.4</ele>
        <time>2021-05-02T13:47:35Z</time>
      </trkpt>
      <trkpt lat="46.51316" lon="0.36821">
        <ele>123.8</ele>
        <time>2021-05-02T13:47:36Z</time>
      </trkpt>
      <trkpt lat="46.51327" lon="0.36821">
        <ele>123.4</ele>
        <time>2021-05-02T13:47:38Z</time>
      </trkpt>
      <trkpt lat="46.51337" lon="0.36825">
        <ele>122.4</ele>
        <time>2021-05-02T13:47:40Z</time>
      </trkpt>
      <trkpt lat="46.51341" lon="0.36826">
        <ele>122.2</ele>
        <time>2021-05-02T13:47:41Z</time>
      </trkpt>
      <trkpt lat="46.51344" lon="0.36828">
        <ele>121.8</ele>
        <time>2021-05-02T13:47:42Z</time>
      </trkpt>
      <trkpt lat="46.51348" lon="0.36832">
        <ele>121</ele>
        <time>2021-05-02T13:47:44Z</time>
      </trkpt>
      <trkpt lat="46.5135" lon="0.36833">
        <ele>120.8</ele>
        <time>2021-05-02T13:47:45Z</time>
      </trkpt>
      <trkpt lat="46.51358" lon="0.36832">
        <ele>120.2</ele>
        <time>2021-05-02T13:47:48Z</time>
      </trkpt>
      <trkpt lat="46.51364" lon="0.36835">
        <ele>119.6</ele>
        <time>2021-05-02T13:47:50Z</time>
      </trkpt>
      <trkpt lat="46.51373" lon="0.36839">
        <ele>118.4</ele>
        <time>2021-05-02T13:47:53Z</time>
      </trkpt>
      <trkpt lat="46.51382" lon="0.36842">
        <ele>117.2</ele>
        <time>2021-05-02T13:47:56Z</time>
      </trkpt>
      <trkpt lat="46.51388" lon="0.36846">
        <ele>116.6</ele>
        <time>2021-05-02T13:47:58Z</time>
      </trkpt>
      <trkpt lat="46.51391" lon="0.36847">
        <ele>116.2</ele>
        <time>2021-05-02T13:47:59Z</time>
      </trkpt>
      <trkpt lat="46.51402" lon="0.36847">
        <ele>114.4</ele>
        <time>2021-05-02T13:48:02Z</time>
      </trkpt>
      <trkpt lat="46.51408" lon="0.36847">
        <ele>113.6</ele>
        <time>2021-05-02T13:48:03Z</time>
      </trkpt>
      <trkpt lat="46.51413" lon="0.36849">
        <ele>113.2</ele>
        <time>2021-05-02T13:48:04Z</time>
      </trkpt>
      <trkpt lat="46.51418" lon="0.36851">
        <ele>112</ele>
        <time>2021-05-02T13:48:05Z</time>
      </trkpt>
      <trkpt lat="46.51421" lon="0.36853">
        <ele>111.4</ele>
        <time>2021-05-02T13:48:06Z</time>
      </trkpt>
      <trkpt lat="46.51423" lon="0.36855">
        <ele>111.2</ele>
        <time>2021-05-02T13:48:07Z</time>
      </trkpt>
      <trkpt lat="46.51425" lon="0.36858">
        <ele>110.8</ele>
        <time>2021-05-02T13:48:08Z</time>
      </trkpt>
      <trkpt lat="46.51429" lon="0.36864">
        <ele>109</ele>
        <time>2021-05-02T13:48:10Z</time>
      </trkpt>
      <trkpt lat="46.51433" lon="0.36872">
        <ele>107.6</ele>
        <time>2021-05-02T13:48:12Z</time>
      </trkpt>
      <trkpt lat="46.51436" lon="0.36879">
        <ele>106.2</ele>
        <time>2021-05-02T13:48:14Z</time>
      </trkpt>
      <trkpt lat="46.51438" lon="0.36883">
        <ele>105.4</ele>
        <time>2021-05-02T13:48:16Z</time>
      </trkpt>
      <trkpt lat="46.51438" lon="0.36885">
        <ele>105.2</ele>
        <time>2021-05-02T13:48:17Z</time>
      </trkpt>
      <trkpt lat="46.51438" lon="0.36887">
        <ele>105</ele>
        <time>2021-05-02T13:48:18Z</time>
      </trkpt>
      <trkpt lat="46.5144" lon="0.36893">
        <ele>106.4</ele>
        <time>2021-05-02T13:48:23Z</time>
      </trkpt>
      <trkpt lat="46.5144" lon="0.36894">
        <ele>106.8</ele>
        <time>2021-05-02T13:48:24Z</time>
      </trkpt>
      <trkpt lat="46.5144" lon="0.36894">
        <ele>106.8</ele>
        <time>2021-05-02T13:48:25Z</time>
      </trkpt>
      <trkpt lat="46.5144" lon="0.36893">
        <ele>107</ele>
        <time>2021-05-02T13:48:26Z</time>
      </trkpt>
      <trkpt lat="46.51442" lon="0.36891">
        <ele>107.8</ele>
        <time>2021-05-02T13:48:28Z</time>
      </trkpt>
      <trkpt lat="46.51442" lon="0.36887">
        <ele>108.6</ele>
        <time>2021-05-02T13:48:31Z</time>
      </trkpt>
      <trkpt lat="46.51442" lon="0.36885">
        <ele>109</ele>
        <time>2021-05-02T13:48:32Z</time>
      </trkpt>
      <trkpt lat="46.51442" lon="0.36877">
        <ele>110</ele>
        <time>2021-05-02T13:48:36Z</time>
      </trkpt>
      <trkpt lat="46.5144" lon="0.36875">
        <ele>110.6</ele>
        <time>2021-05-02T13:48:38Z</time>
      </trkpt>
      <trkpt lat="46.51438" lon="0.36873">
        <ele>111</ele>
        <time>2021-05-02T13:48:40Z</time>
      </trkpt>
      <trkpt lat="46.51435" lon="0.36873">
        <ele>112</ele>
        <time>2021-05-02T13:48:43Z</time>
      </trkpt>
      <trkpt lat="46.51434" lon="0.36874">
        <ele>112.2</ele>
        <time>2021-05-02T13:48:44Z</time>
      </trkpt>
      <trkpt lat="46.51428" lon="0.36876">
        <ele>113.4</ele>
        <time>2021-05-02T13:48:48Z</time>
      </trkpt>
      <trkpt lat="46.51427" lon="0.36877">
        <ele>114</ele>
        <time>2021-05-02T13:48:49Z</time>
      </trkpt>
      <trkpt lat="46.51425" lon="0.36879">
        <ele>114.6</ele>
        <time>2021-05-02T13:48:51Z</time>
      </trkpt>
      <trkpt lat="46.5142" lon="0.36883">
        <ele>115.8</ele>
        <time>2021-05-02T13:48:55Z</time>
      </trkpt>
      <trkpt lat="46.51418" lon="0.36885">
        <ele>116.6</ele>
        <time>2021-05-02T13:48:57Z</time>
      </trkpt>
      <trkpt lat="46.51416" lon="0.36886">
        <ele>116.8</ele>
        <time>2021-05-02T13:48:58Z</time>
      </trkpt>
      <trkpt lat="46.5141" lon="0.36891">
        <ele>118.2</ele>
        <time>2021-05-02T13:49:03Z</time>
      </trkpt>
      <trkpt lat="46.51409" lon="0.36893">
        <ele>118.6</ele>
        <time>2021-05-02T13:49:04Z</time>
      </trkpt>
      <trkpt lat="46.51404" lon="0.36897">
        <ele>119.4</ele>
        <time>2021-05-02T13:49:08Z</time>
      </trkpt>
      <trkpt lat="46.51402" lon="0.36899">
        <ele>119.6</ele>
        <time>2021-05-02T13:49:10Z</time>
      </trkpt>
      <trkpt lat="46.514" lon="0.369">
        <ele>120</ele>
        <time>2021-05-02T13:49:12Z</time>
      </trkpt>
      <trkpt lat="46.51398" lon="0.36901">
        <ele>120.4</ele>
        <time>2021-05-02T13:49:13Z</time>
      </trkpt>
      <trkpt lat="46.51397" lon="0.36901">
        <ele>120.6</ele>
        <time>2021-05-02T13:49:14Z</time>
      </trkpt>
      <trkpt lat="46.51393" lon="0.36899">
        <ele>121.2</ele>
        <time>2021-05-02T13:49:17Z</time>
      </trkpt>
      <trkpt lat="46.51391" lon="0.36898">
        <ele>121.4</ele>
        <time>2021-05-02T13:49:19Z</time>
      </trkpt>
      <trkpt lat="46.51387" lon="0.36896">
        <ele>122.2</ele>
        <time>2021-05-02T13:49:22Z</time>
      </trkpt>
      <trkpt lat="46.51384" lon="0.36894">
        <ele>122.6</ele>
        <time>2021-05-02T13:49:24Z</time>
      </trkpt>
      <trkpt lat="46.51373" lon="0.3689">
        <ele>123.6</ele>
        <time>2021-05-02T13:49:30Z</time>
      </trkpt>
      <trkpt lat="46.51368" lon="0.36888">
        <ele>124</ele>
        <time>2021-05-02T13:49:33Z</time>
      </trkpt>
      <trkpt lat="46.51366" lon="0.36887">
        <ele>124</ele>
        <time>2021-05-02T13:49:34Z</time>
      </trkpt>
      <trkpt lat="46.51358" lon="0.36882">
        <ele>124.6</ele>
        <time>2021-05-02T13:49:39Z</time>
      </trkpt>
      <trkpt lat="46.51356" lon="0.36881">
        <ele>124.6</ele>
        <time>2021-05-02T13:49:40Z</time>
      </trkpt>
      <trkpt lat="46.51346" lon="0.36877">
        <ele>125.6</ele>
        <time>2021-05-02T13:49:46Z</time>
      </trkpt>
      <trkpt lat="46.51344" lon="0.36876">
        <ele>125.8</ele>
        <time>2021-05-02T13:49:47Z</time>
      </trkpt>
      <trkpt lat="46.51333" lon="0.36868">
        <ele>126.4</ele>
        <time>2021-05-02T13:49:53Z</time>
      </trkpt>
      <trkpt lat="46.51326" lon="0.36867">
        <ele>126.8</ele>
        <time>2021-05-02T13:49:57Z</time>
      </trkpt>
      <trkpt lat="46.5132" lon="0.36867">
        <ele>127.4</ele>
        <time>2021-05-02T13:50:00Z</time>
      </trkpt>
      <trkpt lat="46.51313" lon="0.3687">
        <ele>127.8</ele>
        <time>2021-05-02T13:50:04Z</time>
      </trkpt>
      <trkpt lat="46.51301" lon="0.36878">
        <ele>128.6</ele>
        <time>2021-05-02T13:50:10Z</time>
      </trkpt>
      <trkpt lat="46.51297" lon="0.36878">
        <ele>129</ele>
        <time>2021-05-02T13:50:12Z</time>
      </trkpt>
      <trkpt lat="46.5129" lon="0.36881">
        <ele>129.2</ele>
        <time>2021-05-02T13:50:16Z</time>
      </trkpt>
      <trkpt lat="46.51278" lon="0.36883">
        <ele>130</ele>
        <time>2021-05-02T13:50:22Z</time>
      </trkpt>
      <trkpt lat="46.51273" lon="0.36882">
        <ele>130.2</ele>
        <time>2021-05-02T13:50:24Z</time>
      </trkpt>
      <trkpt lat="46.51258" lon="0.36879">
        <ele>130.6</ele>
        <time>2021-05-02T13:50:31Z</time>
      </trkpt>
      <trkpt lat="46.51245" lon="0.36883">
        <ele>130.8</ele>
        <time>2021-05-02T13:50:36Z</time>
      </trkpt>
      <trkpt lat="46.51243" lon="0.36883">
        <ele>131</ele>
        <time>2021-05-02T13:50:37Z</time>
      </trkpt>
      <trkpt lat="46.5123" lon="0.36884">
        <ele>131.4</ele>
        <time>2021-05-02T13:50:42Z</time>
      </trkpt>
      <trkpt lat="46.51208" lon="0.3688">
        <ele>131.8</ele>
        <time>2021-05-02T13:50:48Z</time>
      </trkpt>
      <trkpt lat="46.51203" lon="0.36876">
        <ele>132</ele>
        <time>2021-05-02T13:50:50Z</time>
      </trkpt>
      <trkpt lat="46.51191" lon="0.36866">
        <ele>132.4</ele>
        <time>2021-05-02T13:50:55Z</time>
      </trkpt>
      <trkpt lat="46.51176" lon="0.3686">
        <ele>132.4</ele>
        <time>2021-05-02T13:50:59Z</time>
      </trkpt>
      <trkpt lat="46.51153" lon="0.36848">
        <ele>132.6</ele>
        <time>2021-05-02T13:51:07Z</time>
      </trkpt>
      <trkpt lat="46.51137" lon="0.36839">
        <ele>132.2</ele>
        <time>2021-05-02T13:51:13Z</time>
      </trkpt>
      <trkpt lat="46.51111" lon="0.36835">
        <ele>132</ele>
        <time>2021-05-02T13:51:20Z</time>
      </trkpt>
      <trkpt lat="46.51088" lon="0.3684">
        <ele>132.2</ele>
        <time>2021-05-02T13:51:26Z</time>
      </trkpt>
      <trkpt lat="46.51063" lon="0.36842">
        <ele>132.4</ele>
        <time>2021-05-02T13:51:33Z</time>
      </trkpt>
      <trkpt lat="46.51042" lon="0.36837">
        <ele>132.4</ele>
        <time>2021-05-02T13:51:39Z</time>
      </trkpt>
      <trkpt lat="46.51013" lon="0.36833">
        <ele>132.8</ele>
        <time>2021-05-02T13:51:47Z</time>
      </trkpt>
      <trkpt lat="46.51004" lon="0.36831">
        <ele>133.2</ele>
        <time>2021-05-02T13:51:49Z</time>
      </trkpt>
      <trkpt lat="46.51" lon="0.3683">
        <ele>133</ele>
        <time>2021-05-02T13:51:50Z</time>
      </trkpt>
      <trkpt lat="46.50986" lon="0.36824">
        <ele>133</ele>
        <time>2021-05-02T13:51:54Z</time>
      </trkpt>
      <trkpt lat="46.50982" lon="0.36823">
        <ele>133</ele>
        <time>2021-05-02T13:51:55Z</time>
      </trkpt>
      <trkpt lat="46.50966" lon="0.36818">
        <ele>133</ele>
        <time>2021-05-02T13:51:59Z</time>
      </trkpt>
      <trkpt lat="46.50962" lon="0.36817">
        <ele>133</ele>
        <time>2021-05-02T13:52:00Z</time>
      </trkpt>
      <trkpt lat="46.50959" lon="0.36816">
        <ele>133.2</ele>
        <time>2021-05-02T13:52:01Z</time>
      </trkpt>
      <trkpt lat="46.5094" lon="0.36811">
        <ele>133.2</ele>
        <time>2021-05-02T13:52:06Z</time>
      </trkpt>
      <trkpt lat="46.50921" lon="0.36801">
        <ele>133</ele>
        <time>2021-05-02T13:52:11Z</time>
      </trkpt>
      <trkpt lat="46.50914" lon="0.36798">
        <ele>133</ele>
        <time>2021-05-02T13:52:13Z</time>
      </trkpt>
      <trkpt lat="46.50905" lon="0.36795">
        <ele>132.6</ele>
        <time>2021-05-02T13:52:16Z</time>
      </trkpt>
      <trkpt lat="46.50887" lon="0.36793">
        <ele>132.4</ele>
        <time>2021-05-02T13:52:22Z</time>
      </trkpt>
      <trkpt lat="46.50861" lon="0.3679">
        <ele>133</ele>
        <time>2021-05-02T13:52:28Z</time>
      </trkpt>
      <trkpt lat="46.50833" lon="0.36786">
        <ele>133.2</ele>
        <time>2021-05-02T13:52:35Z</time>
      </trkpt>
      <trkpt lat="46.50826" lon="0.36785">
        <ele>133.4</ele>
        <time>2021-05-02T13:52:37Z</time>
      </trkpt>
      <trkpt lat="46.50815" lon="0.36783">
        <ele>133.4</ele>
        <time>2021-05-02T13:52:40Z</time>
      </trkpt>
      <trkpt lat="46.50784" lon="0.36783">
        <ele>133.6</ele>
        <time>2021-05-02T13:52:48Z</time>
      </trkpt>
      <trkpt lat="46.5076" lon="0.36782">
        <ele>134.2</ele>
        <time>2021-05-02T13:52:54Z</time>
      </trkpt>
      <trkpt lat="46.50755" lon="0.36782">
        <ele>134.2</ele>
        <time>2021-05-02T13:52:55Z</time>
      </trkpt>
      <trkpt lat="46.50727" lon="0.36774">
        <ele>134.2</ele>
        <time>2021-05-02T13:53:01Z</time>
      </trkpt>
      <trkpt lat="46.50719" lon="0.36769">
        <ele>133.8</ele>
        <time>2021-05-02T13:53:03Z</time>
      </trkpt>
      <trkpt lat="46.50708" lon="0.36762">
        <ele>133.4</ele>
        <time>2021-05-02T13:53:06Z</time>
      </trkpt>
      <trkpt lat="46.50692" lon="0.36755">
        <ele>133.4</ele>
        <time>2021-05-02T13:53:10Z</time>
      </trkpt>
      <trkpt lat="46.50684" lon="0.36754">
        <ele>133.4</ele>
        <time>2021-05-02T13:53:12Z</time>
      </trkpt>
      <trkpt lat="46.50669" lon="0.36752">
        <ele>133.2</ele>
        <time>2021-05-02T13:53:16Z</time>
      </trkpt>
      <trkpt lat="46.50661" lon="0.3675">
        <ele>133</ele>
        <time>2021-05-02T13:53:18Z</time>
      </trkpt>
      <trkpt lat="46.50653" lon="0.36745">
        <ele>132.8</ele>
        <time>2021-05-02T13:53:20Z</time>
      </trkpt>
      <trkpt lat="46.50651" lon="0.3674">
        <ele>132.8</ele>
        <time>2021-05-02T13:53:21Z</time>
      </trkpt>
      <trkpt lat="46.50649" lon="0.36733">
        <ele>132.6</ele>
        <time>2021-05-02T13:53:22Z</time>
      </trkpt>
      <trkpt lat="46.5065" lon="0.36718">
        <ele>132.2</ele>
        <time>2021-05-02T13:53:24Z</time>
      </trkpt>
      <trkpt lat="46.50652" lon="0.36689">
        <ele>131</ele>
        <time>2021-05-02T13:53:28Z</time>
      </trkpt>
      <trkpt lat="46.50654" lon="0.36665">
        <ele>130.2</ele>
        <time>2021-05-02T13:53:31Z</time>
      </trkpt>
      <trkpt lat="46.50654" lon="0.36657">
        <ele>129.4</ele>
        <time>2021-05-02T13:53:32Z</time>
      </trkpt>
      <trkpt lat="46.50656" lon="0.36648">
        <ele>129.2</ele>
        <time>2021-05-02T13:53:33Z</time>
      </trkpt>
      <trkpt lat="46.50661" lon="0.36632">
        <ele>128.6</ele>
        <time>2021-05-02T13:53:35Z</time>
      </trkpt>
      <trkpt lat="46.50666" lon="0.36625">
        <ele>128.2</ele>
        <time>2021-05-02T13:53:36Z</time>
      </trkpt>
      <trkpt lat="46.50672" lon="0.36619">
        <ele>128</ele>
        <time>2021-05-02T13:53:37Z</time>
      </trkpt>
      <trkpt lat="46.50679" lon="0.36613">
        <ele>127.6</ele>
        <time>2021-05-02T13:53:38Z</time>
      </trkpt>
      <trkpt lat="46.50691" lon="0.366">
        <ele>126.6</ele>
        <time>2021-05-02T13:53:40Z</time>
      </trkpt>
      <trkpt lat="46.50699" lon="0.36582">
        <ele>126</ele>
        <time>2021-05-02T13:53:42Z</time>
      </trkpt>
      <trkpt lat="46.50704" lon="0.36562">
        <ele>125.4</ele>
        <time>2021-05-02T13:53:44Z</time>
      </trkpt>
      <trkpt lat="46.50707" lon="0.36541">
        <ele>125</ele>
        <time>2021-05-02T13:53:46Z</time>
      </trkpt>
      <trkpt lat="46.50709" lon="0.36499">
        <ele>124.6</ele>
        <time>2021-05-02T13:53:51Z</time>
      </trkpt>
      <trkpt lat="46.50712" lon="0.36458">
        <ele>124.8</ele>
        <time>2021-05-02T13:53:58Z</time>
      </trkpt>
      <trkpt lat="46.50716" lon="0.36432">
        <ele>126</ele>
        <time>2021-05-02T13:54:04Z</time>
      </trkpt>
      <trkpt lat="46.50718" lon="0.36423">
        <ele>126.4</ele>
        <time>2021-05-02T13:54:06Z</time>
      </trkpt>
      <trkpt lat="46.50721" lon="0.364">
        <ele>127.2</ele>
        <time>2021-05-02T13:54:11Z</time>
      </trkpt>
      <trkpt lat="46.50722" lon="0.36391">
        <ele>127.6</ele>
        <time>2021-05-02T13:54:13Z</time>
      </trkpt>
      <trkpt lat="46.50723" lon="0.3637">
        <ele>128.4</ele>
        <time>2021-05-02T13:54:17Z</time>
      </trkpt>
      <trkpt lat="46.50725" lon="0.36353">
        <ele>128.6</ele>
        <time>2021-05-02T13:54:20Z</time>
      </trkpt>
      <trkpt lat="46.50728" lon="0.36324">
        <ele>129.2</ele>
        <time>2021-05-02T13:54:25Z</time>
      </trkpt>
      <trkpt lat="46.50733" lon="0.36288">
        <ele>129.6</ele>
        <time>2021-05-02T13:54:32Z</time>
      </trkpt>
      <trkpt lat="46.50733" lon="0.36283">
        <ele>129.8</ele>
        <time>2021-05-02T13:54:33Z</time>
      </trkpt>
      <trkpt lat="46.50739" lon="0.36246">
        <ele>130.8</ele>
        <time>2021-05-02T13:54:40Z</time>
      </trkpt>
      <trkpt lat="46.5074" lon="0.36241">
        <ele>131</ele>
        <time>2021-05-02T13:54:41Z</time>
      </trkpt>
      <trkpt lat="46.50744" lon="0.36215">
        <ele>131.8</ele>
        <time>2021-05-02T13:54:46Z</time>
      </trkpt>
      <trkpt lat="46.50745" lon="0.36204">
        <ele>132.2</ele>
        <time>2021-05-02T13:54:48Z</time>
      </trkpt>
      <trkpt lat="46.5075" lon="0.36172">
        <ele>132.6</ele>
        <time>2021-05-02T13:54:54Z</time>
      </trkpt>
      <trkpt lat="46.50754" lon="0.36156">
        <ele>132.6</ele>
        <time>2021-05-02T13:54:57Z</time>
      </trkpt>
      <trkpt lat="46.50764" lon="0.36126">
        <ele>132.6</ele>
        <time>2021-05-02T13:55:03Z</time>
      </trkpt>
      <trkpt lat="46.50778" lon="0.36106">
        <ele>132.6</ele>
        <time>2021-05-02T13:55:08Z</time>
      </trkpt>
      <trkpt lat="46.50781" lon="0.36094">
        <ele>132.6</ele>
        <time>2021-05-02T13:55:09Z</time>
      </trkpt>
      <trkpt lat="46.50785" lon="0.36076">
        <ele>131.6</ele>
        <time>2021-05-02T13:55:13Z</time>
      </trkpt>
      <trkpt lat="46.50786" lon="0.36066">
        <ele>131</ele>
        <time>2021-05-02T13:55:15Z</time>
      </trkpt>
      <trkpt lat="46.50787" lon="0.36049">
        <ele>131</ele>
        <time>2021-05-02T13:55:18Z</time>
      </trkpt>
      <trkpt lat="46.50783" lon="0.36018">
        <ele>132.8</ele>
        <time>2021-05-02T13:55:24Z</time>
      </trkpt>
      <trkpt lat="46.50782" lon="0.36012">
        <ele>133</ele>
        <time>2021-05-02T13:55:25Z</time>
      </trkpt>
      <trkpt lat="46.50781" lon="0.35997">
        <ele>134</ele>
        <time>2021-05-02T13:55:28Z</time>
      </trkpt>
      <trkpt lat="46.5078" lon="0.35987">
        <ele>134.6</ele>
        <time>2021-05-02T13:55:30Z</time>
      </trkpt>
      <trkpt lat="46.50779" lon="0.35977">
        <ele>135</ele>
        <time>2021-05-02T13:55:32Z</time>
      </trkpt>
      <trkpt lat="46.50777" lon="0.35957">
        <ele>135.8</ele>
        <time>2021-05-02T13:55:36Z</time>
      </trkpt>
      <trkpt lat="46.50776" lon="0.35952">
        <ele>135.8</ele>
        <time>2021-05-02T13:55:37Z</time>
      </trkpt>
      <trkpt lat="46.50772" lon="0.3593">
        <ele>136.2</ele>
        <time>2021-05-02T13:55:41Z</time>
      </trkpt>
      <trkpt lat="46.50768" lon="0.35915">
        <ele>136.4</ele>
        <time>2021-05-02T13:55:44Z</time>
      </trkpt>
      <trkpt lat="46.50761" lon="0.35887">
        <ele>137.2</ele>
        <time>2021-05-02T13:55:50Z</time>
      </trkpt>
      <trkpt lat="46.5076" lon="0.35882">
        <ele>137.4</ele>
        <time>2021-05-02T13:55:51Z</time>
      </trkpt>
      <trkpt lat="46.50757" lon="0.35853">
        <ele>138.2</ele>
        <time>2021-05-02T13:55:57Z</time>
      </trkpt>
      <trkpt lat="46.50758" lon="0.35847">
        <ele>138.4</ele>
        <time>2021-05-02T13:55:58Z</time>
      </trkpt>
      <trkpt lat="46.50764" lon="0.35824">
        <ele>139</ele>
        <time>2021-05-02T13:56:03Z</time>
      </trkpt>
      <trkpt lat="46.50767" lon="0.35815">
        <ele>139</ele>
        <time>2021-05-02T13:56:05Z</time>
      </trkpt>
      <trkpt lat="46.5078" lon="0.35789">
        <ele>139</ele>
        <time>2021-05-02T13:56:11Z</time>
      </trkpt>
      <trkpt lat="46.508" lon="0.35759">
        <ele>138.8</ele>
        <time>2021-05-02T13:56:19Z</time>
      </trkpt>
      <trkpt lat="46.50812" lon="0.35744">
        <ele>138.2</ele>
        <time>2021-05-02T13:56:24Z</time>
      </trkpt>
      <trkpt lat="46.50826" lon="0.35729">
        <ele>138</ele>
        <time>2021-05-02T13:56:29Z</time>
      </trkpt>
      <trkpt lat="46.50832" lon="0.35717">
        <ele>138</ele>
        <time>2021-05-02T13:56:34Z</time>
      </trkpt>
      <trkpt lat="46.50832" lon="0.35717">
        <ele>137.8</ele>
        <time>2021-05-02T13:56:38Z</time>
      </trkpt>
      <trkpt lat="46.50832" lon="0.35717">
        <ele>137.8</ele>
        <time>2021-05-02T13:56:40Z</time>
      </trkpt>
      <trkpt lat="46.50832" lon="0.35717">
        <ele>138</ele>
        <time>2021-05-02T13:56:54Z</time>
      </trkpt>
      <trkpt lat="46.50834" lon="0.35711">
        <ele>137.8</ele>
        <time>2021-05-02T13:57:06Z</time>
      </trkpt>
      <trkpt lat="46.50837" lon="0.35706">
        <ele>138</ele>
        <time>2021-05-02T13:57:08Z</time>
      </trkpt>
      <trkpt lat="46.50841" lon="0.35696">
        <ele>138</ele>
        <time>2021-05-02T13:57:11Z</time>
      </trkpt>
      <trkpt lat="46.50854" lon="0.35681">
        <ele>137.8</ele>
        <time>2021-05-02T13:57:17Z</time>
      </trkpt>
      <trkpt lat="46.50867" lon="0.35665">
        <ele>137.8</ele>
        <time>2021-05-02T13:57:23Z</time>
      </trkpt>
      <trkpt lat="46.50882" lon="0.35643">
        <ele>137.6</ele>
        <time>2021-05-02T13:57:29Z</time>
      </trkpt>
      <trkpt lat="46.50887" lon="0.35636">
        <ele>137.4</ele>
        <time>2021-05-02T13:57:31Z</time>
      </trkpt>
      <trkpt lat="46.50901" lon="0.35613">
        <ele>136.8</ele>
        <time>2021-05-02T13:57:36Z</time>
      </trkpt>
      <trkpt lat="46.50911" lon="0.35595">
        <ele>136.4</ele>
        <time>2021-05-02T13:57:40Z</time>
      </trkpt>
      <trkpt lat="46.50917" lon="0.35585">
        <ele>136</ele>
        <time>2021-05-02T13:57:42Z</time>
      </trkpt>
      <trkpt lat="46.50919" lon="0.3558">
        <ele>136</ele>
        <time>2021-05-02T13:57:43Z</time>
      </trkpt>
      <trkpt lat="46.50927" lon="0.35566">
        <ele>135.8</ele>
        <time>2021-05-02T13:57:46Z</time>
      </trkpt>
      <trkpt lat="46.50935" lon="0.35552">
        <ele>135.6</ele>
        <time>2021-05-02T13:57:49Z</time>
      </trkpt>
      <trkpt lat="46.50938" lon="0.35548">
        <ele>135.4</ele>
        <time>2021-05-02T13:57:50Z</time>
      </trkpt>
      <trkpt lat="46.50941" lon="0.35543">
        <ele>135.4</ele>
        <time>2021-05-02T13:57:51Z</time>
      </trkpt>
      <trkpt lat="46.50952" lon="0.35524">
        <ele>135</ele>
        <time>2021-05-02T13:57:55Z</time>
      </trkpt>
      <trkpt lat="46.50957" lon="0.35512">
        <ele>134.6</ele>
        <time>2021-05-02T13:57:57Z</time>
      </trkpt>
      <trkpt lat="46.50964" lon="0.35502">
        <ele>134.2</ele>
        <time>2021-05-02T13:57:59Z</time>
      </trkpt>
      <trkpt lat="46.5097" lon="0.35491">
        <ele>134.2</ele>
        <time>2021-05-02T13:58:01Z</time>
      </trkpt>
      <trkpt lat="46.5099" lon="0.35466">
        <ele>134</ele>
        <time>2021-05-02T13:58:07Z</time>
      </trkpt>
      <trkpt lat="46.51009" lon="0.35442">
        <ele>133.4</ele>
        <time>2021-05-02T13:58:13Z</time>
      </trkpt>
      <trkpt lat="46.51012" lon="0.35438">
        <ele>133.4</ele>
        <time>2021-05-02T13:58:14Z</time>
      </trkpt>
      <trkpt lat="46.51031" lon="0.35425">
        <ele>133.6</ele>
        <time>2021-05-02T13:58:20Z</time>
      </trkpt>
      <trkpt lat="46.51046" lon="0.35412">
        <ele>133.6</ele>
        <time>2021-05-02T13:58:25Z</time>
      </trkpt>
      <trkpt lat="46.51049" lon="0.35393">
        <ele>133.2</ele>
        <time>2021-05-02T13:58:29Z</time>
      </trkpt>
      <trkpt lat="46.51042" lon="0.35376">
        <ele>133.2</ele>
        <time>2021-05-02T13:58:33Z</time>
      </trkpt>
      <trkpt lat="46.51041" lon="0.35355">
        <ele>133.4</ele>
        <time>2021-05-02T13:58:37Z</time>
      </trkpt>
      <trkpt lat="46.51047" lon="0.3532">
        <ele>133.2</ele>
        <time>2021-05-02T13:58:44Z</time>
      </trkpt>
      <trkpt lat="46.51052" lon="0.35275">
        <ele>132.2</ele>
        <time>2021-05-02T13:58:51Z</time>
      </trkpt>
      <trkpt lat="46.51052" lon="0.35268">
        <ele>132.2</ele>
        <time>2021-05-02T13:58:52Z</time>
      </trkpt>
      <trkpt lat="46.5106" lon="0.35215">
        <ele>131</ele>
        <time>2021-05-02T13:58:59Z</time>
      </trkpt>
      <trkpt lat="46.51064" lon="0.35176">
        <ele>129.8</ele>
        <time>2021-05-02T13:59:04Z</time>
      </trkpt>
      <trkpt lat="46.51065" lon="0.35161">
        <ele>129.6</ele>
        <time>2021-05-02T13:59:06Z</time>
      </trkpt>
      <trkpt lat="46.51068" lon="0.35137">
        <ele>128.8</ele>
        <time>2021-05-02T13:59:09Z</time>
      </trkpt>
      <trkpt lat="46.51069" lon="0.3512">
        <ele>127.6</ele>
        <time>2021-05-02T13:59:11Z</time>
      </trkpt>
      <trkpt lat="46.51073" lon="0.35097">
        <ele>126.4</ele>
        <time>2021-05-02T13:59:14Z</time>
      </trkpt>
      <trkpt lat="46.51078" lon="0.35075">
        <ele>125.6</ele>
        <time>2021-05-02T13:59:17Z</time>
      </trkpt>
      <trkpt lat="46.5108" lon="0.35069">
        <ele>125</ele>
        <time>2021-05-02T13:59:18Z</time>
      </trkpt>
      <trkpt lat="46.51085" lon="0.35056">
        <ele>124</ele>
        <time>2021-05-02T13:59:20Z</time>
      </trkpt>
      <trkpt lat="46.51087" lon="0.35051">
        <ele>123.6</ele>
        <time>2021-05-02T13:59:21Z</time>
      </trkpt>
      <trkpt lat="46.5109" lon="0.35043">
        <ele>123</ele>
        <time>2021-05-02T13:59:23Z</time>
      </trkpt>
      <trkpt lat="46.51091" lon="0.3504">
        <ele>122.8</ele>
        <time>2021-05-02T13:59:24Z</time>
      </trkpt>
      <trkpt lat="46.51094" lon="0.35034">
        <ele>122</ele>
        <time>2021-05-02T13:59:27Z</time>
      </trkpt>
      <trkpt lat="46.51096" lon="0.35031">
        <ele>121.6</ele>
        <time>2021-05-02T13:59:28Z</time>
      </trkpt>
      <trkpt lat="46.51104" lon="0.35019">
        <ele>121</ele>
        <time>2021-05-02T13:59:31Z</time>
      </trkpt>
      <trkpt lat="46.51107" lon="0.35016">
        <ele>120.6</ele>
        <time>2021-05-02T13:59:32Z</time>
      </trkpt>
      <trkpt lat="46.51111" lon="0.35011">
        <ele>120.4</ele>
        <time>2021-05-02T13:59:34Z</time>
      </trkpt>
      <trkpt lat="46.51115" lon="0.3501">
        <ele>120.2</ele>
        <time>2021-05-02T13:59:35Z</time>
      </trkpt>
      <trkpt lat="46.51124" lon="0.35007">
        <ele>119.6</ele>
        <time>2021-05-02T13:59:38Z</time>
      </trkpt>
      <trkpt lat="46.51127" lon="0.35003">
        <ele>119.4</ele>
        <time>2021-05-02T13:59:39Z</time>
      </trkpt>
      <trkpt lat="46.51136" lon="0.34979">
        <ele>119.4</ele>
        <time>2021-05-02T13:59:44Z</time>
      </trkpt>
      <trkpt lat="46.51148" lon="0.34965">
        <ele>120.4</ele>
        <time>2021-05-02T13:59:49Z</time>
      </trkpt>
      <trkpt lat="46.51152" lon="0.34952">
        <ele>121.6</ele>
        <time>2021-05-02T13:59:53Z</time>
      </trkpt>
      <trkpt lat="46.51151" lon="0.34933">
        <ele>122.6</ele>
        <time>2021-05-02T13:59:58Z</time>
      </trkpt>
      <trkpt lat="46.5115" lon="0.34926">
        <ele>123</ele>
        <time>2021-05-02T14:00:00Z</time>
      </trkpt>
      <trkpt lat="46.5115" lon="0.34916">
        <ele>123.6</ele>
        <time>2021-05-02T14:00:03Z</time>
      </trkpt>
      <trkpt lat="46.51152" lon="0.34894">
        <ele>124.8</ele>
        <time>2021-05-02T14:00:09Z</time>
      </trkpt>
      <trkpt lat="46.51152" lon="0.34886">
        <ele>125.2</ele>
        <time>2021-05-02T14:00:11Z</time>
      </trkpt>
      <trkpt lat="46.51156" lon="0.34881">
        <ele>125.4</ele>
        <time>2021-05-02T14:00:13Z</time>
      </trkpt>
      <trkpt lat="46.51167" lon="0.34879">
        <ele>125.8</ele>
        <time>2021-05-02T14:00:17Z</time>
      </trkpt>
      <trkpt lat="46.51173" lon="0.34875">
        <ele>126.4</ele>
        <time>2021-05-02T14:00:19Z</time>
      </trkpt>
      <trkpt lat="46.51184" lon="0.34867">
        <ele>126.8</ele>
        <time>2021-05-02T14:00:23Z</time>
      </trkpt>
      <trkpt lat="46.51195" lon="0.34859">
        <ele>126.8</ele>
        <time>2021-05-02T14:00:27Z</time>
      </trkpt>
      <trkpt lat="46.51199" lon="0.34854">
        <ele>126.6</ele>
        <time>2021-05-02T14:00:29Z</time>
      </trkpt>
      <trkpt lat="46.51205" lon="0.34856">
        <ele>126.8</ele>
        <time>2021-05-02T14:00:31Z</time>
      </trkpt>
      <trkpt lat="46.51216" lon="0.34868">
        <ele>126.6</ele>
        <time>2021-05-02T14:00:35Z</time>
      </trkpt>
      <trkpt lat="46.51226" lon="0.34879">
        <ele>125.4</ele>
        <time>2021-05-02T14:00:38Z</time>
      </trkpt>
      <trkpt lat="46.51236" lon="0.34888">
        <ele>124.4</ele>
        <time>2021-05-02T14:00:41Z</time>
      </trkpt>
      <trkpt lat="46.51239" lon="0.34891">
        <ele>124.2</ele>
        <time>2021-05-02T14:00:42Z</time>
      </trkpt>
      <trkpt lat="46.51251" lon="0.34901">
        <ele>123.8</ele>
        <time>2021-05-02T14:00:45Z</time>
      </trkpt>
      <trkpt lat="46.51256" lon="0.34905">
        <ele>123.6</ele>
        <time>2021-05-02T14:00:46Z</time>
      </trkpt>
      <trkpt lat="46.51262" lon="0.34908">
        <ele>123</ele>
        <time>2021-05-02T14:00:47Z</time>
      </trkpt>
      <trkpt lat="46.51271" lon="0.34913">
        <ele>121.8</ele>
        <time>2021-05-02T14:00:49Z</time>
      </trkpt>
      <trkpt lat="46.5128" lon="0.34919">
        <ele>121</ele>
        <time>2021-05-02T14:00:51Z</time>
      </trkpt>
      <trkpt lat="46.51284" lon="0.34921">
        <ele>120.2</ele>
        <time>2021-05-02T14:00:52Z</time>
      </trkpt>
      <trkpt lat="46.51288" lon="0.34922">
        <ele>119.6</ele>
        <time>2021-05-02T14:00:53Z</time>
      </trkpt>
      <trkpt lat="46.5129" lon="0.3492">
        <ele>118.8</ele>
        <time>2021-05-02T14:00:54Z</time>
      </trkpt>
      <trkpt lat="46.51296" lon="0.34913">
        <ele>118.6</ele>
        <time>2021-05-02T14:00:58Z</time>
      </trkpt>
      <trkpt lat="46.51296" lon="0.34911">
        <ele>119</ele>
        <time>2021-05-02T14:01:00Z</time>
      </trkpt>
      <trkpt lat="46.51295" lon="0.34903">
        <ele>119.6</ele>
        <time>2021-05-02T14:01:03Z</time>
      </trkpt>
      <trkpt lat="46.51295" lon="0.349">
        <ele>120</ele>
        <time>2021-05-02T14:01:04Z</time>
      </trkpt>
      <trkpt lat="46.51295" lon="0.34897">
        <ele>120.6</ele>
        <time>2021-05-02T14:01:05Z</time>
      </trkpt>
      <trkpt lat="46.51297" lon="0.34893">
        <ele>121</ele>
        <time>2021-05-02T14:01:07Z</time>
      </trkpt>
      <trkpt lat="46.51299" lon="0.3489">
        <ele>121.2</ele>
        <time>2021-05-02T14:01:08Z</time>
      </trkpt>
      <trkpt lat="46.513" lon="0.34877">
        <ele>122.4</ele>
        <time>2021-05-02T14:01:12Z</time>
      </trkpt>
      <trkpt lat="46.51299" lon="0.34871">
        <ele>122.8</ele>
        <time>2021-05-02T14:01:14Z</time>
      </trkpt>
      <trkpt lat="46.513" lon="0.34864">
        <ele>123.4</ele>
        <time>2021-05-02T14:01:16Z</time>
      </trkpt>
      <trkpt lat="46.513" lon="0.3485">
        <ele>124.6</ele>
        <time>2021-05-02T14:01:21Z</time>
      </trkpt>
      <trkpt lat="46.51301" lon="0.34847">
        <ele>124.8</ele>
        <time>2021-05-02T14:01:22Z</time>
      </trkpt>
      <trkpt lat="46.51302" lon="0.34842">
        <ele>125</ele>
        <time>2021-05-02T14:01:24Z</time>
      </trkpt>
      <trkpt lat="46.51305" lon="0.34834">
        <ele>125</ele>
        <time>2021-05-02T14:01:27Z</time>
      </trkpt>
      <trkpt lat="46.51307" lon="0.34832">
        <ele>125</ele>
        <time>2021-05-02T14:01:28Z</time>
      </trkpt>
      <trkpt lat="46.51311" lon="0.34831">
        <ele>124.8</ele>
        <time>2021-05-02T14:01:31Z</time>
      </trkpt>
      <trkpt lat="46.51314" lon="0.34837">
        <ele>124.2</ele>
        <time>2021-05-02T14:01:37Z</time>
      </trkpt>
      <trkpt lat="46.51316" lon="0.34836">
        <ele>124</ele>
        <time>2021-05-02T14:01:38Z</time>
      </trkpt>
      <trkpt lat="46.51326" lon="0.34836">
        <ele>123.8</ele>
        <time>2021-05-02T14:01:43Z</time>
      </trkpt>
      <trkpt lat="46.51335" lon="0.34831">
        <ele>123.4</ele>
        <time>2021-05-02T14:01:47Z</time>
      </trkpt>
      <trkpt lat="46.51338" lon="0.34832">
        <ele>123.4</ele>
        <time>2021-05-02T14:01:48Z</time>
      </trkpt>
      <trkpt lat="46.51344" lon="0.34835">
        <ele>123</ele>
        <time>2021-05-02T14:01:50Z</time>
      </trkpt>
      <trkpt lat="46.5135" lon="0.34839">
        <ele>122.4</ele>
        <time>2021-05-02T14:01:52Z</time>
      </trkpt>
      <trkpt lat="46.51355" lon="0.3484">
        <ele>122</ele>
        <time>2021-05-02T14:01:53Z</time>
      </trkpt>
      <trkpt lat="46.51359" lon="0.34842">
        <ele>121.6</ele>
        <time>2021-05-02T14:01:54Z</time>
      </trkpt>
      <trkpt lat="46.51366" lon="0.34846">
        <ele>120.6</ele>
        <time>2021-05-02T14:01:56Z</time>
      </trkpt>
      <trkpt lat="46.51369" lon="0.34846">
        <ele>119.8</ele>
        <time>2021-05-02T14:01:57Z</time>
      </trkpt>
      <trkpt lat="46.51372" lon="0.34846">
        <ele>118.8</ele>
        <time>2021-05-02T14:01:58Z</time>
      </trkpt>
      <trkpt lat="46.51379" lon="0.34843">
        <ele>117.4</ele>
        <time>2021-05-02T14:02:00Z</time>
      </trkpt>
      <trkpt lat="46.51381" lon="0.34841">
        <ele>116.6</ele>
        <time>2021-05-02T14:02:01Z</time>
      </trkpt>
      <trkpt lat="46.51382" lon="0.34839">
        <ele>116</ele>
        <time>2021-05-02T14:02:02Z</time>
      </trkpt>
      <trkpt lat="46.51388" lon="0.34831">
        <ele>116.2</ele>
        <time>2021-05-02T14:02:06Z</time>
      </trkpt>
      <trkpt lat="46.51397" lon="0.34818">
        <ele>116.4</ele>
        <time>2021-05-02T14:02:12Z</time>
      </trkpt>
      <trkpt lat="46.51404" lon="0.34803">
        <ele>116.4</ele>
        <time>2021-05-02T14:02:17Z</time>
      </trkpt>
      <trkpt lat="46.5141" lon="0.34788">
        <ele>116.2</ele>
        <time>2021-05-02T14:02:21Z</time>
      </trkpt>
      <trkpt lat="46.51412" lon="0.34778">
        <ele>114.8</ele>
        <time>2021-05-02T14:02:24Z</time>
      </trkpt>
      <trkpt lat="46.51411" lon="0.34776">
        <ele>114.6</ele>
        <time>2021-05-02T14:02:25Z</time>
      </trkpt>
      <trkpt lat="46.51411" lon="0.34773">
        <ele>114.2</ele>
        <time>2021-05-02T14:02:26Z</time>
      </trkpt>
      <trkpt lat="46.51412" lon="0.34763">
        <ele>113.6</ele>
        <time>2021-05-02T14:02:29Z</time>
      </trkpt>
      <trkpt lat="46.51413" lon="0.3476">
        <ele>113.4</ele>
        <time>2021-05-02T14:02:30Z</time>
      </trkpt>
      <trkpt lat="46.51415" lon="0.34753">
        <ele>113</ele>
        <time>2021-05-02T14:02:32Z</time>
      </trkpt>
      <trkpt lat="46.51416" lon="0.34748">
        <ele>112.2</ele>
        <time>2021-05-02T14:02:33Z</time>
      </trkpt>
      <trkpt lat="46.51417" lon="0.34742">
        <ele>111.8</ele>
        <time>2021-05-02T14:02:34Z</time>
      </trkpt>
      <trkpt lat="46.51418" lon="0.34736">
        <ele>111.4</ele>
        <time>2021-05-02T14:02:35Z</time>
      </trkpt>
      <trkpt lat="46.51419" lon="0.34731">
        <ele>111</ele>
        <time>2021-05-02T14:02:36Z</time>
      </trkpt>
      <trkpt lat="46.5142" lon="0.34727">
        <ele>110.6</ele>
        <time>2021-05-02T14:02:37Z</time>
      </trkpt>
      <trkpt lat="46.51422" lon="0.34717">
        <ele>111.2</ele>
        <time>2021-05-02T14:02:40Z</time>
      </trkpt>
      <trkpt lat="46.51423" lon="0.34715">
        <ele>111.4</ele>
        <time>2021-05-02T14:02:41Z</time>
      </trkpt>
      <trkpt lat="46.51425" lon="0.34703">
        <ele>111.6</ele>
        <time>2021-05-02T14:02:46Z</time>
      </trkpt>
      <trkpt lat="46.5143" lon="0.34687">
        <ele>111.2</ele>
        <time>2021-05-02T14:02:51Z</time>
      </trkpt>
      <trkpt lat="46.51433" lon="0.34681">
        <ele>111</ele>
        <time>2021-05-02T14:02:54Z</time>
      </trkpt>
      <trkpt lat="46.51438" lon="0.34678">
        <ele>111</ele>
        <time>2021-05-02T14:02:56Z</time>
      </trkpt>
      <trkpt lat="46.51444" lon="0.34675">
        <ele>109.8</ele>
        <time>2021-05-02T14:02:57Z</time>
      </trkpt>
      <trkpt lat="46.5145" lon="0.34668">
        <ele>107.6</ele>
        <time>2021-05-02T14:02:59Z</time>
      </trkpt>
      <trkpt lat="46.51452" lon="0.34664">
        <ele>106.6</ele>
        <time>2021-05-02T14:03:00Z</time>
      </trkpt>
      <trkpt lat="46.51453" lon="0.3466">
        <ele>105.8</ele>
        <time>2021-05-02T14:03:01Z</time>
      </trkpt>
      <trkpt lat="46.51454" lon="0.34655">
        <ele>105.4</ele>
        <time>2021-05-02T14:03:02Z</time>
      </trkpt>
      <trkpt lat="46.51459" lon="0.34639">
        <ele>104.6</ele>
        <time>2021-05-02T14:03:06Z</time>
      </trkpt>
      <trkpt lat="46.51467" lon="0.34626">
        <ele>104.2</ele>
        <time>2021-05-02T14:03:10Z</time>
      </trkpt>
      <trkpt lat="46.51468" lon="0.3462">
        <ele>104.2</ele>
        <time>2021-05-02T14:03:12Z</time>
      </trkpt>
      <trkpt lat="46.51476" lon="0.34598">
        <ele>103.8</ele>
        <time>2021-05-02T14:03:17Z</time>
      </trkpt>
      <trkpt lat="46.51479" lon="0.34588">
        <ele>103.2</ele>
        <time>2021-05-02T14:03:19Z</time>
      </trkpt>
      <trkpt lat="46.51483" lon="0.34568">
        <ele>102.8</ele>
        <time>2021-05-02T14:03:23Z</time>
      </trkpt>
      <trkpt lat="46.51485" lon="0.34563">
        <ele>103</ele>
        <time>2021-05-02T14:03:24Z</time>
      </trkpt>
      <trkpt lat="46.51497" lon="0.34535">
        <ele>103.6</ele>
        <time>2021-05-02T14:03:31Z</time>
      </trkpt>
      <trkpt lat="46.51496" lon="0.34528">
        <ele>103.8</ele>
        <time>2021-05-02T14:03:33Z</time>
      </trkpt>
      <trkpt lat="46.51494" lon="0.34526">
        <ele>104</ele>
        <time>2021-05-02T14:03:34Z</time>
      </trkpt>
      <trkpt lat="46.51493" lon="0.34524">
        <ele>104.4</ele>
        <time>2021-05-02T14:03:35Z</time>
      </trkpt>
      <trkpt lat="46.51488" lon="0.34519">
        <ele>105.6</ele>
        <time>2021-05-02T14:03:38Z</time>
      </trkpt>
      <trkpt lat="46.51484" lon="0.34515">
        <ele>106.2</ele>
        <time>2021-05-02T14:03:40Z</time>
      </trkpt>
      <trkpt lat="46.51481" lon="0.34513">
        <ele>106.8</ele>
        <time>2021-05-02T14:03:41Z</time>
      </trkpt>
      <trkpt lat="46.5147" lon="0.34508">
        <ele>108.2</ele>
        <time>2021-05-02T14:03:45Z</time>
      </trkpt>
      <trkpt lat="46.51467" lon="0.34508">
        <ele>108.6</ele>
        <time>2021-05-02T14:03:46Z</time>
      </trkpt>
      <trkpt lat="46.51461" lon="0.34506">
        <ele>109.2</ele>
        <time>2021-05-02T14:03:48Z</time>
      </trkpt>
      <trkpt lat="46.51454" lon="0.34506">
        <ele>110.6</ele>
        <time>2021-05-02T14:03:51Z</time>
      </trkpt>
      <trkpt lat="46.51449" lon="0.34505">
        <ele>111.2</ele>
        <time>2021-05-02T14:03:53Z</time>
      </trkpt>
      <trkpt lat="46.51444" lon="0.34504">
        <ele>111.6</ele>
        <time>2021-05-02T14:03:55Z</time>
      </trkpt>
      <trkpt lat="46.51431" lon="0.34502">
        <ele>113</ele>
        <time>2021-05-02T14:04:00Z</time>
      </trkpt>
      <trkpt lat="46.51426" lon="0.34502">
        <ele>113.4</ele>
        <time>2021-05-02T14:04:02Z</time>
      </trkpt>
      <trkpt lat="46.5142" lon="0.34504">
        <ele>114.2</ele>
        <time>2021-05-02T14:04:05Z</time>
      </trkpt>
      <trkpt lat="46.51419" lon="0.34506">
        <ele>114.2</ele>
        <time>2021-05-02T14:04:06Z</time>
      </trkpt>
      <trkpt lat="46.51418" lon="0.34508">
        <ele>114.4</ele>
        <time>2021-05-02T14:04:07Z</time>
      </trkpt>
      <trkpt lat="46.51412" lon="0.3452">
        <ele>115.2</ele>
        <time>2021-05-02T14:04:12Z</time>
      </trkpt>
      <trkpt lat="46.51409" lon="0.34524">
        <ele>115.8</ele>
        <time>2021-05-02T14:04:14Z</time>
      </trkpt>
      <trkpt lat="46.51406" lon="0.34528">
        <ele>116.4</ele>
        <time>2021-05-02T14:04:16Z</time>
      </trkpt>
      <trkpt lat="46.514" lon="0.34533">
        <ele>117.6</ele>
        <time>2021-05-02T14:04:19Z</time>
      </trkpt>
      <trkpt lat="46.51398" lon="0.34535">
        <ele>118</ele>
        <time>2021-05-02T14:04:20Z</time>
      </trkpt>
      <trkpt lat="46.5139" lon="0.34539">
        <ele>118.8</ele>
        <time>2021-05-02T14:04:23Z</time>
      </trkpt>
      <trkpt lat="46.51381" lon="0.34545">
        <ele>119.8</ele>
        <time>2021-05-02T14:04:27Z</time>
      </trkpt>
      <trkpt lat="46.51366" lon="0.34554">
        <ele>120.8</ele>
        <time>2021-05-02T14:04:33Z</time>
      </trkpt>
      <trkpt lat="46.51357" lon="0.34559">
        <ele>121.4</ele>
        <time>2021-05-02T14:04:37Z</time>
      </trkpt>
      <trkpt lat="46.5135" lon="0.34562">
        <ele>122</ele>
        <time>2021-05-02T14:04:40Z</time>
      </trkpt>
      <trkpt lat="46.51335" lon="0.3457">
        <ele>122.4</ele>
        <time>2021-05-02T14:04:46Z</time>
      </trkpt>
      <trkpt lat="46.51323" lon="0.34577">
        <ele>123</ele>
        <time>2021-05-02T14:04:51Z</time>
      </trkpt>
      <trkpt lat="46.51316" lon="0.34582">
        <ele>123.4</ele>
        <time>2021-05-02T14:04:54Z</time>
      </trkpt>
      <trkpt lat="46.51307" lon="0.34591">
        <ele>123.6</ele>
        <time>2021-05-02T14:04:58Z</time>
      </trkpt>
      <trkpt lat="46.51307" lon="0.34591">
        <ele>124</ele>
        <time>2021-05-02T14:05:00Z</time>
      </trkpt>
      <trkpt lat="46.51298" lon="0.34601">
        <ele>124.2</ele>
        <time>2021-05-02T14:05:02Z</time>
      </trkpt>
      <trkpt lat="46.5128" lon="0.34611">
        <ele>125</ele>
        <time>2021-05-02T14:05:09Z</time>
      </trkpt>
      <trkpt lat="46.51272" lon="0.34613">
        <ele>125.2</ele>
        <time>2021-05-02T14:05:12Z</time>
      </trkpt>
      <trkpt lat="46.51261" lon="0.34612">
        <ele>125.4</ele>
        <time>2021-05-02T14:05:16Z</time>
      </trkpt>
      <trkpt lat="46.51247" lon="0.34609">
        <ele>126.2</ele>
        <time>2021-05-02T14:05:22Z</time>
      </trkpt>
      <trkpt lat="46.51242" lon="0.34609">
        <ele>126.2</ele>
        <time>2021-05-02T14:05:24Z</time>
      </trkpt>
      <trkpt lat="46.51217" lon="0.34609">
        <ele>126.8</ele>
        <time>2021-05-02T14:05:33Z</time>
      </trkpt>
      <trkpt lat="46.51208" lon="0.34611">
        <ele>127.2</ele>
        <time>2021-05-02T14:05:36Z</time>
      </trkpt>
      <trkpt lat="46.51194" lon="0.34613">
        <ele>127.6</ele>
        <time>2021-05-02T14:05:41Z</time>
      </trkpt>
      <trkpt lat="46.51189" lon="0.34609">
        <ele>127.6</ele>
        <time>2021-05-02T14:05:43Z</time>
      </trkpt>
      <trkpt lat="46.51188" lon="0.34605">
        <ele>127.6</ele>
        <time>2021-05-02T14:05:44Z</time>
      </trkpt>
      <trkpt lat="46.51191" lon="0.34585">
        <ele>127.6</ele>
        <time>2021-05-02T14:05:48Z</time>
      </trkpt>
      <trkpt lat="46.51195" lon="0.34551">
        <ele>127.2</ele>
        <time>2021-05-02T14:05:54Z</time>
      </trkpt>
      <trkpt lat="46.51194" lon="0.3452">
        <ele>127</ele>
        <time>2021-05-02T14:05:59Z</time>
      </trkpt>
      <trkpt lat="46.51193" lon="0.34514">
        <ele>127</ele>
        <time>2021-05-02T14:06:00Z</time>
      </trkpt>
      <trkpt lat="46.51184" lon="0.34463">
        <ele>126.6</ele>
        <time>2021-05-02T14:06:08Z</time>
      </trkpt>
      <trkpt lat="46.51174" lon="0.34423">
        <ele>126.8</ele>
        <time>2021-05-02T14:06:15Z</time>
      </trkpt>
      <trkpt lat="46.51162" lon="0.34366">
        <ele>127.8</ele>
        <time>2021-05-02T14:06:25Z</time>
      </trkpt>
      <trkpt lat="46.51159" lon="0.3434">
        <ele>128.4</ele>
        <time>2021-05-02T14:06:29Z</time>
      </trkpt>
      <trkpt lat="46.51159" lon="0.34327">
        <ele>128.6</ele>
        <time>2021-05-02T14:06:31Z</time>
      </trkpt>
      <trkpt lat="46.51162" lon="0.34302">
        <ele>128.8</ele>
        <time>2021-05-02T14:06:35Z</time>
      </trkpt>
      <trkpt lat="46.51165" lon="0.3429">
        <ele>128.8</ele>
        <time>2021-05-02T14:06:37Z</time>
      </trkpt>
      <trkpt lat="46.51179" lon="0.34243">
        <ele>128.8</ele>
        <time>2021-05-02T14:06:45Z</time>
      </trkpt>
      <trkpt lat="46.5118" lon="0.34237">
        <ele>128.8</ele>
        <time>2021-05-02T14:06:46Z</time>
      </trkpt>
      <trkpt lat="46.51183" lon="0.34214">
        <ele>129</ele>
        <time>2021-05-02T14:06:50Z</time>
      </trkpt>
      <trkpt lat="46.51183" lon="0.34209">
        <ele>129</ele>
        <time>2021-05-02T14:06:51Z</time>
      </trkpt>
      <trkpt lat="46.5119" lon="0.34186">
        <ele>129</ele>
        <time>2021-05-02T14:06:56Z</time>
      </trkpt>
      <trkpt lat="46.51197" lon="0.34175">
        <ele>128.8</ele>
        <time>2021-05-02T14:07:00Z</time>
      </trkpt>
      <trkpt lat="46.51203" lon="0.3417">
        <ele>128.2</ele>
        <time>2021-05-02T14:07:02Z</time>
      </trkpt>
      <trkpt lat="46.5121" lon="0.34164">
        <ele>127.2</ele>
        <time>2021-05-02T14:07:04Z</time>
      </trkpt>
      <trkpt lat="46.51218" lon="0.34162">
        <ele>126.4</ele>
        <time>2021-05-02T14:07:06Z</time>
      </trkpt>
      <trkpt lat="46.5122" lon="0.3416">
        <ele>126</ele>
        <time>2021-05-02T14:07:07Z</time>
      </trkpt>
      <trkpt lat="46.51222" lon="0.34157">
        <ele>124.8</ele>
        <time>2021-05-02T14:07:09Z</time>
      </trkpt>
      <trkpt lat="46.51223" lon="0.34155">
        <ele>124</ele>
        <time>2021-05-02T14:07:10Z</time>
      </trkpt>
      <trkpt lat="46.51223" lon="0.34153">
        <ele>123</ele>
        <time>2021-05-02T14:07:11Z</time>
      </trkpt>
      <trkpt lat="46.51224" lon="0.34151">
        <ele>121.4</ele>
        <time>2021-05-02T14:07:12Z</time>
      </trkpt>
      <trkpt lat="46.51224" lon="0.34151">
        <ele>121.4</ele>
        <time>2021-05-02T14:07:13Z</time>
      </trkpt>
      <trkpt lat="46.51225" lon="0.34147">
        <ele>120.2</ele>
        <time>2021-05-02T14:07:15Z</time>
      </trkpt>
      <trkpt lat="46.51228" lon="0.34145">
        <ele>118.2</ele>
        <time>2021-05-02T14:07:17Z</time>
      </trkpt>
      <trkpt lat="46.51229" lon="0.34144">
        <ele>117</ele>
        <time>2021-05-02T14:07:18Z</time>
      </trkpt>
      <trkpt lat="46.5123" lon="0.34142">
        <ele>116.4</ele>
        <time>2021-05-02T14:07:19Z</time>
      </trkpt>
      <trkpt lat="46.51232" lon="0.34141">
        <ele>115.4</ele>
        <time>2021-05-02T14:07:20Z</time>
      </trkpt>
      <trkpt lat="46.51234" lon="0.34141">
        <ele>114.4</ele>
        <time>2021-05-02T14:07:21Z</time>
      </trkpt>
      <trkpt lat="46.51238" lon="0.34138">
        <ele>112.8</ele>
        <time>2021-05-02T14:07:23Z</time>
      </trkpt>
      <trkpt lat="46.5124" lon="0.34136">
        <ele>112</ele>
        <time>2021-05-02T14:07:24Z</time>
      </trkpt>
      <trkpt lat="46.51243" lon="0.34134">
        <ele>110.6</ele>
        <time>2021-05-02T14:07:25Z</time>
      </trkpt>
      <trkpt lat="46.51246" lon="0.34131">
        <ele>109.2</ele>
        <time>2021-05-02T14:07:26Z</time>
      </trkpt>
      <trkpt lat="46.51249" lon="0.34128">
        <ele>108</ele>
        <time>2021-05-02T14:07:27Z</time>
      </trkpt>
      <trkpt lat="46.51252" lon="0.34125">
        <ele>105.6</ele>
        <time>2021-05-02T14:07:28Z</time>
      </trkpt>
      <trkpt lat="46.51252" lon="0.34122">
        <ele>103.8</ele>
        <time>2021-05-02T14:07:29Z</time>
      </trkpt>
      <trkpt lat="46.51253" lon="0.3412">
        <ele>102</ele>
        <time>2021-05-02T14:07:30Z</time>
      </trkpt>
      <trkpt lat="46.51255" lon="0.34118">
        <ele>100.6</ele>
        <time>2021-05-02T14:07:31Z</time>
      </trkpt>
      <trkpt lat="46.51255" lon="0.34117">
        <ele>100</ele>
        <time>2021-05-02T14:07:32Z</time>
      </trkpt>
      <trkpt lat="46.51254" lon="0.34116">
        <ele>99.6</ele>
        <time>2021-05-02T14:07:33Z</time>
      </trkpt>
      <trkpt lat="46.51254" lon="0.34107">
        <ele>99</ele>
        <time>2021-05-02T14:07:41Z</time>
      </trkpt>
      <trkpt lat="46.5126" lon="0.34105">
        <ele>100</ele>
        <time>2021-05-02T14:07:52Z</time>
      </trkpt>
      <trkpt lat="46.51264" lon="0.34104">
        <ele>100</ele>
        <time>2021-05-02T14:07:55Z</time>
      </trkpt>
      <trkpt lat="46.51271" lon="0.34104">
        <ele>99.2</ele>
        <time>2021-05-02T14:07:59Z</time>
      </trkpt>
      <trkpt lat="46.51291" lon="0.34105">
        <ele>98.8</ele>
        <time>2021-05-02T14:08:08Z</time>
      </trkpt>
      <trkpt lat="46.51298" lon="0.34111">
        <ele>98.6</ele>
        <time>2021-05-02T14:08:12Z</time>
      </trkpt>
      <trkpt lat="46.513" lon="0.34111">
        <ele>98.2</ele>
        <time>2021-05-02T14:08:13Z</time>
      </trkpt>
      <trkpt lat="46.51309" lon="0.34108">
        <ele>97.8</ele>
        <time>2021-05-02T14:08:16Z</time>
      </trkpt>
      <trkpt lat="46.51311" lon="0.34108">
        <ele>97.4</ele>
        <time>2021-05-02T14:08:17Z</time>
      </trkpt>
      <trkpt lat="46.51313" lon="0.34109">
        <ele>97.2</ele>
        <time>2021-05-02T14:08:18Z</time>
      </trkpt>
      <trkpt lat="46.51317" lon="0.34113">
        <ele>96.8</ele>
        <time>2021-05-02T14:08:20Z</time>
      </trkpt>
      <trkpt lat="46.51323" lon="0.3412">
        <ele>96.6</ele>
        <time>2021-05-02T14:08:24Z</time>
      </trkpt>
      <trkpt lat="46.51325" lon="0.3412">
        <ele>96.4</ele>
        <time>2021-05-02T14:08:25Z</time>
      </trkpt>
      <trkpt lat="46.51327" lon="0.3412">
        <ele>96.4</ele>
        <time>2021-05-02T14:08:26Z</time>
      </trkpt>
      <trkpt lat="46.51333" lon="0.3412">
        <ele>95</ele>
        <time>2021-05-02T14:08:29Z</time>
      </trkpt>
      <trkpt lat="46.51335" lon="0.34121">
        <ele>94.8</ele>
        <time>2021-05-02T14:08:30Z</time>
      </trkpt>
      <trkpt lat="46.51353" lon="0.34131">
        <ele>95</ele>
        <time>2021-05-02T14:08:36Z</time>
      </trkpt>
      <trkpt lat="46.5136" lon="0.34137">
        <ele>94</ele>
        <time>2021-05-02T14:08:39Z</time>
      </trkpt>
      <trkpt lat="46.51367" lon="0.34138">
        <ele>93.6</ele>
        <time>2021-05-02T14:08:41Z</time>
      </trkpt>
      <trkpt lat="46.51371" lon="0.34139">
        <ele>93.4</ele>
        <time>2021-05-02T14:08:42Z</time>
      </trkpt>
      <trkpt lat="46.51374" lon="0.3414">
        <ele>93.2</ele>
        <time>2021-05-02T14:08:43Z</time>
      </trkpt>
      <trkpt lat="46.51381" lon="0.3414">
        <ele>92.6</ele>
        <time>2021-05-02T14:08:45Z</time>
      </trkpt>
      <trkpt lat="46.51384" lon="0.3414">
        <ele>92.2</ele>
        <time>2021-05-02T14:08:46Z</time>
      </trkpt>
      <trkpt lat="46.51391" lon="0.34141">
        <ele>91.4</ele>
        <time>2021-05-02T14:08:48Z</time>
      </trkpt>
      <trkpt lat="46.51399" lon="0.34139">
        <ele>90.2</ele>
        <time>2021-05-02T14:08:51Z</time>
      </trkpt>
      <trkpt lat="46.51404" lon="0.34139">
        <ele>90</ele>
        <time>2021-05-02T14:08:52Z</time>
      </trkpt>
      <trkpt lat="46.51406" lon="0.3414">
        <ele>89</ele>
        <time>2021-05-02T14:08:53Z</time>
      </trkpt>
      <trkpt lat="46.51408" lon="0.34141">
        <ele>88</ele>
        <time>2021-05-02T14:08:54Z</time>
      </trkpt>
      <trkpt lat="46.51412" lon="0.34141">
        <ele>87.6</ele>
        <time>2021-05-02T14:08:55Z</time>
      </trkpt>
      <trkpt lat="46.51421" lon="0.34139">
        <ele>86.6</ele>
        <time>2021-05-02T14:08:58Z</time>
      </trkpt>
      <trkpt lat="46.51428" lon="0.34137">
        <ele>86.4</ele>
        <time>2021-05-02T14:09:00Z</time>
      </trkpt>
      <trkpt lat="46.51433" lon="0.34134">
        <ele>85.2</ele>
        <time>2021-05-02T14:09:03Z</time>
      </trkpt>
      <trkpt lat="46.51434" lon="0.34133">
        <ele>84.8</ele>
        <time>2021-05-02T14:09:04Z</time>
      </trkpt>
      <trkpt lat="46.51439" lon="0.3413">
        <ele>83.8</ele>
        <time>2021-05-02T14:09:06Z</time>
      </trkpt>
      <trkpt lat="46.51441" lon="0.34128">
        <ele>83.2</ele>
        <time>2021-05-02T14:09:07Z</time>
      </trkpt>
      <trkpt lat="46.51443" lon="0.34128">
        <ele>82.6</ele>
        <time>2021-05-02T14:09:08Z</time>
      </trkpt>
      <trkpt lat="46.51451" lon="0.34122">
        <ele>81.6</ele>
        <time>2021-05-02T14:09:16Z</time>
      </trkpt>
      <trkpt lat="46.51452" lon="0.34121">
        <ele>81.4</ele>
        <time>2021-05-02T14:09:18Z</time>
      </trkpt>
      <trkpt lat="46.51458" lon="0.34121">
        <ele>81.2</ele>
        <time>2021-05-02T14:09:33Z</time>
      </trkpt>
      <trkpt lat="46.51459" lon="0.34117">
        <ele>81.4</ele>
        <time>2021-05-02T14:09:48Z</time>
      </trkpt>
      <trkpt lat="46.51459" lon="0.34114">
        <ele>81.2</ele>
        <time>2021-05-02T14:10:04Z</time>
      </trkpt>
      <trkpt lat="46.51462" lon="0.34113">
        <ele>81.4</ele>
        <time>2021-05-02T14:10:21Z</time>
      </trkpt>
      <trkpt lat="46.51463" lon="0.34117">
        <ele>81.6</ele>
        <time>2021-05-02T14:10:34Z</time>
      </trkpt>
      <trkpt lat="46.51464" lon="0.34117">
        <ele>81.6</ele>
        <time>2021-05-02T14:10:35Z</time>
      </trkpt>
      <trkpt lat="46.51464" lon="0.34118">
        <ele>82</ele>
        <time>2021-05-02T14:10:37Z</time>
      </trkpt>
      <trkpt lat="46.51464" lon="0.34119">
        <ele>82</ele>
        <time>2021-05-02T14:10:38Z</time>
      </trkpt>
      <trkpt lat="46.51465" lon="0.34119">
        <ele>82.8</ele>
        <time>2021-05-02T14:10:44Z</time>
      </trkpt>
      <trkpt lat="46.51464" lon="0.34119">
        <ele>83.6</ele>
        <time>2021-05-02T14:10:48Z</time>
      </trkpt>
      <trkpt lat="46.51464" lon="0.3412">
        <ele>84</ele>
        <time>2021-05-02T14:10:50Z</time>
      </trkpt>
      <trkpt lat="46.51464" lon="0.34124">
        <ele>85</ele>
        <time>2021-05-02T14:11:02Z</time>
      </trkpt>
      <trkpt lat="46.51463" lon="0.34124">
        <ele>85</ele>
        <time>2021-05-02T14:11:03Z</time>
      </trkpt>
      <trkpt lat="46.51462" lon="0.34126">
        <ele>85.4</ele>
        <time>2021-05-02T14:11:07Z</time>
      </trkpt>
      <trkpt lat="46.51457" lon="0.34128">
        <ele>85.6</ele>
        <time>2021-05-02T14:11:12Z</time>
      </trkpt>
      <trkpt lat="46.51453" lon="0.3413">
        <ele>86.2</ele>
        <time>2021-05-02T14:11:16Z</time>
      </trkpt>
      <trkpt lat="46.51442" lon="0.34131">
        <ele>87.2</ele>
        <time>2021-05-02T14:11:22Z</time>
      </trkpt>
      <trkpt lat="46.51441" lon="0.34132">
        <ele>87.2</ele>
        <time>2021-05-02T14:11:23Z</time>
      </trkpt>
      <trkpt lat="46.51439" lon="0.34132">
        <ele>87.4</ele>
        <time>2021-05-02T14:11:25Z</time>
      </trkpt>
      <trkpt lat="46.51437" lon="0.34131">
        <ele>87.4</ele>
        <time>2021-05-02T14:11:31Z</time>
      </trkpt>
      <trkpt lat="46.5144" lon="0.34134">
        <ele>87.2</ele>
        <time>2021-05-02T14:11:37Z</time>
      </trkpt>
      <trkpt lat="46.51443" lon="0.34134">
        <ele>86.8</ele>
        <time>2021-05-02T14:11:39Z</time>
      </trkpt>
      <trkpt lat="46.5145" lon="0.34134">
        <ele>86</ele>
        <time>2021-05-02T14:11:45Z</time>
      </trkpt>
      <trkpt lat="46.51452" lon="0.34134">
        <ele>85.8</ele>
        <time>2021-05-02T14:11:49Z</time>
      </trkpt>
      <trkpt lat="46.5146" lon="0.34127">
        <ele>84.8</ele>
        <time>2021-05-02T14:11:56Z</time>
      </trkpt>
      <trkpt lat="46.51463" lon="0.34124">
        <ele>83.8</ele>
        <time>2021-05-02T14:11:58Z</time>
      </trkpt>
      <trkpt lat="46.51465" lon="0.34119">
        <ele>82.4</ele>
        <time>2021-05-02T14:12:00Z</time>
      </trkpt>
      <trkpt lat="46.51468" lon="0.34114">
        <ele>81.6</ele>
        <time>2021-05-02T14:12:02Z</time>
      </trkpt>
      <trkpt lat="46.51471" lon="0.3411">
        <ele>81.4</ele>
        <time>2021-05-02T14:12:03Z</time>
      </trkpt>
      <trkpt lat="46.51483" lon="0.34106">
        <ele>80.6</ele>
        <time>2021-05-02T14:12:06Z</time>
      </trkpt>
      <trkpt lat="46.51488" lon="0.34106">
        <ele>80.4</ele>
        <time>2021-05-02T14:12:07Z</time>
      </trkpt>
      <trkpt lat="46.51493" lon="0.34107">
        <ele>80.4</ele>
        <time>2021-05-02T14:12:08Z</time>
      </trkpt>
      <trkpt lat="46.51498" lon="0.34108">
        <ele>80.4</ele>
        <time>2021-05-02T14:12:09Z</time>
      </trkpt>
      <trkpt lat="46.51502" lon="0.3411">
        <ele>80</ele>
        <time>2021-05-02T14:12:10Z</time>
      </trkpt>
      <trkpt lat="46.51515" lon="0.34117">
        <ele>79.4</ele>
        <time>2021-05-02T14:12:13Z</time>
      </trkpt>
      <trkpt lat="46.51522" lon="0.34121">
        <ele>78.8</ele>
        <time>2021-05-02T14:12:15Z</time>
      </trkpt>
      <trkpt lat="46.51525" lon="0.34123">
        <ele>78.8</ele>
        <time>2021-05-02T14:12:16Z</time>
      </trkpt>
      <trkpt lat="46.51532" lon="0.34125">
        <ele>78.2</ele>
        <time>2021-05-02T14:12:18Z</time>
      </trkpt>
      <trkpt lat="46.51548" lon="0.34129">
        <ele>77.8</ele>
        <time>2021-05-02T14:12:23Z</time>
      </trkpt>
      <trkpt lat="46.51572" lon="0.34132">
        <ele>78</ele>
        <time>2021-05-02T14:12:29Z</time>
      </trkpt>
      <trkpt lat="46.51603" lon="0.34135">
        <ele>77.6</ele>
        <time>2021-05-02T14:12:37Z</time>
      </trkpt>
      <trkpt lat="46.5163" lon="0.34148">
        <ele>78</ele>
        <time>2021-05-02T14:12:44Z</time>
      </trkpt>
      <trkpt lat="46.51637" lon="0.34153">
        <ele>78.2</ele>
        <time>2021-05-02T14:12:46Z</time>
      </trkpt>
      <trkpt lat="46.5164" lon="0.34162">
        <ele>78.2</ele>
        <time>2021-05-02T14:12:48Z</time>
      </trkpt>
      <trkpt lat="46.5164" lon="0.34181">
        <ele>79</ele>
        <time>2021-05-02T14:12:53Z</time>
      </trkpt>
      <trkpt lat="46.5164" lon="0.34183">
        <ele>79.4</ele>
        <time>2021-05-02T14:12:54Z</time>
      </trkpt>
      <trkpt lat="46.51641" lon="0.34189">
        <ele>81</ele>
        <time>2021-05-02T14:12:57Z</time>
      </trkpt>
      <trkpt lat="46.51643" lon="0.34192">
        <ele>82.2</ele>
        <time>2021-05-02T14:12:59Z</time>
      </trkpt>
      <trkpt lat="46.51648" lon="0.34196">
        <ele>83.6</ele>
        <time>2021-05-02T14:13:02Z</time>
      </trkpt>
      <trkpt lat="46.5165" lon="0.34202">
        <ele>84.2</ele>
        <time>2021-05-02T14:13:04Z</time>
      </trkpt>
      <trkpt lat="46.5166" lon="0.34211">
        <ele>84</ele>
        <time>2021-05-02T14:13:09Z</time>
      </trkpt>
      <trkpt lat="46.51677" lon="0.34215">
        <ele>83.2</ele>
        <time>2021-05-02T14:13:15Z</time>
      </trkpt>
      <trkpt lat="46.51683" lon="0.34214">
        <ele>83</ele>
        <time>2021-05-02T14:13:20Z</time>
      </trkpt>
      <trkpt lat="46.5169" lon="0.34207">
        <ele>83.2</ele>
        <time>2021-05-02T14:13:24Z</time>
      </trkpt>
      <trkpt lat="46.517" lon="0.34187">
        <ele>82.6</ele>
        <time>2021-05-02T14:13:28Z</time>
      </trkpt>
      <trkpt lat="46.51702" lon="0.34182">
        <ele>82.4</ele>
        <time>2021-05-02T14:13:29Z</time>
      </trkpt>
      <trkpt lat="46.51719" lon="0.34142">
        <ele>81.8</ele>
        <time>2021-05-02T14:13:36Z</time>
      </trkpt>
      <trkpt lat="46.51721" lon="0.34135">
        <ele>81.6</ele>
        <time>2021-05-02T14:13:37Z</time>
      </trkpt>
      <trkpt lat="46.51732" lon="0.34099">
        <ele>80.6</ele>
        <time>2021-05-02T14:13:43Z</time>
      </trkpt>
      <trkpt lat="46.51733" lon="0.34093">
        <ele>80.4</ele>
        <time>2021-05-02T14:13:44Z</time>
      </trkpt>
      <trkpt lat="46.51734" lon="0.34087">
        <ele>80.4</ele>
        <time>2021-05-02T14:13:45Z</time>
      </trkpt>
      <trkpt lat="46.51737" lon="0.34069">
        <ele>80.2</ele>
        <time>2021-05-02T14:13:48Z</time>
      </trkpt>
      <trkpt lat="46.51737" lon="0.34051">
        <ele>80</ele>
        <time>2021-05-02T14:13:51Z</time>
      </trkpt>
      <trkpt lat="46.51742" lon="0.34041">
        <ele>79.8</ele>
        <time>2021-05-02T14:13:53Z</time>
      </trkpt>
      <trkpt lat="46.5175" lon="0.3404">
        <ele>79.6</ele>
        <time>2021-05-02T14:13:55Z</time>
      </trkpt>
      <trkpt lat="46.51754" lon="0.34041">
        <ele>79.6</ele>
        <time>2021-05-02T14:13:56Z</time>
      </trkpt>
      <trkpt lat="46.51774" lon="0.34053">
        <ele>79.6</ele>
        <time>2021-05-02T14:14:02Z</time>
      </trkpt>
      <trkpt lat="46.51787" lon="0.34058">
        <ele>79.6</ele>
        <time>2021-05-02T14:14:06Z</time>
      </trkpt>
      <trkpt lat="46.51801" lon="0.34058">
        <ele>79.6</ele>
        <time>2021-05-02T14:14:09Z</time>
      </trkpt>
      <trkpt lat="46.51805" lon="0.34057">
        <ele>79.6</ele>
        <time>2021-05-02T14:14:10Z</time>
      </trkpt>
      <trkpt lat="46.5181" lon="0.34055">
        <ele>79.4</ele>
        <time>2021-05-02T14:14:11Z</time>
      </trkpt>
      <trkpt lat="46.51824" lon="0.3405">
        <ele>79.4</ele>
        <time>2021-05-02T14:14:14Z</time>
      </trkpt>
      <trkpt lat="46.51829" lon="0.34049">
        <ele>79.6</ele>
        <time>2021-05-02T14:14:15Z</time>
      </trkpt>
      <trkpt lat="46.51839" lon="0.34051">
        <ele>79.6</ele>
        <time>2021-05-02T14:14:17Z</time>
      </trkpt>
      <trkpt lat="46.51844" lon="0.34054">
        <ele>79.8</ele>
        <time>2021-05-02T14:14:18Z</time>
      </trkpt>
      <trkpt lat="46.51848" lon="0.34056">
        <ele>79.8</ele>
        <time>2021-05-02T14:14:19Z</time>
      </trkpt>
      <trkpt lat="46.51859" lon="0.34066">
        <ele>80.2</ele>
        <time>2021-05-02T14:14:22Z</time>
      </trkpt>
      <trkpt lat="46.51863" lon="0.34066">
        <ele>80</ele>
        <time>2021-05-02T14:14:23Z</time>
      </trkpt>
      <trkpt lat="46.51867" lon="0.34065">
        <ele>79.8</ele>
        <time>2021-05-02T14:14:24Z</time>
      </trkpt>
      <trkpt lat="46.51887" lon="0.34059">
        <ele>79.8</ele>
        <time>2021-05-02T14:14:28Z</time>
      </trkpt>
      <trkpt lat="46.51927" lon="0.34047">
        <ele>79.8</ele>
        <time>2021-05-02T14:14:36Z</time>
      </trkpt>
      <trkpt lat="46.51961" lon="0.34034">
        <ele>79.8</ele>
        <time>2021-05-02T14:14:43Z</time>
      </trkpt>
      <trkpt lat="46.51964" lon="0.34031">
        <ele>79.8</ele>
        <time>2021-05-02T14:14:44Z</time>
      </trkpt>
      <trkpt lat="46.51966" lon="0.34026">
        <ele>79.8</ele>
        <time>2021-05-02T14:14:45Z</time>
      </trkpt>
      <trkpt lat="46.51966" lon="0.34016">
        <ele>79.6</ele>
        <time>2021-05-02T14:14:47Z</time>
      </trkpt>
      <trkpt lat="46.51962" lon="0.3398">
        <ele>79.6</ele>
        <time>2021-05-02T14:14:54Z</time>
      </trkpt>
      <trkpt lat="46.5196" lon="0.33943">
        <ele>79.4</ele>
        <time>2021-05-02T14:15:01Z</time>
      </trkpt>
      <trkpt lat="46.51963" lon="0.33935">
        <ele>79.6</ele>
        <time>2021-05-02T14:15:03Z</time>
      </trkpt>
      <trkpt lat="46.51966" lon="0.33933">
        <ele>79.6</ele>
        <time>2021-05-02T14:15:04Z</time>
      </trkpt>
      <trkpt lat="46.51973" lon="0.3393">
        <ele>79.4</ele>
        <time>2021-05-02T14:15:06Z</time>
      </trkpt>
      <trkpt lat="46.51976" lon="0.33926">
        <ele>79.2</ele>
        <time>2021-05-02T14:15:07Z</time>
      </trkpt>
      <trkpt lat="46.51979" lon="0.33921">
        <ele>79.2</ele>
        <time>2021-05-02T14:15:08Z</time>
      </trkpt>
      <trkpt lat="46.51985" lon="0.33906">
        <ele>79</ele>
        <time>2021-05-02T14:15:11Z</time>
      </trkpt>
      <trkpt lat="46.51987" lon="0.339">
        <ele>79</ele>
        <time>2021-05-02T14:15:12Z</time>
      </trkpt>
      <trkpt lat="46.51992" lon="0.33864">
        <ele>78.8</ele>
        <time>2021-05-02T14:15:19Z</time>
      </trkpt>
      <trkpt lat="46.51995" lon="0.33828">
        <ele>78.8</ele>
        <time>2021-05-02T14:15:26Z</time>
      </trkpt>
      <trkpt lat="46.51998" lon="0.33789">
        <ele>79</ele>
        <time>2021-05-02T14:15:34Z</time>
      </trkpt>
      <trkpt lat="46.52003" lon="0.33749">
        <ele>78.8</ele>
        <time>2021-05-02T14:15:43Z</time>
      </trkpt>
      <trkpt lat="46.52006" lon="0.33739">
        <ele>78.6</ele>
        <time>2021-05-02T14:15:47Z</time>
      </trkpt>
      <trkpt lat="46.52007" lon="0.33738">
        <ele>78.8</ele>
        <time>2021-05-02T14:15:48Z</time>
      </trkpt>
      <trkpt lat="46.52017" lon="0.33738">
        <ele>79</ele>
        <time>2021-05-02T14:15:52Z</time>
      </trkpt>
      <trkpt lat="46.52041" lon="0.33739">
        <ele>79</ele>
        <time>2021-05-02T14:15:59Z</time>
      </trkpt>
      <trkpt lat="46.52061" lon="0.33744">
        <ele>79.8</ele>
        <time>2021-05-02T14:16:07Z</time>
      </trkpt>
      <trkpt lat="46.52063" lon="0.33763">
        <ele>80</ele>
        <time>2021-05-02T14:16:12Z</time>
      </trkpt>
      <trkpt lat="46.52061" lon="0.33784">
        <ele>80</ele>
        <time>2021-05-02T14:16:16Z</time>
      </trkpt>
      <trkpt lat="46.52063" lon="0.33804">
        <ele>80.2</ele>
        <time>2021-05-02T14:16:17Z</time>
      </trkpt>
      <trkpt lat="46.52065" lon="0.33817">
        <ele>80</ele>
        <time>2021-05-02T14:16:21Z</time>
      </trkpt>
      <trkpt lat="46.52067" lon="0.33847">
        <ele>79.8</ele>
        <time>2021-05-02T14:16:25Z</time>
      </trkpt>
      <trkpt lat="46.52074" lon="0.33897">
        <ele>80</ele>
        <time>2021-05-02T14:16:32Z</time>
      </trkpt>
      <trkpt lat="46.52078" lon="0.33911">
        <ele>80</ele>
        <time>2021-05-02T14:16:34Z</time>
      </trkpt>
      <trkpt lat="46.52085" lon="0.33937">
        <ele>80</ele>
        <time>2021-05-02T14:16:38Z</time>
      </trkpt>
      <trkpt lat="46.52091" lon="0.33954">
        <ele>80</ele>
        <time>2021-05-02T14:16:41Z</time>
      </trkpt>
      <trkpt lat="46.52097" lon="0.33962">
        <ele>80</ele>
        <time>2021-05-02T14:16:43Z</time>
      </trkpt>
      <trkpt lat="46.52121" lon="0.33975">
        <ele>79.6</ele>
        <time>2021-05-02T14:16:48Z</time>
      </trkpt>
      <trkpt lat="46.5214" lon="0.33982">
        <ele>79.6</ele>
        <time>2021-05-02T14:16:52Z</time>
      </trkpt>
      <trkpt lat="46.5215" lon="0.33984">
        <ele>79.8</ele>
        <time>2021-05-02T14:16:54Z</time>
      </trkpt>
      <trkpt lat="46.5216" lon="0.33986">
        <ele>79.6</ele>
        <time>2021-05-02T14:16:56Z</time>
      </trkpt>
      <trkpt lat="46.52181" lon="0.33986">
        <ele>79.4</ele>
        <time>2021-05-02T14:17:00Z</time>
      </trkpt>
      <trkpt lat="46.52214" lon="0.33982">
        <ele>78.8</ele>
        <time>2021-05-02T14:17:07Z</time>
      </trkpt>
      <trkpt lat="46.52219" lon="0.33981">
        <ele>78.8</ele>
        <time>2021-05-02T14:17:08Z</time>
      </trkpt>
      <trkpt lat="46.52233" lon="0.3397">
        <ele>79</ele>
        <time>2021-05-02T14:17:11Z</time>
      </trkpt>
      <trkpt lat="46.52263" lon="0.3394">
        <ele>79.6</ele>
        <time>2021-05-02T14:17:18Z</time>
      </trkpt>
      <trkpt lat="46.52295" lon="0.33915">
        <ele>79.8</ele>
        <time>2021-05-02T14:17:25Z</time>
      </trkpt>
      <trkpt lat="46.52343" lon="0.33879">
        <ele>80</ele>
        <time>2021-05-02T14:17:35Z</time>
      </trkpt>
      <trkpt lat="46.52348" lon="0.33876">
        <ele>79.8</ele>
        <time>2021-05-02T14:17:36Z</time>
      </trkpt>
      <trkpt lat="46.52387" lon="0.3385">
        <ele>79.8</ele>
        <time>2021-05-02T14:17:44Z</time>
      </trkpt>
      <trkpt lat="46.52426" lon="0.33816">
        <ele>79.4</ele>
        <time>2021-05-02T14:17:52Z</time>
      </trkpt>
      <trkpt lat="46.52468" lon="0.33769">
        <ele>79.6</ele>
        <time>2021-05-02T14:18:01Z</time>
      </trkpt>
      <trkpt lat="46.52496" lon="0.33731">
        <ele>79.4</ele>
        <time>2021-05-02T14:18:08Z</time>
      </trkpt>
      <trkpt lat="46.52499" lon="0.33726">
        <ele>79.4</ele>
        <time>2021-05-02T14:18:09Z</time>
      </trkpt>
      <trkpt lat="46.52506" lon="0.33708">
        <ele>79.4</ele>
        <time>2021-05-02T14:18:12Z</time>
      </trkpt>
      <trkpt lat="46.52508" lon="0.33702">
        <ele>79.4</ele>
        <time>2021-05-02T14:18:13Z</time>
      </trkpt>
      <trkpt lat="46.52509" lon="0.33696">
        <ele>79.4</ele>
        <time>2021-05-02T14:18:14Z</time>
      </trkpt>
      <trkpt lat="46.52508" lon="0.33679">
        <ele>80</ele>
        <time>2021-05-02T14:18:17Z</time>
      </trkpt>
      <trkpt lat="46.52509" lon="0.33667">
        <ele>80.4</ele>
        <time>2021-05-02T14:18:20Z</time>
      </trkpt>
      <trkpt lat="46.52511" lon="0.33655">
        <ele>81</ele>
        <time>2021-05-02T14:18:23Z</time>
      </trkpt>
      <trkpt lat="46.52513" lon="0.33651">
        <ele>81.8</ele>
        <time>2021-05-02T14:18:24Z</time>
      </trkpt>
      <trkpt lat="46.52517" lon="0.33641">
        <ele>83.2</ele>
        <time>2021-05-02T14:18:27Z</time>
      </trkpt>
      <trkpt lat="46.52523" lon="0.33629">
        <ele>84.4</ele>
        <time>2021-05-02T14:18:30Z</time>
      </trkpt>
      <trkpt lat="46.5253" lon="0.33613">
        <ele>85.8</ele>
        <time>2021-05-02T14:18:34Z</time>
      </trkpt>
      <trkpt lat="46.52533" lon="0.33599">
        <ele>86.8</ele>
        <time>2021-05-02T14:18:37Z</time>
      </trkpt>
      <trkpt lat="46.52533" lon="0.33579">
        <ele>88.2</ele>
        <time>2021-05-02T14:18:41Z</time>
      </trkpt>
      <trkpt lat="46.52532" lon="0.3357">
        <ele>88.8</ele>
        <time>2021-05-02T14:18:43Z</time>
      </trkpt>
      <trkpt lat="46.52531" lon="0.33557">
        <ele>89.2</ele>
        <time>2021-05-02T14:18:46Z</time>
      </trkpt>
      <trkpt lat="46.52529" lon="0.3354">
        <ele>89.8</ele>
        <time>2021-05-02T14:18:50Z</time>
      </trkpt>
      <trkpt lat="46.52529" lon="0.3353">
        <ele>90.2</ele>
        <time>2021-05-02T14:18:52Z</time>
      </trkpt>
      <trkpt lat="46.52529" lon="0.3351">
        <ele>91.2</ele>
        <time>2021-05-02T14:18:56Z</time>
      </trkpt>
      <trkpt lat="46.5253" lon="0.33489">
        <ele>91.8</ele>
        <time>2021-05-02T14:19:00Z</time>
      </trkpt>
      <trkpt lat="46.52531" lon="0.33474">
        <ele>92.4</ele>
        <time>2021-05-02T14:19:03Z</time>
      </trkpt>
      <trkpt lat="46.52534" lon="0.33454">
        <ele>92.6</ele>
        <time>2021-05-02T14:19:07Z</time>
      </trkpt>
      <trkpt lat="46.52537" lon="0.33426">
        <ele>93</ele>
        <time>2021-05-02T14:19:13Z</time>
      </trkpt>
      <trkpt lat="46.52541" lon="0.33419">
        <ele>93.4</ele>
        <time>2021-05-02T14:19:15Z</time>
      </trkpt>
      <trkpt lat="46.52547" lon="0.33409">
        <ele>94.6</ele>
        <time>2021-05-02T14:19:18Z</time>
      </trkpt>
      <trkpt lat="46.52562" lon="0.33387">
        <ele>95.2</ele>
        <time>2021-05-02T14:19:24Z</time>
      </trkpt>
      <trkpt lat="46.52567" lon="0.3338">
        <ele>95.4</ele>
        <time>2021-05-02T14:19:26Z</time>
      </trkpt>
      <trkpt lat="46.5258" lon="0.33368">
        <ele>95.2</ele>
        <time>2021-05-02T14:19:31Z</time>
      </trkpt>
      <trkpt lat="46.52598" lon="0.33371">
        <ele>95.4</ele>
        <time>2021-05-02T14:19:36Z</time>
      </trkpt>
      <trkpt lat="46.52608" lon="0.33385">
        <ele>95.4</ele>
        <time>2021-05-02T14:19:40Z</time>
      </trkpt>
      <trkpt lat="46.52616" lon="0.33396">
        <ele>95.6</ele>
        <time>2021-05-02T14:19:43Z</time>
      </trkpt>
      <trkpt lat="46.52622" lon="0.33402">
        <ele>95.6</ele>
        <time>2021-05-02T14:19:45Z</time>
      </trkpt>
      <trkpt lat="46.52624" lon="0.33405">
        <ele>95.8</ele>
        <time>2021-05-02T14:19:46Z</time>
      </trkpt>
      <trkpt lat="46.52629" lon="0.33411">
        <ele>96</ele>
        <time>2021-05-02T14:19:48Z</time>
      </trkpt>
      <trkpt lat="46.52636" lon="0.33416">
        <ele>96.4</ele>
        <time>2021-05-02T14:19:50Z</time>
      </trkpt>
      <trkpt lat="46.5264" lon="0.33418">
        <ele>96.4</ele>
        <time>2021-05-02T14:19:51Z</time>
      </trkpt>
      <trkpt lat="46.52647" lon="0.3342">
        <ele>96.6</ele>
        <time>2021-05-02T14:19:53Z</time>
      </trkpt>
      <trkpt lat="46.52658" lon="0.33424">
        <ele>97.6</ele>
        <time>2021-05-02T14:19:57Z</time>
      </trkpt>
      <trkpt lat="46.52661" lon="0.33425">
        <ele>97.8</ele>
        <time>2021-05-02T14:19:58Z</time>
      </trkpt>
      <trkpt lat="46.52673" lon="0.33429">
        <ele>99</ele>
        <time>2021-05-02T14:20:02Z</time>
      </trkpt>
      <trkpt lat="46.52682" lon="0.33431">
        <ele>99.6</ele>
        <time>2021-05-02T14:20:05Z</time>
      </trkpt>
      <trkpt lat="46.52695" lon="0.33433">
        <ele>100.2</ele>
        <time>2021-05-02T14:20:09Z</time>
      </trkpt>
      <trkpt lat="46.52707" lon="0.33434">
        <ele>100.6</ele>
        <time>2021-05-02T14:20:12Z</time>
      </trkpt>
      <trkpt lat="46.52723" lon="0.33434">
        <ele>101.2</ele>
        <time>2021-05-02T14:20:17Z</time>
      </trkpt>
      <trkpt lat="46.52725" lon="0.33435">
        <ele>101.6</ele>
        <time>2021-05-02T14:20:18Z</time>
      </trkpt>
      <trkpt lat="46.52743" lon="0.33442">
        <ele>102</ele>
        <time>2021-05-02T14:20:24Z</time>
      </trkpt>
      <trkpt lat="46.5276" lon="0.33447">
        <ele>102.4</ele>
        <time>2021-05-02T14:20:28Z</time>
      </trkpt>
      <trkpt lat="46.52764" lon="0.33447">
        <ele>102.4</ele>
        <time>2021-05-02T14:20:29Z</time>
      </trkpt>
      <trkpt lat="46.52783" lon="0.33441">
        <ele>103.4</ele>
        <time>2021-05-02T14:20:35Z</time>
      </trkpt>
      <trkpt lat="46.52785" lon="0.33438">
        <ele>103.4</ele>
        <time>2021-05-02T14:20:36Z</time>
      </trkpt>
      <trkpt lat="46.52788" lon="0.33429">
        <ele>103.8</ele>
        <time>2021-05-02T14:20:39Z</time>
      </trkpt>
      <trkpt lat="46.52789" lon="0.33425">
        <ele>104</ele>
        <time>2021-05-02T14:20:40Z</time>
      </trkpt>
      <trkpt lat="46.5279" lon="0.33418">
        <ele>104.6</ele>
        <time>2021-05-02T14:20:42Z</time>
      </trkpt>
      <trkpt lat="46.52794" lon="0.33402">
        <ele>105.6</ele>
        <time>2021-05-02T14:20:46Z</time>
      </trkpt>
      <trkpt lat="46.52793" lon="0.33398">
        <ele>105.6</ele>
        <time>2021-05-02T14:20:47Z</time>
      </trkpt>
      <trkpt lat="46.52793" lon="0.33394">
        <ele>105.8</ele>
        <time>2021-05-02T14:20:48Z</time>
      </trkpt>
      <trkpt lat="46.52794" lon="0.33379">
        <ele>106.4</ele>
        <time>2021-05-02T14:20:52Z</time>
      </trkpt>
      <trkpt lat="46.52795" lon="0.33367">
        <ele>106.8</ele>
        <time>2021-05-02T14:20:55Z</time>
      </trkpt>
      <trkpt lat="46.52797" lon="0.33348">
        <ele>107</ele>
        <time>2021-05-02T14:20:59Z</time>
      </trkpt>
      <trkpt lat="46.52798" lon="0.33344">
        <ele>107</ele>
        <time>2021-05-02T14:21:00Z</time>
      </trkpt>
      <trkpt lat="46.52798" lon="0.33341">
        <ele>107.2</ele>
        <time>2021-05-02T14:21:01Z</time>
      </trkpt>
      <trkpt lat="46.528" lon="0.33323">
        <ele>107.4</ele>
        <time>2021-05-02T14:21:05Z</time>
      </trkpt>
      <trkpt lat="46.52802" lon="0.33293">
        <ele>107.4</ele>
        <time>2021-05-02T14:21:11Z</time>
      </trkpt>
      <trkpt lat="46.52801" lon="0.33288">
        <ele>107.8</ele>
        <time>2021-05-02T14:21:12Z</time>
      </trkpt>
      <trkpt lat="46.52801" lon="0.33256">
        <ele>109</ele>
        <time>2021-05-02T14:21:17Z</time>
      </trkpt>
      <trkpt lat="46.528" lon="0.33245">
        <ele>109.2</ele>
        <time>2021-05-02T14:21:19Z</time>
      </trkpt>
      <trkpt lat="46.52797" lon="0.3322">
        <ele>110</ele>
        <time>2021-05-02T14:21:25Z</time>
      </trkpt>
      <trkpt lat="46.52797" lon="0.33215">
        <ele>110.2</ele>
        <time>2021-05-02T14:21:27Z</time>
      </trkpt>
      <trkpt lat="46.528" lon="0.33206">
        <ele>110.6</ele>
        <time>2021-05-02T14:21:31Z</time>
      </trkpt>
      <trkpt lat="46.52801" lon="0.33204">
        <ele>110.6</ele>
        <time>2021-05-02T14:21:32Z</time>
      </trkpt>
      <trkpt lat="46.52807" lon="0.332">
        <ele>111.2</ele>
        <time>2021-05-02T14:21:34Z</time>
      </trkpt>
      <trkpt lat="46.52816" lon="0.33195">
        <ele>111.6</ele>
        <time>2021-05-02T14:21:37Z</time>
      </trkpt>
      <trkpt lat="46.52819" lon="0.33193">
        <ele>111.8</ele>
        <time>2021-05-02T14:21:38Z</time>
      </trkpt>
      <trkpt lat="46.52823" lon="0.33189">
        <ele>112.4</ele>
        <time>2021-05-02T14:21:40Z</time>
      </trkpt>
      <trkpt lat="46.52829" lon="0.33184">
        <ele>113.8</ele>
        <time>2021-05-02T14:21:43Z</time>
      </trkpt>
      <trkpt lat="46.52837" lon="0.33179">
        <ele>115</ele>
        <time>2021-05-02T14:21:46Z</time>
      </trkpt>
      <trkpt lat="46.52847" lon="0.33175">
        <ele>116.2</ele>
        <time>2021-05-02T14:21:49Z</time>
      </trkpt>
      <trkpt lat="46.52862" lon="0.33169">
        <ele>117.4</ele>
        <time>2021-05-02T14:21:54Z</time>
      </trkpt>
      <trkpt lat="46.52871" lon="0.33166">
        <ele>118</ele>
        <time>2021-05-02T14:21:57Z</time>
      </trkpt>
      <trkpt lat="46.52877" lon="0.33164">
        <ele>118.4</ele>
        <time>2021-05-02T14:21:59Z</time>
      </trkpt>
      <trkpt lat="46.52879" lon="0.33163">
        <ele>118.8</ele>
        <time>2021-05-02T14:22:00Z</time>
      </trkpt>
      <trkpt lat="46.52888" lon="0.3316">
        <ele>119.2</ele>
        <time>2021-05-02T14:22:03Z</time>
      </trkpt>
      <trkpt lat="46.52897" lon="0.33158">
        <ele>119.6</ele>
        <time>2021-05-02T14:22:06Z</time>
      </trkpt>
      <trkpt lat="46.52906" lon="0.33155">
        <ele>120.2</ele>
        <time>2021-05-02T14:22:09Z</time>
      </trkpt>
      <trkpt lat="46.52918" lon="0.3315">
        <ele>120.6</ele>
        <time>2021-05-02T14:22:13Z</time>
      </trkpt>
      <trkpt lat="46.52924" lon="0.33147">
        <ele>120.8</ele>
        <time>2021-05-02T14:22:15Z</time>
      </trkpt>
      <trkpt lat="46.52937" lon="0.33144">
        <ele>121.8</ele>
        <time>2021-05-02T14:22:20Z</time>
      </trkpt>
      <trkpt lat="46.5294" lon="0.33144">
        <ele>121.8</ele>
        <time>2021-05-02T14:22:21Z</time>
      </trkpt>
      <trkpt lat="46.52959" lon="0.33138">
        <ele>122.8</ele>
        <time>2021-05-02T14:22:28Z</time>
      </trkpt>
      <trkpt lat="46.52962" lon="0.33137">
        <ele>123</ele>
        <time>2021-05-02T14:22:29Z</time>
      </trkpt>
      <trkpt lat="46.52972" lon="0.33132">
        <ele>123.8</ele>
        <time>2021-05-02T14:22:33Z</time>
      </trkpt>
      <trkpt lat="46.52975" lon="0.33131">
        <ele>124</ele>
        <time>2021-05-02T14:22:34Z</time>
      </trkpt>
      <trkpt lat="46.52996" lon="0.33123">
        <ele>124.4</ele>
        <time>2021-05-02T14:22:41Z</time>
      </trkpt>
      <trkpt lat="46.53007" lon="0.33117">
        <ele>125.2</ele>
        <time>2021-05-02T14:22:45Z</time>
      </trkpt>
      <trkpt lat="46.53011" lon="0.33116">
        <ele>125.6</ele>
        <time>2021-05-02T14:22:46Z</time>
      </trkpt>
      <trkpt lat="46.53021" lon="0.33112">
        <ele>125.8</ele>
        <time>2021-05-02T14:22:49Z</time>
      </trkpt>
      <trkpt lat="46.53027" lon="0.33108">
        <ele>126</ele>
        <time>2021-05-02T14:22:51Z</time>
      </trkpt>
      <trkpt lat="46.53034" lon="0.33104">
        <ele>126.4</ele>
        <time>2021-05-02T14:22:53Z</time>
      </trkpt>
      <trkpt lat="46.53059" lon="0.33099">
        <ele>127</ele>
        <time>2021-05-02T14:22:59Z</time>
      </trkpt>
      <trkpt lat="46.53068" lon="0.33096">
        <ele>127.2</ele>
        <time>2021-05-02T14:23:01Z</time>
      </trkpt>
      <trkpt lat="46.53077" lon="0.33092">
        <ele>127.2</ele>
        <time>2021-05-02T14:23:03Z</time>
      </trkpt>
      <trkpt lat="46.53086" lon="0.33089">
        <ele>127.4</ele>
        <time>2021-05-02T14:23:05Z</time>
      </trkpt>
      <trkpt lat="46.53101" lon="0.33084">
        <ele>127.6</ele>
        <time>2021-05-02T14:23:08Z</time>
      </trkpt>
      <trkpt lat="46.53119" lon="0.33077">
        <ele>127.4</ele>
        <time>2021-05-02T14:23:12Z</time>
      </trkpt>
      <trkpt lat="46.53128" lon="0.33075">
        <ele>127.6</ele>
        <time>2021-05-02T14:23:14Z</time>
      </trkpt>
      <trkpt lat="46.53142" lon="0.33069">
        <ele>127.4</ele>
        <time>2021-05-02T14:23:18Z</time>
      </trkpt>
      <trkpt lat="46.53145" lon="0.33067">
        <ele>127.4</ele>
        <time>2021-05-02T14:23:19Z</time>
      </trkpt>
      <trkpt lat="46.53149" lon="0.33065">
        <ele>127.4</ele>
        <time>2021-05-02T14:23:20Z</time>
      </trkpt>
      <trkpt lat="46.53155" lon="0.33056">
        <ele>127.4</ele>
        <time>2021-05-02T14:23:22Z</time>
      </trkpt>
      <trkpt lat="46.53157" lon="0.33052">
        <ele>127.6</ele>
        <time>2021-05-02T14:23:23Z</time>
      </trkpt>
      <trkpt lat="46.53157" lon="0.33048">
        <ele>127.6</ele>
        <time>2021-05-02T14:23:24Z</time>
      </trkpt>
      <trkpt lat="46.53158" lon="0.33044">
        <ele>127.8</ele>
        <time>2021-05-02T14:23:25Z</time>
      </trkpt>
      <trkpt lat="46.53162" lon="0.33039">
        <ele>127.8</ele>
        <time>2021-05-02T14:23:26Z</time>
      </trkpt>
      <trkpt lat="46.53167" lon="0.33034">
        <ele>127.8</ele>
        <time>2021-05-02T14:23:27Z</time>
      </trkpt>
      <trkpt lat="46.53171" lon="0.33031">
        <ele>127.6</ele>
        <time>2021-05-02T14:23:28Z</time>
      </trkpt>
      <trkpt lat="46.53185" lon="0.33024">
        <ele>127.6</ele>
        <time>2021-05-02T14:23:31Z</time>
      </trkpt>
      <trkpt lat="46.53189" lon="0.33023">
        <ele>127.6</ele>
        <time>2021-05-02T14:23:32Z</time>
      </trkpt>
      <trkpt lat="46.532" lon="0.33019">
        <ele>127.6</ele>
        <time>2021-05-02T14:23:35Z</time>
      </trkpt>
      <trkpt lat="46.53208" lon="0.33013">
        <ele>127.4</ele>
        <time>2021-05-02T14:23:37Z</time>
      </trkpt>
      <trkpt lat="46.53217" lon="0.33008">
        <ele>127</ele>
        <time>2021-05-02T14:23:39Z</time>
      </trkpt>
      <trkpt lat="46.53226" lon="0.33008">
        <ele>127</ele>
        <time>2021-05-02T14:23:41Z</time>
      </trkpt>
      <trkpt lat="46.53237" lon="0.33018">
        <ele>127.4</ele>
        <time>2021-05-02T14:23:44Z</time>
      </trkpt>
      <trkpt lat="46.53245" lon="0.33024">
        <ele>127.4</ele>
        <time>2021-05-02T14:23:46Z</time>
      </trkpt>
      <trkpt lat="46.53255" lon="0.33027">
        <ele>127.6</ele>
        <time>2021-05-02T14:23:48Z</time>
      </trkpt>
      <trkpt lat="46.53274" lon="0.33024">
        <ele>127.4</ele>
        <time>2021-05-02T14:23:52Z</time>
      </trkpt>
      <trkpt lat="46.53282" lon="0.33019">
        <ele>127.4</ele>
        <time>2021-05-02T14:23:54Z</time>
      </trkpt>
      <trkpt lat="46.53286" lon="0.33017">
        <ele>127.2</ele>
        <time>2021-05-02T14:23:55Z</time>
      </trkpt>
      <trkpt lat="46.53296" lon="0.33013">
        <ele>127.4</ele>
        <time>2021-05-02T14:23:57Z</time>
      </trkpt>
      <trkpt lat="46.53304" lon="0.33005">
        <ele>127.2</ele>
        <time>2021-05-02T14:23:59Z</time>
      </trkpt>
      <trkpt lat="46.53313" lon="0.32989">
        <ele>127.2</ele>
        <time>2021-05-02T14:24:02Z</time>
      </trkpt>
      <trkpt lat="46.53319" lon="0.3298">
        <ele>127.2</ele>
        <time>2021-05-02T14:24:04Z</time>
      </trkpt>
      <trkpt lat="46.5333" lon="0.32969">
        <ele>127.4</ele>
        <time>2021-05-02T14:24:07Z</time>
      </trkpt>
      <trkpt lat="46.53334" lon="0.32962">
        <ele>127.4</ele>
        <time>2021-05-02T14:24:09Z</time>
      </trkpt>
      <trkpt lat="46.53339" lon="0.32959">
        <ele>127.6</ele>
        <time>2021-05-02T14:24:11Z</time>
      </trkpt>
      <trkpt lat="46.53341" lon="0.32961">
        <ele>127.4</ele>
        <time>2021-05-02T14:24:13Z</time>
      </trkpt>
      <trkpt lat="46.53342" lon="0.32964">
        <ele>127.4</ele>
        <time>2021-05-02T14:24:14Z</time>
      </trkpt>
      <trkpt lat="46.53344" lon="0.32972">
        <ele>127</ele>
        <time>2021-05-02T14:24:16Z</time>
      </trkpt>
      <trkpt lat="46.53347" lon="0.32977">
        <ele>127</ele>
        <time>2021-05-02T14:24:17Z</time>
      </trkpt>
      <trkpt lat="46.53349" lon="0.32982">
        <ele>127</ele>
        <time>2021-05-02T14:24:18Z</time>
      </trkpt>
      <trkpt lat="46.53356" lon="0.33001">
        <ele>126.8</ele>
        <time>2021-05-02T14:24:21Z</time>
      </trkpt>
      <trkpt lat="46.5336" lon="0.33007">
        <ele>126.8</ele>
        <time>2021-05-02T14:24:22Z</time>
      </trkpt>
      <trkpt lat="46.53362" lon="0.33013">
        <ele>126.2</ele>
        <time>2021-05-02T14:24:23Z</time>
      </trkpt>
      <trkpt lat="46.53369" lon="0.33032">
        <ele>124.4</ele>
        <time>2021-05-02T14:24:26Z</time>
      </trkpt>
      <trkpt lat="46.53371" lon="0.33039">
        <ele>123.8</ele>
        <time>2021-05-02T14:24:27Z</time>
      </trkpt>
      <trkpt lat="46.53373" lon="0.33046">
        <ele>123.6</ele>
        <time>2021-05-02T14:24:28Z</time>
      </trkpt>
      <trkpt lat="46.53379" lon="0.33056">
        <ele>122</ele>
        <time>2021-05-02T14:24:30Z</time>
      </trkpt>
      <trkpt lat="46.53382" lon="0.33058">
        <ele>121</ele>
        <time>2021-05-02T14:24:31Z</time>
      </trkpt>
      <trkpt lat="46.53384" lon="0.33058">
        <ele>120.2</ele>
        <time>2021-05-02T14:24:32Z</time>
      </trkpt>
      <trkpt lat="46.53387" lon="0.33061">
        <ele>119.8</ele>
        <time>2021-05-02T14:24:33Z</time>
      </trkpt>
      <trkpt lat="46.53395" lon="0.33065">
        <ele>119.2</ele>
        <time>2021-05-02T14:24:35Z</time>
      </trkpt>
      <trkpt lat="46.53405" lon="0.3307">
        <ele>118.4</ele>
        <time>2021-05-02T14:24:37Z</time>
      </trkpt>
      <trkpt lat="46.53408" lon="0.33073">
        <ele>117.6</ele>
        <time>2021-05-02T14:24:38Z</time>
      </trkpt>
      <trkpt lat="46.53411" lon="0.33078">
        <ele>117.2</ele>
        <time>2021-05-02T14:24:39Z</time>
      </trkpt>
      <trkpt lat="46.53413" lon="0.33082">
        <ele>117</ele>
        <time>2021-05-02T14:24:40Z</time>
      </trkpt>
      <trkpt lat="46.5342" lon="0.33093">
        <ele>116.8</ele>
        <time>2021-05-02T14:24:42Z</time>
      </trkpt>
      <trkpt lat="46.53422" lon="0.33099">
        <ele>116.4</ele>
        <time>2021-05-02T14:24:43Z</time>
      </trkpt>
      <trkpt lat="46.53423" lon="0.33105">
        <ele>116.4</ele>
        <time>2021-05-02T14:24:44Z</time>
      </trkpt>
      <trkpt lat="46.53422" lon="0.33116">
        <ele>116.6</ele>
        <time>2021-05-02T14:24:47Z</time>
      </trkpt>
      <trkpt lat="46.53423" lon="0.3312">
        <ele>116.8</ele>
        <time>2021-05-02T14:24:48Z</time>
      </trkpt>
      <trkpt lat="46.5343" lon="0.33129">
        <ele>117.2</ele>
        <time>2021-05-02T14:24:51Z</time>
      </trkpt>
      <trkpt lat="46.53432" lon="0.33138">
        <ele>117.8</ele>
        <time>2021-05-02T14:24:52Z</time>
      </trkpt>
      <trkpt lat="46.53437" lon="0.33152">
        <ele>118.4</ele>
        <time>2021-05-02T14:24:56Z</time>
      </trkpt>
      <trkpt lat="46.5344" lon="0.33156">
        <ele>118.4</ele>
        <time>2021-05-02T14:24:57Z</time>
      </trkpt>
      <trkpt lat="46.53449" lon="0.33161">
        <ele>118.8</ele>
        <time>2021-05-02T14:25:00Z</time>
      </trkpt>
      <trkpt lat="46.53452" lon="0.3316">
        <ele>119</ele>
        <time>2021-05-02T14:25:01Z</time>
      </trkpt>
      <trkpt lat="46.53462" lon="0.33153">
        <ele>119.2</ele>
        <time>2021-05-02T14:25:05Z</time>
      </trkpt>
      <trkpt lat="46.53465" lon="0.33151">
        <ele>119.4</ele>
        <time>2021-05-02T14:25:06Z</time>
      </trkpt>
      <trkpt lat="46.53475" lon="0.33143">
        <ele>119.6</ele>
        <time>2021-05-02T14:25:10Z</time>
      </trkpt>
      <trkpt lat="46.53481" lon="0.33143">
        <ele>119.8</ele>
        <time>2021-05-02T14:25:12Z</time>
      </trkpt>
      <trkpt lat="46.53505" lon="0.33144">
        <ele>120.4</ele>
        <time>2021-05-02T14:25:18Z</time>
      </trkpt>
      <trkpt lat="46.53529" lon="0.33144">
        <ele>120.6</ele>
        <time>2021-05-02T14:25:24Z</time>
      </trkpt>
      <trkpt lat="46.53562" lon="0.33146">
        <ele>120.4</ele>
        <time>2021-05-02T14:25:31Z</time>
      </trkpt>
      <trkpt lat="46.53571" lon="0.33145">
        <ele>120.2</ele>
        <time>2021-05-02T14:25:33Z</time>
      </trkpt>
      <trkpt lat="46.53588" lon="0.33143">
        <ele>120.4</ele>
        <time>2021-05-02T14:25:37Z</time>
      </trkpt>
      <trkpt lat="46.53601" lon="0.33142">
        <ele>120.2</ele>
        <time>2021-05-02T14:25:40Z</time>
      </trkpt>
      <trkpt lat="46.53614" lon="0.33143">
        <ele>119.8</ele>
        <time>2021-05-02T14:25:43Z</time>
      </trkpt>
      <trkpt lat="46.53631" lon="0.33143">
        <ele>119</ele>
        <time>2021-05-02T14:25:47Z</time>
      </trkpt>
      <trkpt lat="46.53635" lon="0.33143">
        <ele>119</ele>
        <time>2021-05-02T14:25:48Z</time>
      </trkpt>
      <trkpt lat="46.53638" lon="0.33142">
        <ele>118.8</ele>
        <time>2021-05-02T14:25:49Z</time>
      </trkpt>
      <trkpt lat="46.53646" lon="0.33142">
        <ele>118.8</ele>
        <time>2021-05-02T14:25:51Z</time>
      </trkpt>
      <trkpt lat="46.53656" lon="0.33142">
        <ele>118.6</ele>
        <time>2021-05-02T14:25:53Z</time>
      </trkpt>
      <trkpt lat="46.53661" lon="0.33142">
        <ele>118.2</ele>
        <time>2021-05-02T14:25:54Z</time>
      </trkpt>
      <trkpt lat="46.53675" lon="0.33143">
        <ele>117.6</ele>
        <time>2021-05-02T14:25:56Z</time>
      </trkpt>
      <trkpt lat="46.5369" lon="0.33143">
        <ele>117.2</ele>
        <time>2021-05-02T14:25:58Z</time>
      </trkpt>
      <trkpt lat="46.53703" lon="0.33144">
        <ele>116.6</ele>
        <time>2021-05-02T14:26:00Z</time>
      </trkpt>
      <trkpt lat="46.53717" lon="0.33144">
        <ele>116</ele>
        <time>2021-05-02T14:26:02Z</time>
      </trkpt>
      <trkpt lat="46.5373" lon="0.33144">
        <ele>115.6</ele>
        <time>2021-05-02T14:26:04Z</time>
      </trkpt>
      <trkpt lat="46.53736" lon="0.33147">
        <ele>113.2</ele>
        <time>2021-05-02T14:26:06Z</time>
      </trkpt>
      <trkpt lat="46.53738" lon="0.33149">
        <ele>112.4</ele>
        <time>2021-05-02T14:26:07Z</time>
      </trkpt>
      <trkpt lat="46.53738" lon="0.3315">
        <ele>111.8</ele>
        <time>2021-05-02T14:26:08Z</time>
      </trkpt>
      <trkpt lat="46.53737" lon="0.33155">
        <ele>111.2</ele>
        <time>2021-05-02T14:26:10Z</time>
      </trkpt>
      <trkpt lat="46.53731" lon="0.33165">
        <ele>111</ele>
        <time>2021-05-02T14:26:14Z</time>
      </trkpt>
      <trkpt lat="46.53727" lon="0.33172">
        <ele>111.2</ele>
        <time>2021-05-02T14:26:16Z</time>
      </trkpt>
      <trkpt lat="46.53723" lon="0.3318">
        <ele>111.2</ele>
        <time>2021-05-02T14:26:18Z</time>
      </trkpt>
      <trkpt lat="46.53718" lon="0.33189">
        <ele>111.8</ele>
        <time>2021-05-02T14:26:21Z</time>
      </trkpt>
      <trkpt lat="46.53719" lon="0.33191">
        <ele>111.8</ele>
        <time>2021-05-02T14:26:22Z</time>
      </trkpt>
      <trkpt lat="46.53724" lon="0.33198">
        <ele>111.8</ele>
        <time>2021-05-02T14:26:25Z</time>
      </trkpt>
      <trkpt lat="46.53732" lon="0.33205">
        <ele>111.8</ele>
        <time>2021-05-02T14:26:28Z</time>
      </trkpt>
      <trkpt lat="46.53735" lon="0.33213">
        <ele>111.8</ele>
        <time>2021-05-02T14:26:30Z</time>
      </trkpt>
      <trkpt lat="46.53739" lon="0.33215">
        <ele>111.4</ele>
        <time>2021-05-02T14:26:32Z</time>
      </trkpt>
      <trkpt lat="46.53744" lon="0.33216">
        <ele>110</ele>
        <time>2021-05-02T14:26:34Z</time>
      </trkpt>
      <trkpt lat="46.53748" lon="0.33221">
        <ele>108.6</ele>
        <time>2021-05-02T14:26:36Z</time>
      </trkpt>
      <trkpt lat="46.53752" lon="0.3323">
        <ele>108</ele>
        <time>2021-05-02T14:26:38Z</time>
      </trkpt>
      <trkpt lat="46.53756" lon="0.33247">
        <ele>107.6</ele>
        <time>2021-05-02T14:26:41Z</time>
      </trkpt>
      <trkpt lat="46.53757" lon="0.33251">
        <ele>107.4</ele>
        <time>2021-05-02T14:26:42Z</time>
      </trkpt>
      <trkpt lat="46.53761" lon="0.33254">
        <ele>106.8</ele>
        <time>2021-05-02T14:26:44Z</time>
      </trkpt>
      <trkpt lat="46.53764" lon="0.33255">
        <ele>105.4</ele>
        <time>2021-05-02T14:26:46Z</time>
      </trkpt>
      <trkpt lat="46.53766" lon="0.33253">
        <ele>104.2</ele>
        <time>2021-05-02T14:26:48Z</time>
      </trkpt>
      <trkpt lat="46.5377" lon="0.33255">
        <ele>102.8</ele>
        <time>2021-05-02T14:26:51Z</time>
      </trkpt>
      <trkpt lat="46.53771" lon="0.33256">
        <ele>102.4</ele>
        <time>2021-05-02T14:26:52Z</time>
      </trkpt>
      <trkpt lat="46.53771" lon="0.33259">
        <ele>102.2</ele>
        <time>2021-05-02T14:26:53Z</time>
      </trkpt>
      <trkpt lat="46.53772" lon="0.33261">
        <ele>102</ele>
        <time>2021-05-02T14:26:54Z</time>
      </trkpt>
      <trkpt lat="46.53773" lon="0.33263">
        <ele>101.8</ele>
        <time>2021-05-02T14:26:55Z</time>
      </trkpt>
      <trkpt lat="46.53775" lon="0.33264">
        <ele>101</ele>
        <time>2021-05-02T14:26:56Z</time>
      </trkpt>
      <trkpt lat="46.53776" lon="0.33266">
        <ele>99.8</ele>
        <time>2021-05-02T14:26:57Z</time>
      </trkpt>
      <trkpt lat="46.53777" lon="0.33269">
        <ele>98.8</ele>
        <time>2021-05-02T14:26:58Z</time>
      </trkpt>
      <trkpt lat="46.53777" lon="0.33274">
        <ele>97.8</ele>
        <time>2021-05-02T14:27:00Z</time>
      </trkpt>
      <trkpt lat="46.53777" lon="0.33276">
        <ele>97.6</ele>
        <time>2021-05-02T14:27:01Z</time>
      </trkpt>
      <trkpt lat="46.53778" lon="0.33278">
        <ele>97.2</ele>
        <time>2021-05-02T14:27:02Z</time>
      </trkpt>
      <trkpt lat="46.53779" lon="0.33279">
        <ele>97</ele>
        <time>2021-05-02T14:27:04Z</time>
      </trkpt>
      <trkpt lat="46.53781" lon="0.33278">
        <ele>96.6</ele>
        <time>2021-05-02T14:27:06Z</time>
      </trkpt>
      <trkpt lat="46.53781" lon="0.33278">
        <ele>96.4</ele>
        <time>2021-05-02T14:27:07Z</time>
      </trkpt>
      <trkpt lat="46.53784" lon="0.3328">
        <ele>95.4</ele>
        <time>2021-05-02T14:27:09Z</time>
      </trkpt>
      <trkpt lat="46.53787" lon="0.33283">
        <ele>94.2</ele>
        <time>2021-05-02T14:27:12Z</time>
      </trkpt>
      <trkpt lat="46.53789" lon="0.33281">
        <ele>92.8</ele>
        <time>2021-05-02T14:27:14Z</time>
      </trkpt>
      <trkpt lat="46.5379" lon="0.33279">
        <ele>92.4</ele>
        <time>2021-05-02T14:27:15Z</time>
      </trkpt>
      <trkpt lat="46.53792" lon="0.33278">
        <ele>92.2</ele>
        <time>2021-05-02T14:27:16Z</time>
      </trkpt>
      <trkpt lat="46.53798" lon="0.33278">
        <ele>91.6</ele>
        <time>2021-05-02T14:27:18Z</time>
      </trkpt>
      <trkpt lat="46.53802" lon="0.33278">
        <ele>90.2</ele>
        <time>2021-05-02T14:27:19Z</time>
      </trkpt>
      <trkpt lat="46.53805" lon="0.33278">
        <ele>88.4</ele>
        <time>2021-05-02T14:27:20Z</time>
      </trkpt>
      <trkpt lat="46.53807" lon="0.33277">
        <ele>87</ele>
        <time>2021-05-02T14:27:21Z</time>
      </trkpt>
      <trkpt lat="46.5381" lon="0.33275">
        <ele>85.8</ele>
        <time>2021-05-02T14:27:23Z</time>
      </trkpt>
      <trkpt lat="46.53813" lon="0.33274">
        <ele>85.2</ele>
        <time>2021-05-02T14:27:26Z</time>
      </trkpt>
      <trkpt lat="46.53815" lon="0.33271">
        <ele>84.8</ele>
        <time>2021-05-02T14:27:29Z</time>
      </trkpt>
      <trkpt lat="46.53822" lon="0.33265">
        <ele>84.6</ele>
        <time>2021-05-02T14:27:34Z</time>
      </trkpt>
      <trkpt lat="46.53824" lon="0.33263">
        <ele>84.6</ele>
        <time>2021-05-02T14:27:35Z</time>
      </trkpt>
      <trkpt lat="46.53832" lon="0.33249">
        <ele>84.2</ele>
        <time>2021-05-02T14:27:43Z</time>
      </trkpt>
      <trkpt lat="46.53828" lon="0.33241">
        <ele>85.2</ele>
        <time>2021-05-02T14:27:49Z</time>
      </trkpt>
      <trkpt lat="46.53826" lon="0.33237">
        <ele>86.2</ele>
        <time>2021-05-02T14:27:51Z</time>
      </trkpt>
      <trkpt lat="46.53822" lon="0.33232">
        <ele>87.6</ele>
        <time>2021-05-02T14:27:54Z</time>
      </trkpt>
      <trkpt lat="46.5382" lon="0.3323">
        <ele>88.2</ele>
        <time>2021-05-02T14:27:56Z</time>
      </trkpt>
      <trkpt lat="46.53819" lon="0.33229">
        <ele>88.6</ele>
        <time>2021-05-02T14:27:57Z</time>
      </trkpt>
      <trkpt lat="46.53815" lon="0.33224">
        <ele>90</ele>
        <time>2021-05-02T14:28:01Z</time>
      </trkpt>
      <trkpt lat="46.53813" lon="0.33223">
        <ele>91.4</ele>
        <time>2021-05-02T14:28:02Z</time>
      </trkpt>
      <trkpt lat="46.53813" lon="0.33223">
        <ele>91.4</ele>
        <time>2021-05-02T14:28:03Z</time>
      </trkpt>
      <trkpt lat="46.53812" lon="0.33223">
        <ele>92</ele>
        <time>2021-05-02T14:28:04Z</time>
      </trkpt>
      <trkpt lat="46.53811" lon="0.33221">
        <ele>93</ele>
        <time>2021-05-02T14:28:06Z</time>
      </trkpt>
      <trkpt lat="46.5381" lon="0.3322">
        <ele>93.4</ele>
        <time>2021-05-02T14:28:07Z</time>
      </trkpt>
      <trkpt lat="46.53807" lon="0.33218">
        <ele>94</ele>
        <time>2021-05-02T14:28:09Z</time>
      </trkpt>
      <trkpt lat="46.53804" lon="0.33215">
        <ele>95</ele>
        <time>2021-05-02T14:28:12Z</time>
      </trkpt>
      <trkpt lat="46.53803" lon="0.33214">
        <ele>95.4</ele>
        <time>2021-05-02T14:28:13Z</time>
      </trkpt>
      <trkpt lat="46.538" lon="0.33212">
        <ele>96.8</ele>
        <time>2021-05-02T14:28:16Z</time>
      </trkpt>
      <trkpt lat="46.53799" lon="0.3321">
        <ele>97.6</ele>
        <time>2021-05-02T14:28:18Z</time>
      </trkpt>
      <trkpt lat="46.53797" lon="0.33209">
        <ele>98</ele>
        <time>2021-05-02T14:28:19Z</time>
      </trkpt>
      <trkpt lat="46.53794" lon="0.33207">
        <ele>99</ele>
        <time>2021-05-02T14:28:22Z</time>
      </trkpt>
      <trkpt lat="46.53792" lon="0.33207">
        <ele>100.2</ele>
        <time>2021-05-02T14:28:24Z</time>
      </trkpt>
      <trkpt lat="46.5379" lon="0.33206">
        <ele>101</ele>
        <time>2021-05-02T14:28:26Z</time>
      </trkpt>
      <trkpt lat="46.53789" lon="0.33205">
        <ele>101.4</ele>
        <time>2021-05-02T14:28:27Z</time>
      </trkpt>
      <trkpt lat="46.53788" lon="0.33205">
        <ele>101.6</ele>
        <time>2021-05-02T14:28:28Z</time>
      </trkpt>
      <trkpt lat="46.53786" lon="0.33205">
        <ele>102.4</ele>
        <time>2021-05-02T14:28:30Z</time>
      </trkpt>
      <trkpt lat="46.5378" lon="0.33201">
        <ele>103.4</ele>
        <time>2021-05-02T14:28:36Z</time>
      </trkpt>
      <trkpt lat="46.53778" lon="0.33199">
        <ele>103.8</ele>
        <time>2021-05-02T14:28:39Z</time>
      </trkpt>
      <trkpt lat="46.53775" lon="0.33199">
        <ele>104.6</ele>
        <time>2021-05-02T14:28:45Z</time>
      </trkpt>
      <trkpt lat="46.53773" lon="0.33199">
        <ele>105.4</ele>
        <time>2021-05-02T14:28:51Z</time>
      </trkpt>
      <trkpt lat="46.53771" lon="0.33199">
        <ele>105.6</ele>
        <time>2021-05-02T14:29:00Z</time>
      </trkpt>
      <trkpt lat="46.53769" lon="0.332">
        <ele>106.4</ele>
        <time>2021-05-02T14:29:03Z</time>
      </trkpt>
      <trkpt lat="46.53768" lon="0.33201">
        <ele>106.8</ele>
        <time>2021-05-02T14:29:04Z</time>
      </trkpt>
      <trkpt lat="46.53767" lon="0.33201">
        <ele>107.2</ele>
        <time>2021-05-02T14:29:06Z</time>
      </trkpt>
      <trkpt lat="46.53765" lon="0.332">
        <ele>107.8</ele>
        <time>2021-05-02T14:29:08Z</time>
      </trkpt>
      <trkpt lat="46.53764" lon="0.33199">
        <ele>108.2</ele>
        <time>2021-05-02T14:29:09Z</time>
      </trkpt>
      <trkpt lat="46.53763" lon="0.33196">
        <ele>108.8</ele>
        <time>2021-05-02T14:29:11Z</time>
      </trkpt>
      <trkpt lat="46.53761" lon="0.33194">
        <ele>109.2</ele>
        <time>2021-05-02T14:29:13Z</time>
      </trkpt>
      <trkpt lat="46.5376" lon="0.33191">
        <ele>109.6</ele>
        <time>2021-05-02T14:29:15Z</time>
      </trkpt>
      <trkpt lat="46.53756" lon="0.33187">
        <ele>110.2</ele>
        <time>2021-05-02T14:29:19Z</time>
      </trkpt>
      <trkpt lat="46.53755" lon="0.33183">
        <ele>111.4</ele>
        <time>2021-05-02T14:29:23Z</time>
      </trkpt>
      <trkpt lat="46.53751" lon="0.3318">
        <ele>112</ele>
        <time>2021-05-02T14:29:33Z</time>
      </trkpt>
      <trkpt lat="46.53751" lon="0.33179">
        <ele>111.8</ele>
        <time>2021-05-02T14:29:47Z</time>
      </trkpt>
      <trkpt lat="46.53753" lon="0.33178">
        <ele>112</ele>
        <time>2021-05-02T14:29:54Z</time>
      </trkpt>
      <trkpt lat="46.53747" lon="0.33173">
        <ele>111.8</ele>
        <time>2021-05-02T14:30:01Z</time>
      </trkpt>
      <trkpt lat="46.53746" lon="0.33172">
        <ele>111.8</ele>
        <time>2021-05-02T14:30:14Z</time>
      </trkpt>
      <trkpt lat="46.53746" lon="0.33169">
        <ele>111.8</ele>
        <time>2021-05-02T14:30:32Z</time>
      </trkpt>
      <trkpt lat="46.53747" lon="0.33169">
        <ele>111.8</ele>
        <time>2021-05-02T14:30:53Z</time>
      </trkpt>
      <trkpt lat="46.53747" lon="0.33169">
        <ele>111.8</ele>
        <time>2021-05-02T14:31:12Z</time>
      </trkpt>
      <trkpt lat="46.53747" lon="0.3317">
        <ele>111.8</ele>
        <time>2021-05-02T14:31:27Z</time>
      </trkpt>
      <trkpt lat="46.53747" lon="0.33172">
        <ele>111.8</ele>
        <time>2021-05-02T14:31:45Z</time>
      </trkpt>
      <trkpt lat="46.53748" lon="0.33172">
        <ele>111.8</ele>
        <time>2021-05-02T14:32:03Z</time>
      </trkpt>
      <trkpt lat="46.5375" lon="0.33172">
        <ele>111.8</ele>
        <time>2021-05-02T14:32:20Z</time>
      </trkpt>
      <trkpt lat="46.53753" lon="0.33167">
        <ele>111.8</ele>
        <time>2021-05-02T14:32:34Z</time>
      </trkpt>
      <trkpt lat="46.53758" lon="0.33156">
        <ele>111.8</ele>
        <time>2021-05-02T14:32:40Z</time>
      </trkpt>
      <trkpt lat="46.53764" lon="0.33148">
        <ele>112</ele>
        <time>2021-05-02T14:32:46Z</time>
      </trkpt>
      <trkpt lat="46.53768" lon="0.3314">
        <ele>112</ele>
        <time>2021-05-02T14:32:50Z</time>
      </trkpt>
      <trkpt lat="46.5377" lon="0.33133">
        <ele>112</ele>
        <time>2021-05-02T14:32:53Z</time>
      </trkpt>
      <trkpt lat="46.53775" lon="0.33123">
        <ele>112</ele>
        <time>2021-05-02T14:32:58Z</time>
      </trkpt>
      <trkpt lat="46.53782" lon="0.33109">
        <ele>112</ele>
        <time>2021-05-02T14:33:04Z</time>
      </trkpt>
      <trkpt lat="46.53784" lon="0.33105">
        <ele>112.2</ele>
        <time>2021-05-02T14:33:06Z</time>
      </trkpt>
      <trkpt lat="46.53789" lon="0.33096">
        <ele>112.2</ele>
        <time>2021-05-02T14:33:09Z</time>
      </trkpt>
      <trkpt lat="46.53798" lon="0.33071">
        <ele>111.2</ele>
        <time>2021-05-02T14:33:16Z</time>
      </trkpt>
      <trkpt lat="46.53801" lon="0.33064">
        <ele>110.4</ele>
        <time>2021-05-02T14:33:18Z</time>
      </trkpt>
      <trkpt lat="46.53807" lon="0.33049">
        <ele>110</ele>
        <time>2021-05-02T14:33:21Z</time>
      </trkpt>
      <trkpt lat="46.5381" lon="0.33045">
        <ele>110</ele>
        <time>2021-05-02T14:33:22Z</time>
      </trkpt>
      <trkpt lat="46.53813" lon="0.33043">
        <ele>109.8</ele>
        <time>2021-05-02T14:33:23Z</time>
      </trkpt>
      <trkpt lat="46.53825" lon="0.33036">
        <ele>109.6</ele>
        <time>2021-05-02T14:33:26Z</time>
      </trkpt>
      <trkpt lat="46.53833" lon="0.3303">
        <ele>109</ele>
        <time>2021-05-02T14:33:28Z</time>
      </trkpt>
      <trkpt lat="46.53835" lon="0.33026">
        <ele>108.8</ele>
        <time>2021-05-02T14:33:29Z</time>
      </trkpt>
      <trkpt lat="46.53837" lon="0.33022">
        <ele>108.6</ele>
        <time>2021-05-02T14:33:30Z</time>
      </trkpt>
      <trkpt lat="46.53847" lon="0.33006">
        <ele>109.6</ele>
        <time>2021-05-02T14:33:35Z</time>
      </trkpt>
      <trkpt lat="46.53851" lon="0.32998">
        <ele>110.2</ele>
        <time>2021-05-02T14:33:37Z</time>
      </trkpt>
      <trkpt lat="46.53855" lon="0.32986">
        <ele>111.2</ele>
        <time>2021-05-02T14:33:40Z</time>
      </trkpt>
      <trkpt lat="46.53857" lon="0.32983">
        <ele>111.6</ele>
        <time>2021-05-02T14:33:41Z</time>
      </trkpt>
      <trkpt lat="46.53864" lon="0.32973">
        <ele>112.2</ele>
        <time>2021-05-02T14:33:44Z</time>
      </trkpt>
      <trkpt lat="46.53872" lon="0.32957">
        <ele>112.4</ele>
        <time>2021-05-02T14:33:49Z</time>
      </trkpt>
      <trkpt lat="46.5388" lon="0.32949">
        <ele>112.4</ele>
        <time>2021-05-02T14:33:52Z</time>
      </trkpt>
      <trkpt lat="46.53881" lon="0.32946">
        <ele>112.2</ele>
        <time>2021-05-02T14:33:54Z</time>
      </trkpt>
      <trkpt lat="46.53882" lon="0.32946">
        <ele>112.2</ele>
        <time>2021-05-02T14:33:55Z</time>
      </trkpt>
      <trkpt lat="46.53883" lon="0.32939">
        <ele>112.6</ele>
        <time>2021-05-02T14:33:58Z</time>
      </trkpt>
      <trkpt lat="46.53884" lon="0.32937">
        <ele>113</ele>
        <time>2021-05-02T14:33:59Z</time>
      </trkpt>
      <trkpt lat="46.53888" lon="0.32929">
        <ele>113.6</ele>
        <time>2021-05-02T14:34:02Z</time>
      </trkpt>
      <trkpt lat="46.5389" lon="0.32924">
        <ele>114</ele>
        <time>2021-05-02T14:34:04Z</time>
      </trkpt>
      <trkpt lat="46.53892" lon="0.32918">
        <ele>114.8</ele>
        <time>2021-05-02T14:34:07Z</time>
      </trkpt>
      <trkpt lat="46.53896" lon="0.32911">
        <ele>115.2</ele>
        <time>2021-05-02T14:34:09Z</time>
      </trkpt>
      <trkpt lat="46.53899" lon="0.32903">
        <ele>115.2</ele>
        <time>2021-05-02T14:34:11Z</time>
      </trkpt>
      <trkpt lat="46.53905" lon="0.32894">
        <ele>115.2</ele>
        <time>2021-05-02T14:34:14Z</time>
      </trkpt>
      <trkpt lat="46.53913" lon="0.32888">
        <ele>114.2</ele>
        <time>2021-05-02T14:34:17Z</time>
      </trkpt>
      <trkpt lat="46.53915" lon="0.32885">
        <ele>113.8</ele>
        <time>2021-05-02T14:34:18Z</time>
      </trkpt>
      <trkpt lat="46.53921" lon="0.3288">
        <ele>113.4</ele>
        <time>2021-05-02T14:34:20Z</time>
      </trkpt>
      <trkpt lat="46.53924" lon="0.3288">
        <ele>113.2</ele>
        <time>2021-05-02T14:34:21Z</time>
      </trkpt>
      <trkpt lat="46.53926" lon="0.32879">
        <ele>113</ele>
        <time>2021-05-02T14:34:22Z</time>
      </trkpt>
      <trkpt lat="46.53928" lon="0.32878">
        <ele>112.4</ele>
        <time>2021-05-02T14:34:23Z</time>
      </trkpt>
      <trkpt lat="46.53933" lon="0.32872">
        <ele>112</ele>
        <time>2021-05-02T14:34:25Z</time>
      </trkpt>
      <trkpt lat="46.53938" lon="0.32865">
        <ele>111.6</ele>
        <time>2021-05-02T14:34:28Z</time>
      </trkpt>
      <trkpt lat="46.53939" lon="0.32864">
        <ele>111.6</ele>
        <time>2021-05-02T14:34:29Z</time>
      </trkpt>
      <trkpt lat="46.53943" lon="0.3286">
        <ele>111.4</ele>
        <time>2021-05-02T14:34:31Z</time>
      </trkpt>
      <trkpt lat="46.53947" lon="0.32858">
        <ele>111.2</ele>
        <time>2021-05-02T14:34:33Z</time>
      </trkpt>
      <trkpt lat="46.53949" lon="0.32857">
        <ele>110.8</ele>
        <time>2021-05-02T14:34:34Z</time>
      </trkpt>
      <trkpt lat="46.53953" lon="0.32856">
        <ele>110.6</ele>
        <time>2021-05-02T14:34:36Z</time>
      </trkpt>
      <trkpt lat="46.53954" lon="0.32855">
        <ele>110.4</ele>
        <time>2021-05-02T14:34:37Z</time>
      </trkpt>
      <trkpt lat="46.53956" lon="0.32852">
        <ele>110.2</ele>
        <time>2021-05-02T14:34:38Z</time>
      </trkpt>
      <trkpt lat="46.5396" lon="0.32849">
        <ele>110</ele>
        <time>2021-05-02T14:34:40Z</time>
      </trkpt>
      <trkpt lat="46.53968" lon="0.32839">
        <ele>109.2</ele>
        <time>2021-05-02T14:34:43Z</time>
      </trkpt>
      <trkpt lat="46.5397" lon="0.32836">
        <ele>108.6</ele>
        <time>2021-05-02T14:34:44Z</time>
      </trkpt>
      <trkpt lat="46.53971" lon="0.32832">
        <ele>108</ele>
        <time>2021-05-02T14:34:45Z</time>
      </trkpt>
      <trkpt lat="46.53972" lon="0.32829">
        <ele>107.4</ele>
        <time>2021-05-02T14:34:47Z</time>
      </trkpt>
      <trkpt lat="46.53971" lon="0.32828">
        <ele>107.2</ele>
        <time>2021-05-02T14:34:48Z</time>
      </trkpt>
      <trkpt lat="46.53971" lon="0.32828">
        <ele>106.8</ele>
        <time>2021-05-02T14:34:49Z</time>
      </trkpt>
      <trkpt lat="46.53971" lon="0.32826">
        <ele>106.8</ele>
        <time>2021-05-02T14:34:50Z</time>
      </trkpt>
      <trkpt lat="46.53969" lon="0.32822">
        <ele>105.8</ele>
        <time>2021-05-02T14:34:53Z</time>
      </trkpt>
      <trkpt lat="46.5396" lon="0.32821">
        <ele>105.8</ele>
        <time>2021-05-02T14:34:58Z</time>
      </trkpt>
      <trkpt lat="46.53953" lon="0.32821">
        <ele>107</ele>
        <time>2021-05-02T14:35:01Z</time>
      </trkpt>
      <trkpt lat="46.53947" lon="0.32821">
        <ele>108</ele>
        <time>2021-05-02T14:35:03Z</time>
      </trkpt>
      <trkpt lat="46.53944" lon="0.32821">
        <ele>108.4</ele>
        <time>2021-05-02T14:35:04Z</time>
      </trkpt>
      <trkpt lat="46.53932" lon="0.3282">
        <ele>109.2</ele>
        <time>2021-05-02T14:35:08Z</time>
      </trkpt>
      <trkpt lat="46.53924" lon="0.3282">
        <ele>110</ele>
        <time>2021-05-02T14:35:11Z</time>
      </trkpt>
      <trkpt lat="46.53917" lon="0.3282">
        <ele>110.6</ele>
        <time>2021-05-02T14:35:14Z</time>
      </trkpt>
      <trkpt lat="46.53915" lon="0.3282">
        <ele>111</ele>
        <time>2021-05-02T14:35:15Z</time>
      </trkpt>
      <trkpt lat="46.53897" lon="0.32816">
        <ele>111.8</ele>
        <time>2021-05-02T14:35:21Z</time>
      </trkpt>
      <trkpt lat="46.53881" lon="0.32809">
        <ele>111.8</ele>
        <time>2021-05-02T14:35:27Z</time>
      </trkpt>
      <trkpt lat="46.53878" lon="0.32808">
        <ele>111.8</ele>
        <time>2021-05-02T14:35:28Z</time>
      </trkpt>
      <trkpt lat="46.53863" lon="0.328">
        <ele>111.8</ele>
        <time>2021-05-02T14:35:32Z</time>
      </trkpt>
      <trkpt lat="46.5386" lon="0.32798">
        <ele>112</ele>
        <time>2021-05-02T14:35:33Z</time>
      </trkpt>
      <trkpt lat="46.53849" lon="0.32793">
        <ele>112.2</ele>
        <time>2021-05-02T14:35:36Z</time>
      </trkpt>
      <trkpt lat="46.53846" lon="0.32791">
        <ele>112.2</ele>
        <time>2021-05-02T14:35:37Z</time>
      </trkpt>
      <trkpt lat="46.53824" lon="0.32779">
        <ele>112.6</ele>
        <time>2021-05-02T14:35:42Z</time>
      </trkpt>
      <trkpt lat="46.5382" lon="0.32777">
        <ele>112.8</ele>
        <time>2021-05-02T14:35:43Z</time>
      </trkpt>
      <trkpt lat="46.53812" lon="0.32775">
        <ele>112.8</ele>
        <time>2021-05-02T14:35:45Z</time>
      </trkpt>
      <trkpt lat="46.53802" lon="0.32773">
        <ele>113</ele>
        <time>2021-05-02T14:35:47Z</time>
      </trkpt>
      <trkpt lat="46.53791" lon="0.32771">
        <ele>113.2</ele>
        <time>2021-05-02T14:35:49Z</time>
      </trkpt>
      <trkpt lat="46.53778" lon="0.32767">
        <ele>113.4</ele>
        <time>2021-05-02T14:35:52Z</time>
      </trkpt>
      <trkpt lat="46.53761" lon="0.32765">
        <ele>113.8</ele>
        <time>2021-05-02T14:35:57Z</time>
      </trkpt>
      <trkpt lat="46.53742" lon="0.32763">
        <ele>114.4</ele>
        <time>2021-05-02T14:36:03Z</time>
      </trkpt>
      <trkpt lat="46.53725" lon="0.32762">
        <ele>115.4</ele>
        <time>2021-05-02T14:36:09Z</time>
      </trkpt>
      <trkpt lat="46.53706" lon="0.32759">
        <ele>116.2</ele>
        <time>2021-05-02T14:36:15Z</time>
      </trkpt>
      <trkpt lat="46.537" lon="0.32757">
        <ele>116.4</ele>
        <time>2021-05-02T14:36:17Z</time>
      </trkpt>
      <trkpt lat="46.53681" lon="0.32757">
        <ele>117.4</ele>
        <time>2021-05-02T14:36:22Z</time>
      </trkpt>
      <trkpt lat="46.53677" lon="0.32757">
        <ele>117.6</ele>
        <time>2021-05-02T14:36:23Z</time>
      </trkpt>
      <trkpt lat="46.53662" lon="0.32756">
        <ele>118.6</ele>
        <time>2021-05-02T14:36:27Z</time>
      </trkpt>
      <trkpt lat="46.53659" lon="0.32757">
        <ele>118.8</ele>
        <time>2021-05-02T14:36:28Z</time>
      </trkpt>
      <trkpt lat="46.53645" lon="0.32757">
        <ele>119.8</ele>
        <time>2021-05-02T14:36:32Z</time>
      </trkpt>
      <trkpt lat="46.5364" lon="0.32759">
        <ele>120</ele>
        <time>2021-05-02T14:36:34Z</time>
      </trkpt>
      <trkpt lat="46.53618" lon="0.32759">
        <ele>121</ele>
        <time>2021-05-02T14:36:40Z</time>
      </trkpt>
      <trkpt lat="46.53597" lon="0.32757">
        <ele>121.6</ele>
        <time>2021-05-02T14:36:45Z</time>
      </trkpt>
      <trkpt lat="46.53593" lon="0.32756">
        <ele>121.8</ele>
        <time>2021-05-02T14:36:46Z</time>
      </trkpt>
      <trkpt lat="46.53589" lon="0.32754">
        <ele>122</ele>
        <time>2021-05-02T14:36:47Z</time>
      </trkpt>
      <trkpt lat="46.53582" lon="0.32752">
        <ele>122</ele>
        <time>2021-05-02T14:36:49Z</time>
      </trkpt>
      <trkpt lat="46.53571" lon="0.32746">
        <ele>122.4</ele>
        <time>2021-05-02T14:36:52Z</time>
      </trkpt>
      <trkpt lat="46.53548" lon="0.32734">
        <ele>122.8</ele>
        <time>2021-05-02T14:36:57Z</time>
      </trkpt>
      <trkpt lat="46.53544" lon="0.32731">
        <ele>122.6</ele>
        <time>2021-05-02T14:36:58Z</time>
      </trkpt>
      <trkpt lat="46.53529" lon="0.32721">
        <ele>122.4</ele>
        <time>2021-05-02T14:37:02Z</time>
      </trkpt>
      <trkpt lat="46.53523" lon="0.32714">
        <ele>122.4</ele>
        <time>2021-05-02T14:37:04Z</time>
      </trkpt>
      <trkpt lat="46.53516" lon="0.32706">
        <ele>122.4</ele>
        <time>2021-05-02T14:37:05Z</time>
      </trkpt>
      <trkpt lat="46.53511" lon="0.32701">
        <ele>122</ele>
        <time>2021-05-02T14:37:07Z</time>
      </trkpt>
      <trkpt lat="46.53502" lon="0.32693">
        <ele>122</ele>
        <time>2021-05-02T14:37:09Z</time>
      </trkpt>
      <trkpt lat="46.5348" lon="0.32681">
        <ele>122</ele>
        <time>2021-05-02T14:37:13Z</time>
      </trkpt>
      <trkpt lat="46.53474" lon="0.32678">
        <ele>121.8</ele>
        <time>2021-05-02T14:37:14Z</time>
      </trkpt>
      <trkpt lat="46.53445" lon="0.32671">
        <ele>122.2</ele>
        <time>2021-05-02T14:37:20Z</time>
      </trkpt>
      <trkpt lat="46.53441" lon="0.32671">
        <ele>122.2</ele>
        <time>2021-05-02T14:37:21Z</time>
      </trkpt>
      <trkpt lat="46.5342" lon="0.32667">
        <ele>122.6</ele>
        <time>2021-05-02T14:37:26Z</time>
      </trkpt>
      <trkpt lat="46.53407" lon="0.32664">
        <ele>122.8</ele>
        <time>2021-05-02T14:37:29Z</time>
      </trkpt>
      <trkpt lat="46.53395" lon="0.32658">
        <ele>122.8</ele>
        <time>2021-05-02T14:37:32Z</time>
      </trkpt>
      <trkpt lat="46.53372" lon="0.32643">
        <ele>122.8</ele>
        <time>2021-05-02T14:37:37Z</time>
      </trkpt>
      <trkpt lat="46.53343" lon="0.32626">
        <ele>122.4</ele>
        <time>2021-05-02T14:37:43Z</time>
      </trkpt>
      <trkpt lat="46.53339" lon="0.32624">
        <ele>122.4</ele>
        <time>2021-05-02T14:37:44Z</time>
      </trkpt>
      <trkpt lat="46.53334" lon="0.32619">
        <ele>122.4</ele>
        <time>2021-05-02T14:37:46Z</time>
      </trkpt>
      <trkpt lat="46.53333" lon="0.32616">
        <ele>122.2</ele>
        <time>2021-05-02T14:37:47Z</time>
      </trkpt>
      <trkpt lat="46.53333" lon="0.32612">
        <ele>122.2</ele>
        <time>2021-05-02T14:37:48Z</time>
      </trkpt>
      <trkpt lat="46.53331" lon="0.32597">
        <ele>121.8</ele>
        <time>2021-05-02T14:37:51Z</time>
      </trkpt>
      <trkpt lat="46.53329" lon="0.3259">
        <ele>121.4</ele>
        <time>2021-05-02T14:37:52Z</time>
      </trkpt>
      <trkpt lat="46.53328" lon="0.32583">
        <ele>121</ele>
        <time>2021-05-02T14:37:53Z</time>
      </trkpt>
      <trkpt lat="46.53329" lon="0.32569">
        <ele>120.2</ele>
        <time>2021-05-02T14:37:55Z</time>
      </trkpt>
      <trkpt lat="46.5333" lon="0.32562">
        <ele>119.6</ele>
        <time>2021-05-02T14:37:56Z</time>
      </trkpt>
      <trkpt lat="46.53331" lon="0.32554">
        <ele>119.2</ele>
        <time>2021-05-02T14:37:57Z</time>
      </trkpt>
      <trkpt lat="46.53332" lon="0.32532">
        <ele>118.4</ele>
        <time>2021-05-02T14:38:00Z</time>
      </trkpt>
      <trkpt lat="46.53335" lon="0.32523">
        <ele>115.6</ele>
        <time>2021-05-02T14:38:02Z</time>
      </trkpt>
      <trkpt lat="46.53337" lon="0.32521">
        <ele>114.2</ele>
        <time>2021-05-02T14:38:03Z</time>
      </trkpt>
      <trkpt lat="46.53341" lon="0.32515">
        <ele>112</ele>
        <time>2021-05-02T14:38:05Z</time>
      </trkpt>
      <trkpt lat="46.53343" lon="0.32512">
        <ele>110.4</ele>
        <time>2021-05-02T14:38:06Z</time>
      </trkpt>
      <trkpt lat="46.53347" lon="0.32507">
        <ele>108.4</ele>
        <time>2021-05-02T14:38:08Z</time>
      </trkpt>
      <trkpt lat="46.53349" lon="0.32504">
        <ele>108</ele>
        <time>2021-05-02T14:38:09Z</time>
      </trkpt>
      <trkpt lat="46.53352" lon="0.32503">
        <ele>106.2</ele>
        <time>2021-05-02T14:38:10Z</time>
      </trkpt>
      <trkpt lat="46.53355" lon="0.32503">
        <ele>105.2</ele>
        <time>2021-05-02T14:38:11Z</time>
      </trkpt>
      <trkpt lat="46.53359" lon="0.32503">
        <ele>104</ele>
        <time>2021-05-02T14:38:13Z</time>
      </trkpt>
      <trkpt lat="46.53364" lon="0.32499">
        <ele>102.6</ele>
        <time>2021-05-02T14:38:15Z</time>
      </trkpt>
      <trkpt lat="46.5337" lon="0.32499">
        <ele>102</ele>
        <time>2021-05-02T14:38:17Z</time>
      </trkpt>
      <trkpt lat="46.53374" lon="0.325">
        <ele>101.6</ele>
        <time>2021-05-02T14:38:19Z</time>
      </trkpt>
      <trkpt lat="46.53376" lon="0.325">
        <ele>101</ele>
        <time>2021-05-02T14:38:20Z</time>
      </trkpt>
      <trkpt lat="46.53382" lon="0.32498">
        <ele>100.4</ele>
        <time>2021-05-02T14:38:22Z</time>
      </trkpt>
      <trkpt lat="46.53393" lon="0.32498">
        <ele>99.2</ele>
        <time>2021-05-02T14:38:25Z</time>
      </trkpt>
      <trkpt lat="46.53397" lon="0.32498">
        <ele>98.8</ele>
        <time>2021-05-02T14:38:26Z</time>
      </trkpt>
      <trkpt lat="46.53403" lon="0.32498">
        <ele>98.2</ele>
        <time>2021-05-02T14:38:28Z</time>
      </trkpt>
      <trkpt lat="46.53409" lon="0.32499">
        <ele>97</ele>
        <time>2021-05-02T14:38:30Z</time>
      </trkpt>
      <trkpt lat="46.53412" lon="0.325">
        <ele>96.6</ele>
        <time>2021-05-02T14:38:31Z</time>
      </trkpt>
      <trkpt lat="46.53421" lon="0.32503">
        <ele>96</ele>
        <time>2021-05-02T14:38:34Z</time>
      </trkpt>
      <trkpt lat="46.53428" lon="0.32508">
        <ele>95.8</ele>
        <time>2021-05-02T14:38:37Z</time>
      </trkpt>
      <trkpt lat="46.53443" lon="0.32515">
        <ele>96.2</ele>
        <time>2021-05-02T14:38:43Z</time>
      </trkpt>
      <trkpt lat="46.53452" lon="0.32519">
        <ele>96.4</ele>
        <time>2021-05-02T14:38:49Z</time>
      </trkpt>
      <trkpt lat="46.53454" lon="0.3252">
        <ele>96.4</ele>
        <time>2021-05-02T14:38:51Z</time>
      </trkpt>
      <trkpt lat="46.53466" lon="0.32522">
        <ele>95.2</ele>
        <time>2021-05-02T14:38:57Z</time>
      </trkpt>
      <trkpt lat="46.53485" lon="0.32531">
        <ele>95.8</ele>
        <time>2021-05-02T14:39:09Z</time>
      </trkpt>
      <trkpt lat="46.53504" lon="0.32538">
        <ele>96.6</ele>
        <time>2021-05-02T14:39:18Z</time>
      </trkpt>
      <trkpt lat="46.53511" lon="0.32542">
        <ele>97.2</ele>
        <time>2021-05-02T14:39:21Z</time>
      </trkpt>
      <trkpt lat="46.53522" lon="0.32544">
        <ele>98.2</ele>
        <time>2021-05-02T14:39:26Z</time>
      </trkpt>
      <trkpt lat="46.53526" lon="0.32546">
        <ele>98.4</ele>
        <time>2021-05-02T14:39:28Z</time>
      </trkpt>
      <trkpt lat="46.53533" lon="0.32551">
        <ele>99.4</ele>
        <time>2021-05-02T14:39:32Z</time>
      </trkpt>
      <trkpt lat="46.53534" lon="0.32552">
        <ele>99.6</ele>
        <time>2021-05-02T14:39:33Z</time>
      </trkpt>
      <trkpt lat="46.53535" lon="0.32557">
        <ele>101</ele>
        <time>2021-05-02T14:39:36Z</time>
      </trkpt>
      <trkpt lat="46.53536" lon="0.32558">
        <ele>101.2</ele>
        <time>2021-05-02T14:39:37Z</time>
      </trkpt>
      <trkpt lat="46.53537" lon="0.32561">
        <ele>102.4</ele>
        <time>2021-05-02T14:39:39Z</time>
      </trkpt>
      <trkpt lat="46.53539" lon="0.32565">
        <ele>103.4</ele>
        <time>2021-05-02T14:39:42Z</time>
      </trkpt>
      <trkpt lat="46.53541" lon="0.32574">
        <ele>104.4</ele>
        <time>2021-05-02T14:39:47Z</time>
      </trkpt>
      <trkpt lat="46.53543" lon="0.32579">
        <ele>105</ele>
        <time>2021-05-02T14:39:49Z</time>
      </trkpt>
      <trkpt lat="46.53543" lon="0.3258">
        <ele>105.6</ele>
        <time>2021-05-02T14:39:51Z</time>
      </trkpt>
      <trkpt lat="46.53543" lon="0.32581">
        <ele>105.8</ele>
        <time>2021-05-02T14:39:52Z</time>
      </trkpt>
      <trkpt lat="46.53546" lon="0.32585">
        <ele>106.8</ele>
        <time>2021-05-02T14:39:56Z</time>
      </trkpt>
      <trkpt lat="46.53548" lon="0.3259">
        <ele>107.4</ele>
        <time>2021-05-02T14:40:01Z</time>
      </trkpt>
      <trkpt lat="46.53549" lon="0.32592">
        <ele>107.8</ele>
        <time>2021-05-02T14:40:03Z</time>
      </trkpt>
      <trkpt lat="46.5355" lon="0.32597">
        <ele>108.8</ele>
        <time>2021-05-02T14:40:08Z</time>
      </trkpt>
      <trkpt lat="46.53553" lon="0.32602">
        <ele>109.2</ele>
        <time>2021-05-02T14:40:13Z</time>
      </trkpt>
      <trkpt lat="46.53554" lon="0.32603">
        <ele>109.4</ele>
        <time>2021-05-02T14:40:15Z</time>
      </trkpt>
      <trkpt lat="46.53559" lon="0.32606">
        <ele>109.4</ele>
        <time>2021-05-02T14:40:25Z</time>
      </trkpt>
      <trkpt lat="46.53565" lon="0.32607">
        <ele>109.6</ele>
        <time>2021-05-02T14:40:40Z</time>
      </trkpt>
      <trkpt lat="46.53567" lon="0.32607">
        <ele>109.4</ele>
        <time>2021-05-02T14:40:55Z</time>
      </trkpt>
      <trkpt lat="46.53567" lon="0.32608">
        <ele>109.6</ele>
        <time>2021-05-02T14:41:14Z</time>
      </trkpt>
      <trkpt lat="46.53567" lon="0.32608">
        <ele>109.4</ele>
        <time>2021-05-02T14:41:30Z</time>
      </trkpt>
      <trkpt lat="46.53567" lon="0.32608">
        <ele>109.4</ele>
        <time>2021-05-02T14:41:54Z</time>
      </trkpt>
      <trkpt lat="46.53569" lon="0.32608">
        <ele>109.4</ele>
        <time>2021-05-02T14:42:28Z</time>
      </trkpt>
      <trkpt lat="46.53573" lon="0.32608">
        <ele>109.4</ele>
        <time>2021-05-02T14:42:30Z</time>
      </trkpt>
      <trkpt lat="46.53579" lon="0.32607">
        <ele>108.4</ele>
        <time>2021-05-02T14:42:32Z</time>
      </trkpt>
      <trkpt lat="46.5359" lon="0.32602">
        <ele>107.6</ele>
        <time>2021-05-02T14:42:34Z</time>
      </trkpt>
      <trkpt lat="46.53605" lon="0.32595">
        <ele>106.4</ele>
        <time>2021-05-02T14:42:37Z</time>
      </trkpt>
      <trkpt lat="46.53607" lon="0.32594">
        <ele>105</ele>
        <time>2021-05-02T14:42:38Z</time>
      </trkpt>
      <trkpt lat="46.5361" lon="0.32593">
        <ele>103.6</ele>
        <time>2021-05-02T14:42:40Z</time>
      </trkpt>
      <trkpt lat="46.53611" lon="0.32593">
        <ele>103.2</ele>
        <time>2021-05-02T14:42:42Z</time>
      </trkpt>
      <trkpt lat="46.53614" lon="0.32584">
        <ele>102.4</ele>
        <time>2021-05-02T14:42:48Z</time>
      </trkpt>
      <trkpt lat="46.53613" lon="0.32582">
        <ele>102</ele>
        <time>2021-05-02T14:42:49Z</time>
      </trkpt>
      <trkpt lat="46.53612" lon="0.32578">
        <ele>101.4</ele>
        <time>2021-05-02T14:42:51Z</time>
      </trkpt>
      <trkpt lat="46.53609" lon="0.32573">
        <ele>100.2</ele>
        <time>2021-05-02T14:42:54Z</time>
      </trkpt>
      <trkpt lat="46.53606" lon="0.3257">
        <ele>99.2</ele>
        <time>2021-05-02T14:42:56Z</time>
      </trkpt>
      <trkpt lat="46.53605" lon="0.32568">
        <ele>98.8</ele>
        <time>2021-05-02T14:42:57Z</time>
      </trkpt>
      <trkpt lat="46.53605" lon="0.32567">
        <ele>98</ele>
        <time>2021-05-02T14:42:58Z</time>
      </trkpt>
      <trkpt lat="46.53605" lon="0.32565">
        <ele>97.2</ele>
        <time>2021-05-02T14:42:59Z</time>
      </trkpt>
      <trkpt lat="46.53605" lon="0.32563">
        <ele>96.8</ele>
        <time>2021-05-02T14:43:00Z</time>
      </trkpt>
      <trkpt lat="46.53604" lon="0.3256">
        <ele>95.2</ele>
        <time>2021-05-02T14:43:02Z</time>
      </trkpt>
      <trkpt lat="46.53603" lon="0.32558">
        <ele>94.8</ele>
        <time>2021-05-02T14:43:03Z</time>
      </trkpt>
      <trkpt lat="46.53602" lon="0.32557">
        <ele>94.2</ele>
        <time>2021-05-02T14:43:04Z</time>
      </trkpt>
      <trkpt lat="46.53599" lon="0.32554">
        <ele>93.2</ele>
        <time>2021-05-02T14:43:06Z</time>
      </trkpt>
      <trkpt lat="46.53594" lon="0.32551">
        <ele>92</ele>
        <time>2021-05-02T14:43:10Z</time>
      </trkpt>
      <trkpt lat="46.53586" lon="0.32545">
        <ele>91</ele>
        <time>2021-05-02T14:43:15Z</time>
      </trkpt>
      <trkpt lat="46.53584" lon="0.32543">
        <ele>90.4</ele>
        <time>2021-05-02T14:43:17Z</time>
      </trkpt>
      <trkpt lat="46.53583" lon="0.3254">
        <ele>89.6</ele>
        <time>2021-05-02T14:43:19Z</time>
      </trkpt>
      <trkpt lat="46.53582" lon="0.32538">
        <ele>88.6</ele>
        <time>2021-05-02T14:43:20Z</time>
      </trkpt>
      <trkpt lat="46.53582" lon="0.32536">
        <ele>87.4</ele>
        <time>2021-05-02T14:43:21Z</time>
      </trkpt>
      <trkpt lat="46.53581" lon="0.32534">
        <ele>86.4</ele>
        <time>2021-05-02T14:43:22Z</time>
      </trkpt>
      <trkpt lat="46.53579" lon="0.32532">
        <ele>85.6</ele>
        <time>2021-05-02T14:43:23Z</time>
      </trkpt>
      <trkpt lat="46.53577" lon="0.3253">
        <ele>85</ele>
        <time>2021-05-02T14:43:24Z</time>
      </trkpt>
      <trkpt lat="46.53574" lon="0.32527">
        <ele>83.6</ele>
        <time>2021-05-02T14:43:26Z</time>
      </trkpt>
      <trkpt lat="46.53564" lon="0.3252">
        <ele>82.6</ele>
        <time>2021-05-02T14:43:30Z</time>
      </trkpt>
      <trkpt lat="46.53563" lon="0.32518">
        <ele>82.2</ele>
        <time>2021-05-02T14:43:31Z</time>
      </trkpt>
      <trkpt lat="46.5356" lon="0.32516">
        <ele>82</ele>
        <time>2021-05-02T14:43:32Z</time>
      </trkpt>
      <trkpt lat="46.53555" lon="0.32514">
        <ele>81.8</ele>
        <time>2021-05-02T14:43:35Z</time>
      </trkpt>
      <trkpt lat="46.53551" lon="0.32511">
        <ele>81.6</ele>
        <time>2021-05-02T14:43:38Z</time>
      </trkpt>
      <trkpt lat="46.53548" lon="0.3251">
        <ele>81.6</ele>
        <time>2021-05-02T14:43:41Z</time>
      </trkpt>
      <trkpt lat="46.53537" lon="0.32508">
        <ele>81.6</ele>
        <time>2021-05-02T14:43:49Z</time>
      </trkpt>
      <trkpt lat="46.53533" lon="0.32507">
        <ele>82</ele>
        <time>2021-05-02T14:43:53Z</time>
      </trkpt>
      <trkpt lat="46.5353" lon="0.32506">
        <ele>82</ele>
        <time>2021-05-02T14:43:55Z</time>
      </trkpt>
      <trkpt lat="46.53526" lon="0.32505">
        <ele>82.2</ele>
        <time>2021-05-02T14:43:59Z</time>
      </trkpt>
      <trkpt lat="46.5352" lon="0.32504">
        <ele>82.2</ele>
        <time>2021-05-02T14:44:08Z</time>
      </trkpt>
      <trkpt lat="46.53509" lon="0.32504">
        <ele>82.4</ele>
        <time>2021-05-02T14:44:19Z</time>
      </trkpt>
      <trkpt lat="46.53508" lon="0.32505">
        <ele>82.6</ele>
        <time>2021-05-02T14:44:20Z</time>
      </trkpt>
      <trkpt lat="46.53502" lon="0.32502">
        <ele>82.8</ele>
        <time>2021-05-02T14:44:21Z</time>
      </trkpt>
      <trkpt lat="46.53498" lon="0.32499">
        <ele>82.2</ele>
        <time>2021-05-02T14:44:25Z</time>
      </trkpt>
      <trkpt lat="46.53494" lon="0.32495">
        <ele>81.6</ele>
        <time>2021-05-02T14:44:29Z</time>
      </trkpt>
      <trkpt lat="46.53491" lon="0.32493">
        <ele>81.6</ele>
        <time>2021-05-02T14:44:31Z</time>
      </trkpt>
      <trkpt lat="46.5348" lon="0.32486">
        <ele>81.8</ele>
        <time>2021-05-02T14:44:37Z</time>
      </trkpt>
      <trkpt lat="46.53466" lon="0.32485">
        <ele>81.8</ele>
        <time>2021-05-02T14:44:44Z</time>
      </trkpt>
      <trkpt lat="46.53458" lon="0.32483">
        <ele>83.4</ele>
        <time>2021-05-02T14:44:49Z</time>
      </trkpt>
      <trkpt lat="46.53455" lon="0.32483">
        <ele>83.8</ele>
        <time>2021-05-02T14:44:51Z</time>
      </trkpt>
      <trkpt lat="46.53451" lon="0.32482">
        <ele>84.4</ele>
        <time>2021-05-02T14:44:53Z</time>
      </trkpt>
      <trkpt lat="46.53444" lon="0.32478">
        <ele>85.6</ele>
        <time>2021-05-02T14:44:57Z</time>
      </trkpt>
      <trkpt lat="46.53442" lon="0.32477">
        <ele>85.8</ele>
        <time>2021-05-02T14:44:58Z</time>
      </trkpt>
      <trkpt lat="46.53437" lon="0.32474">
        <ele>87</ele>
        <time>2021-05-02T14:45:01Z</time>
      </trkpt>
      <trkpt lat="46.53435" lon="0.32473">
        <ele>87.4</ele>
        <time>2021-05-02T14:45:04Z</time>
      </trkpt>
      <trkpt lat="46.5343" lon="0.32472">
        <ele>88.2</ele>
        <time>2021-05-02T14:45:12Z</time>
      </trkpt>
      <trkpt lat="46.53427" lon="0.32471">
        <ele>89</ele>
        <time>2021-05-02T14:45:16Z</time>
      </trkpt>
      <trkpt lat="46.53426" lon="0.3247">
        <ele>89.2</ele>
        <time>2021-05-02T14:45:17Z</time>
      </trkpt>
      <trkpt lat="46.53425" lon="0.32469">
        <ele>90.4</ele>
        <time>2021-05-02T14:45:22Z</time>
      </trkpt>
      <trkpt lat="46.53422" lon="0.32467">
        <ele>91</ele>
        <time>2021-05-02T14:45:29Z</time>
      </trkpt>
      <trkpt lat="46.53417" lon="0.32465">
        <ele>91.2</ele>
        <time>2021-05-02T14:45:35Z</time>
      </trkpt>
      <trkpt lat="46.53414" lon="0.32464">
        <ele>91.4</ele>
        <time>2021-05-02T14:45:38Z</time>
      </trkpt>
      <trkpt lat="46.53412" lon="0.32463">
        <ele>92</ele>
        <time>2021-05-02T14:45:41Z</time>
      </trkpt>
      <trkpt lat="46.53411" lon="0.32463">
        <ele>92.4</ele>
        <time>2021-05-02T14:45:43Z</time>
      </trkpt>
      <trkpt lat="46.53411" lon="0.32463">
        <ele>92.6</ele>
        <time>2021-05-02T14:45:49Z</time>
      </trkpt>
      <trkpt lat="46.53404" lon="0.32455">
        <ele>93.2</ele>
        <time>2021-05-02T14:46:04Z</time>
      </trkpt>
      <trkpt lat="46.53401" lon="0.32454">
        <ele>93.6</ele>
        <time>2021-05-02T14:46:07Z</time>
      </trkpt>
      <trkpt lat="46.53397" lon="0.32453">
        <ele>94.8</ele>
        <time>2021-05-02T14:46:13Z</time>
      </trkpt>
      <trkpt lat="46.53396" lon="0.32453">
        <ele>95.2</ele>
        <time>2021-05-02T14:46:15Z</time>
      </trkpt>
      <trkpt lat="46.53391" lon="0.32453">
        <ele>96</ele>
        <time>2021-05-02T14:46:23Z</time>
      </trkpt>
      <trkpt lat="46.5339" lon="0.32453">
        <ele>96.2</ele>
        <time>2021-05-02T14:46:24Z</time>
      </trkpt>
      <trkpt lat="46.53389" lon="0.32453">
        <ele>96.8</ele>
        <time>2021-05-02T14:46:26Z</time>
      </trkpt>
      <trkpt lat="46.53388" lon="0.32453">
        <ele>97</ele>
        <time>2021-05-02T14:46:27Z</time>
      </trkpt>
      <trkpt lat="46.53384" lon="0.32454">
        <ele>98</ele>
        <time>2021-05-02T14:46:32Z</time>
      </trkpt>
      <trkpt lat="46.53384" lon="0.32455">
        <ele>98.2</ele>
        <time>2021-05-02T14:46:33Z</time>
      </trkpt>
      <trkpt lat="46.53382" lon="0.32455">
        <ele>98.8</ele>
        <time>2021-05-02T14:46:36Z</time>
      </trkpt>
      <trkpt lat="46.53382" lon="0.32455">
        <ele>99</ele>
        <time>2021-05-02T14:46:38Z</time>
      </trkpt>
      <trkpt lat="46.53382" lon="0.32455">
        <ele>99.2</ele>
        <time>2021-05-02T14:46:42Z</time>
      </trkpt>
      <trkpt lat="46.5338" lon="0.32454">
        <ele>99.2</ele>
        <time>2021-05-02T14:46:45Z</time>
      </trkpt>
      <trkpt lat="46.53373" lon="0.32455">
        <ele>99.2</ele>
        <time>2021-05-02T14:46:52Z</time>
      </trkpt>
      <trkpt lat="46.53371" lon="0.32455">
        <ele>99.4</ele>
        <time>2021-05-02T14:46:54Z</time>
      </trkpt>
      <trkpt lat="46.53369" lon="0.32458">
        <ele>100.2</ele>
        <time>2021-05-02T14:46:56Z</time>
      </trkpt>
      <trkpt lat="46.53367" lon="0.3246">
        <ele>101.2</ele>
        <time>2021-05-02T14:46:59Z</time>
      </trkpt>
      <trkpt lat="46.53362" lon="0.32462">
        <ele>101.8</ele>
        <time>2021-05-02T14:47:03Z</time>
      </trkpt>
      <trkpt lat="46.5336" lon="0.32463">
        <ele>102.4</ele>
        <time>2021-05-02T14:47:05Z</time>
      </trkpt>
      <trkpt lat="46.53355" lon="0.32464">
        <ele>103.6</ele>
        <time>2021-05-02T14:47:08Z</time>
      </trkpt>
      <trkpt lat="46.53349" lon="0.32462">
        <ele>104.8</ele>
        <time>2021-05-02T14:47:13Z</time>
      </trkpt>
      <trkpt lat="46.53346" lon="0.32461">
        <ele>106</ele>
        <time>2021-05-02T14:47:16Z</time>
      </trkpt>
      <trkpt lat="46.53343" lon="0.3246">
        <ele>107.2</ele>
        <time>2021-05-02T14:47:19Z</time>
      </trkpt>
      <trkpt lat="46.53338" lon="0.32456">
        <ele>108.2</ele>
        <time>2021-05-02T14:47:24Z</time>
      </trkpt>
      <trkpt lat="46.53336" lon="0.32456">
        <ele>108.6</ele>
        <time>2021-05-02T14:47:25Z</time>
      </trkpt>
      <trkpt lat="46.53333" lon="0.32455">
        <ele>109.2</ele>
        <time>2021-05-02T14:47:28Z</time>
      </trkpt>
      <trkpt lat="46.53328" lon="0.32453">
        <ele>110.2</ele>
        <time>2021-05-02T14:47:32Z</time>
      </trkpt>
      <trkpt lat="46.53325" lon="0.32452">
        <ele>110.8</ele>
        <time>2021-05-02T14:47:35Z</time>
      </trkpt>
      <trkpt lat="46.53321" lon="0.32451">
        <ele>111.2</ele>
        <time>2021-05-02T14:47:37Z</time>
      </trkpt>
      <trkpt lat="46.53314" lon="0.32448">
        <ele>112.4</ele>
        <time>2021-05-02T14:47:42Z</time>
      </trkpt>
      <trkpt lat="46.53309" lon="0.32447">
        <ele>113</ele>
        <time>2021-05-02T14:47:45Z</time>
      </trkpt>
      <trkpt lat="46.53304" lon="0.32449">
        <ele>113.6</ele>
        <time>2021-05-02T14:47:48Z</time>
      </trkpt>
      <trkpt lat="46.533" lon="0.32454">
        <ele>114.4</ele>
        <time>2021-05-02T14:47:53Z</time>
      </trkpt>
      <trkpt lat="46.53299" lon="0.32456">
        <ele>114.6</ele>
        <time>2021-05-02T14:47:54Z</time>
      </trkpt>
      <trkpt lat="46.53291" lon="0.32461">
        <ele>115.8</ele>
        <time>2021-05-02T14:48:00Z</time>
      </trkpt>
      <trkpt lat="46.53284" lon="0.32467">
        <ele>116.8</ele>
        <time>2021-05-02T14:48:05Z</time>
      </trkpt>
      <trkpt lat="46.53273" lon="0.32469">
        <ele>118</ele>
        <time>2021-05-02T14:48:12Z</time>
      </trkpt>
      <trkpt lat="46.53264" lon="0.3247">
        <ele>118.4</ele>
        <time>2021-05-02T14:48:16Z</time>
      </trkpt>
      <trkpt lat="46.53252" lon="0.32471">
        <ele>119</ele>
        <time>2021-05-02T14:48:21Z</time>
      </trkpt>
      <trkpt lat="46.53229" lon="0.32471">
        <ele>120</ele>
        <time>2021-05-02T14:48:29Z</time>
      </trkpt>
      <trkpt lat="46.53222" lon="0.32466">
        <ele>120</ele>
        <time>2021-05-02T14:48:32Z</time>
      </trkpt>
      <trkpt lat="46.53221" lon="0.32464">
        <ele>120</ele>
        <time>2021-05-02T14:48:33Z</time>
      </trkpt>
      <trkpt lat="46.53214" lon="0.3245">
        <ele>119.8</ele>
        <time>2021-05-02T14:48:38Z</time>
      </trkpt>
      <trkpt lat="46.532" lon="0.32427">
        <ele>119.4</ele>
        <time>2021-05-02T14:48:44Z</time>
      </trkpt>
      <trkpt lat="46.53184" lon="0.32406">
        <ele>119.4</ele>
        <time>2021-05-02T14:48:51Z</time>
      </trkpt>
      <trkpt lat="46.53167" lon="0.32397">
        <ele>120</ele>
        <time>2021-05-02T14:48:57Z</time>
      </trkpt>
      <trkpt lat="46.53157" lon="0.32393">
        <ele>120.2</ele>
        <time>2021-05-02T14:49:02Z</time>
      </trkpt>
      <trkpt lat="46.53139" lon="0.3239">
        <ele>121</ele>
        <time>2021-05-02T14:49:08Z</time>
      </trkpt>
      <trkpt lat="46.53132" lon="0.32391">
        <ele>121.2</ele>
        <time>2021-05-02T14:49:10Z</time>
      </trkpt>
      <trkpt lat="46.53119" lon="0.32392">
        <ele>121.6</ele>
        <time>2021-05-02T14:49:14Z</time>
      </trkpt>
      <trkpt lat="46.53101" lon="0.3239">
        <ele>122.4</ele>
        <time>2021-05-02T14:49:20Z</time>
      </trkpt>
      <trkpt lat="46.53083" lon="0.32387">
        <ele>123.2</ele>
        <time>2021-05-02T14:49:26Z</time>
      </trkpt>
      <trkpt lat="46.53067" lon="0.32386">
        <ele>123.4</ele>
        <time>2021-05-02T14:49:31Z</time>
      </trkpt>
      <trkpt lat="46.53064" lon="0.32386">
        <ele>123.6</ele>
        <time>2021-05-02T14:49:32Z</time>
      </trkpt>
      <trkpt lat="46.53047" lon="0.32386">
        <ele>124</ele>
        <time>2021-05-02T14:49:37Z</time>
      </trkpt>
      <trkpt lat="46.53039" lon="0.32385">
        <ele>124.6</ele>
        <time>2021-05-02T14:49:39Z</time>
      </trkpt>
      <trkpt lat="46.53036" lon="0.32385">
        <ele>124.8</ele>
        <time>2021-05-02T14:49:40Z</time>
      </trkpt>
      <trkpt lat="46.53021" lon="0.32383">
        <ele>125.2</ele>
        <time>2021-05-02T14:49:44Z</time>
      </trkpt>
      <trkpt lat="46.53017" lon="0.32383">
        <ele>125.2</ele>
        <time>2021-05-02T14:49:45Z</time>
      </trkpt>
      <trkpt lat="46.52998" lon="0.32384">
        <ele>125.6</ele>
        <time>2021-05-02T14:49:50Z</time>
      </trkpt>
      <trkpt lat="46.52986" lon="0.32381">
        <ele>126.2</ele>
        <time>2021-05-02T14:49:54Z</time>
      </trkpt>
      <trkpt lat="46.52982" lon="0.32381">
        <ele>126.2</ele>
        <time>2021-05-02T14:49:55Z</time>
      </trkpt>
      <trkpt lat="46.52971" lon="0.32379">
        <ele>126.8</ele>
        <time>2021-05-02T14:49:58Z</time>
      </trkpt>
      <trkpt lat="46.52959" lon="0.32379">
        <ele>127.2</ele>
        <time>2021-05-02T14:50:01Z</time>
      </trkpt>
      <trkpt lat="46.5294" lon="0.32378">
        <ele>127.8</ele>
        <time>2021-05-02T14:50:06Z</time>
      </trkpt>
      <trkpt lat="46.52929" lon="0.32376">
        <ele>128.2</ele>
        <time>2021-05-02T14:50:09Z</time>
      </trkpt>
      <trkpt lat="46.52917" lon="0.32375">
        <ele>128.4</ele>
        <time>2021-05-02T14:50:12Z</time>
      </trkpt>
      <trkpt lat="46.52912" lon="0.32375">
        <ele>128.8</ele>
        <time>2021-05-02T14:50:13Z</time>
      </trkpt>
      <trkpt lat="46.5288" lon="0.32374">
        <ele>129.8</ele>
        <time>2021-05-02T14:50:20Z</time>
      </trkpt>
      <trkpt lat="46.52855" lon="0.3237">
        <ele>130.6</ele>
        <time>2021-05-02T14:50:25Z</time>
      </trkpt>
      <trkpt lat="46.5285" lon="0.32369">
        <ele>130.6</ele>
        <time>2021-05-02T14:50:26Z</time>
      </trkpt>
      <trkpt lat="46.5283" lon="0.32365">
        <ele>131</ele>
        <time>2021-05-02T14:50:30Z</time>
      </trkpt>
      <trkpt lat="46.52825" lon="0.32365">
        <ele>131.2</ele>
        <time>2021-05-02T14:50:31Z</time>
      </trkpt>
      <trkpt lat="46.52814" lon="0.32364">
        <ele>131.4</ele>
        <time>2021-05-02T14:50:34Z</time>
      </trkpt>
      <trkpt lat="46.52795" lon="0.32364">
        <ele>131.8</ele>
        <time>2021-05-02T14:50:39Z</time>
      </trkpt>
      <trkpt lat="46.52771" lon="0.32363">
        <ele>131.6</ele>
        <time>2021-05-02T14:50:45Z</time>
      </trkpt>
      <trkpt lat="46.52768" lon="0.32363">
        <ele>131.6</ele>
        <time>2021-05-02T14:50:46Z</time>
      </trkpt>
      <trkpt lat="46.52757" lon="0.32361">
        <ele>131</ele>
        <time>2021-05-02T14:50:50Z</time>
      </trkpt>
      <trkpt lat="46.52756" lon="0.3236">
        <ele>131</ele>
        <time>2021-05-02T14:50:51Z</time>
      </trkpt>
      <trkpt lat="46.52756" lon="0.32354">
        <ele>131.2</ele>
        <time>2021-05-02T14:50:54Z</time>
      </trkpt>
      <trkpt lat="46.52755" lon="0.32334">
        <ele>131.6</ele>
        <time>2021-05-02T14:50:59Z</time>
      </trkpt>
      <trkpt lat="46.52756" lon="0.32322">
        <ele>131.6</ele>
        <time>2021-05-02T14:51:02Z</time>
      </trkpt>
      <trkpt lat="46.52759" lon="0.32306">
        <ele>131.6</ele>
        <time>2021-05-02T14:51:06Z</time>
      </trkpt>
      <trkpt lat="46.52759" lon="0.32297">
        <ele>131.6</ele>
        <time>2021-05-02T14:51:08Z</time>
      </trkpt>
      <trkpt lat="46.52753" lon="0.32287">
        <ele>131.4</ele>
        <time>2021-05-02T14:51:10Z</time>
      </trkpt>
      <trkpt lat="46.52736" lon="0.32277">
        <ele>131.2</ele>
        <time>2021-05-02T14:51:14Z</time>
      </trkpt>
      <trkpt lat="46.52709" lon="0.32267">
        <ele>131.4</ele>
        <time>2021-05-02T14:51:20Z</time>
      </trkpt>
      <trkpt lat="46.52689" lon="0.32263">
        <ele>131.4</ele>
        <time>2021-05-02T14:51:25Z</time>
      </trkpt>
      <trkpt lat="46.52685" lon="0.32262">
        <ele>131.4</ele>
        <time>2021-05-02T14:51:26Z</time>
      </trkpt>
      <trkpt lat="46.52677" lon="0.32261">
        <ele>131.4</ele>
        <time>2021-05-02T14:51:28Z</time>
      </trkpt>
      <trkpt lat="46.52661" lon="0.32259">
        <ele>131.6</ele>
        <time>2021-05-02T14:51:32Z</time>
      </trkpt>
      <trkpt lat="46.52642" lon="0.32259">
        <ele>131.8</ele>
        <time>2021-05-02T14:51:36Z</time>
      </trkpt>
      <trkpt lat="46.52633" lon="0.32259">
        <ele>131.6</ele>
        <time>2021-05-02T14:51:38Z</time>
      </trkpt>
      <trkpt lat="46.52608" lon="0.3226">
        <ele>131.6</ele>
        <time>2021-05-02T14:51:43Z</time>
      </trkpt>
      <trkpt lat="46.5258" lon="0.32266">
        <ele>131.4</ele>
        <time>2021-05-02T14:51:48Z</time>
      </trkpt>
      <trkpt lat="46.52564" lon="0.32268">
        <ele>130.8</ele>
        <time>2021-05-02T14:51:52Z</time>
      </trkpt>
      <trkpt lat="46.52563" lon="0.32266">
        <ele>130.8</ele>
        <time>2021-05-02T14:51:53Z</time>
      </trkpt>
      <trkpt lat="46.52561" lon="0.32253">
        <ele>131.2</ele>
        <time>2021-05-02T14:51:58Z</time>
      </trkpt>
      <trkpt lat="46.52562" lon="0.32241">
        <ele>131.2</ele>
        <time>2021-05-02T14:52:02Z</time>
      </trkpt>
      <trkpt lat="46.52561" lon="0.32238">
        <ele>131.2</ele>
        <time>2021-05-02T14:52:03Z</time>
      </trkpt>
      <trkpt lat="46.5255" lon="0.32229">
        <ele>131.6</ele>
        <time>2021-05-02T14:52:07Z</time>
      </trkpt>
      <trkpt lat="46.52542" lon="0.32222">
        <ele>131.8</ele>
        <time>2021-05-02T14:52:11Z</time>
      </trkpt>
      <trkpt lat="46.52535" lon="0.32218">
        <ele>132.2</ele>
        <time>2021-05-02T14:52:14Z</time>
      </trkpt>
      <trkpt lat="46.52534" lon="0.32211">
        <ele>132.2</ele>
        <time>2021-05-02T14:52:16Z</time>
      </trkpt>
      <trkpt lat="46.52539" lon="0.32189">
        <ele>132</ele>
        <time>2021-05-02T14:52:22Z</time>
      </trkpt>
      <trkpt lat="46.52547" lon="0.32173">
        <ele>132.2</ele>
        <time>2021-05-02T14:52:28Z</time>
      </trkpt>
      <trkpt lat="46.52564" lon="0.32157">
        <ele>132.2</ele>
        <time>2021-05-02T14:52:35Z</time>
      </trkpt>
      <trkpt lat="46.52578" lon="0.32151">
        <ele>131.8</ele>
        <time>2021-05-02T14:52:40Z</time>
      </trkpt>
      <trkpt lat="46.5259" lon="0.32146">
        <ele>132</ele>
        <time>2021-05-02T14:52:45Z</time>
      </trkpt>
      <trkpt lat="46.52601" lon="0.32135">
        <ele>131.8</ele>
        <time>2021-05-02T14:52:51Z</time>
      </trkpt>
      <trkpt lat="46.52604" lon="0.32116">
        <ele>131.6</ele>
        <time>2021-05-02T14:52:56Z</time>
      </trkpt>
      <trkpt lat="46.52609" lon="0.321">
        <ele>131.4</ele>
        <time>2021-05-02T14:53:00Z</time>
      </trkpt>
      <trkpt lat="46.52614" lon="0.32085">
        <ele>131</ele>
        <time>2021-05-02T14:53:03Z</time>
      </trkpt>
      <trkpt lat="46.52616" lon="0.32081">
        <ele>130.6</ele>
        <time>2021-05-02T14:53:04Z</time>
      </trkpt>
      <trkpt lat="46.52622" lon="0.32069">
        <ele>130.2</ele>
        <time>2021-05-02T14:53:07Z</time>
      </trkpt>
      <trkpt lat="46.52623" lon="0.32063">
        <ele>129.8</ele>
        <time>2021-05-02T14:53:09Z</time>
      </trkpt>
      <trkpt lat="46.52623" lon="0.32061">
        <ele>129.8</ele>
        <time>2021-05-02T14:53:10Z</time>
      </trkpt>
      <trkpt lat="46.52623" lon="0.32056">
        <ele>129.6</ele>
        <time>2021-05-02T14:53:12Z</time>
      </trkpt>
      <trkpt lat="46.52622" lon="0.32049">
        <ele>129.6</ele>
        <time>2021-05-02T14:53:14Z</time>
      </trkpt>
      <trkpt lat="46.52624" lon="0.32041">
        <ele>129.2</ele>
        <time>2021-05-02T14:53:16Z</time>
      </trkpt>
      <trkpt lat="46.52627" lon="0.32025">
        <ele>129</ele>
        <time>2021-05-02T14:53:19Z</time>
      </trkpt>
      <trkpt lat="46.52629" lon="0.3202">
        <ele>128.8</ele>
        <time>2021-05-02T14:53:20Z</time>
      </trkpt>
      <trkpt lat="46.52631" lon="0.32016">
        <ele>128.8</ele>
        <time>2021-05-02T14:53:21Z</time>
      </trkpt>
      <trkpt lat="46.52634" lon="0.32011">
        <ele>128.6</ele>
        <time>2021-05-02T14:53:22Z</time>
      </trkpt>
      <trkpt lat="46.52642" lon="0.31996">
        <ele>127.4</ele>
        <time>2021-05-02T14:53:25Z</time>
      </trkpt>
      <trkpt lat="46.52645" lon="0.3199">
        <ele>127</ele>
        <time>2021-05-02T14:53:26Z</time>
      </trkpt>
      <trkpt lat="46.52661" lon="0.31969">
        <ele>126.4</ele>
        <time>2021-05-02T14:53:30Z</time>
      </trkpt>
      <trkpt lat="46.52664" lon="0.31964">
        <ele>126.2</ele>
        <time>2021-05-02T14:53:31Z</time>
      </trkpt>
      <trkpt lat="46.52675" lon="0.31954">
        <ele>125.2</ele>
        <time>2021-05-02T14:53:33Z</time>
      </trkpt>
      <trkpt lat="46.5268" lon="0.31949">
        <ele>124.6</ele>
        <time>2021-05-02T14:53:34Z</time>
      </trkpt>
      <trkpt lat="46.52686" lon="0.31945">
        <ele>124.2</ele>
        <time>2021-05-02T14:53:35Z</time>
      </trkpt>
      <trkpt lat="46.52698" lon="0.31935">
        <ele>123.2</ele>
        <time>2021-05-02T14:53:37Z</time>
      </trkpt>
      <trkpt lat="46.52702" lon="0.31929">
        <ele>123</ele>
        <time>2021-05-02T14:53:38Z</time>
      </trkpt>
      <trkpt lat="46.52707" lon="0.31923">
        <ele>122.2</ele>
        <time>2021-05-02T14:53:39Z</time>
      </trkpt>
      <trkpt lat="46.52712" lon="0.31916">
        <ele>121</ele>
        <time>2021-05-02T14:53:40Z</time>
      </trkpt>
      <trkpt lat="46.52724" lon="0.31903">
        <ele>119.2</ele>
        <time>2021-05-02T14:53:42Z</time>
      </trkpt>
      <trkpt lat="46.52737" lon="0.31889">
        <ele>116.6</ele>
        <time>2021-05-02T14:53:44Z</time>
      </trkpt>
      <trkpt lat="46.52744" lon="0.31883">
        <ele>115.4</ele>
        <time>2021-05-02T14:53:45Z</time>
      </trkpt>
      <trkpt lat="46.52749" lon="0.31878">
        <ele>114.2</ele>
        <time>2021-05-02T14:53:46Z</time>
      </trkpt>
      <trkpt lat="46.52759" lon="0.31869">
        <ele>112.6</ele>
        <time>2021-05-02T14:53:48Z</time>
      </trkpt>
      <trkpt lat="46.52761" lon="0.31864">
        <ele>111.2</ele>
        <time>2021-05-02T14:53:49Z</time>
      </trkpt>
      <trkpt lat="46.52764" lon="0.3186">
        <ele>110</ele>
        <time>2021-05-02T14:53:50Z</time>
      </trkpt>
      <trkpt lat="46.52768" lon="0.31852">
        <ele>109</ele>
        <time>2021-05-02T14:53:52Z</time>
      </trkpt>
      <trkpt lat="46.52769" lon="0.31847">
        <ele>108.8</ele>
        <time>2021-05-02T14:53:53Z</time>
      </trkpt>
      <trkpt lat="46.52771" lon="0.31842">
        <ele>107.8</ele>
        <time>2021-05-02T14:53:54Z</time>
      </trkpt>
      <trkpt lat="46.52775" lon="0.3183">
        <ele>107</ele>
        <time>2021-05-02T14:53:56Z</time>
      </trkpt>
      <trkpt lat="46.52776" lon="0.31824">
        <ele>106.6</ele>
        <time>2021-05-02T14:53:57Z</time>
      </trkpt>
      <trkpt lat="46.52777" lon="0.31819">
        <ele>106.4</ele>
        <time>2021-05-02T14:53:58Z</time>
      </trkpt>
      <trkpt lat="46.52777" lon="0.31808">
        <ele>106.6</ele>
        <time>2021-05-02T14:54:00Z</time>
      </trkpt>
      <trkpt lat="46.52777" lon="0.31803">
        <ele>107.8</ele>
        <time>2021-05-02T14:54:01Z</time>
      </trkpt>
      <trkpt lat="46.52777" lon="0.318">
        <ele>108.4</ele>
        <time>2021-05-02T14:54:02Z</time>
      </trkpt>
      <trkpt lat="46.52776" lon="0.31791">
        <ele>109</ele>
        <time>2021-05-02T14:54:04Z</time>
      </trkpt>
      <trkpt lat="46.52776" lon="0.3178">
        <ele>110.4</ele>
        <time>2021-05-02T14:54:07Z</time>
      </trkpt>
      <trkpt lat="46.52776" lon="0.31777">
        <ele>111</ele>
        <time>2021-05-02T14:54:08Z</time>
      </trkpt>
      <trkpt lat="46.52776" lon="0.31771">
        <ele>111.6</ele>
        <time>2021-05-02T14:54:10Z</time>
      </trkpt>
      <trkpt lat="46.52773" lon="0.31754">
        <ele>113</ele>
        <time>2021-05-02T14:54:14Z</time>
      </trkpt>
      <trkpt lat="46.52772" lon="0.31749">
        <ele>113.8</ele>
        <time>2021-05-02T14:54:15Z</time>
      </trkpt>
      <trkpt lat="46.52771" lon="0.31745">
        <ele>114.2</ele>
        <time>2021-05-02T14:54:16Z</time>
      </trkpt>
      <trkpt lat="46.52767" lon="0.31725">
        <ele>115.4</ele>
        <time>2021-05-02T14:54:21Z</time>
      </trkpt>
      <trkpt lat="46.52767" lon="0.31722">
        <ele>115.8</ele>
        <time>2021-05-02T14:54:22Z</time>
      </trkpt>
      <trkpt lat="46.52767" lon="0.31716">
        <ele>116.4</ele>
        <time>2021-05-02T14:54:24Z</time>
      </trkpt>
      <trkpt lat="46.52766" lon="0.31701">
        <ele>117</ele>
        <time>2021-05-02T14:54:28Z</time>
      </trkpt>
      <trkpt lat="46.52766" lon="0.31699">
        <ele>117.4</ele>
        <time>2021-05-02T14:54:29Z</time>
      </trkpt>
      <trkpt lat="46.52769" lon="0.31693">
        <ele>118.4</ele>
        <time>2021-05-02T14:54:32Z</time>
      </trkpt>
      <trkpt lat="46.5277" lon="0.31688">
        <ele>119</ele>
        <time>2021-05-02T14:54:34Z</time>
      </trkpt>
      <trkpt lat="46.52772" lon="0.31682">
        <ele>119.6</ele>
        <time>2021-05-02T14:54:36Z</time>
      </trkpt>
      <trkpt lat="46.52776" lon="0.31673">
        <ele>120</ele>
        <time>2021-05-02T14:54:40Z</time>
      </trkpt>
      <trkpt lat="46.52778" lon="0.31668">
        <ele>120.6</ele>
        <time>2021-05-02T14:54:42Z</time>
      </trkpt>
      <trkpt lat="46.52783" lon="0.31655">
        <ele>121.6</ele>
        <time>2021-05-02T14:54:47Z</time>
      </trkpt>
      <trkpt lat="46.52784" lon="0.31653">
        <ele>121.8</ele>
        <time>2021-05-02T14:54:48Z</time>
      </trkpt>
      <trkpt lat="46.52786" lon="0.31648">
        <ele>122</ele>
        <time>2021-05-02T14:54:50Z</time>
      </trkpt>
      <trkpt lat="46.52786" lon="0.31648">
        <ele>122.6</ele>
        <time>2021-05-02T14:54:53Z</time>
      </trkpt>
      <trkpt lat="46.5279" lon="0.31635">
        <ele>123</ele>
        <time>2021-05-02T14:54:55Z</time>
      </trkpt>
      <trkpt lat="46.52792" lon="0.31623">
        <ele>123.8</ele>
        <time>2021-05-02T14:54:59Z</time>
      </trkpt>
      <trkpt lat="46.52794" lon="0.31616">
        <ele>124.4</ele>
        <time>2021-05-02T14:55:01Z</time>
      </trkpt>
      <trkpt lat="46.52798" lon="0.31604">
        <ele>125</ele>
        <time>2021-05-02T14:55:05Z</time>
      </trkpt>
      <trkpt lat="46.52799" lon="0.31599">
        <ele>125.2</ele>
        <time>2021-05-02T14:55:07Z</time>
      </trkpt>
      <trkpt lat="46.52806" lon="0.3158">
        <ele>126</ele>
        <time>2021-05-02T14:55:13Z</time>
      </trkpt>
      <trkpt lat="46.52808" lon="0.31578">
        <ele>126</ele>
        <time>2021-05-02T14:55:14Z</time>
      </trkpt>
      <trkpt lat="46.52819" lon="0.3157">
        <ele>126</ele>
        <time>2021-05-02T14:55:20Z</time>
      </trkpt>
      <trkpt lat="46.52836" lon="0.31568">
        <ele>126.2</ele>
        <time>2021-05-02T14:55:26Z</time>
      </trkpt>
      <trkpt lat="46.52848" lon="0.31569">
        <ele>125.8</ele>
        <time>2021-05-02T14:55:30Z</time>
      </trkpt>
      <trkpt lat="46.52854" lon="0.31567">
        <ele>125.6</ele>
        <time>2021-05-02T14:55:32Z</time>
      </trkpt>
      <trkpt lat="46.52862" lon="0.31562">
        <ele>125.4</ele>
        <time>2021-05-02T14:55:34Z</time>
      </trkpt>
      <trkpt lat="46.52869" lon="0.31556">
        <ele>125.4</ele>
        <time>2021-05-02T14:55:36Z</time>
      </trkpt>
      <trkpt lat="46.52873" lon="0.31553">
        <ele>125.4</ele>
        <time>2021-05-02T14:55:37Z</time>
      </trkpt>
      <trkpt lat="46.52884" lon="0.31546">
        <ele>125.6</ele>
        <time>2021-05-02T14:55:40Z</time>
      </trkpt>
      <trkpt lat="46.52896" lon="0.31536">
        <ele>125.4</ele>
        <time>2021-05-02T14:55:43Z</time>
      </trkpt>
      <trkpt lat="46.52901" lon="0.31532">
        <ele>125.4</ele>
        <time>2021-05-02T14:55:44Z</time>
      </trkpt>
      <trkpt lat="46.52914" lon="0.31521">
        <ele>124.8</ele>
        <time>2021-05-02T14:55:47Z</time>
      </trkpt>
      <trkpt lat="46.52926" lon="0.31506">
        <ele>123.2</ele>
        <time>2021-05-02T14:55:50Z</time>
      </trkpt>
      <trkpt lat="46.5293" lon="0.315">
        <ele>122.8</ele>
        <time>2021-05-02T14:55:51Z</time>
      </trkpt>
      <trkpt lat="46.52933" lon="0.31493">
        <ele>122.4</ele>
        <time>2021-05-02T14:55:52Z</time>
      </trkpt>
      <trkpt lat="46.52935" lon="0.31488">
        <ele>121.6</ele>
        <time>2021-05-02T14:55:53Z</time>
      </trkpt>
      <trkpt lat="46.52939" lon="0.31483">
        <ele>120</ele>
        <time>2021-05-02T14:55:55Z</time>
      </trkpt>
      <trkpt lat="46.52943" lon="0.31485">
        <ele>118.8</ele>
        <time>2021-05-02T14:55:57Z</time>
      </trkpt>
      <trkpt lat="46.52946" lon="0.31488">
        <ele>118</ele>
        <time>2021-05-02T14:55:59Z</time>
      </trkpt>
      <trkpt lat="46.52949" lon="0.31495">
        <ele>117.6</ele>
        <time>2021-05-02T14:56:01Z</time>
      </trkpt>
      <trkpt lat="46.52953" lon="0.31502">
        <ele>117.6</ele>
        <time>2021-05-02T14:56:03Z</time>
      </trkpt>
      <trkpt lat="46.52962" lon="0.31518">
        <ele>117.4</ele>
        <time>2021-05-02T14:56:08Z</time>
      </trkpt>
      <trkpt lat="46.52968" lon="0.31532">
        <ele>117.6</ele>
        <time>2021-05-02T14:56:11Z</time>
      </trkpt>
      <trkpt lat="46.52969" lon="0.31537">
        <ele>117.6</ele>
        <time>2021-05-02T14:56:13Z</time>
      </trkpt>
      <trkpt lat="46.52976" lon="0.31555">
        <ele>117.8</ele>
        <time>2021-05-02T14:56:18Z</time>
      </trkpt>
      <trkpt lat="46.5298" lon="0.31569">
        <ele>117.6</ele>
        <time>2021-05-02T14:56:21Z</time>
      </trkpt>
      <trkpt lat="46.52981" lon="0.31579">
        <ele>117.6</ele>
        <time>2021-05-02T14:56:23Z</time>
      </trkpt>
      <trkpt lat="46.52982" lon="0.31593">
        <ele>116.4</ele>
        <time>2021-05-02T14:56:26Z</time>
      </trkpt>
      <trkpt lat="46.52983" lon="0.31598">
        <ele>116.2</ele>
        <time>2021-05-02T14:56:27Z</time>
      </trkpt>
      <trkpt lat="46.52984" lon="0.31602">
        <ele>116</ele>
        <time>2021-05-02T14:56:28Z</time>
      </trkpt>
      <trkpt lat="46.52986" lon="0.31607">
        <ele>115.6</ele>
        <time>2021-05-02T14:56:29Z</time>
      </trkpt>
      <trkpt lat="46.52987" lon="0.31613">
        <ele>115</ele>
        <time>2021-05-02T14:56:30Z</time>
      </trkpt>
      <trkpt lat="46.52989" lon="0.3162">
        <ele>114.8</ele>
        <time>2021-05-02T14:56:31Z</time>
      </trkpt>
      <trkpt lat="46.52992" lon="0.31626">
        <ele>114.6</ele>
        <time>2021-05-02T14:56:32Z</time>
      </trkpt>
      <trkpt lat="46.52995" lon="0.31628">
        <ele>114.4</ele>
        <time>2021-05-02T14:56:33Z</time>
      </trkpt>
      <trkpt lat="46.52997" lon="0.31629">
        <ele>113.8</ele>
        <time>2021-05-02T14:56:34Z</time>
      </trkpt>
      <trkpt lat="46.52999" lon="0.31632">
        <ele>113.2</ele>
        <time>2021-05-02T14:56:35Z</time>
      </trkpt>
      <trkpt lat="46.53001" lon="0.31635">
        <ele>112.4</ele>
        <time>2021-05-02T14:56:36Z</time>
      </trkpt>
      <trkpt lat="46.53006" lon="0.31642">
        <ele>111</ele>
        <time>2021-05-02T14:56:38Z</time>
      </trkpt>
      <trkpt lat="46.53009" lon="0.31648">
        <ele>108.8</ele>
        <time>2021-05-02T14:56:40Z</time>
      </trkpt>
      <trkpt lat="46.5301" lon="0.31651">
        <ele>107.8</ele>
        <time>2021-05-02T14:56:41Z</time>
      </trkpt>
      <trkpt lat="46.53013" lon="0.3166">
        <ele>106.2</ele>
        <time>2021-05-02T14:56:43Z</time>
      </trkpt>
      <trkpt lat="46.53015" lon="0.31667">
        <ele>105.6</ele>
        <time>2021-05-02T14:56:44Z</time>
      </trkpt>
      <trkpt lat="46.53018" lon="0.31674">
        <ele>105</ele>
        <time>2021-05-02T14:56:45Z</time>
      </trkpt>
      <trkpt lat="46.53019" lon="0.31682">
        <ele>104.4</ele>
        <time>2021-05-02T14:56:46Z</time>
      </trkpt>
      <trkpt lat="46.53019" lon="0.31689">
        <ele>103.6</ele>
        <time>2021-05-02T14:56:47Z</time>
      </trkpt>
      <trkpt lat="46.53019" lon="0.31696">
        <ele>102.6</ele>
        <time>2021-05-02T14:56:48Z</time>
      </trkpt>
      <trkpt lat="46.53023" lon="0.31711">
        <ele>101</ele>
        <time>2021-05-02T14:56:50Z</time>
      </trkpt>
      <trkpt lat="46.53026" lon="0.31725">
        <ele>99.6</ele>
        <time>2021-05-02T14:56:52Z</time>
      </trkpt>
      <trkpt lat="46.53027" lon="0.31731">
        <ele>98.6</ele>
        <time>2021-05-02T14:56:53Z</time>
      </trkpt>
      <trkpt lat="46.53028" lon="0.31738">
        <ele>98</ele>
        <time>2021-05-02T14:56:54Z</time>
      </trkpt>
      <trkpt lat="46.5303" lon="0.31745">
        <ele>97.6</ele>
        <time>2021-05-02T14:56:55Z</time>
      </trkpt>
      <trkpt lat="46.53031" lon="0.31751">
        <ele>97.2</ele>
        <time>2021-05-02T14:56:56Z</time>
      </trkpt>
      <trkpt lat="46.53034" lon="0.31764">
        <ele>96.4</ele>
        <time>2021-05-02T14:56:58Z</time>
      </trkpt>
      <trkpt lat="46.53036" lon="0.31777">
        <ele>96.2</ele>
        <time>2021-05-02T14:57:00Z</time>
      </trkpt>
      <trkpt lat="46.53038" lon="0.31793">
        <ele>94.6</ele>
        <time>2021-05-02T14:57:03Z</time>
      </trkpt>
      <trkpt lat="46.5304" lon="0.31802">
        <ele>93.4</ele>
        <time>2021-05-02T14:57:05Z</time>
      </trkpt>
      <trkpt lat="46.53041" lon="0.31808">
        <ele>92.6</ele>
        <time>2021-05-02T14:57:07Z</time>
      </trkpt>
      <trkpt lat="46.53041" lon="0.31811">
        <ele>92.2</ele>
        <time>2021-05-02T14:57:08Z</time>
      </trkpt>
      <trkpt lat="46.53039" lon="0.31821">
        <ele>91.2</ele>
        <time>2021-05-02T14:57:11Z</time>
      </trkpt>
      <trkpt lat="46.53038" lon="0.31824">
        <ele>91</ele>
        <time>2021-05-02T14:57:12Z</time>
      </trkpt>
      <trkpt lat="46.53036" lon="0.31836">
        <ele>91.2</ele>
        <time>2021-05-02T14:57:17Z</time>
      </trkpt>
      <trkpt lat="46.53035" lon="0.31838">
        <ele>91.4</ele>
        <time>2021-05-02T14:57:18Z</time>
      </trkpt>
      <trkpt lat="46.53034" lon="0.31841">
        <ele>92.2</ele>
        <time>2021-05-02T14:57:19Z</time>
      </trkpt>
      <trkpt lat="46.53034" lon="0.31846">
        <ele>93.6</ele>
        <time>2021-05-02T14:57:21Z</time>
      </trkpt>
      <trkpt lat="46.53034" lon="0.31847">
        <ele>93.8</ele>
        <time>2021-05-02T14:57:22Z</time>
      </trkpt>
      <trkpt lat="46.53032" lon="0.31854">
        <ele>94.6</ele>
        <time>2021-05-02T14:57:25Z</time>
      </trkpt>
      <trkpt lat="46.53028" lon="0.31864">
        <ele>96</ele>
        <time>2021-05-02T14:57:29Z</time>
      </trkpt>
      <trkpt lat="46.53026" lon="0.31869">
        <ele>97</ele>
        <time>2021-05-02T14:57:31Z</time>
      </trkpt>
      <trkpt lat="46.53026" lon="0.3187">
        <ele>97.4</ele>
        <time>2021-05-02T14:57:32Z</time>
      </trkpt>
      <trkpt lat="46.53024" lon="0.31876">
        <ele>98.4</ele>
        <time>2021-05-02T14:57:35Z</time>
      </trkpt>
      <trkpt lat="46.53023" lon="0.31882">
        <ele>99.6</ele>
        <time>2021-05-02T14:57:38Z</time>
      </trkpt>
      <trkpt lat="46.53019" lon="0.3189">
        <ele>100.8</ele>
        <time>2021-05-02T14:57:43Z</time>
      </trkpt>
      <trkpt lat="46.53016" lon="0.31898">
        <ele>102</ele>
        <time>2021-05-02T14:57:48Z</time>
      </trkpt>
      <trkpt lat="46.53015" lon="0.31903">
        <ele>103</ele>
        <time>2021-05-02T14:57:52Z</time>
      </trkpt>
      <trkpt lat="46.53014" lon="0.31904">
        <ele>103.4</ele>
        <time>2021-05-02T14:57:53Z</time>
      </trkpt>
      <trkpt lat="46.53011" lon="0.31911">
        <ele>104.4</ele>
        <time>2021-05-02T14:57:58Z</time>
      </trkpt>
      <trkpt lat="46.53008" lon="0.31914">
        <ele>105.4</ele>
        <time>2021-05-02T14:58:01Z</time>
      </trkpt>
      <trkpt lat="46.53007" lon="0.31916">
        <ele>105.6</ele>
        <time>2021-05-02T14:58:02Z</time>
      </trkpt>
      <trkpt lat="46.53005" lon="0.31918">
        <ele>106</ele>
        <time>2021-05-02T14:58:04Z</time>
      </trkpt>
      <trkpt lat="46.53001" lon="0.31922">
        <ele>106.8</ele>
        <time>2021-05-02T14:58:07Z</time>
      </trkpt>
      <trkpt lat="46.52998" lon="0.31928">
        <ele>107.8</ele>
        <time>2021-05-02T14:58:11Z</time>
      </trkpt>
      <trkpt lat="46.52995" lon="0.31933">
        <ele>108.6</ele>
        <time>2021-05-02T14:58:15Z</time>
      </trkpt>
      <trkpt lat="46.52995" lon="0.31934">
        <ele>108.8</ele>
        <time>2021-05-02T14:58:16Z</time>
      </trkpt>
      <trkpt lat="46.52995" lon="0.31934">
        <ele>109.2</ele>
        <time>2021-05-02T14:58:17Z</time>
      </trkpt>
      <trkpt lat="46.52991" lon="0.31941">
        <ele>110</ele>
        <time>2021-05-02T14:58:22Z</time>
      </trkpt>
      <trkpt lat="46.52989" lon="0.31944">
        <ele>110.6</ele>
        <time>2021-05-02T14:58:25Z</time>
      </trkpt>
      <trkpt lat="46.52986" lon="0.31949">
        <ele>111.2</ele>
        <time>2021-05-02T14:58:29Z</time>
      </trkpt>
      <trkpt lat="46.52983" lon="0.31955">
        <ele>112.4</ele>
        <time>2021-05-02T14:58:34Z</time>
      </trkpt>
      <trkpt lat="46.52981" lon="0.31959">
        <ele>113</ele>
        <time>2021-05-02T14:58:37Z</time>
      </trkpt>
      <trkpt lat="46.52981" lon="0.31962">
        <ele>113</ele>
        <time>2021-05-02T14:58:39Z</time>
      </trkpt>
      <trkpt lat="46.52979" lon="0.31968">
        <ele>113.6</ele>
        <time>2021-05-02T14:58:43Z</time>
      </trkpt>
      <trkpt lat="46.52976" lon="0.31976">
        <ele>114.4</ele>
        <time>2021-05-02T14:58:48Z</time>
      </trkpt>
      <trkpt lat="46.52974" lon="0.31979">
        <ele>114.6</ele>
        <time>2021-05-02T14:58:50Z</time>
      </trkpt>
      <trkpt lat="46.52969" lon="0.31983">
        <ele>115.8</ele>
        <time>2021-05-02T14:58:55Z</time>
      </trkpt>
      <trkpt lat="46.52966" lon="0.31986">
        <ele>116.4</ele>
        <time>2021-05-02T14:58:58Z</time>
      </trkpt>
      <trkpt lat="46.52963" lon="0.31989">
        <ele>117.2</ele>
        <time>2021-05-02T14:59:02Z</time>
      </trkpt>
      <trkpt lat="46.52956" lon="0.31996">
        <ele>118.2</ele>
        <time>2021-05-02T14:59:10Z</time>
      </trkpt>
      <trkpt lat="46.52955" lon="0.31997">
        <ele>118.4</ele>
        <time>2021-05-02T14:59:11Z</time>
      </trkpt>
      <trkpt lat="46.52949" lon="0.31999">
        <ele>119.2</ele>
        <time>2021-05-02T14:59:15Z</time>
      </trkpt>
      <trkpt lat="46.5294" lon="0.32004">
        <ele>119.8</ele>
        <time>2021-05-02T14:59:21Z</time>
      </trkpt>
      <trkpt lat="46.52935" lon="0.32008">
        <ele>120.2</ele>
        <time>2021-05-02T14:59:25Z</time>
      </trkpt>
      <trkpt lat="46.52928" lon="0.32012">
        <ele>120.8</ele>
        <time>2021-05-02T14:59:31Z</time>
      </trkpt>
      <trkpt lat="46.52922" lon="0.32015">
        <ele>121.2</ele>
        <time>2021-05-02T14:59:36Z</time>
      </trkpt>
      <trkpt lat="46.52916" lon="0.32016">
        <ele>122.2</ele>
        <time>2021-05-02T14:59:41Z</time>
      </trkpt>
      <trkpt lat="46.52911" lon="0.32014">
        <ele>122.2</ele>
        <time>2021-05-02T14:59:44Z</time>
      </trkpt>
      <trkpt lat="46.52905" lon="0.3201">
        <ele>122.2</ele>
        <time>2021-05-02T14:59:49Z</time>
      </trkpt>
      <trkpt lat="46.52891" lon="0.32001">
        <ele>122</ele>
        <time>2021-05-02T15:00:00Z</time>
      </trkpt>
      <trkpt lat="46.52878" lon="0.31992">
        <ele>121.8</ele>
        <time>2021-05-02T15:00:07Z</time>
      </trkpt>
      <trkpt lat="46.52869" lon="0.31981">
        <ele>121.4</ele>
        <time>2021-05-02T15:00:13Z</time>
      </trkpt>
      <trkpt lat="46.52866" lon="0.31978">
        <ele>121.2</ele>
        <time>2021-05-02T15:00:14Z</time>
      </trkpt>
      <trkpt lat="46.5286" lon="0.31967">
        <ele>120.2</ele>
        <time>2021-05-02T15:00:18Z</time>
      </trkpt>
      <trkpt lat="46.52859" lon="0.31966">
        <ele>120.2</ele>
        <time>2021-05-02T15:00:19Z</time>
      </trkpt>
      <trkpt lat="46.52854" lon="0.31955">
        <ele>119.2</ele>
        <time>2021-05-02T15:00:23Z</time>
      </trkpt>
      <trkpt lat="46.52848" lon="0.31947">
        <ele>118.6</ele>
        <time>2021-05-02T15:00:25Z</time>
      </trkpt>
      <trkpt lat="46.52842" lon="0.3194">
        <ele>118.2</ele>
        <time>2021-05-02T15:00:27Z</time>
      </trkpt>
      <trkpt lat="46.5284" lon="0.31936">
        <ele>118</ele>
        <time>2021-05-02T15:00:28Z</time>
      </trkpt>
      <trkpt lat="46.52835" lon="0.31922">
        <ele>117.6</ele>
        <time>2021-05-02T15:00:31Z</time>
      </trkpt>
      <trkpt lat="46.5283" lon="0.31912">
        <ele>116.8</ele>
        <time>2021-05-02T15:00:33Z</time>
      </trkpt>
      <trkpt lat="46.52822" lon="0.31902">
        <ele>115.6</ele>
        <time>2021-05-02T15:00:35Z</time>
      </trkpt>
      <trkpt lat="46.52817" lon="0.31897">
        <ele>114.4</ele>
        <time>2021-05-02T15:00:36Z</time>
      </trkpt>
      <trkpt lat="46.5281" lon="0.31887">
        <ele>112.6</ele>
        <time>2021-05-02T15:00:38Z</time>
      </trkpt>
      <trkpt lat="46.52803" lon="0.31873">
        <ele>111.8</ele>
        <time>2021-05-02T15:00:40Z</time>
      </trkpt>
      <trkpt lat="46.52798" lon="0.31864">
        <ele>110.4</ele>
        <time>2021-05-02T15:00:41Z</time>
      </trkpt>
      <trkpt lat="46.52793" lon="0.31854">
        <ele>109.2</ele>
        <time>2021-05-02T15:00:42Z</time>
      </trkpt>
      <trkpt lat="46.52781" lon="0.3183">
        <ele>107.8</ele>
        <time>2021-05-02T15:00:44Z</time>
      </trkpt>
      <trkpt lat="46.52774" lon="0.31821">
        <ele>107.6</ele>
        <time>2021-05-02T15:00:45Z</time>
      </trkpt>
      <trkpt lat="46.52756" lon="0.31798">
        <ele>106.8</ele>
        <time>2021-05-02T15:00:48Z</time>
      </trkpt>
      <trkpt lat="46.5275" lon="0.31791">
        <ele>106.6</ele>
        <time>2021-05-02T15:00:49Z</time>
      </trkpt>
      <trkpt lat="46.52735" lon="0.31775">
        <ele>106.8</ele>
        <time>2021-05-02T15:00:52Z</time>
      </trkpt>
      <trkpt lat="46.52724" lon="0.31764">
        <ele>107.6</ele>
        <time>2021-05-02T15:00:56Z</time>
      </trkpt>
      <trkpt lat="46.52716" lon="0.31756">
        <ele>108</ele>
        <time>2021-05-02T15:00:58Z</time>
      </trkpt>
      <trkpt lat="46.52702" lon="0.31741">
        <ele>108.2</ele>
        <time>2021-05-02T15:01:02Z</time>
      </trkpt>
      <trkpt lat="46.52694" lon="0.31734">
        <ele>108.2</ele>
        <time>2021-05-02T15:01:04Z</time>
      </trkpt>
      <trkpt lat="46.52683" lon="0.31723">
        <ele>109</ele>
        <time>2021-05-02T15:01:08Z</time>
      </trkpt>
      <trkpt lat="46.52677" lon="0.31716">
        <ele>109.4</ele>
        <time>2021-05-02T15:01:10Z</time>
      </trkpt>
      <trkpt lat="46.52659" lon="0.31695">
        <ele>110.2</ele>
        <time>2021-05-02T15:01:16Z</time>
      </trkpt>
      <trkpt lat="46.52656" lon="0.31691">
        <ele>110.2</ele>
        <time>2021-05-02T15:01:17Z</time>
      </trkpt>
      <trkpt lat="46.52635" lon="0.31672">
        <ele>111.2</ele>
        <time>2021-05-02T15:01:23Z</time>
      </trkpt>
      <trkpt lat="46.52625" lon="0.31662">
        <ele>111.4</ele>
        <time>2021-05-02T15:01:26Z</time>
      </trkpt>
      <trkpt lat="46.52611" lon="0.31652">
        <ele>111.8</ele>
        <time>2021-05-02T15:01:30Z</time>
      </trkpt>
      <trkpt lat="46.52602" lon="0.31646">
        <ele>112.4</ele>
        <time>2021-05-02T15:01:33Z</time>
      </trkpt>
      <trkpt lat="46.52594" lon="0.31639">
        <ele>112.8</ele>
        <time>2021-05-02T15:01:36Z</time>
      </trkpt>
      <trkpt lat="46.52574" lon="0.31623">
        <ele>113.4</ele>
        <time>2021-05-02T15:01:43Z</time>
      </trkpt>
      <trkpt lat="46.52562" lon="0.31614">
        <ele>114.6</ele>
        <time>2021-05-02T15:01:47Z</time>
      </trkpt>
      <trkpt lat="46.52554" lon="0.31607">
        <ele>115.4</ele>
        <time>2021-05-02T15:01:50Z</time>
      </trkpt>
      <trkpt lat="46.52551" lon="0.31605">
        <ele>115.8</ele>
        <time>2021-05-02T15:01:51Z</time>
      </trkpt>
      <trkpt lat="46.52539" lon="0.31593">
        <ele>116.8</ele>
        <time>2021-05-02T15:01:56Z</time>
      </trkpt>
      <trkpt lat="46.52528" lon="0.31583">
        <ele>117.6</ele>
        <time>2021-05-02T15:02:01Z</time>
      </trkpt>
      <trkpt lat="46.52515" lon="0.31565">
        <ele>117.2</ele>
        <time>2021-05-02T15:02:07Z</time>
      </trkpt>
      <trkpt lat="46.52505" lon="0.31545">
        <ele>117.6</ele>
        <time>2021-05-02T15:02:12Z</time>
      </trkpt>
      <trkpt lat="46.52493" lon="0.31522">
        <ele>117.8</ele>
        <time>2021-05-02T15:02:18Z</time>
      </trkpt>
      <trkpt lat="46.52488" lon="0.31508">
        <ele>117.8</ele>
        <time>2021-05-02T15:02:22Z</time>
      </trkpt>
      <trkpt lat="46.52483" lon="0.31496">
        <ele>117.8</ele>
        <time>2021-05-02T15:02:25Z</time>
      </trkpt>
      <trkpt lat="46.52469" lon="0.31472">
        <ele>118.6</ele>
        <time>2021-05-02T15:02:31Z</time>
      </trkpt>
      <trkpt lat="46.52466" lon="0.31466">
        <ele>119</ele>
        <time>2021-05-02T15:02:33Z</time>
      </trkpt>
      <trkpt lat="46.52461" lon="0.31455">
        <ele>119.2</ele>
        <time>2021-05-02T15:02:36Z</time>
      </trkpt>
      <trkpt lat="46.52451" lon="0.31431">
        <ele>120</ele>
        <time>2021-05-02T15:02:42Z</time>
      </trkpt>
      <trkpt lat="46.52449" lon="0.31426">
        <ele>120</ele>
        <time>2021-05-02T15:02:43Z</time>
      </trkpt>
      <trkpt lat="46.52442" lon="0.31394">
        <ele>120.6</ele>
        <time>2021-05-02T15:02:50Z</time>
      </trkpt>
      <trkpt lat="46.5244" lon="0.31377">
        <ele>121</ele>
        <time>2021-05-02T15:02:54Z</time>
      </trkpt>
      <trkpt lat="46.5244" lon="0.31368">
        <ele>121.6</ele>
        <time>2021-05-02T15:02:56Z</time>
      </trkpt>
      <trkpt lat="46.5244" lon="0.31352">
        <ele>122.2</ele>
        <time>2021-05-02T15:03:01Z</time>
      </trkpt>
      <trkpt lat="46.5244" lon="0.31346">
        <ele>122.6</ele>
        <time>2021-05-02T15:03:02Z</time>
      </trkpt>
      <trkpt lat="46.52443" lon="0.31342">
        <ele>123.2</ele>
        <time>2021-05-02T15:03:04Z</time>
      </trkpt>
      <trkpt lat="46.52451" lon="0.31341">
        <ele>124</ele>
        <time>2021-05-02T15:03:08Z</time>
      </trkpt>
      <trkpt lat="46.52453" lon="0.31339">
        <ele>124.4</ele>
        <time>2021-05-02T15:03:10Z</time>
      </trkpt>
      <trkpt lat="46.52457" lon="0.31335">
        <ele>125.6</ele>
        <time>2021-05-02T15:03:13Z</time>
      </trkpt>
      <trkpt lat="46.52462" lon="0.31334">
        <ele>126.4</ele>
        <time>2021-05-02T15:03:14Z</time>
      </trkpt>
      <trkpt lat="46.52464" lon="0.31334">
        <ele>126.8</ele>
        <time>2021-05-02T15:03:16Z</time>
      </trkpt>
      <trkpt lat="46.52472" lon="0.31336">
        <ele>127.6</ele>
        <time>2021-05-02T15:03:20Z</time>
      </trkpt>
      <trkpt lat="46.52481" lon="0.3134">
        <ele>128</ele>
        <time>2021-05-02T15:03:24Z</time>
      </trkpt>
      <trkpt lat="46.52495" lon="0.3135">
        <ele>128.6</ele>
        <time>2021-05-02T15:03:29Z</time>
      </trkpt>
      <trkpt lat="46.525" lon="0.31353">
        <ele>129</ele>
        <time>2021-05-02T15:03:31Z</time>
      </trkpt>
      <trkpt lat="46.52505" lon="0.31357">
        <ele>129</ele>
        <time>2021-05-02T15:03:33Z</time>
      </trkpt>
      <trkpt lat="46.5251" lon="0.3136">
        <ele>129.2</ele>
        <time>2021-05-02T15:03:35Z</time>
      </trkpt>
      <trkpt lat="46.52529" lon="0.31374">
        <ele>129.8</ele>
        <time>2021-05-02T15:03:41Z</time>
      </trkpt>
      <trkpt lat="46.52535" lon="0.31378">
        <ele>129.8</ele>
        <time>2021-05-02T15:03:43Z</time>
      </trkpt>
      <trkpt lat="46.52549" lon="0.31387">
        <ele>130</ele>
        <time>2021-05-02T15:03:47Z</time>
      </trkpt>
      <trkpt lat="46.52556" lon="0.31392">
        <ele>130.2</ele>
        <time>2021-05-02T15:03:49Z</time>
      </trkpt>
      <trkpt lat="46.5257" lon="0.31399">
        <ele>130.6</ele>
        <time>2021-05-02T15:03:53Z</time>
      </trkpt>
      <trkpt lat="46.52573" lon="0.314">
        <ele>130.6</ele>
        <time>2021-05-02T15:03:54Z</time>
      </trkpt>
      <trkpt lat="46.52588" lon="0.31407">
        <ele>131</ele>
        <time>2021-05-02T15:03:58Z</time>
      </trkpt>
      <trkpt lat="46.52597" lon="0.31411">
        <ele>131.4</ele>
        <time>2021-05-02T15:04:00Z</time>
      </trkpt>
      <trkpt lat="46.52615" lon="0.31417">
        <ele>131.8</ele>
        <time>2021-05-02T15:04:04Z</time>
      </trkpt>
      <trkpt lat="46.52634" lon="0.31419">
        <ele>131.8</ele>
        <time>2021-05-02T15:04:09Z</time>
      </trkpt>
      <trkpt lat="46.52654" lon="0.31421">
        <ele>132</ele>
        <time>2021-05-02T15:04:14Z</time>
      </trkpt>
      <trkpt lat="46.52673" lon="0.31424">
        <ele>131.8</ele>
        <time>2021-05-02T15:04:20Z</time>
      </trkpt>
      <trkpt lat="46.52695" lon="0.31434">
        <ele>131.8</ele>
        <time>2021-05-02T15:04:27Z</time>
      </trkpt>
      <trkpt lat="46.52702" lon="0.31434">
        <ele>131.8</ele>
        <time>2021-05-02T15:04:29Z</time>
      </trkpt>
      <trkpt lat="46.52707" lon="0.31432">
        <ele>131.8</ele>
        <time>2021-05-02T15:04:31Z</time>
      </trkpt>
      <trkpt lat="46.52723" lon="0.31424">
        <ele>131.8</ele>
        <time>2021-05-02T15:04:36Z</time>
      </trkpt>
      <trkpt lat="46.52743" lon="0.31413">
        <ele>132</ele>
        <time>2021-05-02T15:04:42Z</time>
      </trkpt>
      <trkpt lat="46.52764" lon="0.31404">
        <ele>132</ele>
        <time>2021-05-02T15:04:48Z</time>
      </trkpt>
      <trkpt lat="46.52778" lon="0.31396">
        <ele>131.6</ele>
        <time>2021-05-02T15:04:53Z</time>
      </trkpt>
      <trkpt lat="46.52788" lon="0.31376">
        <ele>130.8</ele>
        <time>2021-05-02T15:04:59Z</time>
      </trkpt>
      <trkpt lat="46.52791" lon="0.31351">
        <ele>131.4</ele>
        <time>2021-05-02T15:05:05Z</time>
      </trkpt>
      <trkpt lat="46.52795" lon="0.31341">
        <ele>131</ele>
        <time>2021-05-02T15:05:07Z</time>
      </trkpt>
      <trkpt lat="46.52797" lon="0.31331">
        <ele>130.6</ele>
        <time>2021-05-02T15:05:09Z</time>
      </trkpt>
      <trkpt lat="46.52797" lon="0.31321">
        <ele>130.4</ele>
        <time>2021-05-02T15:05:11Z</time>
      </trkpt>
      <trkpt lat="46.52797" lon="0.31312">
        <ele>130.2</ele>
        <time>2021-05-02T15:05:13Z</time>
      </trkpt>
      <trkpt lat="46.52797" lon="0.31308">
        <ele>130</ele>
        <time>2021-05-02T15:05:14Z</time>
      </trkpt>
      <trkpt lat="46.52798" lon="0.31303">
        <ele>129.8</ele>
        <time>2021-05-02T15:05:15Z</time>
      </trkpt>
      <trkpt lat="46.52798" lon="0.31293">
        <ele>129.4</ele>
        <time>2021-05-02T15:05:17Z</time>
      </trkpt>
      <trkpt lat="46.52798" lon="0.31289">
        <ele>129.2</ele>
        <time>2021-05-02T15:05:18Z</time>
      </trkpt>
      <trkpt lat="46.52798" lon="0.31284">
        <ele>129</ele>
        <time>2021-05-02T15:05:19Z</time>
      </trkpt>
      <trkpt lat="46.52798" lon="0.31278">
        <ele>128.6</ele>
        <time>2021-05-02T15:05:20Z</time>
      </trkpt>
      <trkpt lat="46.52798" lon="0.31268">
        <ele>128</ele>
        <time>2021-05-02T15:05:22Z</time>
      </trkpt>
      <trkpt lat="46.52797" lon="0.31263">
        <ele>127.8</ele>
        <time>2021-05-02T15:05:23Z</time>
      </trkpt>
      <trkpt lat="46.52796" lon="0.31257">
        <ele>127.4</ele>
        <time>2021-05-02T15:05:24Z</time>
      </trkpt>
      <trkpt lat="46.52794" lon="0.31251">
        <ele>127.2</ele>
        <time>2021-05-02T15:05:25Z</time>
      </trkpt>
      <trkpt lat="46.5279" lon="0.31237">
        <ele>127</ele>
        <time>2021-05-02T15:05:27Z</time>
      </trkpt>
      <trkpt lat="46.52786" lon="0.31226">
        <ele>126.8</ele>
        <time>2021-05-02T15:05:29Z</time>
      </trkpt>
      <trkpt lat="46.52784" lon="0.31207">
        <ele>126.6</ele>
        <time>2021-05-02T15:05:32Z</time>
      </trkpt>
      <trkpt lat="46.52784" lon="0.31191">
        <ele>126.4</ele>
        <time>2021-05-02T15:05:34Z</time>
      </trkpt>
      <trkpt lat="46.52784" lon="0.31183">
        <ele>125.6</ele>
        <time>2021-05-02T15:05:35Z</time>
      </trkpt>
      <trkpt lat="46.52783" lon="0.31176">
        <ele>125</ele>
        <time>2021-05-02T15:05:36Z</time>
      </trkpt>
      <trkpt lat="46.52783" lon="0.31169">
        <ele>124.6</ele>
        <time>2021-05-02T15:05:37Z</time>
      </trkpt>
      <trkpt lat="46.52782" lon="0.31162">
        <ele>124.4</ele>
        <time>2021-05-02T15:05:38Z</time>
      </trkpt>
      <trkpt lat="46.5278" lon="0.31137">
        <ele>123</ele>
        <time>2021-05-02T15:05:41Z</time>
      </trkpt>
      <trkpt lat="46.52779" lon="0.31128">
        <ele>122.8</ele>
        <time>2021-05-02T15:05:42Z</time>
      </trkpt>
      <trkpt lat="46.52774" lon="0.31106">
        <ele>122</ele>
        <time>2021-05-02T15:05:44Z</time>
      </trkpt>
      <trkpt lat="46.52771" lon="0.3109">
        <ele>121.2</ele>
        <time>2021-05-02T15:05:46Z</time>
      </trkpt>
      <trkpt lat="46.52767" lon="0.31066">
        <ele>120.8</ele>
        <time>2021-05-02T15:05:49Z</time>
      </trkpt>
      <trkpt lat="46.52763" lon="0.31037">
        <ele>120.6</ele>
        <time>2021-05-02T15:05:52Z</time>
      </trkpt>
      <trkpt lat="46.5276" lon="0.31007">
        <ele>120.4</ele>
        <time>2021-05-02T15:05:55Z</time>
      </trkpt>
      <trkpt lat="46.52758" lon="0.30991">
        <ele>120.6</ele>
        <time>2021-05-02T15:05:57Z</time>
      </trkpt>
      <trkpt lat="46.52752" lon="0.30961">
        <ele>121</ele>
        <time>2021-05-02T15:06:01Z</time>
      </trkpt>
      <trkpt lat="46.5275" lon="0.30948">
        <ele>121.2</ele>
        <time>2021-05-02T15:06:02Z</time>
      </trkpt>
      <trkpt lat="46.52748" lon="0.30938">
        <ele>121.2</ele>
        <time>2021-05-02T15:06:03Z</time>
      </trkpt>
      <trkpt lat="46.52739" lon="0.30913">
        <ele>122</ele>
        <time>2021-05-02T15:06:05Z</time>
      </trkpt>
      <trkpt lat="46.5273" lon="0.30884">
        <ele>123.4</ele>
        <time>2021-05-02T15:06:09Z</time>
      </trkpt>
      <trkpt lat="46.52728" lon="0.30872">
        <ele>123.6</ele>
        <time>2021-05-02T15:06:11Z</time>
      </trkpt>
      <trkpt lat="46.52725" lon="0.30863">
        <ele>124.4</ele>
        <time>2021-05-02T15:06:13Z</time>
      </trkpt>
      <trkpt lat="46.52725" lon="0.30859">
        <ele>124.4</ele>
        <time>2021-05-02T15:06:14Z</time>
      </trkpt>
      <trkpt lat="46.52723" lon="0.30845">
        <ele>124.4</ele>
        <time>2021-05-02T15:06:17Z</time>
      </trkpt>
      <trkpt lat="46.52722" lon="0.30838">
        <ele>124.2</ele>
        <time>2021-05-02T15:06:19Z</time>
      </trkpt>
      <trkpt lat="46.52724" lon="0.30821">
        <ele>123.2</ele>
        <time>2021-05-02T15:06:23Z</time>
      </trkpt>
      <trkpt lat="46.52724" lon="0.30802">
        <ele>122.6</ele>
        <time>2021-05-02T15:06:27Z</time>
      </trkpt>
      <trkpt lat="46.52724" lon="0.30798">
        <ele>122.8</ele>
        <time>2021-05-02T15:06:28Z</time>
      </trkpt>
      <trkpt lat="46.52721" lon="0.30782">
        <ele>123.4</ele>
        <time>2021-05-02T15:06:32Z</time>
      </trkpt>
      <trkpt lat="46.52717" lon="0.30773">
        <ele>124.4</ele>
        <time>2021-05-02T15:06:34Z</time>
      </trkpt>
      <trkpt lat="46.52711" lon="0.30751">
        <ele>124.8</ele>
        <time>2021-05-02T15:06:39Z</time>
      </trkpt>
      <trkpt lat="46.52706" lon="0.30724">
        <ele>124.4</ele>
        <time>2021-05-02T15:06:45Z</time>
      </trkpt>
      <trkpt lat="46.52704" lon="0.30719">
        <ele>124.4</ele>
        <time>2021-05-02T15:06:46Z</time>
      </trkpt>
      <trkpt lat="46.527" lon="0.30706">
        <ele>124.4</ele>
        <time>2021-05-02T15:06:49Z</time>
      </trkpt>
      <trkpt lat="46.52694" lon="0.30689">
        <ele>124.6</ele>
        <time>2021-05-02T15:06:53Z</time>
      </trkpt>
      <trkpt lat="46.52693" lon="0.30685">
        <ele>124.8</ele>
        <time>2021-05-02T15:06:54Z</time>
      </trkpt>
      <trkpt lat="46.52687" lon="0.30667">
        <ele>125.6</ele>
        <time>2021-05-02T15:06:58Z</time>
      </trkpt>
      <trkpt lat="46.52687" lon="0.30658">
        <ele>126.2</ele>
        <time>2021-05-02T15:07:00Z</time>
      </trkpt>
      <trkpt lat="46.52687" lon="0.3064">
        <ele>126.4</ele>
        <time>2021-05-02T15:07:03Z</time>
      </trkpt>
      <trkpt lat="46.52685" lon="0.30626">
        <ele>126.4</ele>
        <time>2021-05-02T15:07:05Z</time>
      </trkpt>
      <trkpt lat="46.52682" lon="0.30605">
        <ele>125.8</ele>
        <time>2021-05-02T15:07:08Z</time>
      </trkpt>
      <trkpt lat="46.52679" lon="0.30593">
        <ele>124.6</ele>
        <time>2021-05-02T15:07:10Z</time>
      </trkpt>
      <trkpt lat="46.52678" lon="0.30589">
        <ele>124.4</ele>
        <time>2021-05-02T15:07:11Z</time>
      </trkpt>
      <trkpt lat="46.52677" lon="0.30583">
        <ele>124.2</ele>
        <time>2021-05-02T15:07:13Z</time>
      </trkpt>
      <trkpt lat="46.52674" lon="0.30573">
        <ele>124.4</ele>
        <time>2021-05-02T15:07:15Z</time>
      </trkpt>
      <trkpt lat="46.5267" lon="0.30567">
        <ele>124.4</ele>
        <time>2021-05-02T15:07:16Z</time>
      </trkpt>
      <trkpt lat="46.52666" lon="0.3056">
        <ele>124.6</ele>
        <time>2021-05-02T15:07:18Z</time>
      </trkpt>
      <trkpt lat="46.52665" lon="0.30558">
        <ele>125</ele>
        <time>2021-05-02T15:07:19Z</time>
      </trkpt>
      <trkpt lat="46.52664" lon="0.30554">
        <ele>125.4</ele>
        <time>2021-05-02T15:07:20Z</time>
      </trkpt>
      <trkpt lat="46.52664" lon="0.3055">
        <ele>125.6</ele>
        <time>2021-05-02T15:07:21Z</time>
      </trkpt>
      <trkpt lat="46.52664" lon="0.30538">
        <ele>125.6</ele>
        <time>2021-05-02T15:07:23Z</time>
      </trkpt>
      <trkpt lat="46.52662" lon="0.3052">
        <ele>125</ele>
        <time>2021-05-02T15:07:26Z</time>
      </trkpt>
      <trkpt lat="46.52661" lon="0.30505">
        <ele>124.8</ele>
        <time>2021-05-02T15:07:28Z</time>
      </trkpt>
      <trkpt lat="46.52659" lon="0.30466">
        <ele>124.4</ele>
        <time>2021-05-02T15:07:33Z</time>
      </trkpt>
      <trkpt lat="46.52658" lon="0.30448">
        <ele>123.4</ele>
        <time>2021-05-02T15:07:36Z</time>
      </trkpt>
      <trkpt lat="46.52657" lon="0.30442">
        <ele>123.2</ele>
        <time>2021-05-02T15:07:37Z</time>
      </trkpt>
      <trkpt lat="46.52658" lon="0.30436">
        <ele>123.2</ele>
        <time>2021-05-02T15:07:38Z</time>
      </trkpt>
      <trkpt lat="46.52658" lon="0.30396">
        <ele>122.6</ele>
        <time>2021-05-02T15:07:44Z</time>
      </trkpt>
      <trkpt lat="46.52657" lon="0.30389">
        <ele>122.4</ele>
        <time>2021-05-02T15:07:45Z</time>
      </trkpt>
      <trkpt lat="46.52657" lon="0.30383">
        <ele>122.2</ele>
        <time>2021-05-02T15:07:46Z</time>
      </trkpt>
      <trkpt lat="46.52656" lon="0.30372">
        <ele>122</ele>
        <time>2021-05-02T15:07:48Z</time>
      </trkpt>
      <trkpt lat="46.52655" lon="0.30365">
        <ele>121.8</ele>
        <time>2021-05-02T15:07:49Z</time>
      </trkpt>
      <trkpt lat="46.52651" lon="0.30353">
        <ele>121.4</ele>
        <time>2021-05-02T15:07:51Z</time>
      </trkpt>
      <trkpt lat="46.52644" lon="0.30337">
        <ele>121.2</ele>
        <time>2021-05-02T15:07:53Z</time>
      </trkpt>
      <trkpt lat="46.52639" lon="0.3033">
        <ele>120.8</ele>
        <time>2021-05-02T15:07:54Z</time>
      </trkpt>
      <trkpt lat="46.52632" lon="0.30321">
        <ele>120.4</ele>
        <time>2021-05-02T15:07:56Z</time>
      </trkpt>
      <trkpt lat="46.52627" lon="0.3031">
        <ele>119.8</ele>
        <time>2021-05-02T15:07:58Z</time>
      </trkpt>
      <trkpt lat="46.52626" lon="0.30306">
        <ele>119.4</ele>
        <time>2021-05-02T15:07:59Z</time>
      </trkpt>
      <trkpt lat="46.52625" lon="0.303">
        <ele>119</ele>
        <time>2021-05-02T15:08:00Z</time>
      </trkpt>
      <trkpt lat="46.52621" lon="0.30288">
        <ele>118.4</ele>
        <time>2021-05-02T15:08:02Z</time>
      </trkpt>
      <trkpt lat="46.52619" lon="0.30284">
        <ele>118.2</ele>
        <time>2021-05-02T15:08:03Z</time>
      </trkpt>
      <trkpt lat="46.52614" lon="0.30274">
        <ele>117.4</ele>
        <time>2021-05-02T15:08:05Z</time>
      </trkpt>
      <trkpt lat="46.52612" lon="0.30271">
        <ele>116.2</ele>
        <time>2021-05-02T15:08:06Z</time>
      </trkpt>
      <trkpt lat="46.52612" lon="0.30271">
        <ele>115</ele>
        <time>2021-05-02T15:08:08Z</time>
      </trkpt>
      <trkpt lat="46.52609" lon="0.30261">
        <ele>114.6</ele>
        <time>2021-05-02T15:08:09Z</time>
      </trkpt>
      <trkpt lat="46.52608" lon="0.30257">
        <ele>114.4</ele>
        <time>2021-05-02T15:08:10Z</time>
      </trkpt>
      <trkpt lat="46.52606" lon="0.30253">
        <ele>113.6</ele>
        <time>2021-05-02T15:08:11Z</time>
      </trkpt>
      <trkpt lat="46.52604" lon="0.3025">
        <ele>112.4</ele>
        <time>2021-05-02T15:08:12Z</time>
      </trkpt>
      <trkpt lat="46.52602" lon="0.30245">
        <ele>110.4</ele>
        <time>2021-05-02T15:08:13Z</time>
      </trkpt>
      <trkpt lat="46.52601" lon="0.30241">
        <ele>109.2</ele>
        <time>2021-05-02T15:08:14Z</time>
      </trkpt>
      <trkpt lat="46.52598" lon="0.30236">
        <ele>107.8</ele>
        <time>2021-05-02T15:08:15Z</time>
      </trkpt>
      <trkpt lat="46.52596" lon="0.30233">
        <ele>106.4</ele>
        <time>2021-05-02T15:08:16Z</time>
      </trkpt>
      <trkpt lat="46.52593" lon="0.3023">
        <ele>104.8</ele>
        <time>2021-05-02T15:08:17Z</time>
      </trkpt>
      <trkpt lat="46.5259" lon="0.30228">
        <ele>103.6</ele>
        <time>2021-05-02T15:08:18Z</time>
      </trkpt>
      <trkpt lat="46.52583" lon="0.30226">
        <ele>102</ele>
        <time>2021-05-02T15:08:20Z</time>
      </trkpt>
      <trkpt lat="46.52573" lon="0.30221">
        <ele>101.6</ele>
        <time>2021-05-02T15:08:22Z</time>
      </trkpt>
      <trkpt lat="46.52552" lon="0.30214">
        <ele>101.8</ele>
        <time>2021-05-02T15:08:28Z</time>
      </trkpt>
      <trkpt lat="46.52536" lon="0.30206">
        <ele>102.6</ele>
        <time>2021-05-02T15:08:34Z</time>
      </trkpt>
      <trkpt lat="46.52535" lon="0.30205">
        <ele>103.4</ele>
        <time>2021-05-02T15:08:38Z</time>
      </trkpt>
      <trkpt lat="46.52535" lon="0.30204">
        <ele>103.4</ele>
        <time>2021-05-02T15:08:42Z</time>
      </trkpt>
      <trkpt lat="46.52538" lon="0.30201">
        <ele>103.4</ele>
        <time>2021-05-02T15:08:52Z</time>
      </trkpt>
      <trkpt lat="46.52548" lon="0.30194">
        <ele>102.8</ele>
        <time>2021-05-02T15:08:58Z</time>
      </trkpt>
      <trkpt lat="46.52552" lon="0.30191">
        <ele>102.2</ele>
        <time>2021-05-02T15:09:01Z</time>
      </trkpt>
      <trkpt lat="46.52556" lon="0.30186">
        <ele>102</ele>
        <time>2021-05-02T15:09:03Z</time>
      </trkpt>
      <trkpt lat="46.52567" lon="0.30176">
        <ele>101.8</ele>
        <time>2021-05-02T15:09:07Z</time>
      </trkpt>
      <trkpt lat="46.52568" lon="0.30173">
        <ele>101.6</ele>
        <time>2021-05-02T15:09:08Z</time>
      </trkpt>
      <trkpt lat="46.52569" lon="0.30165">
        <ele>101</ele>
        <time>2021-05-02T15:09:11Z</time>
      </trkpt>
      <trkpt lat="46.52568" lon="0.30161">
        <ele>100.4</ele>
        <time>2021-05-02T15:09:13Z</time>
      </trkpt>
      <trkpt lat="46.52566" lon="0.3016">
        <ele>100.2</ele>
        <time>2021-05-02T15:09:14Z</time>
      </trkpt>
      <trkpt lat="46.52563" lon="0.30159">
        <ele>100</ele>
        <time>2021-05-02T15:09:16Z</time>
      </trkpt>
      <trkpt lat="46.5256" lon="0.30157">
        <ele>99.8</ele>
        <time>2021-05-02T15:09:17Z</time>
      </trkpt>
      <trkpt lat="46.52549" lon="0.30159">
        <ele>100.6</ele>
        <time>2021-05-02T15:09:23Z</time>
      </trkpt>
      <trkpt lat="46.52543" lon="0.30163">
        <ele>101</ele>
        <time>2021-05-02T15:09:27Z</time>
      </trkpt>
      <trkpt lat="46.52539" lon="0.30164">
        <ele>101.8</ele>
        <time>2021-05-02T15:09:30Z</time>
      </trkpt>
      <trkpt lat="46.52534" lon="0.30167">
        <ele>102.2</ele>
        <time>2021-05-02T15:09:33Z</time>
      </trkpt>
      <trkpt lat="46.52529" lon="0.3017">
        <ele>103.2</ele>
        <time>2021-05-02T15:09:37Z</time>
      </trkpt>
      <trkpt lat="46.52528" lon="0.30171">
        <ele>103.4</ele>
        <time>2021-05-02T15:09:38Z</time>
      </trkpt>
      <trkpt lat="46.52525" lon="0.30174">
        <ele>104.6</ele>
        <time>2021-05-02T15:09:41Z</time>
      </trkpt>
      <trkpt lat="46.52524" lon="0.30174">
        <ele>105.2</ele>
        <time>2021-05-02T15:09:43Z</time>
      </trkpt>
      <trkpt lat="46.52523" lon="0.30174">
        <ele>105.4</ele>
        <time>2021-05-02T15:09:45Z</time>
      </trkpt>
      <trkpt lat="46.52519" lon="0.30181">
        <ele>103.8</ele>
        <time>2021-05-02T15:09:56Z</time>
      </trkpt>
      <trkpt lat="46.52519" lon="0.30181">
        <ele>103.4</ele>
        <time>2021-05-02T15:09:57Z</time>
      </trkpt>
      <trkpt lat="46.52517" lon="0.3019">
        <ele>103.4</ele>
        <time>2021-05-02T15:10:09Z</time>
      </trkpt>
      <trkpt lat="46.52514" lon="0.30194">
        <ele>103.8</ele>
        <time>2021-05-02T15:10:22Z</time>
      </trkpt>
      <trkpt lat="46.52511" lon="0.30193">
        <ele>104</ele>
        <time>2021-05-02T15:10:37Z</time>
      </trkpt>
      <trkpt lat="46.52509" lon="0.30197">
        <ele>103.8</ele>
        <time>2021-05-02T15:10:47Z</time>
      </trkpt>
      <trkpt lat="46.52502" lon="0.30201">
        <ele>104.4</ele>
        <time>2021-05-02T15:10:53Z</time>
      </trkpt>
      <trkpt lat="46.52495" lon="0.30208">
        <ele>105.4</ele>
        <time>2021-05-02T15:11:00Z</time>
      </trkpt>
      <trkpt lat="46.52494" lon="0.3021">
        <ele>105.6</ele>
        <time>2021-05-02T15:11:01Z</time>
      </trkpt>
      <trkpt lat="46.52487" lon="0.30216">
        <ele>106.6</ele>
        <time>2021-05-02T15:11:07Z</time>
      </trkpt>
      <trkpt lat="46.52479" lon="0.30225">
        <ele>107.4</ele>
        <time>2021-05-02T15:11:14Z</time>
      </trkpt>
      <trkpt lat="46.52478" lon="0.3023">
        <ele>107.6</ele>
        <time>2021-05-02T15:11:17Z</time>
      </trkpt>
      <trkpt lat="46.5248" lon="0.30232">
        <ele>108</ele>
        <time>2021-05-02T15:11:19Z</time>
      </trkpt>
      <trkpt lat="46.52481" lon="0.30233">
        <ele>108</ele>
        <time>2021-05-02T15:11:20Z</time>
      </trkpt>
      <trkpt lat="46.52483" lon="0.30234">
        <ele>108.4</ele>
        <time>2021-05-02T15:11:22Z</time>
      </trkpt>
      <trkpt lat="46.52485" lon="0.30234">
        <ele>108.8</ele>
        <time>2021-05-02T15:11:24Z</time>
      </trkpt>
      <trkpt lat="46.52489" lon="0.30236">
        <ele>110.2</ele>
        <time>2021-05-02T15:11:28Z</time>
      </trkpt>
      <trkpt lat="46.52493" lon="0.30237">
        <ele>111.2</ele>
        <time>2021-05-02T15:11:32Z</time>
      </trkpt>
      <trkpt lat="46.52497" lon="0.30237">
        <ele>112.4</ele>
        <time>2021-05-02T15:11:36Z</time>
      </trkpt>
      <trkpt lat="46.52501" lon="0.30236">
        <ele>113.6</ele>
        <time>2021-05-02T15:11:39Z</time>
      </trkpt>
      <trkpt lat="46.52509" lon="0.30237">
        <ele>114.6</ele>
        <time>2021-05-02T15:11:43Z</time>
      </trkpt>
      <trkpt lat="46.52511" lon="0.30237">
        <ele>114.8</ele>
        <time>2021-05-02T15:11:44Z</time>
      </trkpt>
      <trkpt lat="46.52523" lon="0.30237">
        <ele>115.2</ele>
        <time>2021-05-02T15:11:50Z</time>
      </trkpt>
      <trkpt lat="46.52538" lon="0.30233">
        <ele>115.8</ele>
        <time>2021-05-02T15:11:57Z</time>
      </trkpt>
      <trkpt lat="46.52542" lon="0.30232">
        <ele>116</ele>
        <time>2021-05-02T15:11:59Z</time>
      </trkpt>
      <trkpt lat="46.52547" lon="0.30234">
        <ele>116.2</ele>
        <time>2021-05-02T15:12:01Z</time>
      </trkpt>
      <trkpt lat="46.52551" lon="0.30237">
        <ele>116.6</ele>
        <time>2021-05-02T15:12:03Z</time>
      </trkpt>
      <trkpt lat="46.52556" lon="0.30238">
        <ele>117.2</ele>
        <time>2021-05-02T15:12:05Z</time>
      </trkpt>
      <trkpt lat="46.52565" lon="0.30242">
        <ele>118.2</ele>
        <time>2021-05-02T15:12:09Z</time>
      </trkpt>
      <trkpt lat="46.52582" lon="0.30251">
        <ele>119</ele>
        <time>2021-05-02T15:12:17Z</time>
      </trkpt>
      <trkpt lat="46.52589" lon="0.30257">
        <ele>119.4</ele>
        <time>2021-05-02T15:12:21Z</time>
      </trkpt>
      <trkpt lat="46.52593" lon="0.3026">
        <ele>119.4</ele>
        <time>2021-05-02T15:12:23Z</time>
      </trkpt>
      <trkpt lat="46.52607" lon="0.3027">
        <ele>120</ele>
        <time>2021-05-02T15:12:28Z</time>
      </trkpt>
      <trkpt lat="46.52614" lon="0.3028">
        <ele>120.6</ele>
        <time>2021-05-02T15:12:31Z</time>
      </trkpt>
      <trkpt lat="46.52618" lon="0.30286">
        <ele>120.8</ele>
        <time>2021-05-02T15:12:33Z</time>
      </trkpt>
      <trkpt lat="46.52625" lon="0.30303">
        <ele>121.6</ele>
        <time>2021-05-02T15:12:38Z</time>
      </trkpt>
      <trkpt lat="46.52626" lon="0.30307">
        <ele>121.6</ele>
        <time>2021-05-02T15:12:39Z</time>
      </trkpt>
      <trkpt lat="46.52631" lon="0.30325">
        <ele>121.6</ele>
        <time>2021-05-02T15:12:43Z</time>
      </trkpt>
      <trkpt lat="46.52635" lon="0.30349">
        <ele>122.4</ele>
        <time>2021-05-02T15:12:49Z</time>
      </trkpt>
      <trkpt lat="46.52636" lon="0.30356">
        <ele>122.8</ele>
        <time>2021-05-02T15:12:51Z</time>
      </trkpt>
      <trkpt lat="46.52637" lon="0.30368">
        <ele>123.2</ele>
        <time>2021-05-02T15:12:54Z</time>
      </trkpt>
      <trkpt lat="46.52639" lon="0.30372">
        <ele>123.4</ele>
        <time>2021-05-02T15:12:55Z</time>
      </trkpt>
      <trkpt lat="46.52639" lon="0.30376">
        <ele>123.4</ele>
        <time>2021-05-02T15:12:56Z</time>
      </trkpt>
      <trkpt lat="46.52639" lon="0.30391">
        <ele>123.4</ele>
        <time>2021-05-02T15:13:00Z</time>
      </trkpt>
      <trkpt lat="46.52639" lon="0.30423">
        <ele>123.4</ele>
        <time>2021-05-02T15:13:06Z</time>
      </trkpt>
      <trkpt lat="46.52639" lon="0.30428">
        <ele>123.8</ele>
        <time>2021-05-02T15:13:07Z</time>
      </trkpt>
      <trkpt lat="46.52639" lon="0.30446">
        <ele>124.4</ele>
        <time>2021-05-02T15:13:11Z</time>
      </trkpt>
      <trkpt lat="46.52639" lon="0.30458">
        <ele>125</ele>
        <time>2021-05-02T15:13:14Z</time>
      </trkpt>
      <trkpt lat="46.52641" lon="0.3047">
        <ele>125.6</ele>
        <time>2021-05-02T15:13:17Z</time>
      </trkpt>
      <trkpt lat="46.52642" lon="0.30488">
        <ele>125.6</ele>
        <time>2021-05-02T15:13:20Z</time>
      </trkpt>
      <trkpt lat="46.52643" lon="0.30492">
        <ele>125.6</ele>
        <time>2021-05-02T15:13:21Z</time>
      </trkpt>
      <trkpt lat="46.52645" lon="0.30495">
        <ele>125.6</ele>
        <time>2021-05-02T15:13:22Z</time>
      </trkpt>
      <trkpt lat="46.52646" lon="0.305">
        <ele>125.4</ele>
        <time>2021-05-02T15:13:24Z</time>
      </trkpt>
      <trkpt lat="46.52647" lon="0.30504">
        <ele>125</ele>
        <time>2021-05-02T15:13:25Z</time>
      </trkpt>
      <trkpt lat="46.52649" lon="0.30513">
        <ele>124.8</ele>
        <time>2021-05-02T15:13:27Z</time>
      </trkpt>
      <trkpt lat="46.52653" lon="0.30524">
        <ele>124.8</ele>
        <time>2021-05-02T15:13:29Z</time>
      </trkpt>
      <trkpt lat="46.52656" lon="0.30545">
        <ele>125.2</ele>
        <time>2021-05-02T15:13:33Z</time>
      </trkpt>
      <trkpt lat="46.52656" lon="0.30551">
        <ele>125.4</ele>
        <time>2021-05-02T15:13:34Z</time>
      </trkpt>
      <trkpt lat="46.52656" lon="0.30564">
        <ele>125.8</ele>
        <time>2021-05-02T15:13:36Z</time>
      </trkpt>
      <trkpt lat="46.52656" lon="0.30574">
        <ele>126.2</ele>
        <time>2021-05-02T15:13:38Z</time>
      </trkpt>
      <trkpt lat="46.52656" lon="0.30579">
        <ele>126.4</ele>
        <time>2021-05-02T15:13:39Z</time>
      </trkpt>
      <trkpt lat="46.52657" lon="0.30586">
        <ele>126.6</ele>
        <time>2021-05-02T15:13:40Z</time>
      </trkpt>
      <trkpt lat="46.52662" lon="0.30606">
        <ele>127</ele>
        <time>2021-05-02T15:13:43Z</time>
      </trkpt>
      <trkpt lat="46.52665" lon="0.30612">
        <ele>127</ele>
        <time>2021-05-02T15:13:44Z</time>
      </trkpt>
      <trkpt lat="46.52666" lon="0.30616">
        <ele>126.2</ele>
        <time>2021-05-02T15:13:45Z</time>
      </trkpt>
      <trkpt lat="46.52671" lon="0.30633">
        <ele>125.4</ele>
        <time>2021-05-02T15:13:48Z</time>
      </trkpt>
      <trkpt lat="46.52672" lon="0.30638">
        <ele>125.4</ele>
        <time>2021-05-02T15:13:49Z</time>
      </trkpt>
      <trkpt lat="46.52673" lon="0.30643">
        <ele>125.2</ele>
        <time>2021-05-02T15:13:50Z</time>
      </trkpt>
      <trkpt lat="46.52675" lon="0.30652">
        <ele>125.2</ele>
        <time>2021-05-02T15:13:52Z</time>
      </trkpt>
      <trkpt lat="46.52677" lon="0.30664">
        <ele>125</ele>
        <time>2021-05-02T15:13:53Z</time>
      </trkpt>
      <trkpt lat="46.52677" lon="0.30664">
        <ele>125</ele>
        <time>2021-05-02T15:13:54Z</time>
      </trkpt>
      <trkpt lat="46.52685" lon="0.30689">
        <ele>124.8</ele>
        <time>2021-05-02T15:13:58Z</time>
      </trkpt>
      <trkpt lat="46.52689" lon="0.30699">
        <ele>124.8</ele>
        <time>2021-05-02T15:14:00Z</time>
      </trkpt>
      <trkpt lat="46.52691" lon="0.30704">
        <ele>124.8</ele>
        <time>2021-05-02T15:14:01Z</time>
      </trkpt>
      <trkpt lat="46.52697" lon="0.30723">
        <ele>125</ele>
        <time>2021-05-02T15:14:04Z</time>
      </trkpt>
      <trkpt lat="46.52699" lon="0.30727">
        <ele>124.6</ele>
        <time>2021-05-02T15:14:05Z</time>
      </trkpt>
      <trkpt lat="46.527" lon="0.30735">
        <ele>124</ele>
        <time>2021-05-02T15:14:07Z</time>
      </trkpt>
      <trkpt lat="46.52701" lon="0.30746">
        <ele>123.4</ele>
        <time>2021-05-02T15:14:09Z</time>
      </trkpt>
      <trkpt lat="46.52701" lon="0.30751">
        <ele>123.2</ele>
        <time>2021-05-02T15:14:10Z</time>
      </trkpt>
      <trkpt lat="46.527" lon="0.30757">
        <ele>123</ele>
        <time>2021-05-02T15:14:12Z</time>
      </trkpt>
      <trkpt lat="46.527" lon="0.30761">
        <ele>123</ele>
        <time>2021-05-02T15:14:13Z</time>
      </trkpt>
      <trkpt lat="46.52706" lon="0.30779">
        <ele>123</ele>
        <time>2021-05-02T15:14:17Z</time>
      </trkpt>
      <trkpt lat="46.52714" lon="0.30796">
        <ele>121.4</ele>
        <time>2021-05-02T15:14:20Z</time>
      </trkpt>
      <trkpt lat="46.52719" lon="0.30808">
        <ele>120.2</ele>
        <time>2021-05-02T15:14:22Z</time>
      </trkpt>
      <trkpt lat="46.52722" lon="0.30815">
        <ele>119</ele>
        <time>2021-05-02T15:14:23Z</time>
      </trkpt>
      <trkpt lat="46.52725" lon="0.30822">
        <ele>118.2</ele>
        <time>2021-05-02T15:14:24Z</time>
      </trkpt>
      <trkpt lat="46.52729" lon="0.3083">
        <ele>117.4</ele>
        <time>2021-05-02T15:14:25Z</time>
      </trkpt>
      <trkpt lat="46.52732" lon="0.3084">
        <ele>116.8</ele>
        <time>2021-05-02T15:14:26Z</time>
      </trkpt>
      <trkpt lat="46.52734" lon="0.30848">
        <ele>115.4</ele>
        <time>2021-05-02T15:14:27Z</time>
      </trkpt>
      <trkpt lat="46.52737" lon="0.30856">
        <ele>114.6</ele>
        <time>2021-05-02T15:14:28Z</time>
      </trkpt>
      <trkpt lat="46.52739" lon="0.30862">
        <ele>114</ele>
        <time>2021-05-02T15:14:29Z</time>
      </trkpt>
      <trkpt lat="46.52741" lon="0.30868">
        <ele>113.6</ele>
        <time>2021-05-02T15:14:30Z</time>
      </trkpt>
      <trkpt lat="46.52743" lon="0.30873">
        <ele>113</ele>
        <time>2021-05-02T15:14:31Z</time>
      </trkpt>
      <trkpt lat="46.52746" lon="0.30884">
        <ele>112</ele>
        <time>2021-05-02T15:14:33Z</time>
      </trkpt>
      <trkpt lat="46.52751" lon="0.309">
        <ele>110.8</ele>
        <time>2021-05-02T15:14:36Z</time>
      </trkpt>
      <trkpt lat="46.52754" lon="0.30912">
        <ele>109.8</ele>
        <time>2021-05-02T15:14:38Z</time>
      </trkpt>
      <trkpt lat="46.52756" lon="0.30924">
        <ele>108.4</ele>
        <time>2021-05-02T15:14:41Z</time>
      </trkpt>
      <trkpt lat="46.52759" lon="0.30933">
        <ele>107</ele>
        <time>2021-05-02T15:14:43Z</time>
      </trkpt>
      <trkpt lat="46.52765" lon="0.30948">
        <ele>105.8</ele>
        <time>2021-05-02T15:14:46Z</time>
      </trkpt>
      <trkpt lat="46.52767" lon="0.3096">
        <ele>104.6</ele>
        <time>2021-05-02T15:14:48Z</time>
      </trkpt>
      <trkpt lat="46.52769" lon="0.30965">
        <ele>104.4</ele>
        <time>2021-05-02T15:14:49Z</time>
      </trkpt>
      <trkpt lat="46.52775" lon="0.30977">
        <ele>103.4</ele>
        <time>2021-05-02T15:14:51Z</time>
      </trkpt>
      <trkpt lat="46.52779" lon="0.30986">
        <ele>102</ele>
        <time>2021-05-02T15:14:53Z</time>
      </trkpt>
      <trkpt lat="46.52781" lon="0.30991">
        <ele>101.2</ele>
        <time>2021-05-02T15:14:54Z</time>
      </trkpt>
      <trkpt lat="46.52782" lon="0.30997">
        <ele>100.8</ele>
        <time>2021-05-02T15:14:55Z</time>
      </trkpt>
      <trkpt lat="46.52789" lon="0.31016">
        <ele>99.8</ele>
        <time>2021-05-02T15:14:58Z</time>
      </trkpt>
      <trkpt lat="46.52797" lon="0.31036">
        <ele>98</ele>
        <time>2021-05-02T15:15:01Z</time>
      </trkpt>
      <trkpt lat="46.52804" lon="0.31055">
        <ele>97.2</ele>
        <time>2021-05-02T15:15:04Z</time>
      </trkpt>
      <trkpt lat="46.5281" lon="0.31066">
        <ele>97.2</ele>
        <time>2021-05-02T15:15:06Z</time>
      </trkpt>
      <trkpt lat="46.52813" lon="0.31072">
        <ele>97</ele>
        <time>2021-05-02T15:15:07Z</time>
      </trkpt>
      <trkpt lat="46.52816" lon="0.31079">
        <ele>96.2</ele>
        <time>2021-05-02T15:15:08Z</time>
      </trkpt>
      <trkpt lat="46.52822" lon="0.31092">
        <ele>95.4</ele>
        <time>2021-05-02T15:15:10Z</time>
      </trkpt>
      <trkpt lat="46.52825" lon="0.31098">
        <ele>95.2</ele>
        <time>2021-05-02T15:15:11Z</time>
      </trkpt>
      <trkpt lat="46.52828" lon="0.31105">
        <ele>95</ele>
        <time>2021-05-02T15:15:12Z</time>
      </trkpt>
      <trkpt lat="46.52831" lon="0.31111">
        <ele>94.8</ele>
        <time>2021-05-02T15:15:13Z</time>
      </trkpt>
      <trkpt lat="46.52838" lon="0.31123">
        <ele>94</ele>
        <time>2021-05-02T15:15:15Z</time>
      </trkpt>
      <trkpt lat="46.52846" lon="0.31132">
        <ele>93.2</ele>
        <time>2021-05-02T15:15:17Z</time>
      </trkpt>
      <trkpt lat="46.52848" lon="0.31136">
        <ele>92.6</ele>
        <time>2021-05-02T15:15:18Z</time>
      </trkpt>
      <trkpt lat="46.52869" lon="0.31168">
        <ele>91.8</ele>
        <time>2021-05-02T15:15:24Z</time>
      </trkpt>
      <trkpt lat="46.5288" lon="0.31186">
        <ele>91.4</ele>
        <time>2021-05-02T15:15:28Z</time>
      </trkpt>
      <trkpt lat="46.52885" lon="0.31195">
        <ele>91</ele>
        <time>2021-05-02T15:15:31Z</time>
      </trkpt>
      <trkpt lat="46.52888" lon="0.31204">
        <ele>91</ele>
        <time>2021-05-02T15:15:34Z</time>
      </trkpt>
      <trkpt lat="46.52888" lon="0.31212">
        <ele>91.4</ele>
        <time>2021-05-02T15:15:37Z</time>
      </trkpt>
      <trkpt lat="46.52888" lon="0.31218">
        <ele>92.4</ele>
        <time>2021-05-02T15:15:40Z</time>
      </trkpt>
      <trkpt lat="46.52888" lon="0.31221">
        <ele>93</ele>
        <time>2021-05-02T15:15:42Z</time>
      </trkpt>
      <trkpt lat="46.52888" lon="0.31223">
        <ele>93.4</ele>
        <time>2021-05-02T15:15:43Z</time>
      </trkpt>
      <trkpt lat="46.52889" lon="0.31225">
        <ele>93.6</ele>
        <time>2021-05-02T15:15:44Z</time>
      </trkpt>
      <trkpt lat="46.52891" lon="0.31231">
        <ele>94.6</ele>
        <time>2021-05-02T15:15:50Z</time>
      </trkpt>
      <trkpt lat="46.52891" lon="0.31232">
        <ele>94.8</ele>
        <time>2021-05-02T15:15:51Z</time>
      </trkpt>
      <trkpt lat="46.52892" lon="0.31234">
        <ele>95</ele>
        <time>2021-05-02T15:15:53Z</time>
      </trkpt>
      <trkpt lat="46.52896" lon="0.31236">
        <ele>95.4</ele>
        <time>2021-05-02T15:16:04Z</time>
      </trkpt>
      <trkpt lat="46.52897" lon="0.31239">
        <ele>95.8</ele>
        <time>2021-05-02T15:16:07Z</time>
      </trkpt>
      <trkpt lat="46.52898" lon="0.3124">
        <ele>95.8</ele>
        <time>2021-05-02T15:16:08Z</time>
      </trkpt>
      <trkpt lat="46.52899" lon="0.31242">
        <ele>96.2</ele>
        <time>2021-05-02T15:16:09Z</time>
      </trkpt>
      <trkpt lat="46.529" lon="0.31244">
        <ele>97.2</ele>
        <time>2021-05-02T15:16:11Z</time>
      </trkpt>
      <trkpt lat="46.52901" lon="0.31248">
        <ele>98.6</ele>
        <time>2021-05-02T15:16:14Z</time>
      </trkpt>
      <trkpt lat="46.52904" lon="0.31258">
        <ele>99.6</ele>
        <time>2021-05-02T15:16:20Z</time>
      </trkpt>
      <trkpt lat="46.52905" lon="0.31263">
        <ele>100.8</ele>
        <time>2021-05-02T15:16:23Z</time>
      </trkpt>
      <trkpt lat="46.52905" lon="0.31264">
        <ele>101</ele>
        <time>2021-05-02T15:16:24Z</time>
      </trkpt>
      <trkpt lat="46.52907" lon="0.31272">
        <ele>101.8</ele>
        <time>2021-05-02T15:16:28Z</time>
      </trkpt>
      <trkpt lat="46.5291" lon="0.31279">
        <ele>103</ele>
        <time>2021-05-02T15:16:33Z</time>
      </trkpt>
      <trkpt lat="46.52912" lon="0.31284">
        <ele>103.6</ele>
        <time>2021-05-02T15:16:36Z</time>
      </trkpt>
      <trkpt lat="46.52914" lon="0.31287">
        <ele>104</ele>
        <time>2021-05-02T15:16:38Z</time>
      </trkpt>
      <trkpt lat="46.52918" lon="0.31297">
        <ele>105.4</ele>
        <time>2021-05-02T15:16:43Z</time>
      </trkpt>
      <trkpt lat="46.52921" lon="0.31307">
        <ele>106.4</ele>
        <time>2021-05-02T15:16:48Z</time>
      </trkpt>
      <trkpt lat="46.52923" lon="0.31316">
        <ele>107.4</ele>
        <time>2021-05-02T15:16:53Z</time>
      </trkpt>
      <trkpt lat="46.52926" lon="0.31322">
        <ele>108.6</ele>
        <time>2021-05-02T15:16:57Z</time>
      </trkpt>
      <trkpt lat="46.52926" lon="0.31328">
        <ele>109.6</ele>
        <time>2021-05-02T15:17:02Z</time>
      </trkpt>
      <trkpt lat="46.5293" lon="0.31345">
        <ele>110.8</ele>
        <time>2021-05-02T15:17:13Z</time>
      </trkpt>
      <trkpt lat="46.52931" lon="0.31349">
        <ele>110.8</ele>
        <time>2021-05-02T15:17:15Z</time>
      </trkpt>
      <trkpt lat="46.52937" lon="0.31372">
        <ele>111.6</ele>
        <time>2021-05-02T15:17:24Z</time>
      </trkpt>
      <trkpt lat="46.52938" lon="0.31376">
        <ele>111.8</ele>
        <time>2021-05-02T15:17:26Z</time>
      </trkpt>
      <trkpt lat="46.52939" lon="0.31384">
        <ele>112.8</ele>
        <time>2021-05-02T15:17:30Z</time>
      </trkpt>
      <trkpt lat="46.52939" lon="0.31388">
        <ele>113.8</ele>
        <time>2021-05-02T15:17:32Z</time>
      </trkpt>
      <trkpt lat="46.5294" lon="0.3139">
        <ele>114</ele>
        <time>2021-05-02T15:17:33Z</time>
      </trkpt>
      <trkpt lat="46.52942" lon="0.31403">
        <ele>115.2</ele>
        <time>2021-05-02T15:17:39Z</time>
      </trkpt>
      <trkpt lat="46.52945" lon="0.31412">
        <ele>116</ele>
        <time>2021-05-02T15:17:44Z</time>
      </trkpt>
      <trkpt lat="46.52947" lon="0.31419">
        <ele>116.4</ele>
        <time>2021-05-02T15:17:48Z</time>
      </trkpt>
      <trkpt lat="46.52947" lon="0.31433">
        <ele>117.2</ele>
        <time>2021-05-02T15:17:55Z</time>
      </trkpt>
      <trkpt lat="46.52947" lon="0.31434">
        <ele>117.2</ele>
        <time>2021-05-02T15:17:56Z</time>
      </trkpt>
      <trkpt lat="46.52946" lon="0.31435">
        <ele>117.6</ele>
        <time>2021-05-02T15:17:57Z</time>
      </trkpt>
      <trkpt lat="46.52945" lon="0.31435">
        <ele>117.6</ele>
        <time>2021-05-02T15:17:58Z</time>
      </trkpt>
      <trkpt lat="46.52942" lon="0.31436">
        <ele>118.6</ele>
        <time>2021-05-02T15:18:02Z</time>
      </trkpt>
      <trkpt lat="46.52942" lon="0.31436">
        <ele>119.2</ele>
        <time>2021-05-02T15:18:03Z</time>
      </trkpt>
      <trkpt lat="46.52941" lon="0.31434">
        <ele>120.4</ele>
        <time>2021-05-02T15:18:07Z</time>
      </trkpt>
      <trkpt lat="46.52939" lon="0.31433">
        <ele>120.6</ele>
        <time>2021-05-02T15:18:09Z</time>
      </trkpt>
      <trkpt lat="46.52937" lon="0.31429">
        <ele>120.8</ele>
        <time>2021-05-02T15:18:11Z</time>
      </trkpt>
      <trkpt lat="46.52932" lon="0.31425">
        <ele>121.6</ele>
        <time>2021-05-02T15:18:16Z</time>
      </trkpt>
      <trkpt lat="46.52926" lon="0.31416">
        <ele>122.6</ele>
        <time>2021-05-02T15:18:22Z</time>
      </trkpt>
      <trkpt lat="46.52924" lon="0.31413">
        <ele>122.8</ele>
        <time>2021-05-02T15:18:24Z</time>
      </trkpt>
      <trkpt lat="46.5292" lon="0.31404">
        <ele>123</ele>
        <time>2021-05-02T15:18:28Z</time>
      </trkpt>
      <trkpt lat="46.5292" lon="0.314">
        <ele>123</ele>
        <time>2021-05-02T15:18:30Z</time>
      </trkpt>
      <trkpt lat="46.52918" lon="0.31396">
        <ele>123</ele>
        <time>2021-05-02T15:18:31Z</time>
      </trkpt>
      <trkpt lat="46.52917" lon="0.31394">
        <ele>123.2</ele>
        <time>2021-05-02T15:18:32Z</time>
      </trkpt>
      <trkpt lat="46.52909" lon="0.31383">
        <ele>123.4</ele>
        <time>2021-05-02T15:18:36Z</time>
      </trkpt>
      <trkpt lat="46.52902" lon="0.31371">
        <ele>123.8</ele>
        <time>2021-05-02T15:18:40Z</time>
      </trkpt>
      <trkpt lat="46.529" lon="0.31368">
        <ele>123.8</ele>
        <time>2021-05-02T15:18:41Z</time>
      </trkpt>
      <trkpt lat="46.5289" lon="0.31346">
        <ele>123.6</ele>
        <time>2021-05-02T15:18:47Z</time>
      </trkpt>
      <trkpt lat="46.52888" lon="0.31338">
        <ele>123.4</ele>
        <time>2021-05-02T15:18:49Z</time>
      </trkpt>
      <trkpt lat="46.52882" lon="0.31323">
        <ele>122.8</ele>
        <time>2021-05-02T15:18:52Z</time>
      </trkpt>
      <trkpt lat="46.52881" lon="0.31319">
        <ele>122.6</ele>
        <time>2021-05-02T15:18:53Z</time>
      </trkpt>
      <trkpt lat="46.52879" lon="0.31313">
        <ele>122</ele>
        <time>2021-05-02T15:18:56Z</time>
      </trkpt>
      <trkpt lat="46.52877" lon="0.31309">
        <ele>121.4</ele>
        <time>2021-05-02T15:18:58Z</time>
      </trkpt>
      <trkpt lat="46.52869" lon="0.31295">
        <ele>121</ele>
        <time>2021-05-02T15:19:06Z</time>
      </trkpt>
      <trkpt lat="46.52866" lon="0.31283">
        <ele>120.4</ele>
        <time>2021-05-02T15:19:10Z</time>
      </trkpt>
      <trkpt lat="46.52865" lon="0.31278">
        <ele>119</ele>
        <time>2021-05-02T15:19:12Z</time>
      </trkpt>
      <trkpt lat="46.52865" lon="0.31275">
        <ele>117.4</ele>
        <time>2021-05-02T15:19:13Z</time>
      </trkpt>
      <trkpt lat="46.52865" lon="0.31272">
        <ele>116</ele>
        <time>2021-05-02T15:19:14Z</time>
      </trkpt>
      <trkpt lat="46.52865" lon="0.31269">
        <ele>114.4</ele>
        <time>2021-05-02T15:19:15Z</time>
      </trkpt>
      <trkpt lat="46.52865" lon="0.31266">
        <ele>113</ele>
        <time>2021-05-02T15:19:16Z</time>
      </trkpt>
      <trkpt lat="46.52866" lon="0.3126">
        <ele>110</ele>
        <time>2021-05-02T15:19:18Z</time>
      </trkpt>
      <trkpt lat="46.52868" lon="0.31258">
        <ele>108.4</ele>
        <time>2021-05-02T15:19:19Z</time>
      </trkpt>
      <trkpt lat="46.52869" lon="0.31256">
        <ele>106.8</ele>
        <time>2021-05-02T15:19:20Z</time>
      </trkpt>
      <trkpt lat="46.52871" lon="0.31254">
        <ele>104.6</ele>
        <time>2021-05-02T15:19:21Z</time>
      </trkpt>
      <trkpt lat="46.52872" lon="0.31253">
        <ele>103.4</ele>
        <time>2021-05-02T15:19:22Z</time>
      </trkpt>
      <trkpt lat="46.52873" lon="0.31251">
        <ele>102.2</ele>
        <time>2021-05-02T15:19:23Z</time>
      </trkpt>
      <trkpt lat="46.52874" lon="0.3125">
        <ele>101</ele>
        <time>2021-05-02T15:19:24Z</time>
      </trkpt>
      <trkpt lat="46.52875" lon="0.31248">
        <ele>100</ele>
        <time>2021-05-02T15:19:25Z</time>
      </trkpt>
      <trkpt lat="46.52875" lon="0.31246">
        <ele>98.6</ele>
        <time>2021-05-02T15:19:26Z</time>
      </trkpt>
      <trkpt lat="46.52876" lon="0.31241">
        <ele>97.4</ele>
        <time>2021-05-02T15:19:28Z</time>
      </trkpt>
      <trkpt lat="46.52875" lon="0.31235">
        <ele>96</ele>
        <time>2021-05-02T15:19:30Z</time>
      </trkpt>
      <trkpt lat="46.52876" lon="0.31232">
        <ele>95.2</ele>
        <time>2021-05-02T15:19:32Z</time>
      </trkpt>
      <trkpt lat="46.52879" lon="0.31231">
        <ele>95</ele>
        <time>2021-05-02T15:19:33Z</time>
      </trkpt>
      <trkpt lat="46.52885" lon="0.31228">
        <ele>93</ele>
        <time>2021-05-02T15:19:37Z</time>
      </trkpt>
      <trkpt lat="46.52887" lon="0.31227">
        <ele>91.8</ele>
        <time>2021-05-02T15:19:38Z</time>
      </trkpt>
      <trkpt lat="46.52891" lon="0.31226">
        <ele>90.6</ele>
        <time>2021-05-02T15:19:40Z</time>
      </trkpt>
      <trkpt lat="46.52897" lon="0.31227">
        <ele>90.2</ele>
        <time>2021-05-02T15:19:43Z</time>
      </trkpt>
      <trkpt lat="46.52898" lon="0.31227">
        <ele>90.2</ele>
        <time>2021-05-02T15:19:44Z</time>
      </trkpt>
      <trkpt lat="46.52904" lon="0.31226">
        <ele>89.8</ele>
        <time>2021-05-02T15:19:53Z</time>
      </trkpt>
      <trkpt lat="46.52904" lon="0.31226">
        <ele>89.6</ele>
        <time>2021-05-02T15:20:09Z</time>
      </trkpt>
      <trkpt lat="46.52904" lon="0.31226">
        <ele>89.6</ele>
        <time>2021-05-02T15:20:10Z</time>
      </trkpt>
      <trkpt lat="46.52907" lon="0.31223">
        <ele>89.8</ele>
        <time>2021-05-02T15:20:25Z</time>
      </trkpt>
      <trkpt lat="46.52907" lon="0.31223">
        <ele>90</ele>
        <time>2021-05-02T15:20:41Z</time>
      </trkpt>
      <trkpt lat="46.52907" lon="0.31224">
        <ele>90</ele>
        <time>2021-05-02T15:20:59Z</time>
      </trkpt>
      <trkpt lat="46.52901" lon="0.31225">
        <ele>90</ele>
        <time>2021-05-02T15:21:17Z</time>
      </trkpt>
      <trkpt lat="46.52901" lon="0.31226">
        <ele>90</ele>
        <time>2021-05-02T15:21:34Z</time>
      </trkpt>
      <trkpt lat="46.52902" lon="0.3123">
        <ele>90</ele>
        <time>2021-05-02T15:21:51Z</time>
      </trkpt>
      <trkpt lat="46.52906" lon="0.31229">
        <ele>90</ele>
        <time>2021-05-02T15:22:11Z</time>
      </trkpt>
      <trkpt lat="46.52906" lon="0.31229">
        <ele>90</ele>
        <time>2021-05-02T15:22:12Z</time>
      </trkpt>
      <trkpt lat="46.52908" lon="0.31228">
        <ele>90</ele>
        <time>2021-05-02T15:25:42Z</time>
      </trkpt>
      <trkpt lat="46.52909" lon="0.31231">
        <ele>90</ele>
        <time>2021-05-02T15:25:51Z</time>
      </trkpt>
      <trkpt lat="46.52916" lon="0.31245">
        <ele>89.2</ele>
        <time>2021-05-02T15:26:00Z</time>
      </trkpt>
      <trkpt lat="46.5292" lon="0.3125">
        <ele>88.6</ele>
        <time>2021-05-02T15:26:03Z</time>
      </trkpt>
      <trkpt lat="46.52926" lon="0.31253">
        <ele>88.4</ele>
        <time>2021-05-02T15:26:06Z</time>
      </trkpt>
      <trkpt lat="46.52934" lon="0.31253">
        <ele>88.2</ele>
        <time>2021-05-02T15:26:12Z</time>
      </trkpt>
      <trkpt lat="46.52939" lon="0.31256">
        <ele>88.2</ele>
        <time>2021-05-02T15:26:13Z</time>
      </trkpt>
      <trkpt lat="46.52941" lon="0.31256">
        <ele>88.2</ele>
        <time>2021-05-02T15:26:14Z</time>
      </trkpt>
      <trkpt lat="46.5295" lon="0.31255">
        <ele>88.4</ele>
        <time>2021-05-02T15:26:17Z</time>
      </trkpt>
      <trkpt lat="46.52954" lon="0.31251">
        <ele>88.6</ele>
        <time>2021-05-02T15:26:19Z</time>
      </trkpt>
      <trkpt lat="46.52957" lon="0.31249">
        <ele>88.8</ele>
        <time>2021-05-02T15:26:23Z</time>
      </trkpt>
      <trkpt lat="46.52963" lon="0.31249">
        <ele>88.8</ele>
        <time>2021-05-02T15:26:29Z</time>
      </trkpt>
      <trkpt lat="46.52969" lon="0.31247">
        <ele>89</ele>
        <time>2021-05-02T15:26:32Z</time>
      </trkpt>
      <trkpt lat="46.52981" lon="0.31236">
        <ele>89.8</ele>
        <time>2021-05-02T15:26:38Z</time>
      </trkpt>
      <trkpt lat="46.5299" lon="0.31227">
        <ele>90.6</ele>
        <time>2021-05-02T15:26:43Z</time>
      </trkpt>
      <trkpt lat="46.52995" lon="0.31221">
        <ele>90.8</ele>
        <time>2021-05-02T15:26:46Z</time>
      </trkpt>
      <trkpt lat="46.53" lon="0.31212">
        <ele>91.4</ele>
        <time>2021-05-02T15:26:50Z</time>
      </trkpt>
      <trkpt lat="46.53003" lon="0.31204">
        <ele>92</ele>
        <time>2021-05-02T15:26:53Z</time>
      </trkpt>
      <trkpt lat="46.53006" lon="0.31194">
        <ele>92.4</ele>
        <time>2021-05-02T15:26:56Z</time>
      </trkpt>
      <trkpt lat="46.53011" lon="0.31178">
        <ele>93</ele>
        <time>2021-05-02T15:27:01Z</time>
      </trkpt>
      <trkpt lat="46.53012" lon="0.31174">
        <ele>93</ele>
        <time>2021-05-02T15:27:02Z</time>
      </trkpt>
      <trkpt lat="46.53023" lon="0.31157">
        <ele>94</ele>
        <time>2021-05-02T15:27:09Z</time>
      </trkpt>
      <trkpt lat="46.53033" lon="0.31141">
        <ele>94.6</ele>
        <time>2021-05-02T15:27:17Z</time>
      </trkpt>
      <trkpt lat="46.53036" lon="0.31133">
        <ele>95</ele>
        <time>2021-05-02T15:27:20Z</time>
      </trkpt>
      <trkpt lat="46.53042" lon="0.31122">
        <ele>95.6</ele>
        <time>2021-05-02T15:27:25Z</time>
      </trkpt>
      <trkpt lat="46.53048" lon="0.31114">
        <ele>96.2</ele>
        <time>2021-05-02T15:27:29Z</time>
      </trkpt>
      <trkpt lat="46.53051" lon="0.31111">
        <ele>96.6</ele>
        <time>2021-05-02T15:27:31Z</time>
      </trkpt>
      <trkpt lat="46.53055" lon="0.31108">
        <ele>96.8</ele>
        <time>2021-05-02T15:27:33Z</time>
      </trkpt>
      <trkpt lat="46.53059" lon="0.31105">
        <ele>97.2</ele>
        <time>2021-05-02T15:27:35Z</time>
      </trkpt>
      <trkpt lat="46.5306" lon="0.31104">
        <ele>97.4</ele>
        <time>2021-05-02T15:27:36Z</time>
      </trkpt>
      <trkpt lat="46.53064" lon="0.311">
        <ele>98.2</ele>
        <time>2021-05-02T15:27:39Z</time>
      </trkpt>
      <trkpt lat="46.53069" lon="0.31094">
        <ele>98.8</ele>
        <time>2021-05-02T15:27:42Z</time>
      </trkpt>
      <trkpt lat="46.53076" lon="0.31088">
        <ele>99.4</ele>
        <time>2021-05-02T15:27:46Z</time>
      </trkpt>
      <trkpt lat="46.5308" lon="0.31084">
        <ele>100</ele>
        <time>2021-05-02T15:27:49Z</time>
      </trkpt>
      <trkpt lat="46.53083" lon="0.31081">
        <ele>100.4</ele>
        <time>2021-05-02T15:27:51Z</time>
      </trkpt>
      <trkpt lat="46.5309" lon="0.31074">
        <ele>101</ele>
        <time>2021-05-02T15:27:56Z</time>
      </trkpt>
      <trkpt lat="46.53091" lon="0.31072">
        <ele>101</ele>
        <time>2021-05-02T15:27:57Z</time>
      </trkpt>
      <trkpt lat="46.53095" lon="0.31068">
        <ele>101.4</ele>
        <time>2021-05-02T15:28:00Z</time>
      </trkpt>
      <trkpt lat="46.53096" lon="0.31066">
        <ele>101.6</ele>
        <time>2021-05-02T15:28:01Z</time>
      </trkpt>
      <trkpt lat="46.53104" lon="0.31055">
        <ele>102.4</ele>
        <time>2021-05-02T15:28:07Z</time>
      </trkpt>
      <trkpt lat="46.53106" lon="0.31052">
        <ele>102.6</ele>
        <time>2021-05-02T15:28:09Z</time>
      </trkpt>
      <trkpt lat="46.53118" lon="0.31039">
        <ele>103.6</ele>
        <time>2021-05-02T15:28:17Z</time>
      </trkpt>
      <trkpt lat="46.53127" lon="0.31024">
        <ele>104.2</ele>
        <time>2021-05-02T15:28:25Z</time>
      </trkpt>
      <trkpt lat="46.53127" lon="0.31024">
        <ele>104.6</ele>
        <time>2021-05-02T15:28:27Z</time>
      </trkpt>
      <trkpt lat="46.53137" lon="0.31011">
        <ele>105.2</ele>
        <time>2021-05-02T15:28:33Z</time>
      </trkpt>
      <trkpt lat="46.53141" lon="0.31005">
        <ele>105.6</ele>
        <time>2021-05-02T15:28:37Z</time>
      </trkpt>
      <trkpt lat="46.53145" lon="0.30998">
        <ele>106</ele>
        <time>2021-05-02T15:28:40Z</time>
      </trkpt>
      <trkpt lat="46.53151" lon="0.30983">
        <ele>106.6</ele>
        <time>2021-05-02T15:28:46Z</time>
      </trkpt>
      <trkpt lat="46.53154" lon="0.30982">
        <ele>106.8</ele>
        <time>2021-05-02T15:28:48Z</time>
      </trkpt>
      <trkpt lat="46.5316" lon="0.30977">
        <ele>107</ele>
        <time>2021-05-02T15:28:51Z</time>
      </trkpt>
      <trkpt lat="46.53166" lon="0.30969">
        <ele>107.6</ele>
        <time>2021-05-02T15:28:56Z</time>
      </trkpt>
      <trkpt lat="46.53166" lon="0.30968">
        <ele>108</ele>
        <time>2021-05-02T15:28:57Z</time>
      </trkpt>
      <trkpt lat="46.53174" lon="0.3096">
        <ele>108.8</ele>
        <time>2021-05-02T15:29:03Z</time>
      </trkpt>
      <trkpt lat="46.53176" lon="0.30958">
        <ele>109</ele>
        <time>2021-05-02T15:29:04Z</time>
      </trkpt>
      <trkpt lat="46.53182" lon="0.30948">
        <ele>110</ele>
        <time>2021-05-02T15:29:10Z</time>
      </trkpt>
      <trkpt lat="46.53191" lon="0.30937">
        <ele>111</ele>
        <time>2021-05-02T15:29:16Z</time>
      </trkpt>
      <trkpt lat="46.53194" lon="0.30933">
        <ele>111</ele>
        <time>2021-05-02T15:29:18Z</time>
      </trkpt>
      <trkpt lat="46.53202" lon="0.30926">
        <ele>111.2</ele>
        <time>2021-05-02T15:29:23Z</time>
      </trkpt>
      <trkpt lat="46.53209" lon="0.30917">
        <ele>111.2</ele>
        <time>2021-05-02T15:29:28Z</time>
      </trkpt>
      <trkpt lat="46.53211" lon="0.30916">
        <ele>111.2</ele>
        <time>2021-05-02T15:29:29Z</time>
      </trkpt>
      <trkpt lat="46.53224" lon="0.30904">
        <ele>111.8</ele>
        <time>2021-05-02T15:29:37Z</time>
      </trkpt>
      <trkpt lat="46.53227" lon="0.309">
        <ele>112.2</ele>
        <time>2021-05-02T15:29:39Z</time>
      </trkpt>
      <trkpt lat="46.53236" lon="0.30892">
        <ele>112.8</ele>
        <time>2021-05-02T15:29:44Z</time>
      </trkpt>
      <trkpt lat="46.53247" lon="0.30884">
        <ele>113</ele>
        <time>2021-05-02T15:29:50Z</time>
      </trkpt>
      <trkpt lat="46.5326" lon="0.30875">
        <ele>113.2</ele>
        <time>2021-05-02T15:29:56Z</time>
      </trkpt>
      <trkpt lat="46.53274" lon="0.30867">
        <ele>113.6</ele>
        <time>2021-05-02T15:30:02Z</time>
      </trkpt>
      <trkpt lat="46.53285" lon="0.3086">
        <ele>114.2</ele>
        <time>2021-05-02T15:30:08Z</time>
      </trkpt>
      <trkpt lat="46.53287" lon="0.30859">
        <ele>114.2</ele>
        <time>2021-05-02T15:30:09Z</time>
      </trkpt>
      <trkpt lat="46.53305" lon="0.30854">
        <ele>115</ele>
        <time>2021-05-02T15:30:17Z</time>
      </trkpt>
      <trkpt lat="46.53306" lon="0.30853">
        <ele>115.2</ele>
        <time>2021-05-02T15:30:18Z</time>
      </trkpt>
      <trkpt lat="46.53319" lon="0.30847">
        <ele>115.8</ele>
        <time>2021-05-02T15:30:24Z</time>
      </trkpt>
      <trkpt lat="46.53326" lon="0.3084">
        <ele>116.2</ele>
        <time>2021-05-02T15:30:28Z</time>
      </trkpt>
      <trkpt lat="46.53328" lon="0.30837">
        <ele>116.6</ele>
        <time>2021-05-02T15:30:30Z</time>
      </trkpt>
      <trkpt lat="46.53338" lon="0.30827">
        <ele>117.2</ele>
        <time>2021-05-02T15:30:36Z</time>
      </trkpt>
      <trkpt lat="46.5334" lon="0.30826">
        <ele>117.4</ele>
        <time>2021-05-02T15:30:37Z</time>
      </trkpt>
      <trkpt lat="46.53343" lon="0.30824">
        <ele>117.6</ele>
        <time>2021-05-02T15:30:39Z</time>
      </trkpt>
      <trkpt lat="46.53351" lon="0.30819">
        <ele>118</ele>
        <time>2021-05-02T15:30:43Z</time>
      </trkpt>
      <trkpt lat="46.53356" lon="0.30815">
        <ele>118.4</ele>
        <time>2021-05-02T15:30:46Z</time>
      </trkpt>
      <trkpt lat="46.53369" lon="0.30809">
        <ele>119.2</ele>
        <time>2021-05-02T15:30:52Z</time>
      </trkpt>
      <trkpt lat="46.53382" lon="0.30802">
        <ele>119.4</ele>
        <time>2021-05-02T15:30:57Z</time>
      </trkpt>
      <trkpt lat="46.53386" lon="0.30799">
        <ele>119.6</ele>
        <time>2021-05-02T15:30:59Z</time>
      </trkpt>
      <trkpt lat="46.53397" lon="0.30793">
        <ele>120</ele>
        <time>2021-05-02T15:31:04Z</time>
      </trkpt>
      <trkpt lat="46.53408" lon="0.30787">
        <ele>120.2</ele>
        <time>2021-05-02T15:31:10Z</time>
      </trkpt>
      <trkpt lat="46.5341" lon="0.30786">
        <ele>120.6</ele>
        <time>2021-05-02T15:31:11Z</time>
      </trkpt>
      <trkpt lat="46.5342" lon="0.30782">
        <ele>121.6</ele>
        <time>2021-05-02T15:31:16Z</time>
      </trkpt>
      <trkpt lat="46.5343" lon="0.30776">
        <ele>122.6</ele>
        <time>2021-05-02T15:31:22Z</time>
      </trkpt>
      <trkpt lat="46.53434" lon="0.30775">
        <ele>122.6</ele>
        <time>2021-05-02T15:31:24Z</time>
      </trkpt>
      <trkpt lat="46.53437" lon="0.30774">
        <ele>123</ele>
        <time>2021-05-02T15:31:26Z</time>
      </trkpt>
      <trkpt lat="46.53439" lon="0.30773">
        <ele>123</ele>
        <time>2021-05-02T15:31:27Z</time>
      </trkpt>
      <trkpt lat="46.53449" lon="0.3077">
        <ele>123.8</ele>
        <time>2021-05-02T15:31:32Z</time>
      </trkpt>
      <trkpt lat="46.53456" lon="0.30767">
        <ele>124.6</ele>
        <time>2021-05-02T15:31:36Z</time>
      </trkpt>
      <trkpt lat="46.53458" lon="0.30766">
        <ele>125</ele>
        <time>2021-05-02T15:31:37Z</time>
      </trkpt>
      <trkpt lat="46.53469" lon="0.30766">
        <ele>126</ele>
        <time>2021-05-02T15:31:42Z</time>
      </trkpt>
      <trkpt lat="46.53477" lon="0.30765">
        <ele>127</ele>
        <time>2021-05-02T15:31:46Z</time>
      </trkpt>
      <trkpt lat="46.53485" lon="0.30762">
        <ele>127.6</ele>
        <time>2021-05-02T15:31:50Z</time>
      </trkpt>
      <trkpt lat="46.53488" lon="0.3076">
        <ele>128</ele>
        <time>2021-05-02T15:31:52Z</time>
      </trkpt>
      <trkpt lat="46.53496" lon="0.30756">
        <ele>129</ele>
        <time>2021-05-02T15:31:57Z</time>
      </trkpt>
      <trkpt lat="46.53498" lon="0.30755">
        <ele>129.2</ele>
        <time>2021-05-02T15:31:58Z</time>
      </trkpt>
      <trkpt lat="46.53506" lon="0.30753">
        <ele>130.4</ele>
        <time>2021-05-02T15:32:02Z</time>
      </trkpt>
      <trkpt lat="46.5351" lon="0.30754">
        <ele>130.8</ele>
        <time>2021-05-02T15:32:04Z</time>
      </trkpt>
      <trkpt lat="46.53513" lon="0.30754">
        <ele>131.4</ele>
        <time>2021-05-02T15:32:05Z</time>
      </trkpt>
      <trkpt lat="46.53525" lon="0.30755">
        <ele>132.4</ele>
        <time>2021-05-02T15:32:11Z</time>
      </trkpt>
      <trkpt lat="46.5353" lon="0.30755">
        <ele>132.8</ele>
        <time>2021-05-02T15:32:13Z</time>
      </trkpt>
      <trkpt lat="46.53536" lon="0.30756">
        <ele>133.6</ele>
        <time>2021-05-02T15:32:16Z</time>
      </trkpt>
      <trkpt lat="46.53547" lon="0.30757">
        <ele>134.2</ele>
        <time>2021-05-02T15:32:20Z</time>
      </trkpt>
      <trkpt lat="46.53556" lon="0.30758">
        <ele>134.6</ele>
        <time>2021-05-02T15:32:24Z</time>
      </trkpt>
      <trkpt lat="46.53562" lon="0.30758">
        <ele>135.2</ele>
        <time>2021-05-02T15:32:27Z</time>
      </trkpt>
      <trkpt lat="46.53566" lon="0.30759">
        <ele>135.8</ele>
        <time>2021-05-02T15:32:29Z</time>
      </trkpt>
      <trkpt lat="46.53572" lon="0.3076">
        <ele>136.4</ele>
        <time>2021-05-02T15:32:33Z</time>
      </trkpt>
      <trkpt lat="46.53577" lon="0.30763">
        <ele>136.8</ele>
        <time>2021-05-02T15:32:36Z</time>
      </trkpt>
      <trkpt lat="46.53583" lon="0.30765">
        <ele>136.8</ele>
        <time>2021-05-02T15:32:39Z</time>
      </trkpt>
      <trkpt lat="46.53592" lon="0.30773">
        <ele>137.8</ele>
        <time>2021-05-02T15:32:45Z</time>
      </trkpt>
      <trkpt lat="46.53608" lon="0.30798">
        <ele>138.4</ele>
        <time>2021-05-02T15:32:53Z</time>
      </trkpt>
      <trkpt lat="46.53614" lon="0.30809">
        <ele>139</ele>
        <time>2021-05-02T15:32:56Z</time>
      </trkpt>
      <trkpt lat="46.53625" lon="0.30829">
        <ele>139.6</ele>
        <time>2021-05-02T15:33:02Z</time>
      </trkpt>
      <trkpt lat="46.53631" lon="0.30838">
        <ele>140</ele>
        <time>2021-05-02T15:33:05Z</time>
      </trkpt>
      <trkpt lat="46.53639" lon="0.30853">
        <ele>140.2</ele>
        <time>2021-05-02T15:33:09Z</time>
      </trkpt>
      <trkpt lat="46.53648" lon="0.30877">
        <ele>140.4</ele>
        <time>2021-05-02T15:33:15Z</time>
      </trkpt>
      <trkpt lat="46.53658" lon="0.30915">
        <ele>141</ele>
        <time>2021-05-02T15:33:22Z</time>
      </trkpt>
      <trkpt lat="46.53665" lon="0.30946">
        <ele>141</ele>
        <time>2021-05-02T15:33:28Z</time>
      </trkpt>
      <trkpt lat="46.53675" lon="0.30985">
        <ele>140.8</ele>
        <time>2021-05-02T15:33:35Z</time>
      </trkpt>
      <trkpt lat="46.5369" lon="0.31021">
        <ele>140.6</ele>
        <time>2021-05-02T15:33:42Z</time>
      </trkpt>
      <trkpt lat="46.53708" lon="0.31051">
        <ele>140</ele>
        <time>2021-05-02T15:33:49Z</time>
      </trkpt>
      <trkpt lat="46.53722" lon="0.31083">
        <ele>139.4</ele>
        <time>2021-05-02T15:33:56Z</time>
      </trkpt>
      <trkpt lat="46.53733" lon="0.31107">
        <ele>139</ele>
        <time>2021-05-02T15:34:01Z</time>
      </trkpt>
      <trkpt lat="46.53735" lon="0.31111">
        <ele>138.8</ele>
        <time>2021-05-02T15:34:02Z</time>
      </trkpt>
      <trkpt lat="46.53737" lon="0.31116">
        <ele>138.8</ele>
        <time>2021-05-02T15:34:03Z</time>
      </trkpt>
      <trkpt lat="46.53751" lon="0.31145">
        <ele>138.4</ele>
        <time>2021-05-02T15:34:09Z</time>
      </trkpt>
      <trkpt lat="46.53766" lon="0.31173">
        <ele>137.8</ele>
        <time>2021-05-02T15:34:15Z</time>
      </trkpt>
      <trkpt lat="46.53768" lon="0.31178">
        <ele>137.8</ele>
        <time>2021-05-02T15:34:16Z</time>
      </trkpt>
      <trkpt lat="46.53778" lon="0.31192">
        <ele>137</ele>
        <time>2021-05-02T15:34:19Z</time>
      </trkpt>
      <trkpt lat="46.53781" lon="0.31198">
        <ele>136.6</ele>
        <time>2021-05-02T15:34:20Z</time>
      </trkpt>
      <trkpt lat="46.53789" lon="0.31208">
        <ele>135.6</ele>
        <time>2021-05-02T15:34:22Z</time>
      </trkpt>
      <trkpt lat="46.53793" lon="0.31214">
        <ele>135.4</ele>
        <time>2021-05-02T15:34:23Z</time>
      </trkpt>
      <trkpt lat="46.53806" lon="0.31228">
        <ele>135</ele>
        <time>2021-05-02T15:34:26Z</time>
      </trkpt>
      <trkpt lat="46.53814" lon="0.31235">
        <ele>134.8</ele>
        <time>2021-05-02T15:34:28Z</time>
      </trkpt>
      <trkpt lat="46.53831" lon="0.31247">
        <ele>134</ele>
        <time>2021-05-02T15:34:33Z</time>
      </trkpt>
      <trkpt lat="46.53834" lon="0.31249">
        <ele>133.6</ele>
        <time>2021-05-02T15:34:34Z</time>
      </trkpt>
      <trkpt lat="46.53843" lon="0.31257">
        <ele>133.4</ele>
        <time>2021-05-02T15:34:38Z</time>
      </trkpt>
      <trkpt lat="46.53867" lon="0.31274">
        <ele>134</ele>
        <time>2021-05-02T15:34:45Z</time>
      </trkpt>
      <trkpt lat="46.53889" lon="0.31287">
        <ele>134.4</ele>
        <time>2021-05-02T15:34:51Z</time>
      </trkpt>
      <trkpt lat="46.53901" lon="0.31295">
        <ele>134.6</ele>
        <time>2021-05-02T15:34:56Z</time>
      </trkpt>
      <trkpt lat="46.53907" lon="0.31299">
        <ele>135</ele>
        <time>2021-05-02T15:34:58Z</time>
      </trkpt>
      <trkpt lat="46.53915" lon="0.31306">
        <ele>135.4</ele>
        <time>2021-05-02T15:35:01Z</time>
      </trkpt>
      <trkpt lat="46.53929" lon="0.31314">
        <ele>136</ele>
        <time>2021-05-02T15:35:06Z</time>
      </trkpt>
      <trkpt lat="46.53936" lon="0.31317">
        <ele>136.4</ele>
        <time>2021-05-02T15:35:08Z</time>
      </trkpt>
      <trkpt lat="46.53947" lon="0.31324">
        <ele>137</ele>
        <time>2021-05-02T15:35:12Z</time>
      </trkpt>
      <trkpt lat="46.5396" lon="0.31331">
        <ele>137.4</ele>
        <time>2021-05-02T15:35:16Z</time>
      </trkpt>
      <trkpt lat="46.53979" lon="0.31344">
        <ele>137.8</ele>
        <time>2021-05-02T15:35:22Z</time>
      </trkpt>
      <trkpt lat="46.53991" lon="0.31355">
        <ele>138</ele>
        <time>2021-05-02T15:35:28Z</time>
      </trkpt>
      <trkpt lat="46.53993" lon="0.31356">
        <ele>138</ele>
        <time>2021-05-02T15:35:29Z</time>
      </trkpt>
      <trkpt lat="46.54004" lon="0.31362">
        <ele>138.4</ele>
        <time>2021-05-02T15:35:34Z</time>
      </trkpt>
      <trkpt lat="46.54024" lon="0.31369">
        <ele>139.2</ele>
        <time>2021-05-02T15:35:40Z</time>
      </trkpt>
      <trkpt lat="46.54043" lon="0.31375">
        <ele>139.2</ele>
        <time>2021-05-02T15:35:47Z</time>
      </trkpt>
      <trkpt lat="46.54058" lon="0.31378">
        <ele>139.6</ele>
        <time>2021-05-02T15:35:52Z</time>
      </trkpt>
      <trkpt lat="46.54079" lon="0.31379">
        <ele>140</ele>
        <time>2021-05-02T15:35:58Z</time>
      </trkpt>
      <trkpt lat="46.54097" lon="0.31382">
        <ele>140</ele>
        <time>2021-05-02T15:36:04Z</time>
      </trkpt>
      <trkpt lat="46.54117" lon="0.31388">
        <ele>139.6</ele>
        <time>2021-05-02T15:36:10Z</time>
      </trkpt>
      <trkpt lat="46.54136" lon="0.31395">
        <ele>139.8</ele>
        <time>2021-05-02T15:36:16Z</time>
      </trkpt>
      <trkpt lat="46.54148" lon="0.31399">
        <ele>140.2</ele>
        <time>2021-05-02T15:36:20Z</time>
      </trkpt>
      <trkpt lat="46.54157" lon="0.31403">
        <ele>140.4</ele>
        <time>2021-05-02T15:36:23Z</time>
      </trkpt>
      <trkpt lat="46.54175" lon="0.31408">
        <ele>140.4</ele>
        <time>2021-05-02T15:36:29Z</time>
      </trkpt>
      <trkpt lat="46.54194" lon="0.31409">
        <ele>140.4</ele>
        <time>2021-05-02T15:36:35Z</time>
      </trkpt>
      <trkpt lat="46.54217" lon="0.31408">
        <ele>140.8</ele>
        <time>2021-05-02T15:36:42Z</time>
      </trkpt>
      <trkpt lat="46.54231" lon="0.31411">
        <ele>141</ele>
        <time>2021-05-02T15:36:47Z</time>
      </trkpt>
      <trkpt lat="46.54234" lon="0.31412">
        <ele>141</ele>
        <time>2021-05-02T15:36:48Z</time>
      </trkpt>
      <trkpt lat="46.54245" lon="0.31411">
        <ele>141</ele>
        <time>2021-05-02T15:36:51Z</time>
      </trkpt>
      <trkpt lat="46.54258" lon="0.31403">
        <ele>140.8</ele>
        <time>2021-05-02T15:36:55Z</time>
      </trkpt>
      <trkpt lat="46.54281" lon="0.31395">
        <ele>141</ele>
        <time>2021-05-02T15:37:02Z</time>
      </trkpt>
      <trkpt lat="46.54296" lon="0.31389">
        <ele>140.4</ele>
        <time>2021-05-02T15:37:07Z</time>
      </trkpt>
      <trkpt lat="46.54317" lon="0.31383">
        <ele>140.2</ele>
        <time>2021-05-02T15:37:13Z</time>
      </trkpt>
      <trkpt lat="46.54327" lon="0.31381">
        <ele>140.2</ele>
        <time>2021-05-02T15:37:15Z</time>
      </trkpt>
      <trkpt lat="46.54338" lon="0.31377">
        <ele>140.4</ele>
        <time>2021-05-02T15:37:18Z</time>
      </trkpt>
      <trkpt lat="46.54342" lon="0.31376">
        <ele>140.4</ele>
        <time>2021-05-02T15:37:19Z</time>
      </trkpt>
      <trkpt lat="46.54361" lon="0.31373">
        <ele>140</ele>
        <time>2021-05-02T15:37:24Z</time>
      </trkpt>
      <trkpt lat="46.54366" lon="0.31372">
        <ele>140</ele>
        <time>2021-05-02T15:37:25Z</time>
      </trkpt>
      <trkpt lat="46.54371" lon="0.31372">
        <ele>139.8</ele>
        <time>2021-05-02T15:37:26Z</time>
      </trkpt>
      <trkpt lat="46.54378" lon="0.31371">
        <ele>139.4</ele>
        <time>2021-05-02T15:37:28Z</time>
      </trkpt>
      <trkpt lat="46.54384" lon="0.31372">
        <ele>139.2</ele>
        <time>2021-05-02T15:37:30Z</time>
      </trkpt>
      <trkpt lat="46.54387" lon="0.31374">
        <ele>139</ele>
        <time>2021-05-02T15:37:31Z</time>
      </trkpt>
      <trkpt lat="46.54394" lon="0.31379">
        <ele>138.8</ele>
        <time>2021-05-02T15:37:33Z</time>
      </trkpt>
      <trkpt lat="46.54407" lon="0.31395">
        <ele>138.4</ele>
        <time>2021-05-02T15:37:37Z</time>
      </trkpt>
      <trkpt lat="46.54407" lon="0.314">
        <ele>138.6</ele>
        <time>2021-05-02T15:37:38Z</time>
      </trkpt>
      <trkpt lat="46.544" lon="0.31424">
        <ele>138.6</ele>
        <time>2021-05-02T15:37:43Z</time>
      </trkpt>
      <trkpt lat="46.54395" lon="0.31466">
        <ele>139.2</ele>
        <time>2021-05-02T15:37:50Z</time>
      </trkpt>
      <trkpt lat="46.54395" lon="0.31519">
        <ele>139.2</ele>
        <time>2021-05-02T15:37:58Z</time>
      </trkpt>
      <trkpt lat="46.544" lon="0.31557">
        <ele>138.6</ele>
        <time>2021-05-02T15:38:04Z</time>
      </trkpt>
      <trkpt lat="46.54403" lon="0.3157">
        <ele>138.4</ele>
        <time>2021-05-02T15:38:06Z</time>
      </trkpt>
      <trkpt lat="46.54408" lon="0.31596">
        <ele>138</ele>
        <time>2021-05-02T15:38:10Z</time>
      </trkpt>
      <trkpt lat="46.54416" lon="0.31622">
        <ele>137.2</ele>
        <time>2021-05-02T15:38:14Z</time>
      </trkpt>
      <trkpt lat="46.54419" lon="0.31628">
        <ele>137</ele>
        <time>2021-05-02T15:38:15Z</time>
      </trkpt>
      <trkpt lat="46.5443" lon="0.31651">
        <ele>136.6</ele>
        <time>2021-05-02T15:38:19Z</time>
      </trkpt>
      <trkpt lat="46.54437" lon="0.31662">
        <ele>136.2</ele>
        <time>2021-05-02T15:38:21Z</time>
      </trkpt>
      <trkpt lat="46.54441" lon="0.31667">
        <ele>136</ele>
        <time>2021-05-02T15:38:22Z</time>
      </trkpt>
      <trkpt lat="46.54445" lon="0.31671">
        <ele>135.8</ele>
        <time>2021-05-02T15:38:23Z</time>
      </trkpt>
      <trkpt lat="46.54453" lon="0.3168">
        <ele>135.2</ele>
        <time>2021-05-02T15:38:25Z</time>
      </trkpt>
      <trkpt lat="46.54456" lon="0.31685">
        <ele>135.2</ele>
        <time>2021-05-02T15:38:26Z</time>
      </trkpt>
      <trkpt lat="46.54458" lon="0.31691">
        <ele>135</ele>
        <time>2021-05-02T15:38:27Z</time>
      </trkpt>
      <trkpt lat="46.54461" lon="0.31703">
        <ele>134.6</ele>
        <time>2021-05-02T15:38:29Z</time>
      </trkpt>
      <trkpt lat="46.54464" lon="0.31715">
        <ele>134.6</ele>
        <time>2021-05-02T15:38:31Z</time>
      </trkpt>
      <trkpt lat="46.54473" lon="0.31736">
        <ele>134.6</ele>
        <time>2021-05-02T15:38:35Z</time>
      </trkpt>
      <trkpt lat="46.54495" lon="0.31774">
        <ele>134.6</ele>
        <time>2021-05-02T15:38:42Z</time>
      </trkpt>
      <trkpt lat="46.54497" lon="0.31787">
        <ele>134.6</ele>
        <time>2021-05-02T15:38:44Z</time>
      </trkpt>
      <trkpt lat="46.54498" lon="0.31808">
        <ele>134.4</ele>
        <time>2021-05-02T15:38:47Z</time>
      </trkpt>
      <trkpt lat="46.54501" lon="0.31844">
        <ele>133.4</ele>
        <time>2021-05-02T15:38:52Z</time>
      </trkpt>
      <trkpt lat="46.54503" lon="0.31872">
        <ele>133.2</ele>
        <time>2021-05-02T15:38:56Z</time>
      </trkpt>
      <trkpt lat="46.54507" lon="0.31932">
        <ele>132.8</ele>
        <time>2021-05-02T15:39:05Z</time>
      </trkpt>
      <trkpt lat="46.54508" lon="0.31945">
        <ele>132.8</ele>
        <time>2021-05-02T15:39:07Z</time>
      </trkpt>
      <trkpt lat="46.54513" lon="0.31963">
        <ele>133</ele>
        <time>2021-05-02T15:39:10Z</time>
      </trkpt>
      <trkpt lat="46.54515" lon="0.31969">
        <ele>132.8</ele>
        <time>2021-05-02T15:39:11Z</time>
      </trkpt>
      <trkpt lat="46.54523" lon="0.31984">
        <ele>132.6</ele>
        <time>2021-05-02T15:39:14Z</time>
      </trkpt>
      <trkpt lat="46.5453" lon="0.31993">
        <ele>132.6</ele>
        <time>2021-05-02T15:39:16Z</time>
      </trkpt>
      <trkpt lat="46.54554" lon="0.32011">
        <ele>133.2</ele>
        <time>2021-05-02T15:39:22Z</time>
      </trkpt>
      <trkpt lat="46.5458" lon="0.32013">
        <ele>133.2</ele>
        <time>2021-05-02T15:39:28Z</time>
      </trkpt>
      <trkpt lat="46.54617" lon="0.32004">
        <ele>132.8</ele>
        <time>2021-05-02T15:39:37Z</time>
      </trkpt>
      <trkpt lat="46.54641" lon="0.32002">
        <ele>133.2</ele>
        <time>2021-05-02T15:39:43Z</time>
      </trkpt>
      <trkpt lat="46.54669" lon="0.32005">
        <ele>132.6</ele>
        <time>2021-05-02T15:39:50Z</time>
      </trkpt>
      <trkpt lat="46.54673" lon="0.32006">
        <ele>132.4</ele>
        <time>2021-05-02T15:39:51Z</time>
      </trkpt>
      <trkpt lat="46.54693" lon="0.32012">
        <ele>131.4</ele>
        <time>2021-05-02T15:39:55Z</time>
      </trkpt>
      <trkpt lat="46.54703" lon="0.32019">
        <ele>131.2</ele>
        <time>2021-05-02T15:39:57Z</time>
      </trkpt>
      <trkpt lat="46.54717" lon="0.32035">
        <ele>131</ele>
        <time>2021-05-02T15:40:00Z</time>
      </trkpt>
      <trkpt lat="46.54725" lon="0.32047">
        <ele>130.4</ele>
        <time>2021-05-02T15:40:02Z</time>
      </trkpt>
      <trkpt lat="46.54728" lon="0.32053">
        <ele>130.4</ele>
        <time>2021-05-02T15:40:03Z</time>
      </trkpt>
      <trkpt lat="46.54744" lon="0.32074">
        <ele>129.8</ele>
        <time>2021-05-02T15:40:07Z</time>
      </trkpt>
      <trkpt lat="46.54752" lon="0.32082">
        <ele>129.4</ele>
        <time>2021-05-02T15:40:09Z</time>
      </trkpt>
      <trkpt lat="46.5476" lon="0.32087">
        <ele>129.4</ele>
        <time>2021-05-02T15:40:11Z</time>
      </trkpt>
      <trkpt lat="46.54768" lon="0.32091">
        <ele>129.4</ele>
        <time>2021-05-02T15:40:13Z</time>
      </trkpt>
      <trkpt lat="46.54776" lon="0.32093">
        <ele>129.6</ele>
        <time>2021-05-02T15:40:15Z</time>
      </trkpt>
      <trkpt lat="46.54806" lon="0.32099">
        <ele>129.8</ele>
        <time>2021-05-02T15:40:22Z</time>
      </trkpt>
      <trkpt lat="46.5481" lon="0.321">
        <ele>129.8</ele>
        <time>2021-05-02T15:40:23Z</time>
      </trkpt>
      <trkpt lat="46.54818" lon="0.321">
        <ele>129.8</ele>
        <time>2021-05-02T15:40:25Z</time>
      </trkpt>
      <trkpt lat="46.5483" lon="0.32095">
        <ele>130</ele>
        <time>2021-05-02T15:40:28Z</time>
      </trkpt>
      <trkpt lat="46.54848" lon="0.32084">
        <ele>130.4</ele>
        <time>2021-05-02T15:40:33Z</time>
      </trkpt>
      <trkpt lat="46.54855" lon="0.32079">
        <ele>130.4</ele>
        <time>2021-05-02T15:40:35Z</time>
      </trkpt>
      <trkpt lat="46.54867" lon="0.3207">
        <ele>130.2</ele>
        <time>2021-05-02T15:40:40Z</time>
      </trkpt>
      <trkpt lat="46.54874" lon="0.32069">
        <ele>129.8</ele>
        <time>2021-05-02T15:40:44Z</time>
      </trkpt>
      <trkpt lat="46.54876" lon="0.32071">
        <ele>129.8</ele>
        <time>2021-05-02T15:40:45Z</time>
      </trkpt>
      <trkpt lat="46.54886" lon="0.32091">
        <ele>130.2</ele>
        <time>2021-05-02T15:40:50Z</time>
      </trkpt>
      <trkpt lat="46.54897" lon="0.32118">
        <ele>130.6</ele>
        <time>2021-05-02T15:40:56Z</time>
      </trkpt>
      <trkpt lat="46.54898" lon="0.32142">
        <ele>131.2</ele>
        <time>2021-05-02T15:41:01Z</time>
      </trkpt>
      <trkpt lat="46.54896" lon="0.3215">
        <ele>131.4</ele>
        <time>2021-05-02T15:41:03Z</time>
      </trkpt>
      <trkpt lat="46.5489" lon="0.32156">
        <ele>131.4</ele>
        <time>2021-05-02T15:41:05Z</time>
      </trkpt>
      <trkpt lat="46.54888" lon="0.3216">
        <ele>131.4</ele>
        <time>2021-05-02T15:41:06Z</time>
      </trkpt>
      <trkpt lat="46.54888" lon="0.32165">
        <ele>131.4</ele>
        <time>2021-05-02T15:41:07Z</time>
      </trkpt>
      <trkpt lat="46.54889" lon="0.32176">
        <ele>131.6</ele>
        <time>2021-05-02T15:41:10Z</time>
      </trkpt>
      <trkpt lat="46.54887" lon="0.32178">
        <ele>131.6</ele>
        <time>2021-05-02T15:41:11Z</time>
      </trkpt>
      <trkpt lat="46.54871" lon="0.32188">
        <ele>131.4</ele>
        <time>2021-05-02T15:41:15Z</time>
      </trkpt>
      <trkpt lat="46.54862" lon="0.32192">
        <ele>131.4</ele>
        <time>2021-05-02T15:41:17Z</time>
      </trkpt>
      <trkpt lat="46.54845" lon="0.322">
        <ele>131.2</ele>
        <time>2021-05-02T15:41:21Z</time>
      </trkpt>
      <trkpt lat="46.54835" lon="0.32203">
        <ele>131</ele>
        <time>2021-05-02T15:41:23Z</time>
      </trkpt>
      <trkpt lat="46.54817" lon="0.3221">
        <ele>130.4</ele>
        <time>2021-05-02T15:41:27Z</time>
      </trkpt>
      <trkpt lat="46.54812" lon="0.32212">
        <ele>130.4</ele>
        <time>2021-05-02T15:41:28Z</time>
      </trkpt>
      <trkpt lat="46.54782" lon="0.32226">
        <ele>130.2</ele>
        <time>2021-05-02T15:41:34Z</time>
      </trkpt>
      <trkpt lat="46.54777" lon="0.32229">
        <ele>130</ele>
        <time>2021-05-02T15:41:35Z</time>
      </trkpt>
      <trkpt lat="46.54753" lon="0.32247">
        <ele>129.2</ele>
        <time>2021-05-02T15:41:40Z</time>
      </trkpt>
      <trkpt lat="46.54717" lon="0.3228">
        <ele>128.2</ele>
        <time>2021-05-02T15:41:48Z</time>
      </trkpt>
      <trkpt lat="46.54682" lon="0.32319">
        <ele>127.6</ele>
        <time>2021-05-02T15:41:56Z</time>
      </trkpt>
      <trkpt lat="46.54664" lon="0.32339">
        <ele>127.6</ele>
        <time>2021-05-02T15:42:01Z</time>
      </trkpt>
      <trkpt lat="46.54649" lon="0.32355">
        <ele>127.2</ele>
        <time>2021-05-02T15:42:05Z</time>
      </trkpt>
      <trkpt lat="46.54644" lon="0.32359">
        <ele>127</ele>
        <time>2021-05-02T15:42:06Z</time>
      </trkpt>
      <trkpt lat="46.5464" lon="0.32363">
        <ele>127</ele>
        <time>2021-05-02T15:42:07Z</time>
      </trkpt>
      <trkpt lat="46.54631" lon="0.32369">
        <ele>127</ele>
        <time>2021-05-02T15:42:09Z</time>
      </trkpt>
      <trkpt lat="46.54615" lon="0.32381">
        <ele>127.2</ele>
        <time>2021-05-02T15:42:13Z</time>
      </trkpt>
      <trkpt lat="46.54604" lon="0.32389">
        <ele>127.2</ele>
        <time>2021-05-02T15:42:16Z</time>
      </trkpt>
      <trkpt lat="46.54588" lon="0.32404">
        <ele>127.6</ele>
        <time>2021-05-02T15:42:21Z</time>
      </trkpt>
      <trkpt lat="46.54579" lon="0.32421">
        <ele>127.4</ele>
        <time>2021-05-02T15:42:25Z</time>
      </trkpt>
      <trkpt lat="46.54576" lon="0.32426">
        <ele>127.4</ele>
        <time>2021-05-02T15:42:26Z</time>
      </trkpt>
      <trkpt lat="46.5457" lon="0.32439">
        <ele>127.4</ele>
        <time>2021-05-02T15:42:29Z</time>
      </trkpt>
      <trkpt lat="46.54567" lon="0.3244">
        <ele>127.4</ele>
        <time>2021-05-02T15:42:30Z</time>
      </trkpt>
      <trkpt lat="46.54564" lon="0.32441">
        <ele>127.4</ele>
        <time>2021-05-02T15:42:31Z</time>
      </trkpt>
      <trkpt lat="46.5456" lon="0.32442">
        <ele>127.2</ele>
        <time>2021-05-02T15:42:32Z</time>
      </trkpt>
      <trkpt lat="46.54556" lon="0.32445">
        <ele>127.2</ele>
        <time>2021-05-02T15:42:33Z</time>
      </trkpt>
      <trkpt lat="46.54552" lon="0.32447">
        <ele>127.2</ele>
        <time>2021-05-02T15:42:34Z</time>
      </trkpt>
      <trkpt lat="46.54548" lon="0.32449">
        <ele>127.2</ele>
        <time>2021-05-02T15:42:35Z</time>
      </trkpt>
      <trkpt lat="46.54537" lon="0.32457">
        <ele>127</ele>
        <time>2021-05-02T15:42:38Z</time>
      </trkpt>
      <trkpt lat="46.54533" lon="0.32459">
        <ele>127</ele>
        <time>2021-05-02T15:42:39Z</time>
      </trkpt>
      <trkpt lat="46.54506" lon="0.32469">
        <ele>127.4</ele>
        <time>2021-05-02T15:42:46Z</time>
      </trkpt>
      <trkpt lat="46.54503" lon="0.3247">
        <ele>127.4</ele>
        <time>2021-05-02T15:42:47Z</time>
      </trkpt>
      <trkpt lat="46.54501" lon="0.32472">
        <ele>127.2</ele>
        <time>2021-05-02T15:42:49Z</time>
      </trkpt>
      <trkpt lat="46.54501" lon="0.32472">
        <ele>127.2</ele>
        <time>2021-05-02T15:42:50Z</time>
      </trkpt>
      <trkpt lat="46.54502" lon="0.3247">
        <ele>127.4</ele>
        <time>2021-05-02T15:42:51Z</time>
      </trkpt>
      <trkpt lat="46.54506" lon="0.32467">
        <ele>127.8</ele>
        <time>2021-05-02T15:42:57Z</time>
      </trkpt>
      <trkpt lat="46.54509" lon="0.32465">
        <ele>127.8</ele>
        <time>2021-05-02T15:42:59Z</time>
      </trkpt>
      <trkpt lat="46.54513" lon="0.32469">
        <ele>127.8</ele>
        <time>2021-05-02T15:43:01Z</time>
      </trkpt>
      <trkpt lat="46.54517" lon="0.32474">
        <ele>127.8</ele>
        <time>2021-05-02T15:43:03Z</time>
      </trkpt>
      <trkpt lat="46.54521" lon="0.3248">
        <ele>127.4</ele>
        <time>2021-05-02T15:43:05Z</time>
      </trkpt>
      <trkpt lat="46.54524" lon="0.32487">
        <ele>127</ele>
        <time>2021-05-02T15:43:07Z</time>
      </trkpt>
      <trkpt lat="46.54525" lon="0.32492">
        <ele>127</ele>
        <time>2021-05-02T15:43:09Z</time>
      </trkpt>
      <trkpt lat="46.54522" lon="0.32498">
        <ele>126.8</ele>
        <time>2021-05-02T15:43:11Z</time>
      </trkpt>
      <trkpt lat="46.54516" lon="0.32504">
        <ele>126.8</ele>
        <time>2021-05-02T15:43:13Z</time>
      </trkpt>
      <trkpt lat="46.5451" lon="0.32507">
        <ele>126.6</ele>
        <time>2021-05-02T15:43:15Z</time>
      </trkpt>
      <trkpt lat="46.545" lon="0.32508">
        <ele>125.8</ele>
        <time>2021-05-02T15:43:18Z</time>
      </trkpt>
      <trkpt lat="46.54489" lon="0.32511">
        <ele>125.6</ele>
        <time>2021-05-02T15:43:21Z</time>
      </trkpt>
      <trkpt lat="46.54486" lon="0.32519">
        <ele>125.2</ele>
        <time>2021-05-02T15:43:23Z</time>
      </trkpt>
      <trkpt lat="46.54486" lon="0.3253">
        <ele>125.2</ele>
        <time>2021-05-02T15:43:25Z</time>
      </trkpt>
      <trkpt lat="46.54488" lon="0.32545">
        <ele>124.4</ele>
        <time>2021-05-02T15:43:27Z</time>
      </trkpt>
      <trkpt lat="46.54491" lon="0.3256">
        <ele>123.8</ele>
        <time>2021-05-02T15:43:29Z</time>
      </trkpt>
      <trkpt lat="46.54499" lon="0.32576">
        <ele>123.4</ele>
        <time>2021-05-02T15:43:32Z</time>
      </trkpt>
      <trkpt lat="46.545" lon="0.32582">
        <ele>123.2</ele>
        <time>2021-05-02T15:43:33Z</time>
      </trkpt>
      <trkpt lat="46.54498" lon="0.32587">
        <ele>123</ele>
        <time>2021-05-02T15:43:34Z</time>
      </trkpt>
      <trkpt lat="46.54495" lon="0.32593">
        <ele>122.4</ele>
        <time>2021-05-02T15:43:36Z</time>
      </trkpt>
      <trkpt lat="46.54491" lon="0.32594">
        <ele>122.2</ele>
        <time>2021-05-02T15:43:38Z</time>
      </trkpt>
      <trkpt lat="46.54486" lon="0.32594">
        <ele>122</ele>
        <time>2021-05-02T15:43:40Z</time>
      </trkpt>
      <trkpt lat="46.54479" lon="0.32598">
        <ele>121.8</ele>
        <time>2021-05-02T15:43:42Z</time>
      </trkpt>
      <trkpt lat="46.54473" lon="0.32597">
        <ele>121.2</ele>
        <time>2021-05-02T15:43:44Z</time>
      </trkpt>
      <trkpt lat="46.5447" lon="0.32596">
        <ele>121.2</ele>
        <time>2021-05-02T15:43:45Z</time>
      </trkpt>
      <trkpt lat="46.54466" lon="0.32596">
        <ele>121.2</ele>
        <time>2021-05-02T15:43:46Z</time>
      </trkpt>
      <trkpt lat="46.54455" lon="0.32594">
        <ele>121.2</ele>
        <time>2021-05-02T15:43:49Z</time>
      </trkpt>
      <trkpt lat="46.54451" lon="0.32594">
        <ele>121.2</ele>
        <time>2021-05-02T15:43:50Z</time>
      </trkpt>
      <trkpt lat="46.54448" lon="0.32595">
        <ele>121</ele>
        <time>2021-05-02T15:43:51Z</time>
      </trkpt>
      <trkpt lat="46.54444" lon="0.32601">
        <ele>120.4</ele>
        <time>2021-05-02T15:43:53Z</time>
      </trkpt>
      <trkpt lat="46.5444" lon="0.32607">
        <ele>119.6</ele>
        <time>2021-05-02T15:43:55Z</time>
      </trkpt>
      <trkpt lat="46.54432" lon="0.32612">
        <ele>118.8</ele>
        <time>2021-05-02T15:43:58Z</time>
      </trkpt>
      <trkpt lat="46.54428" lon="0.32615">
        <ele>118.4</ele>
        <time>2021-05-02T15:43:59Z</time>
      </trkpt>
      <trkpt lat="46.54422" lon="0.32623">
        <ele>117.8</ele>
        <time>2021-05-02T15:44:01Z</time>
      </trkpt>
      <trkpt lat="46.54413" lon="0.3263">
        <ele>117</ele>
        <time>2021-05-02T15:44:03Z</time>
      </trkpt>
      <trkpt lat="46.54397" lon="0.32641">
        <ele>116</ele>
        <time>2021-05-02T15:44:07Z</time>
      </trkpt>
      <trkpt lat="46.54396" lon="0.32645">
        <ele>115.2</ele>
        <time>2021-05-02T15:44:08Z</time>
      </trkpt>
      <trkpt lat="46.54395" lon="0.32647">
        <ele>115</ele>
        <time>2021-05-02T15:44:09Z</time>
      </trkpt>
      <trkpt lat="46.54395" lon="0.32648">
        <ele>114.6</ele>
        <time>2021-05-02T15:44:10Z</time>
      </trkpt>
      <trkpt lat="46.54395" lon="0.32653">
        <ele>114.2</ele>
        <time>2021-05-02T15:44:12Z</time>
      </trkpt>
      <trkpt lat="46.54396" lon="0.32659">
        <ele>113.6</ele>
        <time>2021-05-02T15:44:13Z</time>
      </trkpt>
      <trkpt lat="46.54398" lon="0.32663">
        <ele>113.2</ele>
        <time>2021-05-02T15:44:14Z</time>
      </trkpt>
      <trkpt lat="46.54398" lon="0.32668">
        <ele>112.6</ele>
        <time>2021-05-02T15:44:16Z</time>
      </trkpt>
      <trkpt lat="46.54398" lon="0.3267">
        <ele>112.4</ele>
        <time>2021-05-02T15:44:17Z</time>
      </trkpt>
      <trkpt lat="46.54397" lon="0.32672">
        <ele>112.2</ele>
        <time>2021-05-02T15:44:18Z</time>
      </trkpt>
      <trkpt lat="46.54392" lon="0.32678">
        <ele>111.4</ele>
        <time>2021-05-02T15:44:21Z</time>
      </trkpt>
      <trkpt lat="46.54389" lon="0.32678">
        <ele>110.6</ele>
        <time>2021-05-02T15:44:23Z</time>
      </trkpt>
      <trkpt lat="46.54387" lon="0.32678">
        <ele>110.4</ele>
        <time>2021-05-02T15:44:24Z</time>
      </trkpt>
      <trkpt lat="46.5438" lon="0.32681">
        <ele>109.6</ele>
        <time>2021-05-02T15:44:28Z</time>
      </trkpt>
      <trkpt lat="46.54377" lon="0.32684">
        <ele>109.2</ele>
        <time>2021-05-02T15:44:30Z</time>
      </trkpt>
      <trkpt lat="46.54374" lon="0.32692">
        <ele>108.8</ele>
        <time>2021-05-02T15:44:32Z</time>
      </trkpt>
      <trkpt lat="46.54371" lon="0.32698">
        <ele>107.6</ele>
        <time>2021-05-02T15:44:34Z</time>
      </trkpt>
      <trkpt lat="46.54369" lon="0.32702">
        <ele>106.6</ele>
        <time>2021-05-02T15:44:36Z</time>
      </trkpt>
      <trkpt lat="46.54367" lon="0.32704">
        <ele>106.4</ele>
        <time>2021-05-02T15:44:37Z</time>
      </trkpt>
      <trkpt lat="46.54364" lon="0.32712">
        <ele>104.6</ele>
        <time>2021-05-02T15:44:40Z</time>
      </trkpt>
      <trkpt lat="46.54359" lon="0.32714">
        <ele>103.2</ele>
        <time>2021-05-02T15:44:42Z</time>
      </trkpt>
      <trkpt lat="46.54352" lon="0.32715">
        <ele>102.4</ele>
        <time>2021-05-02T15:44:44Z</time>
      </trkpt>
      <trkpt lat="46.54349" lon="0.32715">
        <ele>101.6</ele>
        <time>2021-05-02T15:44:45Z</time>
      </trkpt>
      <trkpt lat="46.54346" lon="0.32715">
        <ele>100.6</ele>
        <time>2021-05-02T15:44:46Z</time>
      </trkpt>
      <trkpt lat="46.54341" lon="0.32714">
        <ele>99.2</ele>
        <time>2021-05-02T15:44:48Z</time>
      </trkpt>
      <trkpt lat="46.54337" lon="0.32712">
        <ele>97.6</ele>
        <time>2021-05-02T15:44:51Z</time>
      </trkpt>
      <trkpt lat="46.54334" lon="0.32711">
        <ele>97</ele>
        <time>2021-05-02T15:44:52Z</time>
      </trkpt>
      <trkpt lat="46.54332" lon="0.32712">
        <ele>96.2</ele>
        <time>2021-05-02T15:44:53Z</time>
      </trkpt>
      <trkpt lat="46.54328" lon="0.32715">
        <ele>94.6</ele>
        <time>2021-05-02T15:44:55Z</time>
      </trkpt>
      <trkpt lat="46.54325" lon="0.32716">
        <ele>93.6</ele>
        <time>2021-05-02T15:44:56Z</time>
      </trkpt>
      <trkpt lat="46.5432" lon="0.32716">
        <ele>91.6</ele>
        <time>2021-05-02T15:44:58Z</time>
      </trkpt>
      <trkpt lat="46.54314" lon="0.32719">
        <ele>90.4</ele>
        <time>2021-05-02T15:45:00Z</time>
      </trkpt>
      <trkpt lat="46.54309" lon="0.32721">
        <ele>90</ele>
        <time>2021-05-02T15:45:01Z</time>
      </trkpt>
      <trkpt lat="46.54304" lon="0.32723">
        <ele>89.4</ele>
        <time>2021-05-02T15:45:02Z</time>
      </trkpt>
      <trkpt lat="46.54298" lon="0.32723">
        <ele>88.2</ele>
        <time>2021-05-02T15:45:03Z</time>
      </trkpt>
      <trkpt lat="46.54294" lon="0.32722">
        <ele>87.4</ele>
        <time>2021-05-02T15:45:04Z</time>
      </trkpt>
      <trkpt lat="46.54288" lon="0.3272">
        <ele>86.4</ele>
        <time>2021-05-02T15:45:05Z</time>
      </trkpt>
      <trkpt lat="46.54277" lon="0.32717">
        <ele>84.8</ele>
        <time>2021-05-02T15:45:07Z</time>
      </trkpt>
      <trkpt lat="46.54267" lon="0.32713">
        <ele>83.4</ele>
        <time>2021-05-02T15:45:09Z</time>
      </trkpt>
      <trkpt lat="46.54262" lon="0.32712">
        <ele>82.8</ele>
        <time>2021-05-02T15:45:10Z</time>
      </trkpt>
      <trkpt lat="46.54257" lon="0.32709">
        <ele>82.4</ele>
        <time>2021-05-02T15:45:11Z</time>
      </trkpt>
      <trkpt lat="46.54252" lon="0.32707">
        <ele>81.2</ele>
        <time>2021-05-02T15:45:12Z</time>
      </trkpt>
      <trkpt lat="46.54243" lon="0.32703">
        <ele>80.2</ele>
        <time>2021-05-02T15:45:14Z</time>
      </trkpt>
      <trkpt lat="46.54239" lon="0.32702">
        <ele>80.2</ele>
        <time>2021-05-02T15:45:15Z</time>
      </trkpt>
      <trkpt lat="46.54232" lon="0.32699">
        <ele>79.8</ele>
        <time>2021-05-02T15:45:17Z</time>
      </trkpt>
      <trkpt lat="46.54223" lon="0.32698">
        <ele>79.4</ele>
        <time>2021-05-02T15:45:20Z</time>
      </trkpt>
      <trkpt lat="46.54216" lon="0.32703">
        <ele>79.2</ele>
        <time>2021-05-02T15:45:23Z</time>
      </trkpt>
      <trkpt lat="46.54215" lon="0.32708">
        <ele>79.2</ele>
        <time>2021-05-02T15:45:24Z</time>
      </trkpt>
      <trkpt lat="46.54212" lon="0.32724">
        <ele>79.4</ele>
        <time>2021-05-02T15:45:27Z</time>
      </trkpt>
      <trkpt lat="46.54212" lon="0.3273">
        <ele>79.4</ele>
        <time>2021-05-02T15:45:28Z</time>
      </trkpt>
      <trkpt lat="46.54206" lon="0.32746">
        <ele>79.2</ele>
        <time>2021-05-02T15:45:29Z</time>
      </trkpt>
      <trkpt lat="46.54206" lon="0.32746">
        <ele>79.2</ele>
        <time>2021-05-02T15:45:31Z</time>
      </trkpt>
      <trkpt lat="46.54193" lon="0.32764">
        <ele>78.6</ele>
        <time>2021-05-02T15:45:36Z</time>
      </trkpt>
      <trkpt lat="46.54191" lon="0.32764">
        <ele>78.6</ele>
        <time>2021-05-02T15:45:37Z</time>
      </trkpt>
      <trkpt lat="46.54188" lon="0.32762">
        <ele>78.6</ele>
        <time>2021-05-02T15:45:40Z</time>
      </trkpt>
      <trkpt lat="46.54185" lon="0.32763">
        <ele>79.6</ele>
        <time>2021-05-02T15:45:42Z</time>
      </trkpt>
      <trkpt lat="46.54178" lon="0.32764">
        <ele>80.2</ele>
        <time>2021-05-02T15:45:46Z</time>
      </trkpt>
      <trkpt lat="46.54176" lon="0.32765">
        <ele>80.6</ele>
        <time>2021-05-02T15:45:47Z</time>
      </trkpt>
      <trkpt lat="46.54166" lon="0.32766">
        <ele>81.6</ele>
        <time>2021-05-02T15:45:52Z</time>
      </trkpt>
      <trkpt lat="46.54161" lon="0.32767">
        <ele>82.2</ele>
        <time>2021-05-02T15:45:54Z</time>
      </trkpt>
      <trkpt lat="46.54157" lon="0.32767">
        <ele>83</ele>
        <time>2021-05-02T15:45:56Z</time>
      </trkpt>
      <trkpt lat="46.54147" lon="0.32766">
        <ele>83.4</ele>
        <time>2021-05-02T15:46:00Z</time>
      </trkpt>
      <trkpt lat="46.54134" lon="0.32769">
        <ele>84</ele>
        <time>2021-05-02T15:46:05Z</time>
      </trkpt>
      <trkpt lat="46.54132" lon="0.3277">
        <ele>84.2</ele>
        <time>2021-05-02T15:46:06Z</time>
      </trkpt>
      <trkpt lat="46.54125" lon="0.32772">
        <ele>85.2</ele>
        <time>2021-05-02T15:46:10Z</time>
      </trkpt>
      <trkpt lat="46.54123" lon="0.32772">
        <ele>85.6</ele>
        <time>2021-05-02T15:46:12Z</time>
      </trkpt>
      <trkpt lat="46.54115" lon="0.32775">
        <ele>86.4</ele>
        <time>2021-05-02T15:46:18Z</time>
      </trkpt>
      <trkpt lat="46.54113" lon="0.32776">
        <ele>86.8</ele>
        <time>2021-05-02T15:46:20Z</time>
      </trkpt>
      <trkpt lat="46.54109" lon="0.32777">
        <ele>87.6</ele>
        <time>2021-05-02T15:46:22Z</time>
      </trkpt>
      <trkpt lat="46.54104" lon="0.32778">
        <ele>88.8</ele>
        <time>2021-05-02T15:46:26Z</time>
      </trkpt>
      <trkpt lat="46.54097" lon="0.3278">
        <ele>89.6</ele>
        <time>2021-05-02T15:46:30Z</time>
      </trkpt>
      <trkpt lat="46.54095" lon="0.32781">
        <ele>89.8</ele>
        <time>2021-05-02T15:46:31Z</time>
      </trkpt>
      <trkpt lat="46.54087" lon="0.32782">
        <ele>91</ele>
        <time>2021-05-02T15:46:36Z</time>
      </trkpt>
      <trkpt lat="46.54079" lon="0.32784">
        <ele>92</ele>
        <time>2021-05-02T15:46:42Z</time>
      </trkpt>
      <trkpt lat="46.54072" lon="0.32786">
        <ele>93.2</ele>
        <time>2021-05-02T15:46:47Z</time>
      </trkpt>
      <trkpt lat="46.54069" lon="0.32789">
        <ele>94.4</ele>
        <time>2021-05-02T15:46:51Z</time>
      </trkpt>
      <trkpt lat="46.54067" lon="0.3279">
        <ele>94.6</ele>
        <time>2021-05-02T15:46:53Z</time>
      </trkpt>
      <trkpt lat="46.54064" lon="0.32791">
        <ele>95.4</ele>
        <time>2021-05-02T15:46:56Z</time>
      </trkpt>
      <trkpt lat="46.54062" lon="0.32791">
        <ele>95.8</ele>
        <time>2021-05-02T15:46:58Z</time>
      </trkpt>
      <trkpt lat="46.5406" lon="0.32792">
        <ele>96</ele>
        <time>2021-05-02T15:47:00Z</time>
      </trkpt>
      <trkpt lat="46.54057" lon="0.32793">
        <ele>96.4</ele>
        <time>2021-05-02T15:47:03Z</time>
      </trkpt>
      <trkpt lat="46.54056" lon="0.32794">
        <ele>96.8</ele>
        <time>2021-05-02T15:47:04Z</time>
      </trkpt>
      <trkpt lat="46.54054" lon="0.32795">
        <ele>97.2</ele>
        <time>2021-05-02T15:47:08Z</time>
      </trkpt>
      <trkpt lat="46.54111" lon="0.32806">
        <ele>80.4</ele>
        <time>2021-05-02T16:04:22Z</time>
      </trkpt>
      <trkpt lat="46.54111" lon="0.32806">
        <ele>80.4</ele>
        <time>2021-05-02T16:04:24Z</time>
      </trkpt>
      <trkpt lat="46.5411" lon="0.32807">
        <ele>80.4</ele>
        <time>2021-05-02T16:04:27Z</time>
      </trkpt>
      <trkpt lat="46.54107" lon="0.32826">
        <ele>79.2</ele>
        <time>2021-05-02T16:07:10Z</time>
      </trkpt>
      <trkpt lat="46.54108" lon="0.32823">
        <ele>78.6</ele>
        <time>2021-05-02T16:07:16Z</time>
      </trkpt>
      <trkpt lat="46.54113" lon="0.32814">
        <ele>78.6</ele>
        <time>2021-05-02T16:07:26Z</time>
      </trkpt>
      <trkpt lat="46.54113" lon="0.32808">
        <ele>79</ele>
        <time>2021-05-02T16:07:29Z</time>
      </trkpt>
      <trkpt lat="46.54114" lon="0.328">
        <ele>80.2</ele>
        <time>2021-05-02T16:07:34Z</time>
      </trkpt>
      <trkpt lat="46.54114" lon="0.32797">
        <ele>80.8</ele>
        <time>2021-05-02T16:07:36Z</time>
      </trkpt>
      <trkpt lat="46.54114" lon="0.32794">
        <ele>81.6</ele>
        <time>2021-05-02T16:07:38Z</time>
      </trkpt>
      <trkpt lat="46.54114" lon="0.32789">
        <ele>82.6</ele>
        <time>2021-05-02T16:07:42Z</time>
      </trkpt>
      <trkpt lat="46.54114" lon="0.32787">
        <ele>83.4</ele>
        <time>2021-05-02T16:07:44Z</time>
      </trkpt>
      <trkpt lat="46.54114" lon="0.32786">
        <ele>83.6</ele>
        <time>2021-05-02T16:07:45Z</time>
      </trkpt>
      <trkpt lat="46.54112" lon="0.32785">
        <ele>84.8</ele>
        <time>2021-05-02T16:07:48Z</time>
      </trkpt>
      <trkpt lat="46.54108" lon="0.3279">
        <ele>85.4</ele>
        <time>2021-05-02T16:07:59Z</time>
      </trkpt>
      <trkpt lat="46.54108" lon="0.32791">
        <ele>84.6</ele>
        <time>2021-05-02T16:08:10Z</time>
      </trkpt>
      <trkpt lat="46.54107" lon="0.32796">
        <ele>83.6</ele>
        <time>2021-05-02T16:08:15Z</time>
      </trkpt>
      <trkpt lat="46.54107" lon="0.32797">
        <ele>83.2</ele>
        <time>2021-05-02T16:08:16Z</time>
      </trkpt>
      <trkpt lat="46.54106" lon="0.32798">
        <ele>82.4</ele>
        <time>2021-05-02T16:08:18Z</time>
      </trkpt>
      <trkpt lat="46.54106" lon="0.32799">
        <ele>81.8</ele>
        <time>2021-05-02T16:08:20Z</time>
      </trkpt>
      <trkpt lat="46.54105" lon="0.328">
        <ele>81.4</ele>
        <time>2021-05-02T16:08:22Z</time>
      </trkpt>
      <trkpt lat="46.54104" lon="0.328">
        <ele>81</ele>
        <time>2021-05-02T16:08:25Z</time>
      </trkpt>
      <trkpt lat="46.54108" lon="0.32799">
        <ele>81</ele>
        <time>2021-05-02T16:08:31Z</time>
      </trkpt>
      <trkpt lat="46.54109" lon="0.32798">
        <ele>81.4</ele>
        <time>2021-05-02T16:08:44Z</time>
      </trkpt>
      <trkpt lat="46.54114" lon="0.32797">
        <ele>81</ele>
        <time>2021-05-02T16:08:52Z</time>
      </trkpt>
      <trkpt lat="46.54115" lon="0.32798">
        <ele>80</ele>
        <time>2021-05-02T16:08:53Z</time>
      </trkpt>
      <trkpt lat="46.54115" lon="0.328">
        <ele>79.4</ele>
        <time>2021-05-02T16:08:54Z</time>
      </trkpt>
      <trkpt lat="46.54115" lon="0.32801">
        <ele>79</ele>
        <time>2021-05-02T16:08:55Z</time>
      </trkpt>
      <trkpt lat="46.54115" lon="0.32802">
        <ele>78.8</ele>
        <time>2021-05-02T16:08:56Z</time>
      </trkpt>
      <trkpt lat="46.54113" lon="0.32804">
        <ele>78.4</ele>
        <time>2021-05-02T16:08:58Z</time>
      </trkpt>
      <trkpt lat="46.54112" lon="0.32806">
        <ele>80.4</ele>
        <time>2021-05-02T16:09:00Z</time>
      </trkpt>
      <trkpt lat="46.5411" lon="0.32808">
        <ele>80.4</ele>
        <time>2021-05-02T16:09:02Z</time>
      </trkpt>
      <trkpt lat="46.54112" lon="0.32807">
        <ele>80.2</ele>
        <time>2021-05-02T16:09:15Z</time>
      </trkpt>
      <trkpt lat="46.54115" lon="0.32805">
        <ele>80.2</ele>
        <time>2021-05-02T16:09:24Z</time>
      </trkpt>
      <trkpt lat="46.54115" lon="0.32804">
        <ele>80.2</ele>
        <time>2021-05-02T16:09:26Z</time>
      </trkpt>
      <trkpt lat="46.54115" lon="0.32804">
        <ele>80.2</ele>
        <time>2021-05-02T16:09:27Z</time>
      </trkpt>
      <trkpt lat="46.54114" lon="0.32804">
        <ele>79.8</ele>
        <time>2021-05-02T16:09:41Z</time>
      </trkpt>
      <trkpt lat="46.54113" lon="0.32805">
        <ele>79.8</ele>
        <time>2021-05-02T16:09:55Z</time>
      </trkpt>
      <trkpt lat="46.54115" lon="0.32805">
        <ele>80.2</ele>
        <time>2021-05-02T16:10:09Z</time>
      </trkpt>
      <trkpt lat="46.54111" lon="0.32811">
        <ele>80.2</ele>
        <time>2021-05-02T16:10:13Z</time>
      </trkpt>
      <trkpt lat="46.54108" lon="0.32813">
        <ele>80.4</ele>
        <time>2021-05-02T16:10:15Z</time>
      </trkpt>
      <trkpt lat="46.54105" lon="0.32815">
        <ele>80.4</ele>
        <time>2021-05-02T16:10:17Z</time>
      </trkpt>
      <trkpt lat="46.54101" lon="0.32819">
        <ele>80.4</ele>
        <time>2021-05-02T16:10:20Z</time>
      </trkpt>
      <trkpt lat="46.54096" lon="0.32825">
        <ele>80.8</ele>
        <time>2021-05-02T16:10:24Z</time>
      </trkpt>
      <trkpt lat="46.54091" lon="0.32834">
        <ele>81.4</ele>
        <time>2021-05-02T16:10:29Z</time>
      </trkpt>
      <trkpt lat="46.5409" lon="0.32838">
        <ele>81.6</ele>
        <time>2021-05-02T16:10:31Z</time>
      </trkpt>
      <trkpt lat="46.54085" lon="0.32847">
        <ele>82</ele>
        <time>2021-05-02T16:10:37Z</time>
      </trkpt>
      <trkpt lat="46.54074" lon="0.32853">
        <ele>81.8</ele>
        <time>2021-05-02T16:10:42Z</time>
      </trkpt>
      <trkpt lat="46.5406" lon="0.32858">
        <ele>81.2</ele>
        <time>2021-05-02T16:10:47Z</time>
      </trkpt>
      <trkpt lat="46.54055" lon="0.3286">
        <ele>81</ele>
        <time>2021-05-02T16:10:48Z</time>
      </trkpt>
      <trkpt lat="46.54041" lon="0.32864">
        <ele>80.4</ele>
        <time>2021-05-02T16:10:55Z</time>
      </trkpt>
      <trkpt lat="46.54038" lon="0.32865">
        <ele>80.2</ele>
        <time>2021-05-02T16:10:56Z</time>
      </trkpt>
      <trkpt lat="46.54027" lon="0.32869">
        <ele>79.2</ele>
        <time>2021-05-02T16:11:00Z</time>
      </trkpt>
      <trkpt lat="46.54018" lon="0.32875">
        <ele>79</ele>
        <time>2021-05-02T16:11:03Z</time>
      </trkpt>
      <trkpt lat="46.54007" lon="0.32884">
        <ele>79</ele>
        <time>2021-05-02T16:11:08Z</time>
      </trkpt>
      <trkpt lat="46.54005" lon="0.32887">
        <ele>79</ele>
        <time>2021-05-02T16:11:09Z</time>
      </trkpt>
      <trkpt lat="46.53994" lon="0.32901">
        <ele>79</ele>
        <time>2021-05-02T16:11:14Z</time>
      </trkpt>
      <trkpt lat="46.53982" lon="0.32916">
        <ele>79.4</ele>
        <time>2021-05-02T16:11:20Z</time>
      </trkpt>
      <trkpt lat="46.5397" lon="0.32929">
        <ele>79.6</ele>
        <time>2021-05-02T16:11:26Z</time>
      </trkpt>
      <trkpt lat="46.53956" lon="0.32943">
        <ele>79.8</ele>
        <time>2021-05-02T16:11:33Z</time>
      </trkpt>
      <trkpt lat="46.53952" lon="0.32949">
        <ele>80</ele>
        <time>2021-05-02T16:11:35Z</time>
      </trkpt>
      <trkpt lat="46.53945" lon="0.32962">
        <ele>80.2</ele>
        <time>2021-05-02T16:11:39Z</time>
      </trkpt>
      <trkpt lat="46.53935" lon="0.32982">
        <ele>80</ele>
        <time>2021-05-02T16:11:44Z</time>
      </trkpt>
      <trkpt lat="46.5392" lon="0.33007">
        <ele>80</ele>
        <time>2021-05-02T16:11:51Z</time>
      </trkpt>
      <trkpt lat="46.53906" lon="0.33034">
        <ele>79.8</ele>
        <time>2021-05-02T16:11:58Z</time>
      </trkpt>
      <trkpt lat="46.53894" lon="0.33062">
        <ele>80.4</ele>
        <time>2021-05-02T16:12:05Z</time>
      </trkpt>
      <trkpt lat="46.53886" lon="0.33079">
        <ele>81.6</ele>
        <time>2021-05-02T16:12:10Z</time>
      </trkpt>
      <trkpt lat="46.53885" lon="0.33084">
        <ele>81.6</ele>
        <time>2021-05-02T16:12:11Z</time>
      </trkpt>
      <trkpt lat="46.53877" lon="0.33111">
        <ele>81.2</ele>
        <time>2021-05-02T16:12:17Z</time>
      </trkpt>
      <trkpt lat="46.53873" lon="0.33133">
        <ele>81.6</ele>
        <time>2021-05-02T16:12:23Z</time>
      </trkpt>
      <trkpt lat="46.53875" lon="0.33149">
        <ele>80.8</ele>
        <time>2021-05-02T16:12:27Z</time>
      </trkpt>
      <trkpt lat="46.53877" lon="0.33169">
        <ele>80.4</ele>
        <time>2021-05-02T16:12:31Z</time>
      </trkpt>
      <trkpt lat="46.53878" lon="0.33175">
        <ele>79.8</ele>
        <time>2021-05-02T16:12:33Z</time>
      </trkpt>
      <trkpt lat="46.53882" lon="0.33181">
        <ele>79.6</ele>
        <time>2021-05-02T16:12:39Z</time>
      </trkpt>
      <trkpt lat="46.53883" lon="0.33185">
        <ele>79.6</ele>
        <time>2021-05-02T16:12:51Z</time>
      </trkpt>
      <trkpt lat="46.53883" lon="0.33186">
        <ele>79.6</ele>
        <time>2021-05-02T16:13:10Z</time>
      </trkpt>
      <trkpt lat="46.53884" lon="0.33186">
        <ele>79.6</ele>
        <time>2021-05-02T16:13:25Z</time>
      </trkpt>
      <trkpt lat="46.53889" lon="0.33185">
        <ele>79.6</ele>
        <time>2021-05-02T16:13:40Z</time>
      </trkpt>
      <trkpt lat="46.53896" lon="0.33188">
        <ele>79.6</ele>
        <time>2021-05-02T16:13:54Z</time>
      </trkpt>
      <trkpt lat="46.53899" lon="0.33189">
        <ele>79.6</ele>
        <time>2021-05-02T16:14:05Z</time>
      </trkpt>
      <trkpt lat="46.53904" lon="0.33189">
        <ele>79.6</ele>
        <time>2021-05-02T16:14:19Z</time>
      </trkpt>
      <trkpt lat="46.53909" lon="0.33189">
        <ele>79.6</ele>
        <time>2021-05-02T16:14:35Z</time>
      </trkpt>
      <trkpt lat="46.53915" lon="0.33186">
        <ele>79.6</ele>
        <time>2021-05-02T16:14:52Z</time>
      </trkpt>
      <trkpt lat="46.53922" lon="0.33186">
        <ele>79.6</ele>
        <time>2021-05-02T16:15:11Z</time>
      </trkpt>
      <trkpt lat="46.53925" lon="0.33189">
        <ele>79.6</ele>
        <time>2021-05-02T16:15:28Z</time>
      </trkpt>
      <trkpt lat="46.53928" lon="0.33191">
        <ele>79.6</ele>
        <time>2021-05-02T16:15:47Z</time>
      </trkpt>
      <trkpt lat="46.53931" lon="0.33193">
        <ele>79.6</ele>
        <time>2021-05-02T16:16:00Z</time>
      </trkpt>
      <trkpt lat="46.53931" lon="0.33194">
        <ele>79.6</ele>
        <time>2021-05-02T16:16:25Z</time>
      </trkpt>
      <trkpt lat="46.53933" lon="0.33197">
        <ele>79.6</ele>
        <time>2021-05-02T16:16:44Z</time>
      </trkpt>
      <trkpt lat="46.53935" lon="0.33203">
        <ele>79.6</ele>
        <time>2021-05-02T16:16:47Z</time>
      </trkpt>
      <trkpt lat="46.5394" lon="0.33222">
        <ele>80.4</ele>
        <time>2021-05-02T16:16:53Z</time>
      </trkpt>
      <trkpt lat="46.53946" lon="0.33238">
        <ele>80.4</ele>
        <time>2021-05-02T16:16:58Z</time>
      </trkpt>
      <trkpt lat="46.53948" lon="0.33243">
        <ele>80.8</ele>
        <time>2021-05-02T16:17:00Z</time>
      </trkpt>
      <trkpt lat="46.53953" lon="0.3325">
        <ele>80.4</ele>
        <time>2021-05-02T16:17:03Z</time>
      </trkpt>
      <trkpt lat="46.53957" lon="0.33268">
        <ele>80.4</ele>
        <time>2021-05-02T16:17:08Z</time>
      </trkpt>
      <trkpt lat="46.53959" lon="0.33283">
        <ele>80.2</ele>
        <time>2021-05-02T16:17:11Z</time>
      </trkpt>
      <trkpt lat="46.53962" lon="0.33295">
        <ele>80.4</ele>
        <time>2021-05-02T16:17:13Z</time>
      </trkpt>
      <trkpt lat="46.53964" lon="0.33301">
        <ele>80.4</ele>
        <time>2021-05-02T16:17:14Z</time>
      </trkpt>
      <trkpt lat="46.53969" lon="0.33322">
        <ele>80.4</ele>
        <time>2021-05-02T16:17:17Z</time>
      </trkpt>
      <trkpt lat="46.53971" lon="0.33329">
        <ele>80.2</ele>
        <time>2021-05-02T16:17:18Z</time>
      </trkpt>
      <trkpt lat="46.53972" lon="0.33336">
        <ele>80</ele>
        <time>2021-05-02T16:17:19Z</time>
      </trkpt>
      <trkpt lat="46.53977" lon="0.33358">
        <ele>80</ele>
        <time>2021-05-02T16:17:22Z</time>
      </trkpt>
      <trkpt lat="46.53979" lon="0.33365">
        <ele>80</ele>
        <time>2021-05-02T16:17:23Z</time>
      </trkpt>
      <trkpt lat="46.53988" lon="0.33391">
        <ele>80.6</ele>
        <time>2021-05-02T16:17:27Z</time>
      </trkpt>
      <trkpt lat="46.53993" lon="0.33405">
        <ele>80.4</ele>
        <time>2021-05-02T16:17:29Z</time>
      </trkpt>
      <trkpt lat="46.53996" lon="0.3342">
        <ele>80.4</ele>
        <time>2021-05-02T16:17:31Z</time>
      </trkpt>
      <trkpt lat="46.53998" lon="0.33428">
        <ele>80.4</ele>
        <time>2021-05-02T16:17:32Z</time>
      </trkpt>
      <trkpt lat="46.54003" lon="0.33441">
        <ele>80.2</ele>
        <time>2021-05-02T16:17:33Z</time>
      </trkpt>
      <trkpt lat="46.54012" lon="0.33459">
        <ele>80.2</ele>
        <time>2021-05-02T16:17:37Z</time>
      </trkpt>
      <trkpt lat="46.54025" lon="0.33479">
        <ele>80.2</ele>
        <time>2021-05-02T16:17:41Z</time>
      </trkpt>
      <trkpt lat="46.54031" lon="0.33486">
        <ele>80.2</ele>
        <time>2021-05-02T16:17:43Z</time>
      </trkpt>
      <trkpt lat="46.54033" lon="0.33488">
        <ele>80.2</ele>
        <time>2021-05-02T16:17:44Z</time>
      </trkpt>
      <trkpt lat="46.54045" lon="0.33501">
        <ele>80.6</ele>
        <time>2021-05-02T16:17:49Z</time>
      </trkpt>
      <trkpt lat="46.54057" lon="0.33527">
        <ele>80.8</ele>
        <time>2021-05-02T16:17:55Z</time>
      </trkpt>
      <trkpt lat="46.5406" lon="0.33536">
        <ele>80.8</ele>
        <time>2021-05-02T16:17:57Z</time>
      </trkpt>
      <trkpt lat="46.54067" lon="0.33552">
        <ele>80.8</ele>
        <time>2021-05-02T16:18:00Z</time>
      </trkpt>
      <trkpt lat="46.54071" lon="0.33563">
        <ele>80.8</ele>
        <time>2021-05-02T16:18:02Z</time>
      </trkpt>
      <trkpt lat="46.54073" lon="0.33574">
        <ele>81</ele>
        <time>2021-05-02T16:18:04Z</time>
      </trkpt>
      <trkpt lat="46.54075" lon="0.33579">
        <ele>81</ele>
        <time>2021-05-02T16:18:05Z</time>
      </trkpt>
      <trkpt lat="46.54078" lon="0.33585">
        <ele>81</ele>
        <time>2021-05-02T16:18:06Z</time>
      </trkpt>
      <trkpt lat="46.54086" lon="0.33604">
        <ele>80.6</ele>
        <time>2021-05-02T16:18:10Z</time>
      </trkpt>
      <trkpt lat="46.5409" lon="0.33615">
        <ele>80.4</ele>
        <time>2021-05-02T16:18:12Z</time>
      </trkpt>
      <trkpt lat="46.54095" lon="0.33631">
        <ele>80.6</ele>
        <time>2021-05-02T16:18:15Z</time>
      </trkpt>
      <trkpt lat="46.54099" lon="0.33646">
        <ele>80.8</ele>
        <time>2021-05-02T16:18:18Z</time>
      </trkpt>
      <trkpt lat="46.54101" lon="0.3366">
        <ele>80.6</ele>
        <time>2021-05-02T16:18:20Z</time>
      </trkpt>
      <trkpt lat="46.54102" lon="0.33667">
        <ele>80.6</ele>
        <time>2021-05-02T16:18:21Z</time>
      </trkpt>
      <trkpt lat="46.54104" lon="0.33683">
        <ele>80.6</ele>
        <time>2021-05-02T16:18:24Z</time>
      </trkpt>
      <trkpt lat="46.54106" lon="0.33699">
        <ele>80.8</ele>
        <time>2021-05-02T16:18:27Z</time>
      </trkpt>
      <trkpt lat="46.54108" lon="0.33735">
        <ele>81.2</ele>
        <time>2021-05-02T16:18:33Z</time>
      </trkpt>
      <trkpt lat="46.54111" lon="0.33774">
        <ele>81.2</ele>
        <time>2021-05-02T16:18:39Z</time>
      </trkpt>
      <trkpt lat="46.54112" lon="0.33781">
        <ele>81</ele>
        <time>2021-05-02T16:18:40Z</time>
      </trkpt>
      <trkpt lat="46.54114" lon="0.33804">
        <ele>81</ele>
        <time>2021-05-02T16:18:43Z</time>
      </trkpt>
      <trkpt lat="46.54114" lon="0.33811">
        <ele>81.2</ele>
        <time>2021-05-02T16:18:44Z</time>
      </trkpt>
      <trkpt lat="46.54116" lon="0.33831">
        <ele>81</ele>
        <time>2021-05-02T16:18:47Z</time>
      </trkpt>
      <trkpt lat="46.54118" lon="0.33853">
        <ele>81</ele>
        <time>2021-05-02T16:18:50Z</time>
      </trkpt>
      <trkpt lat="46.54119" lon="0.3386">
        <ele>80.8</ele>
        <time>2021-05-02T16:18:51Z</time>
      </trkpt>
      <trkpt lat="46.54119" lon="0.3389">
        <ele>80.6</ele>
        <time>2021-05-02T16:18:55Z</time>
      </trkpt>
      <trkpt lat="46.54119" lon="0.33913">
        <ele>80.8</ele>
        <time>2021-05-02T16:18:58Z</time>
      </trkpt>
      <trkpt lat="46.54119" lon="0.33932">
        <ele>80.8</ele>
        <time>2021-05-02T16:19:01Z</time>
      </trkpt>
      <trkpt lat="46.54116" lon="0.33947">
        <ele>81</ele>
        <time>2021-05-02T16:19:03Z</time>
      </trkpt>
      <trkpt lat="46.54115" lon="0.33963">
        <ele>81</ele>
        <time>2021-05-02T16:19:05Z</time>
      </trkpt>
      <trkpt lat="46.54112" lon="0.33984">
        <ele>80.6</ele>
        <time>2021-05-02T16:19:08Z</time>
      </trkpt>
      <trkpt lat="46.54109" lon="0.33997">
        <ele>80.6</ele>
        <time>2021-05-02T16:19:10Z</time>
      </trkpt>
      <trkpt lat="46.54107" lon="0.34027">
        <ele>80.4</ele>
        <time>2021-05-02T16:19:15Z</time>
      </trkpt>
      <trkpt lat="46.54104" lon="0.34053">
        <ele>80.4</ele>
        <time>2021-05-02T16:19:21Z</time>
      </trkpt>
      <trkpt lat="46.54101" lon="0.34073">
        <ele>80.2</ele>
        <time>2021-05-02T16:19:27Z</time>
      </trkpt>
      <trkpt lat="46.54098" lon="0.34088">
        <ele>80</ele>
        <time>2021-05-02T16:19:34Z</time>
      </trkpt>
      <trkpt lat="46.54096" lon="0.34099">
        <ele>80</ele>
        <time>2021-05-02T16:19:39Z</time>
      </trkpt>
      <trkpt lat="46.54095" lon="0.34101">
        <ele>80</ele>
        <time>2021-05-02T16:19:40Z</time>
      </trkpt>
      <trkpt lat="46.54089" lon="0.34117">
        <ele>80</ele>
        <time>2021-05-02T16:19:45Z</time>
      </trkpt>
      <trkpt lat="46.54077" lon="0.34139">
        <ele>80.2</ele>
        <time>2021-05-02T16:19:51Z</time>
      </trkpt>
      <trkpt lat="46.5407" lon="0.34154">
        <ele>80.4</ele>
        <time>2021-05-02T16:19:54Z</time>
      </trkpt>
      <trkpt lat="46.54065" lon="0.34163">
        <ele>80.4</ele>
        <time>2021-05-02T16:19:56Z</time>
      </trkpt>
      <trkpt lat="46.54057" lon="0.34172">
        <ele>80.4</ele>
        <time>2021-05-02T16:19:59Z</time>
      </trkpt>
      <trkpt lat="46.54054" lon="0.34179">
        <ele>80.2</ele>
        <time>2021-05-02T16:20:01Z</time>
      </trkpt>
      <trkpt lat="46.54043" lon="0.3419">
        <ele>80.4</ele>
        <time>2021-05-02T16:20:05Z</time>
      </trkpt>
      <trkpt lat="46.54031" lon="0.34212">
        <ele>80.6</ele>
        <time>2021-05-02T16:20:10Z</time>
      </trkpt>
      <trkpt lat="46.54022" lon="0.34232">
        <ele>80.6</ele>
        <time>2021-05-02T16:20:14Z</time>
      </trkpt>
      <trkpt lat="46.54016" lon="0.34248">
        <ele>80.4</ele>
        <time>2021-05-02T16:20:17Z</time>
      </trkpt>
      <trkpt lat="46.54008" lon="0.34271">
        <ele>80.2</ele>
        <time>2021-05-02T16:20:22Z</time>
      </trkpt>
      <trkpt lat="46.53998" lon="0.3429">
        <ele>80.6</ele>
        <time>2021-05-02T16:20:27Z</time>
      </trkpt>
      <trkpt lat="46.53986" lon="0.34311">
        <ele>80.8</ele>
        <time>2021-05-02T16:20:33Z</time>
      </trkpt>
      <trkpt lat="46.53973" lon="0.34327">
        <ele>81.2</ele>
        <time>2021-05-02T16:20:39Z</time>
      </trkpt>
      <trkpt lat="46.53971" lon="0.34329">
        <ele>81.4</ele>
        <time>2021-05-02T16:20:40Z</time>
      </trkpt>
      <trkpt lat="46.53966" lon="0.34338">
        <ele>82</ele>
        <time>2021-05-02T16:20:44Z</time>
      </trkpt>
      <trkpt lat="46.5396" lon="0.34345">
        <ele>82.4</ele>
        <time>2021-05-02T16:20:47Z</time>
      </trkpt>
      <trkpt lat="46.53947" lon="0.34355">
        <ele>83.2</ele>
        <time>2021-05-02T16:20:52Z</time>
      </trkpt>
      <trkpt lat="46.53942" lon="0.3436">
        <ele>83.6</ele>
        <time>2021-05-02T16:20:54Z</time>
      </trkpt>
      <trkpt lat="46.53932" lon="0.34371">
        <ele>84.2</ele>
        <time>2021-05-02T16:20:58Z</time>
      </trkpt>
      <trkpt lat="46.53926" lon="0.34379">
        <ele>84.6</ele>
        <time>2021-05-02T16:21:01Z</time>
      </trkpt>
      <trkpt lat="46.53917" lon="0.34395">
        <ele>85.4</ele>
        <time>2021-05-02T16:21:06Z</time>
      </trkpt>
      <trkpt lat="46.53914" lon="0.34402">
        <ele>85.8</ele>
        <time>2021-05-02T16:21:08Z</time>
      </trkpt>
      <trkpt lat="46.53913" lon="0.34419">
        <ele>86.8</ele>
        <time>2021-05-02T16:21:12Z</time>
      </trkpt>
      <trkpt lat="46.53914" lon="0.3443">
        <ele>88.2</ele>
        <time>2021-05-02T16:21:15Z</time>
      </trkpt>
      <trkpt lat="46.53917" lon="0.34444">
        <ele>89.6</ele>
        <time>2021-05-02T16:21:19Z</time>
      </trkpt>
      <trkpt lat="46.5392" lon="0.34457">
        <ele>91</ele>
        <time>2021-05-02T16:21:23Z</time>
      </trkpt>
      <trkpt lat="46.53923" lon="0.34467">
        <ele>91.6</ele>
        <time>2021-05-02T16:21:27Z</time>
      </trkpt>
      <trkpt lat="46.53925" lon="0.34468">
        <ele>91.6</ele>
        <time>2021-05-02T16:21:29Z</time>
      </trkpt>
      <trkpt lat="46.53927" lon="0.34467">
        <ele>92</ele>
        <time>2021-05-02T16:21:30Z</time>
      </trkpt>
      <trkpt lat="46.53928" lon="0.34464">
        <ele>92.4</ele>
        <time>2021-05-02T16:21:31Z</time>
      </trkpt>
      <trkpt lat="46.53928" lon="0.34464">
        <ele>92.4</ele>
        <time>2021-05-02T16:21:32Z</time>
      </trkpt>
      <trkpt lat="46.5393" lon="0.34455">
        <ele>93.2</ele>
        <time>2021-05-02T16:21:35Z</time>
      </trkpt>
      <trkpt lat="46.53933" lon="0.34446">
        <ele>94</ele>
        <time>2021-05-02T16:21:39Z</time>
      </trkpt>
      <trkpt lat="46.53934" lon="0.34443">
        <ele>94.2</ele>
        <time>2021-05-02T16:21:40Z</time>
      </trkpt>
      <trkpt lat="46.53939" lon="0.34432">
        <ele>95.4</ele>
        <time>2021-05-02T16:21:45Z</time>
      </trkpt>
      <trkpt lat="46.53943" lon="0.34425">
        <ele>96.4</ele>
        <time>2021-05-02T16:21:49Z</time>
      </trkpt>
      <trkpt lat="46.53947" lon="0.3442">
        <ele>97.2</ele>
        <time>2021-05-02T16:21:52Z</time>
      </trkpt>
      <trkpt lat="46.53948" lon="0.34419">
        <ele>97.4</ele>
        <time>2021-05-02T16:21:53Z</time>
      </trkpt>
      <trkpt lat="46.53953" lon="0.34415">
        <ele>98</ele>
        <time>2021-05-02T16:21:56Z</time>
      </trkpt>
      <trkpt lat="46.53956" lon="0.34412">
        <ele>98.4</ele>
        <time>2021-05-02T16:21:59Z</time>
      </trkpt>
      <trkpt lat="46.53958" lon="0.34411">
        <ele>98.6</ele>
        <time>2021-05-02T16:22:00Z</time>
      </trkpt>
      <trkpt lat="46.53959" lon="0.3441">
        <ele>99</ele>
        <time>2021-05-02T16:22:01Z</time>
      </trkpt>
      <trkpt lat="46.53962" lon="0.34408">
        <ele>99.6</ele>
        <time>2021-05-02T16:22:03Z</time>
      </trkpt>
      <trkpt lat="46.53966" lon="0.34404">
        <ele>100.2</ele>
        <time>2021-05-02T16:22:06Z</time>
      </trkpt>
      <trkpt lat="46.53971" lon="0.34401">
        <ele>100.8</ele>
        <time>2021-05-02T16:22:09Z</time>
      </trkpt>
      <trkpt lat="46.53976" lon="0.34399">
        <ele>101</ele>
        <time>2021-05-02T16:22:12Z</time>
      </trkpt>
      <trkpt lat="46.53984" lon="0.34398">
        <ele>102</ele>
        <time>2021-05-02T16:22:16Z</time>
      </trkpt>
      <trkpt lat="46.5399" lon="0.34396">
        <ele>102.4</ele>
        <time>2021-05-02T16:22:19Z</time>
      </trkpt>
      <trkpt lat="46.53993" lon="0.34395">
        <ele>103</ele>
        <time>2021-05-02T16:22:21Z</time>
      </trkpt>
      <trkpt lat="46.53999" lon="0.34394">
        <ele>103.8</ele>
        <time>2021-05-02T16:22:24Z</time>
      </trkpt>
      <trkpt lat="46.54" lon="0.34396">
        <ele>104</ele>
        <time>2021-05-02T16:22:25Z</time>
      </trkpt>
      <trkpt lat="46.54" lon="0.34397">
        <ele>104.2</ele>
        <time>2021-05-02T16:22:26Z</time>
      </trkpt>
      <trkpt lat="46.54" lon="0.34399">
        <ele>104.2</ele>
        <time>2021-05-02T16:22:27Z</time>
      </trkpt>
      <trkpt lat="46.53998" lon="0.34402">
        <ele>104.4</ele>
        <time>2021-05-02T16:22:29Z</time>
      </trkpt>
      <trkpt lat="46.53997" lon="0.34401">
        <ele>104.6</ele>
        <time>2021-05-02T16:22:32Z</time>
      </trkpt>
      <trkpt lat="46.53998" lon="0.34399">
        <ele>104.6</ele>
        <time>2021-05-02T16:22:33Z</time>
      </trkpt>
      <trkpt lat="46.53999" lon="0.34397">
        <ele>104.6</ele>
        <time>2021-05-02T16:22:34Z</time>
      </trkpt>
      <trkpt lat="46.54002" lon="0.34395">
        <ele>104.6</ele>
        <time>2021-05-02T16:22:36Z</time>
      </trkpt>
      <trkpt lat="46.54003" lon="0.34395">
        <ele>104.4</ele>
        <time>2021-05-02T16:22:37Z</time>
      </trkpt>
      <trkpt lat="46.54005" lon="0.34393">
        <ele>104.4</ele>
        <time>2021-05-02T16:22:38Z</time>
      </trkpt>
      <trkpt lat="46.54009" lon="0.34386">
        <ele>104.2</ele>
        <time>2021-05-02T16:22:41Z</time>
      </trkpt>
      <trkpt lat="46.54012" lon="0.34378">
        <ele>103</ele>
        <time>2021-05-02T16:22:43Z</time>
      </trkpt>
      <trkpt lat="46.54012" lon="0.34371">
        <ele>100.8</ele>
        <time>2021-05-02T16:22:45Z</time>
      </trkpt>
      <trkpt lat="46.54012" lon="0.34368">
        <ele>100</ele>
        <time>2021-05-02T16:22:46Z</time>
      </trkpt>
      <trkpt lat="46.54011" lon="0.34365">
        <ele>99.2</ele>
        <time>2021-05-02T16:22:47Z</time>
      </trkpt>
      <trkpt lat="46.54009" lon="0.34362">
        <ele>98</ele>
        <time>2021-05-02T16:22:48Z</time>
      </trkpt>
      <trkpt lat="46.54007" lon="0.34359">
        <ele>96.4</ele>
        <time>2021-05-02T16:22:49Z</time>
      </trkpt>
      <trkpt lat="46.54005" lon="0.34356">
        <ele>94.4</ele>
        <time>2021-05-02T16:22:50Z</time>
      </trkpt>
      <trkpt lat="46.54005" lon="0.34353">
        <ele>92.6</ele>
        <time>2021-05-02T16:22:51Z</time>
      </trkpt>
      <trkpt lat="46.54004" lon="0.34351">
        <ele>90.6</ele>
        <time>2021-05-02T16:22:52Z</time>
      </trkpt>
      <trkpt lat="46.54002" lon="0.34347">
        <ele>88.8</ele>
        <time>2021-05-02T16:22:53Z</time>
      </trkpt>
      <trkpt lat="46.54" lon="0.34344">
        <ele>87.2</ele>
        <time>2021-05-02T16:22:54Z</time>
      </trkpt>
      <trkpt lat="46.53998" lon="0.34342">
        <ele>85.8</ele>
        <time>2021-05-02T16:22:55Z</time>
      </trkpt>
      <trkpt lat="46.53997" lon="0.3434">
        <ele>84.4</ele>
        <time>2021-05-02T16:22:56Z</time>
      </trkpt>
      <trkpt lat="46.53994" lon="0.34334">
        <ele>82.6</ele>
        <time>2021-05-02T16:22:58Z</time>
      </trkpt>
      <trkpt lat="46.53991" lon="0.34332">
        <ele>81.8</ele>
        <time>2021-05-02T16:22:59Z</time>
      </trkpt>
      <trkpt lat="46.5399" lon="0.34333">
        <ele>81.4</ele>
        <time>2021-05-02T16:23:00Z</time>
      </trkpt>
      <trkpt lat="46.53983" lon="0.34337">
        <ele>80.8</ele>
        <time>2021-05-02T16:23:04Z</time>
      </trkpt>
      <trkpt lat="46.53972" lon="0.34347">
        <ele>81.4</ele>
        <time>2021-05-02T16:23:09Z</time>
      </trkpt>
      <trkpt lat="46.5396" lon="0.34356">
        <ele>82</ele>
        <time>2021-05-02T16:23:15Z</time>
      </trkpt>
      <trkpt lat="46.53955" lon="0.34359">
        <ele>82.6</ele>
        <time>2021-05-02T16:23:17Z</time>
      </trkpt>
      <trkpt lat="46.53944" lon="0.34367">
        <ele>83.6</ele>
        <time>2021-05-02T16:23:22Z</time>
      </trkpt>
      <trkpt lat="46.53941" lon="0.34368">
        <ele>83.8</ele>
        <time>2021-05-02T16:23:23Z</time>
      </trkpt>
      <trkpt lat="46.53931" lon="0.34379">
        <ele>84.4</ele>
        <time>2021-05-02T16:23:28Z</time>
      </trkpt>
      <trkpt lat="46.53927" lon="0.34384">
        <ele>84.8</ele>
        <time>2021-05-02T16:23:30Z</time>
      </trkpt>
      <trkpt lat="46.53917" lon="0.344">
        <ele>85.8</ele>
        <time>2021-05-02T16:23:36Z</time>
      </trkpt>
      <trkpt lat="46.53916" lon="0.34403">
        <ele>85.8</ele>
        <time>2021-05-02T16:23:37Z</time>
      </trkpt>
      <trkpt lat="46.53914" lon="0.34414">
        <ele>86.8</ele>
        <time>2021-05-02T16:23:40Z</time>
      </trkpt>
      <trkpt lat="46.53913" lon="0.34421">
        <ele>87.6</ele>
        <time>2021-05-02T16:23:42Z</time>
      </trkpt>
      <trkpt lat="46.53913" lon="0.34428">
        <ele>88.2</ele>
        <time>2021-05-02T16:23:43Z</time>
      </trkpt>
      <trkpt lat="46.53913" lon="0.34429">
        <ele>88.4</ele>
        <time>2021-05-02T16:23:46Z</time>
      </trkpt>
      <trkpt lat="46.53914" lon="0.34431">
        <ele>88.6</ele>
        <time>2021-05-02T16:23:47Z</time>
      </trkpt>
      <trkpt lat="46.53916" lon="0.3444">
        <ele>89.4</ele>
        <time>2021-05-02T16:23:51Z</time>
      </trkpt>
      <trkpt lat="46.53917" lon="0.34445">
        <ele>89.6</ele>
        <time>2021-05-02T16:23:53Z</time>
      </trkpt>
      <trkpt lat="46.53919" lon="0.34458">
        <ele>90.6</ele>
        <time>2021-05-02T16:23:59Z</time>
      </trkpt>
      <trkpt lat="46.53919" lon="0.34461">
        <ele>90.6</ele>
        <time>2021-05-02T16:24:00Z</time>
      </trkpt>
      <trkpt lat="46.5392" lon="0.34466">
        <ele>91.2</ele>
        <time>2021-05-02T16:24:03Z</time>
      </trkpt>
      <trkpt lat="46.53923" lon="0.34466">
        <ele>91.6</ele>
        <time>2021-05-02T16:24:05Z</time>
      </trkpt>
      <trkpt lat="46.53924" lon="0.34467">
        <ele>91.8</ele>
        <time>2021-05-02T16:24:06Z</time>
      </trkpt>
      <trkpt lat="46.53927" lon="0.34466">
        <ele>92.6</ele>
        <time>2021-05-02T16:24:10Z</time>
      </trkpt>
      <trkpt lat="46.53927" lon="0.34464">
        <ele>92.8</ele>
        <time>2021-05-02T16:24:11Z</time>
      </trkpt>
      <trkpt lat="46.5393" lon="0.34453">
        <ele>93.8</ele>
        <time>2021-05-02T16:24:16Z</time>
      </trkpt>
      <trkpt lat="46.53933" lon="0.34444">
        <ele>94.4</ele>
        <time>2021-05-02T16:24:20Z</time>
      </trkpt>
      <trkpt lat="46.53934" lon="0.3444">
        <ele>94.8</ele>
        <time>2021-05-02T16:24:22Z</time>
      </trkpt>
      <trkpt lat="46.53936" lon="0.34433">
        <ele>95.4</ele>
        <time>2021-05-02T16:24:26Z</time>
      </trkpt>
      <trkpt lat="46.53939" lon="0.34429">
        <ele>96</ele>
        <time>2021-05-02T16:24:29Z</time>
      </trkpt>
      <trkpt lat="46.53943" lon="0.34424">
        <ele>96.6</ele>
        <time>2021-05-02T16:24:34Z</time>
      </trkpt>
      <trkpt lat="46.53945" lon="0.34422">
        <ele>97</ele>
        <time>2021-05-02T16:24:36Z</time>
      </trkpt>
      <trkpt lat="46.5395" lon="0.34418">
        <ele>97.4</ele>
        <time>2021-05-02T16:24:40Z</time>
      </trkpt>
      <trkpt lat="46.53954" lon="0.34415">
        <ele>98</ele>
        <time>2021-05-02T16:24:43Z</time>
      </trkpt>
      <trkpt lat="46.53957" lon="0.34412">
        <ele>99</ele>
        <time>2021-05-02T16:24:47Z</time>
      </trkpt>
      <trkpt lat="46.53959" lon="0.3441">
        <ele>99.2</ele>
        <time>2021-05-02T16:24:49Z</time>
      </trkpt>
      <trkpt lat="46.53968" lon="0.34404">
        <ele>100.2</ele>
        <time>2021-05-02T16:24:57Z</time>
      </trkpt>
      <trkpt lat="46.53974" lon="0.34401">
        <ele>101.4</ele>
        <time>2021-05-02T16:25:03Z</time>
      </trkpt>
      <trkpt lat="46.53986" lon="0.34396">
        <ele>102.4</ele>
        <time>2021-05-02T16:25:11Z</time>
      </trkpt>
      <trkpt lat="46.53988" lon="0.34396">
        <ele>102.6</ele>
        <time>2021-05-02T16:25:12Z</time>
      </trkpt>
      <trkpt lat="46.53998" lon="0.34393">
        <ele>103.6</ele>
        <time>2021-05-02T16:25:18Z</time>
      </trkpt>
      <trkpt lat="46.54005" lon="0.34394">
        <ele>104.8</ele>
        <time>2021-05-02T16:25:22Z</time>
      </trkpt>
      <trkpt lat="46.54018" lon="0.34399">
        <ele>105.2</ele>
        <time>2021-05-02T16:25:28Z</time>
      </trkpt>
      <trkpt lat="46.54031" lon="0.34389">
        <ele>105.4</ele>
        <time>2021-05-02T16:25:33Z</time>
      </trkpt>
      <trkpt lat="46.54042" lon="0.34372">
        <ele>105.4</ele>
        <time>2021-05-02T16:25:39Z</time>
      </trkpt>
      <trkpt lat="46.54047" lon="0.34361">
        <ele>104.2</ele>
        <time>2021-05-02T16:25:42Z</time>
      </trkpt>
      <trkpt lat="46.54055" lon="0.34347">
        <ele>105.8</ele>
        <time>2021-05-02T16:25:46Z</time>
      </trkpt>
      <trkpt lat="46.54057" lon="0.3434">
        <ele>106.8</ele>
        <time>2021-05-02T16:25:48Z</time>
      </trkpt>
      <trkpt lat="46.54061" lon="0.34333">
        <ele>108.2</ele>
        <time>2021-05-02T16:25:51Z</time>
      </trkpt>
      <trkpt lat="46.54062" lon="0.34331">
        <ele>108.6</ele>
        <time>2021-05-02T16:25:52Z</time>
      </trkpt>
      <trkpt lat="46.54065" lon="0.34326">
        <ele>109.2</ele>
        <time>2021-05-02T16:25:54Z</time>
      </trkpt>
      <trkpt lat="46.54068" lon="0.3432">
        <ele>110.6</ele>
        <time>2021-05-02T16:25:57Z</time>
      </trkpt>
      <trkpt lat="46.54071" lon="0.34316">
        <ele>111.2</ele>
        <time>2021-05-02T16:25:59Z</time>
      </trkpt>
      <trkpt lat="46.54073" lon="0.34314">
        <ele>111.8</ele>
        <time>2021-05-02T16:26:00Z</time>
      </trkpt>
      <trkpt lat="46.54076" lon="0.34308">
        <ele>113</ele>
        <time>2021-05-02T16:26:03Z</time>
      </trkpt>
      <trkpt lat="46.54078" lon="0.34306">
        <ele>113.2</ele>
        <time>2021-05-02T16:26:05Z</time>
      </trkpt>
      <trkpt lat="46.54082" lon="0.343">
        <ele>114.2</ele>
        <time>2021-05-02T16:26:08Z</time>
      </trkpt>
      <trkpt lat="46.54086" lon="0.3429">
        <ele>115.2</ele>
        <time>2021-05-02T16:26:13Z</time>
      </trkpt>
      <trkpt lat="46.54087" lon="0.34285">
        <ele>115.4</ele>
        <time>2021-05-02T16:26:15Z</time>
      </trkpt>
      <trkpt lat="46.5409" lon="0.34282">
        <ele>115.8</ele>
        <time>2021-05-02T16:26:17Z</time>
      </trkpt>
      <trkpt lat="46.54093" lon="0.34279">
        <ele>116.2</ele>
        <time>2021-05-02T16:26:20Z</time>
      </trkpt>
      <trkpt lat="46.54094" lon="0.34277">
        <ele>116.4</ele>
        <time>2021-05-02T16:26:21Z</time>
      </trkpt>
      <trkpt lat="46.54096" lon="0.34274">
        <ele>116.8</ele>
        <time>2021-05-02T16:26:23Z</time>
      </trkpt>
      <trkpt lat="46.54101" lon="0.34267">
        <ele>117.4</ele>
        <time>2021-05-02T16:26:27Z</time>
      </trkpt>
      <trkpt lat="46.54103" lon="0.34263">
        <ele>117.8</ele>
        <time>2021-05-02T16:26:29Z</time>
      </trkpt>
      <trkpt lat="46.5411" lon="0.34252">
        <ele>118.6</ele>
        <time>2021-05-02T16:26:35Z</time>
      </trkpt>
      <trkpt lat="46.54118" lon="0.34233">
        <ele>119.4</ele>
        <time>2021-05-02T16:26:42Z</time>
      </trkpt>
      <trkpt lat="46.54124" lon="0.34214">
        <ele>118.8</ele>
        <time>2021-05-02T16:26:46Z</time>
      </trkpt>
      <trkpt lat="46.54126" lon="0.34209">
        <ele>118.8</ele>
        <time>2021-05-02T16:26:47Z</time>
      </trkpt>
      <trkpt lat="46.54131" lon="0.3419">
        <ele>118.6</ele>
        <time>2021-05-02T16:26:51Z</time>
      </trkpt>
      <trkpt lat="46.54138" lon="0.3417">
        <ele>119</ele>
        <time>2021-05-02T16:26:56Z</time>
      </trkpt>
      <trkpt lat="46.54144" lon="0.34152">
        <ele>119.6</ele>
        <time>2021-05-02T16:27:01Z</time>
      </trkpt>
      <trkpt lat="46.54145" lon="0.34149">
        <ele>120.2</ele>
        <time>2021-05-02T16:27:02Z</time>
      </trkpt>
      <trkpt lat="46.54149" lon="0.34141">
        <ele>120.8</ele>
        <time>2021-05-02T16:27:05Z</time>
      </trkpt>
      <trkpt lat="46.54156" lon="0.34128">
        <ele>121</ele>
        <time>2021-05-02T16:27:09Z</time>
      </trkpt>
      <trkpt lat="46.54165" lon="0.34104">
        <ele>121</ele>
        <time>2021-05-02T16:27:15Z</time>
      </trkpt>
      <trkpt lat="46.54171" lon="0.3409">
        <ele>120.8</ele>
        <time>2021-05-02T16:27:18Z</time>
      </trkpt>
      <trkpt lat="46.54173" lon="0.34084">
        <ele>120.6</ele>
        <time>2021-05-02T16:27:19Z</time>
      </trkpt>
      <trkpt lat="46.54177" lon="0.34074">
        <ele>120.4</ele>
        <time>2021-05-02T16:27:21Z</time>
      </trkpt>
      <trkpt lat="46.54179" lon="0.34063">
        <ele>120.4</ele>
        <time>2021-05-02T16:27:23Z</time>
      </trkpt>
      <trkpt lat="46.54181" lon="0.3406">
        <ele>120.4</ele>
        <time>2021-05-02T16:27:24Z</time>
      </trkpt>
      <trkpt lat="46.54185" lon="0.34059">
        <ele>120.4</ele>
        <time>2021-05-02T16:27:26Z</time>
      </trkpt>
      <trkpt lat="46.54187" lon="0.34069">
        <ele>121</ele>
        <time>2021-05-02T16:27:30Z</time>
      </trkpt>
      <trkpt lat="46.54191" lon="0.34092">
        <ele>121.8</ele>
        <time>2021-05-02T16:27:36Z</time>
      </trkpt>
      <trkpt lat="46.54195" lon="0.34114">
        <ele>122.4</ele>
        <time>2021-05-02T16:27:42Z</time>
      </trkpt>
      <trkpt lat="46.54195" lon="0.34119">
        <ele>122.4</ele>
        <time>2021-05-02T16:27:43Z</time>
      </trkpt>
      <trkpt lat="46.54197" lon="0.34134">
        <ele>123</ele>
        <time>2021-05-02T16:27:46Z</time>
      </trkpt>
      <trkpt lat="46.54198" lon="0.34139">
        <ele>123</ele>
        <time>2021-05-02T16:27:47Z</time>
      </trkpt>
      <trkpt lat="46.54205" lon="0.34178">
        <ele>123.8</ele>
        <time>2021-05-02T16:27:54Z</time>
      </trkpt>
      <trkpt lat="46.54206" lon="0.34193">
        <ele>123.8</ele>
        <time>2021-05-02T16:27:57Z</time>
      </trkpt>
      <trkpt lat="46.54207" lon="0.34199">
        <ele>124</ele>
        <time>2021-05-02T16:27:58Z</time>
      </trkpt>
      <trkpt lat="46.54208" lon="0.34212">
        <ele>124.2</ele>
        <time>2021-05-02T16:28:00Z</time>
      </trkpt>
      <trkpt lat="46.54209" lon="0.34219">
        <ele>124.2</ele>
        <time>2021-05-02T16:28:01Z</time>
      </trkpt>
      <trkpt lat="46.54213" lon="0.34243">
        <ele>124.2</ele>
        <time>2021-05-02T16:28:05Z</time>
      </trkpt>
      <trkpt lat="46.54214" lon="0.34249">
        <ele>124.2</ele>
        <time>2021-05-02T16:28:06Z</time>
      </trkpt>
      <trkpt lat="46.54216" lon="0.34255">
        <ele>124</ele>
        <time>2021-05-02T16:28:07Z</time>
      </trkpt>
      <trkpt lat="46.54224" lon="0.34263">
        <ele>124.2</ele>
        <time>2021-05-02T16:28:09Z</time>
      </trkpt>
      <trkpt lat="46.54227" lon="0.34266">
        <ele>124.2</ele>
        <time>2021-05-02T16:28:10Z</time>
      </trkpt>
      <trkpt lat="46.5425" lon="0.3428">
        <ele>123.8</ele>
        <time>2021-05-02T16:28:16Z</time>
      </trkpt>
      <trkpt lat="46.54256" lon="0.34283">
        <ele>123.6</ele>
        <time>2021-05-02T16:28:18Z</time>
      </trkpt>
      <trkpt lat="46.54268" lon="0.34291">
        <ele>123.6</ele>
        <time>2021-05-02T16:28:22Z</time>
      </trkpt>
      <trkpt lat="46.54282" lon="0.34297">
        <ele>123.6</ele>
        <time>2021-05-02T16:28:26Z</time>
      </trkpt>
      <trkpt lat="46.54289" lon="0.34299">
        <ele>123.6</ele>
        <time>2021-05-02T16:28:28Z</time>
      </trkpt>
      <trkpt lat="46.54298" lon="0.343">
        <ele>123.6</ele>
        <time>2021-05-02T16:28:30Z</time>
      </trkpt>
      <trkpt lat="46.54305" lon="0.34304">
        <ele>123.2</ele>
        <time>2021-05-02T16:28:32Z</time>
      </trkpt>
      <trkpt lat="46.5431" lon="0.34308">
        <ele>123.2</ele>
        <time>2021-05-02T16:28:33Z</time>
      </trkpt>
      <trkpt lat="46.54313" lon="0.34314">
        <ele>123</ele>
        <time>2021-05-02T16:28:34Z</time>
      </trkpt>
      <trkpt lat="46.54328" lon="0.34339">
        <ele>122.8</ele>
        <time>2021-05-02T16:28:38Z</time>
      </trkpt>
      <trkpt lat="46.54352" lon="0.3438">
        <ele>122.8</ele>
        <time>2021-05-02T16:28:45Z</time>
      </trkpt>
      <trkpt lat="46.54375" lon="0.34419">
        <ele>122.6</ele>
        <time>2021-05-02T16:28:52Z</time>
      </trkpt>
      <trkpt lat="46.54387" lon="0.34443">
        <ele>122.8</ele>
        <time>2021-05-02T16:28:57Z</time>
      </trkpt>
      <trkpt lat="46.54397" lon="0.34463">
        <ele>123</ele>
        <time>2021-05-02T16:29:01Z</time>
      </trkpt>
      <trkpt lat="46.54404" lon="0.34479">
        <ele>123</ele>
        <time>2021-05-02T16:29:04Z</time>
      </trkpt>
      <trkpt lat="46.54407" lon="0.34491">
        <ele>123.2</ele>
        <time>2021-05-02T16:29:06Z</time>
      </trkpt>
      <trkpt lat="46.54408" lon="0.34497">
        <ele>123.2</ele>
        <time>2021-05-02T16:29:07Z</time>
      </trkpt>
      <trkpt lat="46.54408" lon="0.34504">
        <ele>123.2</ele>
        <time>2021-05-02T16:29:08Z</time>
      </trkpt>
      <trkpt lat="46.54406" lon="0.34515">
        <ele>123.4</ele>
        <time>2021-05-02T16:29:10Z</time>
      </trkpt>
      <trkpt lat="46.54403" lon="0.3452">
        <ele>123.6</ele>
        <time>2021-05-02T16:29:11Z</time>
      </trkpt>
      <trkpt lat="46.54401" lon="0.34524">
        <ele>123.6</ele>
        <time>2021-05-02T16:29:12Z</time>
      </trkpt>
      <trkpt lat="46.54388" lon="0.34541">
        <ele>123.6</ele>
        <time>2021-05-02T16:29:16Z</time>
      </trkpt>
      <trkpt lat="46.54385" lon="0.34545">
        <ele>123.6</ele>
        <time>2021-05-02T16:29:17Z</time>
      </trkpt>
      <trkpt lat="46.54383" lon="0.34556">
        <ele>123.8</ele>
        <time>2021-05-02T16:29:19Z</time>
      </trkpt>
      <trkpt lat="46.54385" lon="0.34566">
        <ele>123.8</ele>
        <time>2021-05-02T16:29:21Z</time>
      </trkpt>
      <trkpt lat="46.54387" lon="0.34575">
        <ele>124</ele>
        <time>2021-05-02T16:29:23Z</time>
      </trkpt>
      <trkpt lat="46.54383" lon="0.3458">
        <ele>124.2</ele>
        <time>2021-05-02T16:29:25Z</time>
      </trkpt>
      <trkpt lat="46.5438" lon="0.34581">
        <ele>124.2</ele>
        <time>2021-05-02T16:29:26Z</time>
      </trkpt>
      <trkpt lat="46.54376" lon="0.34583">
        <ele>124.4</ele>
        <time>2021-05-02T16:29:27Z</time>
      </trkpt>
      <trkpt lat="46.54369" lon="0.34586">
        <ele>124.4</ele>
        <time>2021-05-02T16:29:29Z</time>
      </trkpt>
      <trkpt lat="46.54366" lon="0.34586">
        <ele>124.6</ele>
        <time>2021-05-02T16:29:30Z</time>
      </trkpt>
      <trkpt lat="46.54362" lon="0.34587">
        <ele>124.6</ele>
        <time>2021-05-02T16:29:31Z</time>
      </trkpt>
      <trkpt lat="46.54355" lon="0.34592">
        <ele>124.6</ele>
        <time>2021-05-02T16:29:33Z</time>
      </trkpt>
      <trkpt lat="46.54351" lon="0.34597">
        <ele>124.2</ele>
        <time>2021-05-02T16:29:34Z</time>
      </trkpt>
      <trkpt lat="46.54349" lon="0.34602">
        <ele>124</ele>
        <time>2021-05-02T16:29:35Z</time>
      </trkpt>
      <trkpt lat="46.5434" lon="0.34616">
        <ele>123.8</ele>
        <time>2021-05-02T16:29:37Z</time>
      </trkpt>
      <trkpt lat="46.54336" lon="0.34619">
        <ele>123.8</ele>
        <time>2021-05-02T16:29:39Z</time>
      </trkpt>
      <trkpt lat="46.54328" lon="0.34627">
        <ele>123.8</ele>
        <time>2021-05-02T16:29:41Z</time>
      </trkpt>
      <trkpt lat="46.54319" lon="0.34634">
        <ele>123.6</ele>
        <time>2021-05-02T16:29:43Z</time>
      </trkpt>
      <trkpt lat="46.54309" lon="0.34649">
        <ele>123</ele>
        <time>2021-05-02T16:29:46Z</time>
      </trkpt>
      <trkpt lat="46.54306" lon="0.34654">
        <ele>123</ele>
        <time>2021-05-02T16:29:47Z</time>
      </trkpt>
      <trkpt lat="46.54303" lon="0.3466">
        <ele>123</ele>
        <time>2021-05-02T16:29:48Z</time>
      </trkpt>
      <trkpt lat="46.543" lon="0.34664">
        <ele>123</ele>
        <time>2021-05-02T16:29:49Z</time>
      </trkpt>
      <trkpt lat="46.54293" lon="0.34672">
        <ele>123</ele>
        <time>2021-05-02T16:29:51Z</time>
      </trkpt>
      <trkpt lat="46.5429" lon="0.34677">
        <ele>123.2</ele>
        <time>2021-05-02T16:29:52Z</time>
      </trkpt>
      <trkpt lat="46.54286" lon="0.3468">
        <ele>123.2</ele>
        <time>2021-05-02T16:29:53Z</time>
      </trkpt>
      <trkpt lat="46.5428" lon="0.34683">
        <ele>123</ele>
        <time>2021-05-02T16:29:55Z</time>
      </trkpt>
      <trkpt lat="46.54277" lon="0.34683">
        <ele>123</ele>
        <time>2021-05-02T16:29:56Z</time>
      </trkpt>
      <trkpt lat="46.54273" lon="0.34684">
        <ele>123</ele>
        <time>2021-05-02T16:29:57Z</time>
      </trkpt>
      <trkpt lat="46.54267" lon="0.34691">
        <ele>123</ele>
        <time>2021-05-02T16:29:59Z</time>
      </trkpt>
      <trkpt lat="46.54265" lon="0.347">
        <ele>123.6</ele>
        <time>2021-05-02T16:30:01Z</time>
      </trkpt>
      <trkpt lat="46.54262" lon="0.34712">
        <ele>123.8</ele>
        <time>2021-05-02T16:30:03Z</time>
      </trkpt>
      <trkpt lat="46.54261" lon="0.34723">
        <ele>123.8</ele>
        <time>2021-05-02T16:30:05Z</time>
      </trkpt>
      <trkpt lat="46.54261" lon="0.34734">
        <ele>124.2</ele>
        <time>2021-05-02T16:30:07Z</time>
      </trkpt>
      <trkpt lat="46.54262" lon="0.34739">
        <ele>124.2</ele>
        <time>2021-05-02T16:30:08Z</time>
      </trkpt>
      <trkpt lat="46.54263" lon="0.34746">
        <ele>124.4</ele>
        <time>2021-05-02T16:30:10Z</time>
      </trkpt>
      <trkpt lat="46.54262" lon="0.34754">
        <ele>124.2</ele>
        <time>2021-05-02T16:30:12Z</time>
      </trkpt>
      <trkpt lat="46.54261" lon="0.34758">
        <ele>124.2</ele>
        <time>2021-05-02T16:30:13Z</time>
      </trkpt>
      <trkpt lat="46.54257" lon="0.34769">
        <ele>124.2</ele>
        <time>2021-05-02T16:30:16Z</time>
      </trkpt>
      <trkpt lat="46.54256" lon="0.34774">
        <ele>124.2</ele>
        <time>2021-05-02T16:30:17Z</time>
      </trkpt>
      <trkpt lat="46.54252" lon="0.34788">
        <ele>124.4</ele>
        <time>2021-05-02T16:30:21Z</time>
      </trkpt>
      <trkpt lat="46.54252" lon="0.34792">
        <ele>124.6</ele>
        <time>2021-05-02T16:30:22Z</time>
      </trkpt>
      <trkpt lat="46.54246" lon="0.34817">
        <ele>124.4</ele>
        <time>2021-05-02T16:30:26Z</time>
      </trkpt>
      <trkpt lat="46.54245" lon="0.34824">
        <ele>124.4</ele>
        <time>2021-05-02T16:30:27Z</time>
      </trkpt>
      <trkpt lat="46.54245" lon="0.34837">
        <ele>124.4</ele>
        <time>2021-05-02T16:30:29Z</time>
      </trkpt>
      <trkpt lat="46.54246" lon="0.34843">
        <ele>124.4</ele>
        <time>2021-05-02T16:30:30Z</time>
      </trkpt>
      <trkpt lat="46.54248" lon="0.34849">
        <ele>124.2</ele>
        <time>2021-05-02T16:30:31Z</time>
      </trkpt>
      <trkpt lat="46.54255" lon="0.34859">
        <ele>124.4</ele>
        <time>2021-05-02T16:30:33Z</time>
      </trkpt>
      <trkpt lat="46.5426" lon="0.34861">
        <ele>124.2</ele>
        <time>2021-05-02T16:30:34Z</time>
      </trkpt>
      <trkpt lat="46.54263" lon="0.34864">
        <ele>124.4</ele>
        <time>2021-05-02T16:30:35Z</time>
      </trkpt>
      <trkpt lat="46.54268" lon="0.34873">
        <ele>124</ele>
        <time>2021-05-02T16:30:37Z</time>
      </trkpt>
      <trkpt lat="46.54272" lon="0.34886">
        <ele>123.8</ele>
        <time>2021-05-02T16:30:40Z</time>
      </trkpt>
      <trkpt lat="46.54275" lon="0.34888">
        <ele>123.8</ele>
        <time>2021-05-02T16:30:42Z</time>
      </trkpt>
      <trkpt lat="46.54276" lon="0.34888">
        <ele>123.8</ele>
        <time>2021-05-02T16:30:43Z</time>
      </trkpt>
      <trkpt lat="46.5428" lon="0.34886">
        <ele>123.2</ele>
        <time>2021-05-02T16:30:45Z</time>
      </trkpt>
      <trkpt lat="46.54282" lon="0.34885">
        <ele>123</ele>
        <time>2021-05-02T16:30:46Z</time>
      </trkpt>
      <trkpt lat="46.54287" lon="0.34884">
        <ele>123.2</ele>
        <time>2021-05-02T16:30:48Z</time>
      </trkpt>
      <trkpt lat="46.54293" lon="0.34888">
        <ele>123.6</ele>
        <time>2021-05-02T16:30:50Z</time>
      </trkpt>
      <trkpt lat="46.543" lon="0.34897">
        <ele>123.8</ele>
        <time>2021-05-02T16:30:52Z</time>
      </trkpt>
      <trkpt lat="46.54306" lon="0.34903">
        <ele>123.8</ele>
        <time>2021-05-02T16:30:54Z</time>
      </trkpt>
      <trkpt lat="46.54309" lon="0.34905">
        <ele>123.8</ele>
        <time>2021-05-02T16:30:55Z</time>
      </trkpt>
      <trkpt lat="46.54313" lon="0.34906">
        <ele>123.8</ele>
        <time>2021-05-02T16:30:56Z</time>
      </trkpt>
      <trkpt lat="46.54318" lon="0.34903">
        <ele>123.8</ele>
        <time>2021-05-02T16:30:58Z</time>
      </trkpt>
      <trkpt lat="46.54322" lon="0.349">
        <ele>123.8</ele>
        <time>2021-05-02T16:30:59Z</time>
      </trkpt>
      <trkpt lat="46.54333" lon="0.3489">
        <ele>123.8</ele>
        <time>2021-05-02T16:31:04Z</time>
      </trkpt>
      <trkpt lat="46.54339" lon="0.34892">
        <ele>123.8</ele>
        <time>2021-05-02T16:31:06Z</time>
      </trkpt>
      <trkpt lat="46.54342" lon="0.34897">
        <ele>123.8</ele>
        <time>2021-05-02T16:31:08Z</time>
      </trkpt>
      <trkpt lat="46.54343" lon="0.34914">
        <ele>123.8</ele>
        <time>2021-05-02T16:31:12Z</time>
      </trkpt>
      <trkpt lat="46.54344" lon="0.34933">
        <ele>124</ele>
        <time>2021-05-02T16:31:16Z</time>
      </trkpt>
      <trkpt lat="46.54351" lon="0.34945">
        <ele>123.8</ele>
        <time>2021-05-02T16:31:20Z</time>
      </trkpt>
      <trkpt lat="46.54356" lon="0.34954">
        <ele>123.4</ele>
        <time>2021-05-02T16:31:23Z</time>
      </trkpt>
      <trkpt lat="46.54355" lon="0.34955">
        <ele>123.4</ele>
        <time>2021-05-02T16:31:24Z</time>
      </trkpt>
      <trkpt lat="46.54355" lon="0.34957">
        <ele>123.4</ele>
        <time>2021-05-02T16:31:25Z</time>
      </trkpt>
      <trkpt lat="46.54354" lon="0.34962">
        <ele>123.6</ele>
        <time>2021-05-02T16:31:27Z</time>
      </trkpt>
      <trkpt lat="46.54355" lon="0.34966">
        <ele>123.8</ele>
        <time>2021-05-02T16:31:28Z</time>
      </trkpt>
      <trkpt lat="46.54357" lon="0.34986">
        <ele>124.2</ele>
        <time>2021-05-02T16:31:33Z</time>
      </trkpt>
      <trkpt lat="46.54354" lon="0.34999">
        <ele>124.2</ele>
        <time>2021-05-02T16:31:34Z</time>
      </trkpt>
      <trkpt lat="46.54353" lon="0.35003">
        <ele>124.2</ele>
        <time>2021-05-02T16:31:37Z</time>
      </trkpt>
      <trkpt lat="46.54351" lon="0.35008">
        <ele>124.4</ele>
        <time>2021-05-02T16:31:38Z</time>
      </trkpt>
      <trkpt lat="46.54348" lon="0.35016">
        <ele>124.6</ele>
        <time>2021-05-02T16:31:40Z</time>
      </trkpt>
      <trkpt lat="46.54343" lon="0.35025">
        <ele>124.8</ele>
        <time>2021-05-02T16:31:42Z</time>
      </trkpt>
      <trkpt lat="46.54341" lon="0.35028">
        <ele>124.8</ele>
        <time>2021-05-02T16:31:43Z</time>
      </trkpt>
      <trkpt lat="46.54338" lon="0.35039">
        <ele>124.6</ele>
        <time>2021-05-02T16:31:45Z</time>
      </trkpt>
      <trkpt lat="46.54338" lon="0.35039">
        <ele>124.6</ele>
        <time>2021-05-02T16:31:46Z</time>
      </trkpt>
      <trkpt lat="46.54338" lon="0.35043">
        <ele>124.4</ele>
        <time>2021-05-02T16:31:47Z</time>
      </trkpt>
      <trkpt lat="46.5434" lon="0.35053">
        <ele>124.8</ele>
        <time>2021-05-02T16:31:49Z</time>
      </trkpt>
      <trkpt lat="46.5434" lon="0.35059">
        <ele>124.6</ele>
        <time>2021-05-02T16:31:50Z</time>
      </trkpt>
      <trkpt lat="46.54341" lon="0.35064">
        <ele>124.6</ele>
        <time>2021-05-02T16:31:51Z</time>
      </trkpt>
      <trkpt lat="46.54345" lon="0.35079">
        <ele>124.8</ele>
        <time>2021-05-02T16:31:54Z</time>
      </trkpt>
      <trkpt lat="46.54349" lon="0.3509">
        <ele>124.8</ele>
        <time>2021-05-02T16:31:56Z</time>
      </trkpt>
      <trkpt lat="46.54354" lon="0.35096">
        <ele>125.2</ele>
        <time>2021-05-02T16:31:58Z</time>
      </trkpt>
      <trkpt lat="46.54357" lon="0.35098">
        <ele>125.2</ele>
        <time>2021-05-02T16:31:59Z</time>
      </trkpt>
      <trkpt lat="46.54359" lon="0.35099">
        <ele>125.4</ele>
        <time>2021-05-02T16:32:00Z</time>
      </trkpt>
      <trkpt lat="46.54361" lon="0.35105">
        <ele>125.4</ele>
        <time>2021-05-02T16:32:02Z</time>
      </trkpt>
      <trkpt lat="46.54361" lon="0.35109">
        <ele>125.4</ele>
        <time>2021-05-02T16:32:03Z</time>
      </trkpt>
      <trkpt lat="46.54362" lon="0.35113">
        <ele>125.4</ele>
        <time>2021-05-02T16:32:04Z</time>
      </trkpt>
      <trkpt lat="46.5437" lon="0.35129">
        <ele>125.2</ele>
        <time>2021-05-02T16:32:07Z</time>
      </trkpt>
      <trkpt lat="46.54372" lon="0.35134">
        <ele>125.2</ele>
        <time>2021-05-02T16:32:08Z</time>
      </trkpt>
      <trkpt lat="46.54378" lon="0.35146">
        <ele>125.4</ele>
        <time>2021-05-02T16:32:10Z</time>
      </trkpt>
      <trkpt lat="46.54386" lon="0.35155">
        <ele>125.8</ele>
        <time>2021-05-02T16:32:12Z</time>
      </trkpt>
      <trkpt lat="46.54395" lon="0.35164">
        <ele>126</ele>
        <time>2021-05-02T16:32:14Z</time>
      </trkpt>
      <trkpt lat="46.54402" lon="0.35175">
        <ele>125.8</ele>
        <time>2021-05-02T16:32:16Z</time>
      </trkpt>
      <trkpt lat="46.54407" lon="0.3518">
        <ele>125.4</ele>
        <time>2021-05-02T16:32:17Z</time>
      </trkpt>
      <trkpt lat="46.54413" lon="0.35187">
        <ele>125.2</ele>
        <time>2021-05-02T16:32:19Z</time>
      </trkpt>
      <trkpt lat="46.5442" lon="0.35191">
        <ele>124.8</ele>
        <time>2021-05-02T16:32:21Z</time>
      </trkpt>
      <trkpt lat="46.54426" lon="0.35189">
        <ele>124.4</ele>
        <time>2021-05-02T16:32:23Z</time>
      </trkpt>
      <trkpt lat="46.54432" lon="0.35189">
        <ele>124.4</ele>
        <time>2021-05-02T16:32:25Z</time>
      </trkpt>
      <trkpt lat="46.54439" lon="0.35189">
        <ele>124.4</ele>
        <time>2021-05-02T16:32:27Z</time>
      </trkpt>
      <trkpt lat="46.54446" lon="0.35187">
        <ele>124.4</ele>
        <time>2021-05-02T16:32:29Z</time>
      </trkpt>
      <trkpt lat="46.54449" lon="0.35187">
        <ele>124.4</ele>
        <time>2021-05-02T16:32:30Z</time>
      </trkpt>
      <trkpt lat="46.54454" lon="0.35188">
        <ele>124.4</ele>
        <time>2021-05-02T16:32:31Z</time>
      </trkpt>
      <trkpt lat="46.54457" lon="0.35188">
        <ele>124.2</ele>
        <time>2021-05-02T16:32:32Z</time>
      </trkpt>
      <trkpt lat="46.54461" lon="0.35188">
        <ele>124.2</ele>
        <time>2021-05-02T16:32:33Z</time>
      </trkpt>
      <trkpt lat="46.54468" lon="0.35189">
        <ele>124</ele>
        <time>2021-05-02T16:32:35Z</time>
      </trkpt>
      <trkpt lat="46.54481" lon="0.35182">
        <ele>123.2</ele>
        <time>2021-05-02T16:32:39Z</time>
      </trkpt>
      <trkpt lat="46.54484" lon="0.35181">
        <ele>123.2</ele>
        <time>2021-05-02T16:32:40Z</time>
      </trkpt>
      <trkpt lat="46.54498" lon="0.35179">
        <ele>123.2</ele>
        <time>2021-05-02T16:32:45Z</time>
      </trkpt>
      <trkpt lat="46.54508" lon="0.3518">
        <ele>122.6</ele>
        <time>2021-05-02T16:32:50Z</time>
      </trkpt>
      <trkpt lat="46.54514" lon="0.35179">
        <ele>122.6</ele>
        <time>2021-05-02T16:32:53Z</time>
      </trkpt>
      <trkpt lat="46.54517" lon="0.35182">
        <ele>122.2</ele>
        <time>2021-05-02T16:32:55Z</time>
      </trkpt>
      <trkpt lat="46.54522" lon="0.35185">
        <ele>122.2</ele>
        <time>2021-05-02T16:32:57Z</time>
      </trkpt>
      <trkpt lat="46.54525" lon="0.35184">
        <ele>122</ele>
        <time>2021-05-02T16:32:58Z</time>
      </trkpt>
      <trkpt lat="46.54529" lon="0.35182">
        <ele>122.2</ele>
        <time>2021-05-02T16:32:59Z</time>
      </trkpt>
      <trkpt lat="46.54553" lon="0.35169">
        <ele>121.8</ele>
        <time>2021-05-02T16:33:05Z</time>
      </trkpt>
      <trkpt lat="46.54557" lon="0.35166">
        <ele>121.8</ele>
        <time>2021-05-02T16:33:06Z</time>
      </trkpt>
      <trkpt lat="46.5456" lon="0.35166">
        <ele>121.8</ele>
        <time>2021-05-02T16:33:07Z</time>
      </trkpt>
      <trkpt lat="46.54568" lon="0.35168">
        <ele>121.4</ele>
        <time>2021-05-02T16:33:09Z</time>
      </trkpt>
      <trkpt lat="46.54572" lon="0.3517">
        <ele>121.2</ele>
        <time>2021-05-02T16:33:10Z</time>
      </trkpt>
      <trkpt lat="46.54576" lon="0.35172">
        <ele>120.8</ele>
        <time>2021-05-02T16:33:11Z</time>
      </trkpt>
      <trkpt lat="46.54579" lon="0.35175">
        <ele>120.4</ele>
        <time>2021-05-02T16:33:12Z</time>
      </trkpt>
      <trkpt lat="46.54581" lon="0.35185">
        <ele>120</ele>
        <time>2021-05-02T16:33:14Z</time>
      </trkpt>
      <trkpt lat="46.5458" lon="0.35191">
        <ele>119.8</ele>
        <time>2021-05-02T16:33:15Z</time>
      </trkpt>
      <trkpt lat="46.54579" lon="0.35198">
        <ele>119.6</ele>
        <time>2021-05-02T16:33:16Z</time>
      </trkpt>
      <trkpt lat="46.54574" lon="0.35235">
        <ele>118.6</ele>
        <time>2021-05-02T16:33:21Z</time>
      </trkpt>
      <trkpt lat="46.54573" lon="0.35241">
        <ele>118.4</ele>
        <time>2021-05-02T16:33:22Z</time>
      </trkpt>
      <trkpt lat="46.5457" lon="0.35268">
        <ele>117.8</ele>
        <time>2021-05-02T16:33:27Z</time>
      </trkpt>
      <trkpt lat="46.54567" lon="0.3529">
        <ele>117.6</ele>
        <time>2021-05-02T16:33:32Z</time>
      </trkpt>
      <trkpt lat="46.54565" lon="0.35299">
        <ele>117.2</ele>
        <time>2021-05-02T16:33:33Z</time>
      </trkpt>
      <trkpt lat="46.5456" lon="0.35313">
        <ele>117</ele>
        <time>2021-05-02T16:33:38Z</time>
      </trkpt>
      <trkpt lat="46.54558" lon="0.35338">
        <ele>117.6</ele>
        <time>2021-05-02T16:33:44Z</time>
      </trkpt>
      <trkpt lat="46.54559" lon="0.35341">
        <ele>117.6</ele>
        <time>2021-05-02T16:33:45Z</time>
      </trkpt>
      <trkpt lat="46.54564" lon="0.35345">
        <ele>117.4</ele>
        <time>2021-05-02T16:33:47Z</time>
      </trkpt>
      <trkpt lat="46.5457" lon="0.35346">
        <ele>117</ele>
        <time>2021-05-02T16:33:49Z</time>
      </trkpt>
      <trkpt lat="46.54576" lon="0.35348">
        <ele>116</ele>
        <time>2021-05-02T16:33:51Z</time>
      </trkpt>
      <trkpt lat="46.54578" lon="0.3535">
        <ele>114.6</ele>
        <time>2021-05-02T16:33:52Z</time>
      </trkpt>
      <trkpt lat="46.5458" lon="0.35353">
        <ele>113.6</ele>
        <time>2021-05-02T16:33:53Z</time>
      </trkpt>
      <trkpt lat="46.54582" lon="0.35357">
        <ele>112.4</ele>
        <time>2021-05-02T16:33:54Z</time>
      </trkpt>
      <trkpt lat="46.54585" lon="0.35359">
        <ele>111.8</ele>
        <time>2021-05-02T16:33:55Z</time>
      </trkpt>
      <trkpt lat="46.54589" lon="0.3536">
        <ele>111.4</ele>
        <time>2021-05-02T16:33:56Z</time>
      </trkpt>
      <trkpt lat="46.54594" lon="0.35363">
        <ele>111</ele>
        <time>2021-05-02T16:33:57Z</time>
      </trkpt>
      <trkpt lat="46.54602" lon="0.3537">
        <ele>110.4</ele>
        <time>2021-05-02T16:33:59Z</time>
      </trkpt>
      <trkpt lat="46.54609" lon="0.35376">
        <ele>107.6</ele>
        <time>2021-05-02T16:34:01Z</time>
      </trkpt>
      <trkpt lat="46.54612" lon="0.35381">
        <ele>105.4</ele>
        <time>2021-05-02T16:34:02Z</time>
      </trkpt>
      <trkpt lat="46.54616" lon="0.35387">
        <ele>104</ele>
        <time>2021-05-02T16:34:03Z</time>
      </trkpt>
      <trkpt lat="46.54625" lon="0.35398">
        <ele>102.8</ele>
        <time>2021-05-02T16:34:05Z</time>
      </trkpt>
      <trkpt lat="46.54629" lon="0.35403">
        <ele>101.8</ele>
        <time>2021-05-02T16:34:06Z</time>
      </trkpt>
      <trkpt lat="46.54633" lon="0.35408">
        <ele>101.2</ele>
        <time>2021-05-02T16:34:07Z</time>
      </trkpt>
      <trkpt lat="46.54638" lon="0.35412">
        <ele>100.6</ele>
        <time>2021-05-02T16:34:08Z</time>
      </trkpt>
      <trkpt lat="46.54647" lon="0.35422">
        <ele>99.8</ele>
        <time>2021-05-02T16:34:10Z</time>
      </trkpt>
      <trkpt lat="46.54652" lon="0.35428">
        <ele>99.2</ele>
        <time>2021-05-02T16:34:11Z</time>
      </trkpt>
      <trkpt lat="46.54661" lon="0.35438">
        <ele>98.6</ele>
        <time>2021-05-02T16:34:13Z</time>
      </trkpt>
      <trkpt lat="46.54664" lon="0.35449">
        <ele>98.2</ele>
        <time>2021-05-02T16:34:15Z</time>
      </trkpt>
      <trkpt lat="46.54665" lon="0.35453">
        <ele>97.8</ele>
        <time>2021-05-02T16:34:16Z</time>
      </trkpt>
      <trkpt lat="46.54661" lon="0.35474">
        <ele>97.4</ele>
        <time>2021-05-02T16:34:20Z</time>
      </trkpt>
      <trkpt lat="46.54663" lon="0.35487">
        <ele>97.2</ele>
        <time>2021-05-02T16:34:22Z</time>
      </trkpt>
      <trkpt lat="46.54668" lon="0.35502">
        <ele>97.2</ele>
        <time>2021-05-02T16:34:24Z</time>
      </trkpt>
      <trkpt lat="46.54674" lon="0.35517">
        <ele>96</ele>
        <time>2021-05-02T16:34:26Z</time>
      </trkpt>
      <trkpt lat="46.54677" lon="0.35522">
        <ele>95.8</ele>
        <time>2021-05-02T16:34:27Z</time>
      </trkpt>
      <trkpt lat="46.54683" lon="0.35529">
        <ele>94.8</ele>
        <time>2021-05-02T16:34:29Z</time>
      </trkpt>
      <trkpt lat="46.54688" lon="0.35532">
        <ele>94.4</ele>
        <time>2021-05-02T16:34:30Z</time>
      </trkpt>
      <trkpt lat="46.54691" lon="0.35534">
        <ele>94</ele>
        <time>2021-05-02T16:34:31Z</time>
      </trkpt>
      <trkpt lat="46.54694" lon="0.35537">
        <ele>93.4</ele>
        <time>2021-05-02T16:34:32Z</time>
      </trkpt>
      <trkpt lat="46.547" lon="0.35542">
        <ele>92.6</ele>
        <time>2021-05-02T16:34:34Z</time>
      </trkpt>
      <trkpt lat="46.54704" lon="0.35544">
        <ele>91.2</ele>
        <time>2021-05-02T16:34:35Z</time>
      </trkpt>
      <trkpt lat="46.54708" lon="0.35547">
        <ele>90.2</ele>
        <time>2021-05-02T16:34:36Z</time>
      </trkpt>
      <trkpt lat="46.54712" lon="0.3555">
        <ele>89.4</ele>
        <time>2021-05-02T16:34:37Z</time>
      </trkpt>
      <trkpt lat="46.54715" lon="0.35552">
        <ele>88</ele>
        <time>2021-05-02T16:34:38Z</time>
      </trkpt>
      <trkpt lat="46.54716" lon="0.35556">
        <ele>86.8</ele>
        <time>2021-05-02T16:34:40Z</time>
      </trkpt>
      <trkpt lat="46.54716" lon="0.35558">
        <ele>86.6</ele>
        <time>2021-05-02T16:34:41Z</time>
      </trkpt>
      <trkpt lat="46.54716" lon="0.35557">
        <ele>86.6</ele>
        <time>2021-05-02T16:34:42Z</time>
      </trkpt>
      <trkpt lat="46.54717" lon="0.35556">
        <ele>86.4</ele>
        <time>2021-05-02T16:34:44Z</time>
      </trkpt>
      <trkpt lat="46.54721" lon="0.35554">
        <ele>86.2</ele>
        <time>2021-05-02T16:34:47Z</time>
      </trkpt>
      <trkpt lat="46.54727" lon="0.3555">
        <ele>85.8</ele>
        <time>2021-05-02T16:34:51Z</time>
      </trkpt>
      <trkpt lat="46.54727" lon="0.35549">
        <ele>85.8</ele>
        <time>2021-05-02T16:34:53Z</time>
      </trkpt>
      <trkpt lat="46.54727" lon="0.35558">
        <ele>85.8</ele>
        <time>2021-05-02T16:34:58Z</time>
      </trkpt>
      <trkpt lat="46.54725" lon="0.35576">
        <ele>86.8</ele>
        <time>2021-05-02T16:35:04Z</time>
      </trkpt>
      <trkpt lat="46.54724" lon="0.35588">
        <ele>87.8</ele>
        <time>2021-05-02T16:35:08Z</time>
      </trkpt>
      <trkpt lat="46.54723" lon="0.35595">
        <ele>89.6</ele>
        <time>2021-05-02T16:35:11Z</time>
      </trkpt>
      <trkpt lat="46.54722" lon="0.35603">
        <ele>90.8</ele>
        <time>2021-05-02T16:35:14Z</time>
      </trkpt>
      <trkpt lat="46.5472" lon="0.3561">
        <ele>92.4</ele>
        <time>2021-05-02T16:35:17Z</time>
      </trkpt>
      <trkpt lat="46.54718" lon="0.35615">
        <ele>93.2</ele>
        <time>2021-05-02T16:35:19Z</time>
      </trkpt>
      <trkpt lat="46.54716" lon="0.35619">
        <ele>93.8</ele>
        <time>2021-05-02T16:35:21Z</time>
      </trkpt>
      <trkpt lat="46.54716" lon="0.35624">
        <ele>95.2</ele>
        <time>2021-05-02T16:35:24Z</time>
      </trkpt>
      <trkpt lat="46.54713" lon="0.3563">
        <ele>96.4</ele>
        <time>2021-05-02T16:35:29Z</time>
      </trkpt>
      <trkpt lat="46.54713" lon="0.35631">
        <ele>97</ele>
        <time>2021-05-02T16:35:30Z</time>
      </trkpt>
      <trkpt lat="46.54711" lon="0.35633">
        <ele>97.6</ele>
        <time>2021-05-02T16:35:32Z</time>
      </trkpt>
      <trkpt lat="46.54708" lon="0.35636">
        <ele>98.6</ele>
        <time>2021-05-02T16:35:37Z</time>
      </trkpt>
      <trkpt lat="46.54707" lon="0.35636">
        <ele>99.2</ele>
        <time>2021-05-02T16:35:38Z</time>
      </trkpt>
      <trkpt lat="46.54704" lon="0.35638">
        <ele>99.8</ele>
        <time>2021-05-02T16:35:42Z</time>
      </trkpt>
      <trkpt lat="46.54703" lon="0.3564">
        <ele>100.4</ele>
        <time>2021-05-02T16:35:43Z</time>
      </trkpt>
      <trkpt lat="46.54702" lon="0.3564">
        <ele>100.8</ele>
        <time>2021-05-02T16:35:44Z</time>
      </trkpt>
      <trkpt lat="46.547" lon="0.35641">
        <ele>101</ele>
        <time>2021-05-02T16:35:46Z</time>
      </trkpt>
      <trkpt lat="46.54697" lon="0.35641">
        <ele>101.4</ele>
        <time>2021-05-02T16:35:48Z</time>
      </trkpt>
      <trkpt lat="46.54693" lon="0.35642">
        <ele>102</ele>
        <time>2021-05-02T16:35:51Z</time>
      </trkpt>
      <trkpt lat="46.5469" lon="0.35643">
        <ele>102.6</ele>
        <time>2021-05-02T16:35:53Z</time>
      </trkpt>
      <trkpt lat="46.54683" lon="0.35648">
        <ele>103.8</ele>
        <time>2021-05-02T16:35:59Z</time>
      </trkpt>
      <trkpt lat="46.54681" lon="0.35651">
        <ele>104.2</ele>
        <time>2021-05-02T16:36:01Z</time>
      </trkpt>
      <trkpt lat="46.54677" lon="0.35656">
        <ele>105.2</ele>
        <time>2021-05-02T16:36:04Z</time>
      </trkpt>
      <trkpt lat="46.54673" lon="0.3566">
        <ele>105.8</ele>
        <time>2021-05-02T16:36:08Z</time>
      </trkpt>
      <trkpt lat="46.54672" lon="0.3566">
        <ele>106.2</ele>
        <time>2021-05-02T16:36:09Z</time>
      </trkpt>
      <trkpt lat="46.54669" lon="0.35661">
        <ele>107.2</ele>
        <time>2021-05-02T16:36:13Z</time>
      </trkpt>
      <trkpt lat="46.54665" lon="0.35665">
        <ele>107.8</ele>
        <time>2021-05-02T16:36:16Z</time>
      </trkpt>
      <trkpt lat="46.54661" lon="0.3567">
        <ele>108.2</ele>
        <time>2021-05-02T16:36:19Z</time>
      </trkpt>
      <trkpt lat="46.54658" lon="0.35673">
        <ele>109.4</ele>
        <time>2021-05-02T16:36:22Z</time>
      </trkpt>
      <trkpt lat="46.54653" lon="0.35678">
        <ele>110.2</ele>
        <time>2021-05-02T16:36:27Z</time>
      </trkpt>
      <trkpt lat="46.54651" lon="0.3568">
        <ele>110.4</ele>
        <time>2021-05-02T16:36:28Z</time>
      </trkpt>
      <trkpt lat="46.54647" lon="0.35689">
        <ele>111.6</ele>
        <time>2021-05-02T16:36:35Z</time>
      </trkpt>
      <trkpt lat="46.54647" lon="0.35694">
        <ele>111.8</ele>
        <time>2021-05-02T16:36:38Z</time>
      </trkpt>
      <trkpt lat="46.54648" lon="0.35696">
        <ele>111.8</ele>
        <time>2021-05-02T16:36:40Z</time>
      </trkpt>
      <trkpt lat="46.54653" lon="0.35709">
        <ele>111.4</ele>
        <time>2021-05-02T16:36:47Z</time>
      </trkpt>
      <trkpt lat="46.54662" lon="0.35722">
        <ele>110.8</ele>
        <time>2021-05-02T16:36:52Z</time>
      </trkpt>
      <trkpt lat="46.54667" lon="0.3573">
        <ele>110.4</ele>
        <time>2021-05-02T16:36:55Z</time>
      </trkpt>
      <trkpt lat="46.54672" lon="0.35738">
        <ele>110.4</ele>
        <time>2021-05-02T16:36:58Z</time>
      </trkpt>
      <trkpt lat="46.54682" lon="0.35756">
        <ele>109.6</ele>
        <time>2021-05-02T16:37:03Z</time>
      </trkpt>
      <trkpt lat="46.54691" lon="0.35772">
        <ele>109.8</ele>
        <time>2021-05-02T16:37:08Z</time>
      </trkpt>
      <trkpt lat="46.54699" lon="0.35796">
        <ele>111.2</ele>
        <time>2021-05-02T16:37:15Z</time>
      </trkpt>
      <trkpt lat="46.54699" lon="0.358">
        <ele>111.6</ele>
        <time>2021-05-02T16:37:19Z</time>
      </trkpt>
      <trkpt lat="46.54699" lon="0.358">
        <ele>111.6</ele>
        <time>2021-05-02T16:37:20Z</time>
      </trkpt>
      <trkpt lat="46.54704" lon="0.35801">
        <ele>111.4</ele>
        <time>2021-05-02T16:37:31Z</time>
      </trkpt>
      <trkpt lat="46.54705" lon="0.35801">
        <ele>111.2</ele>
        <time>2021-05-02T16:37:32Z</time>
      </trkpt>
      <trkpt lat="46.54707" lon="0.35799">
        <ele>110.4</ele>
        <time>2021-05-02T16:37:34Z</time>
      </trkpt>
      <trkpt lat="46.5471" lon="0.35796">
        <ele>109.2</ele>
        <time>2021-05-02T16:37:36Z</time>
      </trkpt>
      <trkpt lat="46.54712" lon="0.3579">
        <ele>107.4</ele>
        <time>2021-05-02T16:37:40Z</time>
      </trkpt>
      <trkpt lat="46.54713" lon="0.3579">
        <ele>107</ele>
        <time>2021-05-02T16:37:41Z</time>
      </trkpt>
      <trkpt lat="46.54715" lon="0.35789">
        <ele>106.2</ele>
        <time>2021-05-02T16:37:43Z</time>
      </trkpt>
      <trkpt lat="46.54717" lon="0.35788">
        <ele>105</ele>
        <time>2021-05-02T16:37:45Z</time>
      </trkpt>
      <trkpt lat="46.54718" lon="0.35787">
        <ele>104</ele>
        <time>2021-05-02T16:37:46Z</time>
      </trkpt>
      <trkpt lat="46.54719" lon="0.35786">
        <ele>103.2</ele>
        <time>2021-05-02T16:37:47Z</time>
      </trkpt>
      <trkpt lat="46.5472" lon="0.35785">
        <ele>102.6</ele>
        <time>2021-05-02T16:37:48Z</time>
      </trkpt>
      <trkpt lat="46.54721" lon="0.35783">
        <ele>101.8</ele>
        <time>2021-05-02T16:37:50Z</time>
      </trkpt>
      <trkpt lat="46.54723" lon="0.3578">
        <ele>100.8</ele>
        <time>2021-05-02T16:37:54Z</time>
      </trkpt>
      <trkpt lat="46.54724" lon="0.35778">
        <ele>100.8</ele>
        <time>2021-05-02T16:37:55Z</time>
      </trkpt>
      <trkpt lat="46.54725" lon="0.35774">
        <ele>100.6</ele>
        <time>2021-05-02T16:37:58Z</time>
      </trkpt>
      <trkpt lat="46.54727" lon="0.35762">
        <ele>99.6</ele>
        <time>2021-05-02T16:38:05Z</time>
      </trkpt>
      <trkpt lat="46.54728" lon="0.3576">
        <ele>98.8</ele>
        <time>2021-05-02T16:38:07Z</time>
      </trkpt>
      <trkpt lat="46.54728" lon="0.35759">
        <ele>98.6</ele>
        <time>2021-05-02T16:38:08Z</time>
      </trkpt>
      <trkpt lat="46.54731" lon="0.35754">
        <ele>98</ele>
        <time>2021-05-02T16:38:17Z</time>
      </trkpt>
      <trkpt lat="46.54732" lon="0.35753">
        <ele>97.8</ele>
        <time>2021-05-02T16:38:32Z</time>
      </trkpt>
      <trkpt lat="46.54734" lon="0.35751">
        <ele>97.4</ele>
        <time>2021-05-02T16:38:44Z</time>
      </trkpt>
      <trkpt lat="46.54733" lon="0.35752">
        <ele>97.8</ele>
        <time>2021-05-02T16:38:47Z</time>
      </trkpt>
      <trkpt lat="46.54733" lon="0.35754">
        <ele>98.6</ele>
        <time>2021-05-02T16:38:52Z</time>
      </trkpt>
      <trkpt lat="46.54731" lon="0.35758">
        <ele>99.6</ele>
        <time>2021-05-02T16:39:00Z</time>
      </trkpt>
      <trkpt lat="46.54731" lon="0.35766">
        <ele>100.4</ele>
        <time>2021-05-02T16:39:14Z</time>
      </trkpt>
      <trkpt lat="46.54732" lon="0.3577">
        <ele>100.6</ele>
        <time>2021-05-02T16:39:20Z</time>
      </trkpt>
      <trkpt lat="46.54733" lon="0.35772">
        <ele>101</ele>
        <time>2021-05-02T16:39:25Z</time>
      </trkpt>
      <trkpt lat="46.54732" lon="0.35774">
        <ele>101.6</ele>
        <time>2021-05-02T16:39:30Z</time>
      </trkpt>
      <trkpt lat="46.5473" lon="0.35777">
        <ele>102.2</ele>
        <time>2021-05-02T16:39:35Z</time>
      </trkpt>
      <trkpt lat="46.54729" lon="0.35778">
        <ele>102.8</ele>
        <time>2021-05-02T16:39:38Z</time>
      </trkpt>
      <trkpt lat="46.54727" lon="0.35779">
        <ele>103.8</ele>
        <time>2021-05-02T16:39:43Z</time>
      </trkpt>
      <trkpt lat="46.54726" lon="0.3578">
        <ele>104.2</ele>
        <time>2021-05-02T16:39:46Z</time>
      </trkpt>
      <trkpt lat="46.54725" lon="0.35781">
        <ele>104.8</ele>
        <time>2021-05-02T16:39:48Z</time>
      </trkpt>
      <trkpt lat="46.54723" lon="0.35783">
        <ele>106</ele>
        <time>2021-05-02T16:39:53Z</time>
      </trkpt>
      <trkpt lat="46.54721" lon="0.35786">
        <ele>107</ele>
        <time>2021-05-02T16:39:59Z</time>
      </trkpt>
      <trkpt lat="46.5472" lon="0.3579">
        <ele>108</ele>
        <time>2021-05-02T16:40:04Z</time>
      </trkpt>
      <trkpt lat="46.54718" lon="0.35793">
        <ele>109</ele>
        <time>2021-05-02T16:40:11Z</time>
      </trkpt>
      <trkpt lat="46.54717" lon="0.35794">
        <ele>109.2</ele>
        <time>2021-05-02T16:40:12Z</time>
      </trkpt>
      <trkpt lat="46.54716" lon="0.35798">
        <ele>110.4</ele>
        <time>2021-05-02T16:40:18Z</time>
      </trkpt>
      <trkpt lat="46.54715" lon="0.35799">
        <ele>110.8</ele>
        <time>2021-05-02T16:40:22Z</time>
      </trkpt>
      <trkpt lat="46.54713" lon="0.35804">
        <ele>111.4</ele>
        <time>2021-05-02T16:40:30Z</time>
      </trkpt>
      <trkpt lat="46.5471" lon="0.35806">
        <ele>111.6</ele>
        <time>2021-05-02T16:40:35Z</time>
      </trkpt>
      <trkpt lat="46.5471" lon="0.35813">
        <ele>111.6</ele>
        <time>2021-05-02T16:40:46Z</time>
      </trkpt>
      <trkpt lat="46.5471" lon="0.35828">
        <ele>111.6</ele>
        <time>2021-05-02T16:40:52Z</time>
      </trkpt>
      <trkpt lat="46.54712" lon="0.35847">
        <ele>110.6</ele>
        <time>2021-05-02T16:40:57Z</time>
      </trkpt>
      <trkpt lat="46.54713" lon="0.3585">
        <ele>110.2</ele>
        <time>2021-05-02T16:40:58Z</time>
      </trkpt>
      <trkpt lat="46.54716" lon="0.35863">
        <ele>109</ele>
        <time>2021-05-02T16:41:01Z</time>
      </trkpt>
      <trkpt lat="46.54717" lon="0.35867">
        <ele>108.4</ele>
        <time>2021-05-02T16:41:02Z</time>
      </trkpt>
      <trkpt lat="46.5472" lon="0.35873">
        <ele>107.8</ele>
        <time>2021-05-02T16:41:04Z</time>
      </trkpt>
      <trkpt lat="46.54722" lon="0.35876">
        <ele>107</ele>
        <time>2021-05-02T16:41:06Z</time>
      </trkpt>
      <trkpt lat="46.54723" lon="0.35877">
        <ele>106.8</ele>
        <time>2021-05-02T16:41:07Z</time>
      </trkpt>
      <trkpt lat="46.54723" lon="0.35877">
        <ele>106.6</ele>
        <time>2021-05-02T16:41:08Z</time>
      </trkpt>
      <trkpt lat="46.54724" lon="0.35877">
        <ele>106.2</ele>
        <time>2021-05-02T16:41:09Z</time>
      </trkpt>
      <trkpt lat="46.54726" lon="0.35873">
        <ele>105.6</ele>
        <time>2021-05-02T16:41:12Z</time>
      </trkpt>
      <trkpt lat="46.54725" lon="0.35872">
        <ele>105.2</ele>
        <time>2021-05-02T16:41:13Z</time>
      </trkpt>
      <trkpt lat="46.54726" lon="0.35865">
        <ele>104.6</ele>
        <time>2021-05-02T16:41:17Z</time>
      </trkpt>
      <trkpt lat="46.54726" lon="0.35864">
        <ele>104.6</ele>
        <time>2021-05-02T16:41:18Z</time>
      </trkpt>
      <trkpt lat="46.54725" lon="0.35859">
        <ele>104.4</ele>
        <time>2021-05-02T16:41:22Z</time>
      </trkpt>
      <trkpt lat="46.54725" lon="0.35857">
        <ele>103.6</ele>
        <time>2021-05-02T16:41:24Z</time>
      </trkpt>
      <trkpt lat="46.54726" lon="0.35856">
        <ele>103.2</ele>
        <time>2021-05-02T16:41:25Z</time>
      </trkpt>
      <trkpt lat="46.54726" lon="0.35856">
        <ele>102</ele>
        <time>2021-05-02T16:41:27Z</time>
      </trkpt>
      <trkpt lat="46.54724" lon="0.35857">
        <ele>101.6</ele>
        <time>2021-05-02T16:41:31Z</time>
      </trkpt>
      <trkpt lat="46.54728" lon="0.35855">
        <ele>101.4</ele>
        <time>2021-05-02T16:41:45Z</time>
      </trkpt>
      <trkpt lat="46.54731" lon="0.35845">
        <ele>101.8</ele>
        <time>2021-05-02T16:41:54Z</time>
      </trkpt>
      <trkpt lat="46.54731" lon="0.35826">
        <ele>102.2</ele>
        <time>2021-05-02T16:42:01Z</time>
      </trkpt>
      <trkpt lat="46.54731" lon="0.3582">
        <ele>102.6</ele>
        <time>2021-05-02T16:42:03Z</time>
      </trkpt>
      <trkpt lat="46.54731" lon="0.35813">
        <ele>102.6</ele>
        <time>2021-05-02T16:42:06Z</time>
      </trkpt>
      <trkpt lat="46.54732" lon="0.35805">
        <ele>102.6</ele>
        <time>2021-05-02T16:42:09Z</time>
      </trkpt>
      <trkpt lat="46.54731" lon="0.35796">
        <ele>102.6</ele>
        <time>2021-05-02T16:42:12Z</time>
      </trkpt>
      <trkpt lat="46.5473" lon="0.35782">
        <ele>102.6</ele>
        <time>2021-05-02T16:42:18Z</time>
      </trkpt>
      <trkpt lat="46.54733" lon="0.35765">
        <ele>102.4</ele>
        <time>2021-05-02T16:42:23Z</time>
      </trkpt>
      <trkpt lat="46.54732" lon="0.35754">
        <ele>102</ele>
        <time>2021-05-02T16:42:28Z</time>
      </trkpt>
      <trkpt lat="46.54731" lon="0.35752">
        <ele>101.8</ele>
        <time>2021-05-02T16:42:29Z</time>
      </trkpt>
      <trkpt lat="46.5473" lon="0.35749">
        <ele>101.8</ele>
        <time>2021-05-02T16:42:31Z</time>
      </trkpt>
      <trkpt lat="46.54727" lon="0.35741">
        <ele>102</ele>
        <time>2021-05-02T16:42:37Z</time>
      </trkpt>
      <trkpt lat="46.54722" lon="0.35729">
        <ele>101.6</ele>
        <time>2021-05-02T16:42:48Z</time>
      </trkpt>
      <trkpt lat="46.54721" lon="0.35725">
        <ele>101.6</ele>
        <time>2021-05-02T16:42:51Z</time>
      </trkpt>
      <trkpt lat="46.54721" lon="0.35722">
        <ele>101.4</ele>
        <time>2021-05-02T16:42:53Z</time>
      </trkpt>
      <trkpt lat="46.54718" lon="0.35713">
        <ele>101.2</ele>
        <time>2021-05-02T16:43:00Z</time>
      </trkpt>
      <trkpt lat="46.54719" lon="0.35711">
        <ele>101.2</ele>
        <time>2021-05-02T16:43:01Z</time>
      </trkpt>
      <trkpt lat="46.54718" lon="0.3571">
        <ele>101.2</ele>
        <time>2021-05-02T16:43:02Z</time>
      </trkpt>
      <trkpt lat="46.54718" lon="0.35709">
        <ele>101</ele>
        <time>2021-05-02T16:43:04Z</time>
      </trkpt>
      <trkpt lat="46.54719" lon="0.35702">
        <ele>100.8</ele>
        <time>2021-05-02T16:43:12Z</time>
      </trkpt>
      <trkpt lat="46.5472" lon="0.35699">
        <ele>100.4</ele>
        <time>2021-05-02T16:43:18Z</time>
      </trkpt>
      <trkpt lat="46.54721" lon="0.35698">
        <ele>100</ele>
        <time>2021-05-02T16:43:20Z</time>
      </trkpt>
      <trkpt lat="46.54723" lon="0.35695">
        <ele>99</ele>
        <time>2021-05-02T16:43:22Z</time>
      </trkpt>
      <trkpt lat="46.54724" lon="0.35693">
        <ele>98.4</ele>
        <time>2021-05-02T16:43:23Z</time>
      </trkpt>
      <trkpt lat="46.54725" lon="0.3569">
        <ele>96.6</ele>
        <time>2021-05-02T16:43:24Z</time>
      </trkpt>
      <trkpt lat="46.54726" lon="0.35688">
        <ele>95.4</ele>
        <time>2021-05-02T16:43:27Z</time>
      </trkpt>
      <trkpt lat="46.54726" lon="0.35686">
        <ele>94.6</ele>
        <time>2021-05-02T16:43:29Z</time>
      </trkpt>
      <trkpt lat="46.54727" lon="0.35685">
        <ele>94.4</ele>
        <time>2021-05-02T16:43:30Z</time>
      </trkpt>
      <trkpt lat="46.5473" lon="0.35686">
        <ele>93.2</ele>
        <time>2021-05-02T16:43:34Z</time>
      </trkpt>
      <trkpt lat="46.54732" lon="0.35688">
        <ele>92.8</ele>
        <time>2021-05-02T16:43:36Z</time>
      </trkpt>
      <trkpt lat="46.54733" lon="0.35692">
        <ele>92.2</ele>
        <time>2021-05-02T16:43:38Z</time>
      </trkpt>
      <trkpt lat="46.54734" lon="0.35692">
        <ele>92</ele>
        <time>2021-05-02T16:43:39Z</time>
      </trkpt>
      <trkpt lat="46.54736" lon="0.35694">
        <ele>91</ele>
        <time>2021-05-02T16:43:45Z</time>
      </trkpt>
      <trkpt lat="46.54736" lon="0.35695">
        <ele>90.8</ele>
        <time>2021-05-02T16:43:46Z</time>
      </trkpt>
      <trkpt lat="46.54738" lon="0.35697">
        <ele>89.8</ele>
        <time>2021-05-02T16:43:54Z</time>
      </trkpt>
      <trkpt lat="46.54739" lon="0.35698">
        <ele>88</ele>
        <time>2021-05-02T16:43:56Z</time>
      </trkpt>
      <trkpt lat="46.54741" lon="0.35698">
        <ele>87</ele>
        <time>2021-05-02T16:43:58Z</time>
      </trkpt>
      <trkpt lat="46.54741" lon="0.35698">
        <ele>86.6</ele>
        <time>2021-05-02T16:44:11Z</time>
      </trkpt>
      <trkpt lat="46.54741" lon="0.35692">
        <ele>86.4</ele>
        <time>2021-05-02T16:44:23Z</time>
      </trkpt>
      <trkpt lat="46.54741" lon="0.35691">
        <ele>86.4</ele>
        <time>2021-05-02T16:44:24Z</time>
      </trkpt>
      <trkpt lat="46.54741" lon="0.35688">
        <ele>86.4</ele>
        <time>2021-05-02T16:44:26Z</time>
      </trkpt>
      <trkpt lat="46.54735" lon="0.35669">
        <ele>86.6</ele>
        <time>2021-05-02T16:44:33Z</time>
      </trkpt>
      <trkpt lat="46.54736" lon="0.35654">
        <ele>86.4</ele>
        <time>2021-05-02T16:44:38Z</time>
      </trkpt>
      <trkpt lat="46.54737" lon="0.3563">
        <ele>86.6</ele>
        <time>2021-05-02T16:44:43Z</time>
      </trkpt>
      <trkpt lat="46.54737" lon="0.35606">
        <ele>86.8</ele>
        <time>2021-05-02T16:44:49Z</time>
      </trkpt>
      <trkpt lat="46.54735" lon="0.3559">
        <ele>86.6</ele>
        <time>2021-05-02T16:44:53Z</time>
      </trkpt>
      <trkpt lat="46.54733" lon="0.35589">
        <ele>86.8</ele>
        <time>2021-05-02T16:44:54Z</time>
      </trkpt>
      <trkpt lat="46.54729" lon="0.35583">
        <ele>87.4</ele>
        <time>2021-05-02T16:44:57Z</time>
      </trkpt>
      <trkpt lat="46.54724" lon="0.35578">
        <ele>88.4</ele>
        <time>2021-05-02T16:45:00Z</time>
      </trkpt>
      <trkpt lat="46.5472" lon="0.35574">
        <ele>89.6</ele>
        <time>2021-05-02T16:45:03Z</time>
      </trkpt>
      <trkpt lat="46.54718" lon="0.35573">
        <ele>89.8</ele>
        <time>2021-05-02T16:45:04Z</time>
      </trkpt>
      <trkpt lat="46.54712" lon="0.35569">
        <ele>91</ele>
        <time>2021-05-02T16:45:08Z</time>
      </trkpt>
      <trkpt lat="46.54708" lon="0.35567">
        <ele>92.2</ele>
        <time>2021-05-02T16:45:11Z</time>
      </trkpt>
      <trkpt lat="46.54703" lon="0.35566">
        <ele>93.4</ele>
        <time>2021-05-02T16:45:15Z</time>
      </trkpt>
      <trkpt lat="46.54698" lon="0.35567">
        <ele>94.2</ele>
        <time>2021-05-02T16:45:18Z</time>
      </trkpt>
      <trkpt lat="46.54695" lon="0.35568">
        <ele>94.4</ele>
        <time>2021-05-02T16:45:20Z</time>
      </trkpt>
      <trkpt lat="46.54689" lon="0.35571">
        <ele>95.6</ele>
        <time>2021-05-02T16:45:24Z</time>
      </trkpt>
      <trkpt lat="46.54687" lon="0.35571">
        <ele>95.8</ele>
        <time>2021-05-02T16:45:25Z</time>
      </trkpt>
      <trkpt lat="46.54682" lon="0.35574">
        <ele>96.8</ele>
        <time>2021-05-02T16:45:29Z</time>
      </trkpt>
      <trkpt lat="46.54678" lon="0.35577">
        <ele>98</ele>
        <time>2021-05-02T16:45:32Z</time>
      </trkpt>
      <trkpt lat="46.54677" lon="0.35578">
        <ele>98.2</ele>
        <time>2021-05-02T16:45:33Z</time>
      </trkpt>
      <trkpt lat="46.54669" lon="0.35583">
        <ele>99</ele>
        <time>2021-05-02T16:45:39Z</time>
      </trkpt>
      <trkpt lat="46.54667" lon="0.35584">
        <ele>99.2</ele>
        <time>2021-05-02T16:45:40Z</time>
      </trkpt>
      <trkpt lat="46.54663" lon="0.35587">
        <ele>100.2</ele>
        <time>2021-05-02T16:45:44Z</time>
      </trkpt>
      <trkpt lat="46.5466" lon="0.35589">
        <ele>100.8</ele>
        <time>2021-05-02T16:45:47Z</time>
      </trkpt>
      <trkpt lat="46.54658" lon="0.3559">
        <ele>101.2</ele>
        <time>2021-05-02T16:45:49Z</time>
      </trkpt>
      <trkpt lat="46.54652" lon="0.35596">
        <ele>102.4</ele>
        <time>2021-05-02T16:45:54Z</time>
      </trkpt>
      <trkpt lat="46.54651" lon="0.35597">
        <ele>102.6</ele>
        <time>2021-05-02T16:45:55Z</time>
      </trkpt>
      <trkpt lat="46.54646" lon="0.35601">
        <ele>103.6</ele>
        <time>2021-05-02T16:45:59Z</time>
      </trkpt>
      <trkpt lat="46.54642" lon="0.35603">
        <ele>104</ele>
        <time>2021-05-02T16:46:02Z</time>
      </trkpt>
      <trkpt lat="46.54636" lon="0.35605">
        <ele>104.8</ele>
        <time>2021-05-02T16:46:06Z</time>
      </trkpt>
      <trkpt lat="46.54628" lon="0.35608">
        <ele>105.8</ele>
        <time>2021-05-02T16:46:10Z</time>
      </trkpt>
      <trkpt lat="46.54625" lon="0.35607">
        <ele>106.2</ele>
        <time>2021-05-02T16:46:12Z</time>
      </trkpt>
      <trkpt lat="46.54619" lon="0.35608">
        <ele>107</ele>
        <time>2021-05-02T16:46:16Z</time>
      </trkpt>
      <trkpt lat="46.54615" lon="0.35609">
        <ele>108</ele>
        <time>2021-05-02T16:46:21Z</time>
      </trkpt>
      <trkpt lat="46.54612" lon="0.35609">
        <ele>108.6</ele>
        <time>2021-05-02T16:46:23Z</time>
      </trkpt>
      <trkpt lat="46.54609" lon="0.3561">
        <ele>109.2</ele>
        <time>2021-05-02T16:46:25Z</time>
      </trkpt>
      <trkpt lat="46.54604" lon="0.35612">
        <ele>110.2</ele>
        <time>2021-05-02T16:46:29Z</time>
      </trkpt>
      <trkpt lat="46.54598" lon="0.35614">
        <ele>111.2</ele>
        <time>2021-05-02T16:46:33Z</time>
      </trkpt>
      <trkpt lat="46.54596" lon="0.35617">
        <ele>111.8</ele>
        <time>2021-05-02T16:46:35Z</time>
      </trkpt>
      <trkpt lat="46.54593" lon="0.35622">
        <ele>112.4</ele>
        <time>2021-05-02T16:46:38Z</time>
      </trkpt>
      <trkpt lat="46.54588" lon="0.35623">
        <ele>112.8</ele>
        <time>2021-05-02T16:46:42Z</time>
      </trkpt>
      <trkpt lat="46.54587" lon="0.35622">
        <ele>113.2</ele>
        <time>2021-05-02T16:46:43Z</time>
      </trkpt>
      <trkpt lat="46.54586" lon="0.35621">
        <ele>113.4</ele>
        <time>2021-05-02T16:46:44Z</time>
      </trkpt>
      <trkpt lat="46.54583" lon="0.35617">
        <ele>114</ele>
        <time>2021-05-02T16:46:48Z</time>
      </trkpt>
      <trkpt lat="46.54579" lon="0.3561">
        <ele>114.6</ele>
        <time>2021-05-02T16:46:53Z</time>
      </trkpt>
      <trkpt lat="46.54578" lon="0.35609">
        <ele>114.8</ele>
        <time>2021-05-02T16:46:54Z</time>
      </trkpt>
      <trkpt lat="46.54573" lon="0.35603">
        <ele>115.6</ele>
        <time>2021-05-02T16:46:58Z</time>
      </trkpt>
      <trkpt lat="46.54561" lon="0.35587">
        <ele>116.6</ele>
        <time>2021-05-02T16:47:06Z</time>
      </trkpt>
      <trkpt lat="46.5456" lon="0.35585">
        <ele>116.8</ele>
        <time>2021-05-02T16:47:07Z</time>
      </trkpt>
      <trkpt lat="46.54552" lon="0.35577">
        <ele>117.8</ele>
        <time>2021-05-02T16:47:12Z</time>
      </trkpt>
      <trkpt lat="46.5455" lon="0.35574">
        <ele>117.8</ele>
        <time>2021-05-02T16:47:13Z</time>
      </trkpt>
      <trkpt lat="46.54546" lon="0.35569">
        <ele>118.2</ele>
        <time>2021-05-02T16:47:16Z</time>
      </trkpt>
      <trkpt lat="46.54546" lon="0.35567">
        <ele>118.6</ele>
        <time>2021-05-02T16:47:17Z</time>
      </trkpt>
      <trkpt lat="46.54543" lon="0.35562">
        <ele>118.8</ele>
        <time>2021-05-02T16:47:19Z</time>
      </trkpt>
      <trkpt lat="46.54537" lon="0.35548">
        <ele>119.8</ele>
        <time>2021-05-02T16:47:24Z</time>
      </trkpt>
      <trkpt lat="46.54535" lon="0.35545">
        <ele>120</ele>
        <time>2021-05-02T16:47:25Z</time>
      </trkpt>
      <trkpt lat="46.54525" lon="0.35543">
        <ele>120.4</ele>
        <time>2021-05-02T16:47:28Z</time>
      </trkpt>
      <trkpt lat="46.54512" lon="0.35548">
        <ele>121</ele>
        <time>2021-05-02T16:47:32Z</time>
      </trkpt>
      <trkpt lat="46.54506" lon="0.3555">
        <ele>121.4</ele>
        <time>2021-05-02T16:47:34Z</time>
      </trkpt>
      <trkpt lat="46.54499" lon="0.35547">
        <ele>122.2</ele>
        <time>2021-05-02T16:47:38Z</time>
      </trkpt>
      <trkpt lat="46.54497" lon="0.35547">
        <ele>122.4</ele>
        <time>2021-05-02T16:47:39Z</time>
      </trkpt>
      <trkpt lat="46.54487" lon="0.35546">
        <ele>123.2</ele>
        <time>2021-05-02T16:47:44Z</time>
      </trkpt>
      <trkpt lat="46.54485" lon="0.35546">
        <ele>123.4</ele>
        <time>2021-05-02T16:47:45Z</time>
      </trkpt>
      <trkpt lat="46.54474" lon="0.3554">
        <ele>123.8</ele>
        <time>2021-05-02T16:47:50Z</time>
      </trkpt>
      <trkpt lat="46.54468" lon="0.35535">
        <ele>124.2</ele>
        <time>2021-05-02T16:47:53Z</time>
      </trkpt>
      <trkpt lat="46.54463" lon="0.35532">
        <ele>124.4</ele>
        <time>2021-05-02T16:47:55Z</time>
      </trkpt>
      <trkpt lat="46.54459" lon="0.35527">
        <ele>124.4</ele>
        <time>2021-05-02T16:47:57Z</time>
      </trkpt>
      <trkpt lat="46.54456" lon="0.3552">
        <ele>124.6</ele>
        <time>2021-05-02T16:47:59Z</time>
      </trkpt>
      <trkpt lat="46.54444" lon="0.35511">
        <ele>124.8</ele>
        <time>2021-05-02T16:48:03Z</time>
      </trkpt>
      <trkpt lat="46.54438" lon="0.35507">
        <ele>125.2</ele>
        <time>2021-05-02T16:48:05Z</time>
      </trkpt>
      <trkpt lat="46.54426" lon="0.35497">
        <ele>125.8</ele>
        <time>2021-05-02T16:48:09Z</time>
      </trkpt>
      <trkpt lat="46.54413" lon="0.35484">
        <ele>126</ele>
        <time>2021-05-02T16:48:14Z</time>
      </trkpt>
      <trkpt lat="46.54402" lon="0.35474">
        <ele>126.2</ele>
        <time>2021-05-02T16:48:17Z</time>
      </trkpt>
      <trkpt lat="46.544" lon="0.35471">
        <ele>126.4</ele>
        <time>2021-05-02T16:48:18Z</time>
      </trkpt>
      <trkpt lat="46.54398" lon="0.35468">
        <ele>126.4</ele>
        <time>2021-05-02T16:48:19Z</time>
      </trkpt>
      <trkpt lat="46.54396" lon="0.35464">
        <ele>126.6</ele>
        <time>2021-05-02T16:48:20Z</time>
      </trkpt>
      <trkpt lat="46.54391" lon="0.35454">
        <ele>126.8</ele>
        <time>2021-05-02T16:48:22Z</time>
      </trkpt>
      <trkpt lat="46.54385" lon="0.35445">
        <ele>126.8</ele>
        <time>2021-05-02T16:48:24Z</time>
      </trkpt>
      <trkpt lat="46.54378" lon="0.35438">
        <ele>126.8</ele>
        <time>2021-05-02T16:48:26Z</time>
      </trkpt>
      <trkpt lat="46.54375" lon="0.35427">
        <ele>126.8</ele>
        <time>2021-05-02T16:48:28Z</time>
      </trkpt>
      <trkpt lat="46.54375" lon="0.35423">
        <ele>126.8</ele>
        <time>2021-05-02T16:48:29Z</time>
      </trkpt>
      <trkpt lat="46.54374" lon="0.35421">
        <ele>126.8</ele>
        <time>2021-05-02T16:48:31Z</time>
      </trkpt>
      <trkpt lat="46.54374" lon="0.35423">
        <ele>126.6</ele>
        <time>2021-05-02T16:48:32Z</time>
      </trkpt>
      <trkpt lat="46.54373" lon="0.35424">
        <ele>126.6</ele>
        <time>2021-05-02T16:48:33Z</time>
      </trkpt>
      <trkpt lat="46.54371" lon="0.35428">
        <ele>126.4</ele>
        <time>2021-05-02T16:48:37Z</time>
      </trkpt>
      <trkpt lat="46.54373" lon="0.3543">
        <ele>126.4</ele>
        <time>2021-05-02T16:48:39Z</time>
      </trkpt>
      <trkpt lat="46.54377" lon="0.35434">
        <ele>126.4</ele>
        <time>2021-05-02T16:48:41Z</time>
      </trkpt>
      <trkpt lat="46.54385" lon="0.35444">
        <ele>126</ele>
        <time>2021-05-02T16:48:46Z</time>
      </trkpt>
      <trkpt lat="46.54384" lon="0.35451">
        <ele>125.8</ele>
        <time>2021-05-02T16:48:48Z</time>
      </trkpt>
      <trkpt lat="46.54384" lon="0.35455">
        <ele>125.8</ele>
        <time>2021-05-02T16:48:49Z</time>
      </trkpt>
      <trkpt lat="46.54385" lon="0.35458">
        <ele>125.8</ele>
        <time>2021-05-02T16:48:50Z</time>
      </trkpt>
      <trkpt lat="46.54389" lon="0.35461">
        <ele>125.6</ele>
        <time>2021-05-02T16:48:52Z</time>
      </trkpt>
      <trkpt lat="46.54399" lon="0.35464">
        <ele>125.6</ele>
        <time>2021-05-02T16:48:56Z</time>
      </trkpt>
      <trkpt lat="46.54403" lon="0.35466">
        <ele>125.4</ele>
        <time>2021-05-02T16:48:57Z</time>
      </trkpt>
      <trkpt lat="46.54406" lon="0.35471">
        <ele>125.2</ele>
        <time>2021-05-02T16:48:58Z</time>
      </trkpt>
      <trkpt lat="46.54411" lon="0.35476">
        <ele>124.6</ele>
        <time>2021-05-02T16:49:00Z</time>
      </trkpt>
      <trkpt lat="46.54413" lon="0.35475">
        <ele>124.6</ele>
        <time>2021-05-02T16:49:01Z</time>
      </trkpt>
      <trkpt lat="46.54417" lon="0.35471">
        <ele>124.2</ele>
        <time>2021-05-02T16:49:03Z</time>
      </trkpt>
      <trkpt lat="46.54419" lon="0.35462">
        <ele>123.6</ele>
        <time>2021-05-02T16:49:05Z</time>
      </trkpt>
      <trkpt lat="46.54422" lon="0.35457">
        <ele>123</ele>
        <time>2021-05-02T16:49:07Z</time>
      </trkpt>
      <trkpt lat="46.54426" lon="0.35463">
        <ele>122.4</ele>
        <time>2021-05-02T16:49:10Z</time>
      </trkpt>
      <trkpt lat="46.54429" lon="0.35467">
        <ele>122.4</ele>
        <time>2021-05-02T16:49:11Z</time>
      </trkpt>
      <trkpt lat="46.54439" lon="0.35479">
        <ele>122.8</ele>
        <time>2021-05-02T16:49:14Z</time>
      </trkpt>
      <trkpt lat="46.54439" lon="0.35482">
        <ele>122.8</ele>
        <time>2021-05-02T16:49:15Z</time>
      </trkpt>
      <trkpt lat="46.54441" lon="0.35487">
        <ele>122.8</ele>
        <time>2021-05-02T16:49:17Z</time>
      </trkpt>
      <trkpt lat="46.54444" lon="0.35491">
        <ele>122.4</ele>
        <time>2021-05-02T16:49:19Z</time>
      </trkpt>
      <trkpt lat="46.54448" lon="0.35495">
        <ele>122</ele>
        <time>2021-05-02T16:49:21Z</time>
      </trkpt>
      <trkpt lat="46.54453" lon="0.35494">
        <ele>121.6</ele>
        <time>2021-05-02T16:49:23Z</time>
      </trkpt>
      <trkpt lat="46.54456" lon="0.35493">
        <ele>121.2</ele>
        <time>2021-05-02T16:49:24Z</time>
      </trkpt>
      <trkpt lat="46.54458" lon="0.3549">
        <ele>120.6</ele>
        <time>2021-05-02T16:49:25Z</time>
      </trkpt>
      <trkpt lat="46.5446" lon="0.35486">
        <ele>120.2</ele>
        <time>2021-05-02T16:49:26Z</time>
      </trkpt>
      <trkpt lat="46.54462" lon="0.35482">
        <ele>120</ele>
        <time>2021-05-02T16:49:27Z</time>
      </trkpt>
      <trkpt lat="46.54465" lon="0.35477">
        <ele>119.8</ele>
        <time>2021-05-02T16:49:28Z</time>
      </trkpt>
      <trkpt lat="46.5447" lon="0.35465">
        <ele>119.4</ele>
        <time>2021-05-02T16:49:31Z</time>
      </trkpt>
      <trkpt lat="46.54477" lon="0.35459">
        <ele>119</ele>
        <time>2021-05-02T16:49:34Z</time>
      </trkpt>
      <trkpt lat="46.54478" lon="0.35457">
        <ele>119</ele>
        <time>2021-05-02T16:49:35Z</time>
      </trkpt>
      <trkpt lat="46.54479" lon="0.35456">
        <ele>119</ele>
        <time>2021-05-02T16:49:36Z</time>
      </trkpt>
      <trkpt lat="46.54486" lon="0.35446">
        <ele>118.6</ele>
        <time>2021-05-02T16:49:39Z</time>
      </trkpt>
      <trkpt lat="46.54487" lon="0.35443">
        <ele>118.2</ele>
        <time>2021-05-02T16:49:40Z</time>
      </trkpt>
      <trkpt lat="46.54489" lon="0.35441">
        <ele>117.8</ele>
        <time>2021-05-02T16:49:41Z</time>
      </trkpt>
      <trkpt lat="46.54493" lon="0.35444">
        <ele>117.6</ele>
        <time>2021-05-02T16:49:43Z</time>
      </trkpt>
      <trkpt lat="46.54499" lon="0.35448">
        <ele>117.2</ele>
        <time>2021-05-02T16:49:45Z</time>
      </trkpt>
      <trkpt lat="46.54502" lon="0.35451">
        <ele>116</ele>
        <time>2021-05-02T16:49:47Z</time>
      </trkpt>
      <trkpt lat="46.54504" lon="0.35455">
        <ele>114.8</ele>
        <time>2021-05-02T16:49:49Z</time>
      </trkpt>
      <trkpt lat="46.54506" lon="0.35453">
        <ele>114</ele>
        <time>2021-05-02T16:49:51Z</time>
      </trkpt>
      <trkpt lat="46.54509" lon="0.3545">
        <ele>113.6</ele>
        <time>2021-05-02T16:49:54Z</time>
      </trkpt>
      <trkpt lat="46.5451" lon="0.35452">
        <ele>113.4</ele>
        <time>2021-05-02T16:49:55Z</time>
      </trkpt>
      <trkpt lat="46.54514" lon="0.35459">
        <ele>112.8</ele>
        <time>2021-05-02T16:49:58Z</time>
      </trkpt>
      <trkpt lat="46.54517" lon="0.35457">
        <ele>112.2</ele>
        <time>2021-05-02T16:49:59Z</time>
      </trkpt>
      <trkpt lat="46.54521" lon="0.35456">
        <ele>111.4</ele>
        <time>2021-05-02T16:50:01Z</time>
      </trkpt>
      <trkpt lat="46.54523" lon="0.35458">
        <ele>111.2</ele>
        <time>2021-05-02T16:50:02Z</time>
      </trkpt>
      <trkpt lat="46.54525" lon="0.35462">
        <ele>111</ele>
        <time>2021-05-02T16:50:03Z</time>
      </trkpt>
      <trkpt lat="46.54529" lon="0.35466">
        <ele>110</ele>
        <time>2021-05-02T16:50:05Z</time>
      </trkpt>
      <trkpt lat="46.54531" lon="0.35467">
        <ele>109.6</ele>
        <time>2021-05-02T16:50:06Z</time>
      </trkpt>
      <trkpt lat="46.54531" lon="0.3547">
        <ele>109.2</ele>
        <time>2021-05-02T16:50:07Z</time>
      </trkpt>
      <trkpt lat="46.54531" lon="0.35475">
        <ele>109</ele>
        <time>2021-05-02T16:50:09Z</time>
      </trkpt>
      <trkpt lat="46.54532" lon="0.35476">
        <ele>108.6</ele>
        <time>2021-05-02T16:50:10Z</time>
      </trkpt>
      <trkpt lat="46.54539" lon="0.35479">
        <ele>108</ele>
        <time>2021-05-02T16:50:12Z</time>
      </trkpt>
      <trkpt lat="46.54545" lon="0.35486">
        <ele>107.2</ele>
        <time>2021-05-02T16:50:14Z</time>
      </trkpt>
      <trkpt lat="46.54549" lon="0.35489">
        <ele>106.8</ele>
        <time>2021-05-02T16:50:15Z</time>
      </trkpt>
      <trkpt lat="46.54557" lon="0.35494">
        <ele>106.2</ele>
        <time>2021-05-02T16:50:17Z</time>
      </trkpt>
      <trkpt lat="46.54559" lon="0.35494">
        <ele>104.6</ele>
        <time>2021-05-02T16:50:18Z</time>
      </trkpt>
      <trkpt lat="46.54562" lon="0.35494">
        <ele>103.2</ele>
        <time>2021-05-02T16:50:20Z</time>
      </trkpt>
      <trkpt lat="46.54566" lon="0.35494">
        <ele>102.8</ele>
        <time>2021-05-02T16:50:22Z</time>
      </trkpt>
      <trkpt lat="46.54566" lon="0.35495">
        <ele>102.6</ele>
        <time>2021-05-02T16:50:34Z</time>
      </trkpt>
      <trkpt lat="46.5457" lon="0.35499">
        <ele>102.2</ele>
        <time>2021-05-02T16:50:40Z</time>
      </trkpt>
      <trkpt lat="46.54574" lon="0.35501">
        <ele>102</ele>
        <time>2021-05-02T16:50:45Z</time>
      </trkpt>
      <trkpt lat="46.54581" lon="0.355">
        <ele>101</ele>
        <time>2021-05-02T16:50:50Z</time>
      </trkpt>
      <trkpt lat="46.54587" lon="0.35501">
        <ele>100</ele>
        <time>2021-05-02T16:50:53Z</time>
      </trkpt>
      <trkpt lat="46.5459" lon="0.35501">
        <ele>99.4</ele>
        <time>2021-05-02T16:50:54Z</time>
      </trkpt>
      <trkpt lat="46.54606" lon="0.35502">
        <ele>98.8</ele>
        <time>2021-05-02T16:50:58Z</time>
      </trkpt>
      <trkpt lat="46.54608" lon="0.35502">
        <ele>98.8</ele>
        <time>2021-05-02T16:50:59Z</time>
      </trkpt>
      <trkpt lat="46.54618" lon="0.355">
        <ele>98.8</ele>
        <time>2021-05-02T16:51:10Z</time>
      </trkpt>
      <trkpt lat="46.54626" lon="0.35499">
        <ele>98.8</ele>
        <time>2021-05-02T16:51:27Z</time>
      </trkpt>
      <trkpt lat="46.54627" lon="0.35495">
        <ele>99</ele>
        <time>2021-05-02T16:51:40Z</time>
      </trkpt>
      <trkpt lat="46.54631" lon="0.35499">
        <ele>98.8</ele>
        <time>2021-05-02T16:51:45Z</time>
      </trkpt>
      <trkpt lat="46.54634" lon="0.35502">
        <ele>98.4</ele>
        <time>2021-05-02T16:51:48Z</time>
      </trkpt>
      <trkpt lat="46.5464" lon="0.35509">
        <ele>97.8</ele>
        <time>2021-05-02T16:51:52Z</time>
      </trkpt>
      <trkpt lat="46.54642" lon="0.35517">
        <ele>97.4</ele>
        <time>2021-05-02T16:51:54Z</time>
      </trkpt>
      <trkpt lat="46.54646" lon="0.35524">
        <ele>96.6</ele>
        <time>2021-05-02T16:51:58Z</time>
      </trkpt>
      <trkpt lat="46.54647" lon="0.35524">
        <ele>96.6</ele>
        <time>2021-05-02T16:51:59Z</time>
      </trkpt>
      <trkpt lat="46.54651" lon="0.35524">
        <ele>96.2</ele>
        <time>2021-05-02T16:52:01Z</time>
      </trkpt>
      <trkpt lat="46.54662" lon="0.35524">
        <ele>95.8</ele>
        <time>2021-05-02T16:52:04Z</time>
      </trkpt>
      <trkpt lat="46.54669" lon="0.35523">
        <ele>95.6</ele>
        <time>2021-05-02T16:52:06Z</time>
      </trkpt>
      <trkpt lat="46.54677" lon="0.35523">
        <ele>95.6</ele>
        <time>2021-05-02T16:52:09Z</time>
      </trkpt>
      <trkpt lat="46.54686" lon="0.3552">
        <ele>95.4</ele>
        <time>2021-05-02T16:52:21Z</time>
      </trkpt>
      <trkpt lat="46.54691" lon="0.35504">
        <ele>96.4</ele>
        <time>2021-05-02T16:52:25Z</time>
      </trkpt>
      <trkpt lat="46.54692" lon="0.35501">
        <ele>96.6</ele>
        <time>2021-05-02T16:52:26Z</time>
      </trkpt>
      <trkpt lat="46.54694" lon="0.35483">
        <ele>97</ele>
        <time>2021-05-02T16:52:30Z</time>
      </trkpt>
      <trkpt lat="46.54699" lon="0.35458">
        <ele>96.8</ele>
        <time>2021-05-02T16:52:35Z</time>
      </trkpt>
      <trkpt lat="46.54699" lon="0.35455">
        <ele>96.8</ele>
        <time>2021-05-02T16:52:36Z</time>
      </trkpt>
      <trkpt lat="46.54695" lon="0.35443">
        <ele>97.6</ele>
        <time>2021-05-02T16:52:40Z</time>
      </trkpt>
      <trkpt lat="46.54693" lon="0.35439">
        <ele>97.8</ele>
        <time>2021-05-02T16:52:41Z</time>
      </trkpt>
      <trkpt lat="46.54683" lon="0.35426">
        <ele>98.4</ele>
        <time>2021-05-02T16:52:46Z</time>
      </trkpt>
      <trkpt lat="46.5468" lon="0.35422">
        <ele>98.8</ele>
        <time>2021-05-02T16:52:48Z</time>
      </trkpt>
      <trkpt lat="46.54674" lon="0.35411">
        <ele>99.6</ele>
        <time>2021-05-02T16:52:52Z</time>
      </trkpt>
      <trkpt lat="46.54672" lon="0.35406">
        <ele>99.8</ele>
        <time>2021-05-02T16:52:54Z</time>
      </trkpt>
      <trkpt lat="46.54667" lon="0.35395">
        <ele>100.4</ele>
        <time>2021-05-02T16:52:58Z</time>
      </trkpt>
      <trkpt lat="46.54664" lon="0.35391">
        <ele>101</ele>
        <time>2021-05-02T16:53:00Z</time>
      </trkpt>
      <trkpt lat="46.54657" lon="0.35384">
        <ele>101.8</ele>
        <time>2021-05-02T16:53:04Z</time>
      </trkpt>
      <trkpt lat="46.54655" lon="0.35382">
        <ele>102</ele>
        <time>2021-05-02T16:53:05Z</time>
      </trkpt>
      <trkpt lat="46.54646" lon="0.35377">
        <ele>103.2</ele>
        <time>2021-05-02T16:53:09Z</time>
      </trkpt>
      <trkpt lat="46.54645" lon="0.35375">
        <ele>103.4</ele>
        <time>2021-05-02T16:53:10Z</time>
      </trkpt>
      <trkpt lat="46.54643" lon="0.35373">
        <ele>103.4</ele>
        <time>2021-05-02T16:53:11Z</time>
      </trkpt>
      <trkpt lat="46.54642" lon="0.35371">
        <ele>103.6</ele>
        <time>2021-05-02T16:53:12Z</time>
      </trkpt>
      <trkpt lat="46.54639" lon="0.35369">
        <ele>104</ele>
        <time>2021-05-02T16:53:14Z</time>
      </trkpt>
      <trkpt lat="46.54637" lon="0.35368">
        <ele>104.2</ele>
        <time>2021-05-02T16:53:15Z</time>
      </trkpt>
      <trkpt lat="46.54633" lon="0.35367">
        <ele>105</ele>
        <time>2021-05-02T16:53:17Z</time>
      </trkpt>
      <trkpt lat="46.54632" lon="0.35366">
        <ele>105.2</ele>
        <time>2021-05-02T16:53:18Z</time>
      </trkpt>
      <trkpt lat="46.54626" lon="0.35363">
        <ele>106.4</ele>
        <time>2021-05-02T16:53:22Z</time>
      </trkpt>
      <trkpt lat="46.54624" lon="0.35363">
        <ele>106.6</ele>
        <time>2021-05-02T16:53:23Z</time>
      </trkpt>
      <trkpt lat="46.54621" lon="0.35362">
        <ele>107.6</ele>
        <time>2021-05-02T16:53:26Z</time>
      </trkpt>
      <trkpt lat="46.54618" lon="0.3536">
        <ele>108.2</ele>
        <time>2021-05-02T16:53:28Z</time>
      </trkpt>
      <trkpt lat="46.54618" lon="0.3536">
        <ele>108.6</ele>
        <time>2021-05-02T16:53:29Z</time>
      </trkpt>
      <trkpt lat="46.54617" lon="0.35359">
        <ele>108.8</ele>
        <time>2021-05-02T16:53:30Z</time>
      </trkpt>
      <trkpt lat="46.54615" lon="0.35356">
        <ele>109.2</ele>
        <time>2021-05-02T16:53:32Z</time>
      </trkpt>
      <trkpt lat="46.5461" lon="0.35353">
        <ele>110</ele>
        <time>2021-05-02T16:53:35Z</time>
      </trkpt>
      <trkpt lat="46.54609" lon="0.35352">
        <ele>110.2</ele>
        <time>2021-05-02T16:53:36Z</time>
      </trkpt>
      <trkpt lat="46.54606" lon="0.3535">
        <ele>111</ele>
        <time>2021-05-02T16:53:39Z</time>
      </trkpt>
      <trkpt lat="46.54602" lon="0.35349">
        <ele>111.8</ele>
        <time>2021-05-02T16:53:41Z</time>
      </trkpt>
      <trkpt lat="46.546" lon="0.35349">
        <ele>112.2</ele>
        <time>2021-05-02T16:53:42Z</time>
      </trkpt>
      <trkpt lat="46.54592" lon="0.35349">
        <ele>113.2</ele>
        <time>2021-05-02T16:53:46Z</time>
      </trkpt>
      <trkpt lat="46.5459" lon="0.35349">
        <ele>113.4</ele>
        <time>2021-05-02T16:53:47Z</time>
      </trkpt>
      <trkpt lat="46.54587" lon="0.35348">
        <ele>114.6</ele>
        <time>2021-05-02T16:53:50Z</time>
      </trkpt>
      <trkpt lat="46.54581" lon="0.35347">
        <ele>115.4</ele>
        <time>2021-05-02T16:53:55Z</time>
      </trkpt>
      <trkpt lat="46.5458" lon="0.35346">
        <ele>115.4</ele>
        <time>2021-05-02T16:53:56Z</time>
      </trkpt>
      <trkpt lat="46.54578" lon="0.35345">
        <ele>116</ele>
        <time>2021-05-02T16:53:58Z</time>
      </trkpt>
      <trkpt lat="46.54576" lon="0.35345">
        <ele>116.4</ele>
        <time>2021-05-02T16:54:00Z</time>
      </trkpt>
      <trkpt lat="46.54573" lon="0.35346">
        <ele>116.6</ele>
        <time>2021-05-02T16:54:02Z</time>
      </trkpt>
      <trkpt lat="46.54572" lon="0.35348">
        <ele>116.6</ele>
        <time>2021-05-02T16:54:04Z</time>
      </trkpt>
      <trkpt lat="46.54571" lon="0.3535">
        <ele>116.8</ele>
        <time>2021-05-02T16:54:05Z</time>
      </trkpt>
      <trkpt lat="46.54566" lon="0.35368">
        <ele>116.6</ele>
        <time>2021-05-02T16:54:10Z</time>
      </trkpt>
      <trkpt lat="46.5456" lon="0.35383">
        <ele>116.4</ele>
        <time>2021-05-02T16:54:16Z</time>
      </trkpt>
      <trkpt lat="46.54558" lon="0.35383">
        <ele>116.4</ele>
        <time>2021-05-02T16:54:17Z</time>
      </trkpt>
      <trkpt lat="46.54553" lon="0.35382">
        <ele>116.6</ele>
        <time>2021-05-02T16:54:20Z</time>
      </trkpt>
      <trkpt lat="46.54552" lon="0.35381">
        <ele>117.2</ele>
        <time>2021-05-02T16:54:21Z</time>
      </trkpt>
      <trkpt lat="46.54547" lon="0.35383">
        <ele>118</ele>
        <time>2021-05-02T16:54:24Z</time>
      </trkpt>
      <trkpt lat="46.54543" lon="0.35387">
        <ele>118</ele>
        <time>2021-05-02T16:54:26Z</time>
      </trkpt>
      <trkpt lat="46.54538" lon="0.35393">
        <ele>118.4</ele>
        <time>2021-05-02T16:54:28Z</time>
      </trkpt>
      <trkpt lat="46.54535" lon="0.35402">
        <ele>118.2</ele>
        <time>2021-05-02T16:54:31Z</time>
      </trkpt>
      <trkpt lat="46.54531" lon="0.35412">
        <ele>118</ele>
        <time>2021-05-02T16:54:34Z</time>
      </trkpt>
      <trkpt lat="46.54528" lon="0.35419">
        <ele>118</ele>
        <time>2021-05-02T16:54:36Z</time>
      </trkpt>
      <trkpt lat="46.5452" lon="0.35431">
        <ele>118.6</ele>
        <time>2021-05-02T16:54:41Z</time>
      </trkpt>
      <trkpt lat="46.54519" lon="0.35433">
        <ele>118.8</ele>
        <time>2021-05-02T16:54:42Z</time>
      </trkpt>
      <trkpt lat="46.54519" lon="0.35444">
        <ele>118.8</ele>
        <time>2021-05-02T16:54:46Z</time>
      </trkpt>
      <trkpt lat="46.54515" lon="0.35463">
        <ele>119.4</ele>
        <time>2021-05-02T16:54:51Z</time>
      </trkpt>
      <trkpt lat="46.54514" lon="0.35467">
        <ele>119.6</ele>
        <time>2021-05-02T16:54:52Z</time>
      </trkpt>
      <trkpt lat="46.54509" lon="0.35477">
        <ele>120.6</ele>
        <time>2021-05-02T16:54:56Z</time>
      </trkpt>
      <trkpt lat="46.54507" lon="0.35478">
        <ele>120.8</ele>
        <time>2021-05-02T16:54:58Z</time>
      </trkpt>
      <trkpt lat="46.54507" lon="0.35477">
        <ele>121</ele>
        <time>2021-05-02T16:55:00Z</time>
      </trkpt>
      <trkpt lat="46.54506" lon="0.35476">
        <ele>121</ele>
        <time>2021-05-02T16:55:01Z</time>
      </trkpt>
      <trkpt lat="46.54504" lon="0.35475">
        <ele>121.2</ele>
        <time>2021-05-02T16:55:03Z</time>
      </trkpt>
      <trkpt lat="46.54502" lon="0.35474">
        <ele>121.2</ele>
        <time>2021-05-02T16:55:05Z</time>
      </trkpt>
      <trkpt lat="46.54501" lon="0.35472">
        <ele>121.4</ele>
        <time>2021-05-02T16:55:06Z</time>
      </trkpt>
      <trkpt lat="46.54501" lon="0.35466">
        <ele>121.8</ele>
        <time>2021-05-02T16:55:09Z</time>
      </trkpt>
      <trkpt lat="46.545" lon="0.35464">
        <ele>121.8</ele>
        <time>2021-05-02T16:55:10Z</time>
      </trkpt>
      <trkpt lat="46.54498" lon="0.35461">
        <ele>122</ele>
        <time>2021-05-02T16:55:11Z</time>
      </trkpt>
      <trkpt lat="46.54494" lon="0.35455">
        <ele>122.2</ele>
        <time>2021-05-02T16:55:14Z</time>
      </trkpt>
      <trkpt lat="46.54488" lon="0.35445">
        <ele>122.4</ele>
        <time>2021-05-02T16:55:18Z</time>
      </trkpt>
      <trkpt lat="46.54486" lon="0.35445">
        <ele>122.4</ele>
        <time>2021-05-02T16:55:19Z</time>
      </trkpt>
      <trkpt lat="46.54482" lon="0.3544">
        <ele>122.4</ele>
        <time>2021-05-02T16:55:24Z</time>
      </trkpt>
      <trkpt lat="46.54477" lon="0.35427">
        <ele>122.4</ele>
        <time>2021-05-02T16:55:29Z</time>
      </trkpt>
      <trkpt lat="46.54476" lon="0.35424">
        <ele>122.4</ele>
        <time>2021-05-02T16:55:30Z</time>
      </trkpt>
      <trkpt lat="46.54469" lon="0.35413">
        <ele>123</ele>
        <time>2021-05-02T16:55:36Z</time>
      </trkpt>
      <trkpt lat="46.54467" lon="0.35412">
        <ele>123.2</ele>
        <time>2021-05-02T16:55:37Z</time>
      </trkpt>
      <trkpt lat="46.54458" lon="0.35412">
        <ele>124.2</ele>
        <time>2021-05-02T16:55:41Z</time>
      </trkpt>
      <trkpt lat="46.54457" lon="0.35412">
        <ele>124.4</ele>
        <time>2021-05-02T16:55:42Z</time>
      </trkpt>
      <trkpt lat="46.54445" lon="0.35408">
        <ele>124.8</ele>
        <time>2021-05-02T16:55:48Z</time>
      </trkpt>
      <trkpt lat="46.54429" lon="0.35401">
        <ele>125.2</ele>
        <time>2021-05-02T16:55:55Z</time>
      </trkpt>
      <trkpt lat="46.54426" lon="0.35399">
        <ele>125.6</ele>
        <time>2021-05-02T16:55:56Z</time>
      </trkpt>
      <trkpt lat="46.54412" lon="0.3539">
        <ele>126</ele>
        <time>2021-05-02T16:56:02Z</time>
      </trkpt>
      <trkpt lat="46.54394" lon="0.35384">
        <ele>126.6</ele>
        <time>2021-05-02T16:56:07Z</time>
      </trkpt>
      <trkpt lat="46.5438" lon="0.35384">
        <ele>127</ele>
        <time>2021-05-02T16:56:12Z</time>
      </trkpt>
      <trkpt lat="46.54366" lon="0.35379">
        <ele>127.2</ele>
        <time>2021-05-02T16:56:17Z</time>
      </trkpt>
      <trkpt lat="46.54352" lon="0.35374">
        <ele>127.4</ele>
        <time>2021-05-02T16:56:21Z</time>
      </trkpt>
      <trkpt lat="46.54335" lon="0.35368">
        <ele>127.4</ele>
        <time>2021-05-02T16:56:27Z</time>
      </trkpt>
      <trkpt lat="46.54324" lon="0.35366">
        <ele>127.6</ele>
        <time>2021-05-02T16:56:31Z</time>
      </trkpt>
      <trkpt lat="46.54318" lon="0.35365">
        <ele>127.8</ele>
        <time>2021-05-02T16:56:33Z</time>
      </trkpt>
      <trkpt lat="46.54297" lon="0.35362">
        <ele>127.8</ele>
        <time>2021-05-02T16:56:39Z</time>
      </trkpt>
      <trkpt lat="46.54279" lon="0.3536">
        <ele>127.6</ele>
        <time>2021-05-02T16:56:43Z</time>
      </trkpt>
      <trkpt lat="46.54271" lon="0.3536">
        <ele>127.4</ele>
        <time>2021-05-02T16:56:45Z</time>
      </trkpt>
      <trkpt lat="46.54248" lon="0.35361">
        <ele>127.2</ele>
        <time>2021-05-02T16:56:50Z</time>
      </trkpt>
      <trkpt lat="46.54227" lon="0.35362">
        <ele>126.8</ele>
        <time>2021-05-02T16:56:54Z</time>
      </trkpt>
      <trkpt lat="46.54217" lon="0.35365">
        <ele>126.6</ele>
        <time>2021-05-02T16:56:56Z</time>
      </trkpt>
      <trkpt lat="46.54203" lon="0.35368">
        <ele>126.6</ele>
        <time>2021-05-02T16:56:59Z</time>
      </trkpt>
      <trkpt lat="46.54191" lon="0.3537">
        <ele>126.2</ele>
        <time>2021-05-02T16:57:02Z</time>
      </trkpt>
      <trkpt lat="46.5418" lon="0.35369">
        <ele>126</ele>
        <time>2021-05-02T16:57:06Z</time>
      </trkpt>
      <trkpt lat="46.54178" lon="0.35369">
        <ele>125.8</ele>
        <time>2021-05-02T16:57:07Z</time>
      </trkpt>
      <trkpt lat="46.54175" lon="0.35369">
        <ele>125.8</ele>
        <time>2021-05-02T16:57:11Z</time>
      </trkpt>
      <trkpt lat="46.54164" lon="0.35358">
        <ele>126</ele>
        <time>2021-05-02T16:57:15Z</time>
      </trkpt>
      <trkpt lat="46.54162" lon="0.3535">
        <ele>125.8</ele>
        <time>2021-05-02T16:57:17Z</time>
      </trkpt>
      <trkpt lat="46.54165" lon="0.35347">
        <ele>125.8</ele>
        <time>2021-05-02T16:57:18Z</time>
      </trkpt>
      <trkpt lat="46.54168" lon="0.35344">
        <ele>125.6</ele>
        <time>2021-05-02T16:57:19Z</time>
      </trkpt>
      <trkpt lat="46.54171" lon="0.35342">
        <ele>125.6</ele>
        <time>2021-05-02T16:57:20Z</time>
      </trkpt>
      <trkpt lat="46.54177" lon="0.35337">
        <ele>125.4</ele>
        <time>2021-05-02T16:57:23Z</time>
      </trkpt>
      <trkpt lat="46.54188" lon="0.35324">
        <ele>125.8</ele>
        <time>2021-05-02T16:57:28Z</time>
      </trkpt>
      <trkpt lat="46.54197" lon="0.35306">
        <ele>126</ele>
        <time>2021-05-02T16:57:33Z</time>
      </trkpt>
      <trkpt lat="46.54204" lon="0.35293">
        <ele>125.8</ele>
        <time>2021-05-02T16:57:36Z</time>
      </trkpt>
      <trkpt lat="46.54211" lon="0.35278">
        <ele>126.4</ele>
        <time>2021-05-02T16:57:39Z</time>
      </trkpt>
      <trkpt lat="46.54217" lon="0.35269">
        <ele>126.8</ele>
        <time>2021-05-02T16:57:41Z</time>
      </trkpt>
      <trkpt lat="46.54226" lon="0.35253">
        <ele>127.2</ele>
        <time>2021-05-02T16:57:44Z</time>
      </trkpt>
      <trkpt lat="46.5423" lon="0.35243">
        <ele>127</ele>
        <time>2021-05-02T16:57:46Z</time>
      </trkpt>
      <trkpt lat="46.54233" lon="0.35235">
        <ele>126.8</ele>
        <time>2021-05-02T16:57:48Z</time>
      </trkpt>
      <trkpt lat="46.54235" lon="0.35226">
        <ele>126.4</ele>
        <time>2021-05-02T16:57:52Z</time>
      </trkpt>
      <trkpt lat="46.54235" lon="0.35223">
        <ele>126.4</ele>
        <time>2021-05-02T16:57:53Z</time>
      </trkpt>
      <trkpt lat="46.54236" lon="0.35214">
        <ele>126.2</ele>
        <time>2021-05-02T16:57:55Z</time>
      </trkpt>
      <trkpt lat="46.54234" lon="0.35203">
        <ele>126</ele>
        <time>2021-05-02T16:57:58Z</time>
      </trkpt>
      <trkpt lat="46.54234" lon="0.35197">
        <ele>126</ele>
        <time>2021-05-02T16:57:59Z</time>
      </trkpt>
      <trkpt lat="46.54237" lon="0.3518">
        <ele>126</ele>
        <time>2021-05-02T16:58:02Z</time>
      </trkpt>
      <trkpt lat="46.5424" lon="0.3517">
        <ele>125.4</ele>
        <time>2021-05-02T16:58:04Z</time>
      </trkpt>
      <trkpt lat="46.54244" lon="0.3516">
        <ele>125.2</ele>
        <time>2021-05-02T16:58:06Z</time>
      </trkpt>
      <trkpt lat="46.54248" lon="0.35149">
        <ele>125</ele>
        <time>2021-05-02T16:58:08Z</time>
      </trkpt>
      <trkpt lat="46.54254" lon="0.35123">
        <ele>124.2</ele>
        <time>2021-05-02T16:58:13Z</time>
      </trkpt>
      <trkpt lat="46.54256" lon="0.35104">
        <ele>123.8</ele>
        <time>2021-05-02T16:58:17Z</time>
      </trkpt>
      <trkpt lat="46.54258" lon="0.35084">
        <ele>123.8</ele>
        <time>2021-05-02T16:58:21Z</time>
      </trkpt>
      <trkpt lat="46.54257" lon="0.35077">
        <ele>123.4</ele>
        <time>2021-05-02T16:58:23Z</time>
      </trkpt>
      <trkpt lat="46.54255" lon="0.35069">
        <ele>123.2</ele>
        <time>2021-05-02T16:58:25Z</time>
      </trkpt>
      <trkpt lat="46.54255" lon="0.35065">
        <ele>123</ele>
        <time>2021-05-02T16:58:26Z</time>
      </trkpt>
      <trkpt lat="46.54253" lon="0.35061">
        <ele>122.8</ele>
        <time>2021-05-02T16:58:27Z</time>
      </trkpt>
      <trkpt lat="46.54252" lon="0.35049">
        <ele>122.2</ele>
        <time>2021-05-02T16:58:30Z</time>
      </trkpt>
      <trkpt lat="46.54252" lon="0.3504">
        <ele>122.2</ele>
        <time>2021-05-02T16:58:32Z</time>
      </trkpt>
      <trkpt lat="46.54252" lon="0.35021">
        <ele>121.6</ele>
        <time>2021-05-02T16:58:36Z</time>
      </trkpt>
      <trkpt lat="46.54255" lon="0.34992">
        <ele>121.6</ele>
        <time>2021-05-02T16:58:42Z</time>
      </trkpt>
      <trkpt lat="46.54257" lon="0.34995">
        <ele>121.8</ele>
        <time>2021-05-02T16:58:45Z</time>
      </trkpt>
      <trkpt lat="46.54259" lon="0.34998">
        <ele>122</ele>
        <time>2021-05-02T16:58:47Z</time>
      </trkpt>
      <trkpt lat="46.5426" lon="0.34996">
        <ele>122</ele>
        <time>2021-05-02T16:58:49Z</time>
      </trkpt>
      <trkpt lat="46.54265" lon="0.34985">
        <ele>122.2</ele>
        <time>2021-05-02T16:58:53Z</time>
      </trkpt>
      <trkpt lat="46.54273" lon="0.34981">
        <ele>123.2</ele>
        <time>2021-05-02T16:58:57Z</time>
      </trkpt>
      <trkpt lat="46.54275" lon="0.34982">
        <ele>123.4</ele>
        <time>2021-05-02T16:58:58Z</time>
      </trkpt>
      <trkpt lat="46.54278" lon="0.34982">
        <ele>123.6</ele>
        <time>2021-05-02T16:58:59Z</time>
      </trkpt>
      <trkpt lat="46.54282" lon="0.34978">
        <ele>124</ele>
        <time>2021-05-02T16:59:01Z</time>
      </trkpt>
      <trkpt lat="46.54285" lon="0.34978">
        <ele>124.2</ele>
        <time>2021-05-02T16:59:02Z</time>
      </trkpt>
      <trkpt lat="46.54297" lon="0.34973">
        <ele>124.2</ele>
        <time>2021-05-02T16:59:06Z</time>
      </trkpt>
      <trkpt lat="46.54303" lon="0.34971">
        <ele>124.4</ele>
        <time>2021-05-02T16:59:08Z</time>
      </trkpt>
      <trkpt lat="46.54309" lon="0.3497">
        <ele>124.4</ele>
        <time>2021-05-02T16:59:10Z</time>
      </trkpt>
      <trkpt lat="46.54313" lon="0.34966">
        <ele>124.4</ele>
        <time>2021-05-02T16:59:12Z</time>
      </trkpt>
      <trkpt lat="46.54314" lon="0.34963">
        <ele>124.4</ele>
        <time>2021-05-02T16:59:13Z</time>
      </trkpt>
      <trkpt lat="46.54322" lon="0.34945">
        <ele>124.4</ele>
        <time>2021-05-02T16:59:18Z</time>
      </trkpt>
      <trkpt lat="46.5433" lon="0.34923">
        <ele>124.2</ele>
        <time>2021-05-02T16:59:23Z</time>
      </trkpt>
      <trkpt lat="46.54333" lon="0.3491">
        <ele>124.2</ele>
        <time>2021-05-02T16:59:26Z</time>
      </trkpt>
      <trkpt lat="46.54332" lon="0.34907">
        <ele>124.4</ele>
        <time>2021-05-02T16:59:27Z</time>
      </trkpt>
      <trkpt lat="46.54328" lon="0.34909">
        <ele>124.2</ele>
        <time>2021-05-02T16:59:30Z</time>
      </trkpt>
      <trkpt lat="46.54326" lon="0.34911">
        <ele>124.2</ele>
        <time>2021-05-02T16:59:31Z</time>
      </trkpt>
      <trkpt lat="46.54323" lon="0.3492">
        <ele>124.2</ele>
        <time>2021-05-02T16:59:34Z</time>
      </trkpt>
      <trkpt lat="46.54319" lon="0.34922">
        <ele>124.2</ele>
        <time>2021-05-02T16:59:37Z</time>
      </trkpt>
      <trkpt lat="46.54318" lon="0.34921">
        <ele>124.2</ele>
        <time>2021-05-02T16:59:38Z</time>
      </trkpt>
      <trkpt lat="46.54317" lon="0.34918">
        <ele>124.2</ele>
        <time>2021-05-02T16:59:39Z</time>
      </trkpt>
      <trkpt lat="46.54316" lon="0.34911">
        <ele>124.2</ele>
        <time>2021-05-02T16:59:41Z</time>
      </trkpt>
      <trkpt lat="46.54316" lon="0.34908">
        <ele>124.2</ele>
        <time>2021-05-02T16:59:42Z</time>
      </trkpt>
      <trkpt lat="46.54308" lon="0.34906">
        <ele>124.2</ele>
        <time>2021-05-02T16:59:45Z</time>
      </trkpt>
      <trkpt lat="46.54302" lon="0.34909">
        <ele>124.2</ele>
        <time>2021-05-02T16:59:47Z</time>
      </trkpt>
      <trkpt lat="46.54299" lon="0.34914">
        <ele>124.2</ele>
        <time>2021-05-02T16:59:49Z</time>
      </trkpt>
      <trkpt lat="46.54303" lon="0.34925">
        <ele>124.2</ele>
        <time>2021-05-02T16:59:53Z</time>
      </trkpt>
      <trkpt lat="46.54305" lon="0.34932">
        <ele>124</ele>
        <time>2021-05-02T16:59:55Z</time>
      </trkpt>
      <trkpt lat="46.54306" lon="0.34942">
        <ele>124</ele>
        <time>2021-05-02T16:59:57Z</time>
      </trkpt>
      <trkpt lat="46.54305" lon="0.34948">
        <ele>124</ele>
        <time>2021-05-02T16:59:58Z</time>
      </trkpt>
      <trkpt lat="46.54305" lon="0.34958">
        <ele>124</ele>
        <time>2021-05-02T17:00:00Z</time>
      </trkpt>
      <trkpt lat="46.54302" lon="0.34962">
        <ele>124</ele>
        <time>2021-05-02T17:00:02Z</time>
      </trkpt>
      <trkpt lat="46.54292" lon="0.34966">
        <ele>123.6</ele>
        <time>2021-05-02T17:00:07Z</time>
      </trkpt>
      <trkpt lat="46.54285" lon="0.34973">
        <ele>123.2</ele>
        <time>2021-05-02T17:00:10Z</time>
      </trkpt>
      <trkpt lat="46.54279" lon="0.34979">
        <ele>122.8</ele>
        <time>2021-05-02T17:00:13Z</time>
      </trkpt>
      <trkpt lat="46.54277" lon="0.34979">
        <ele>122.6</ele>
        <time>2021-05-02T17:00:14Z</time>
      </trkpt>
      <trkpt lat="46.54275" lon="0.34974">
        <ele>122.4</ele>
        <time>2021-05-02T17:00:15Z</time>
      </trkpt>
      <trkpt lat="46.54275" lon="0.34974">
        <ele>122.4</ele>
        <time>2021-05-02T17:00:16Z</time>
      </trkpt>
      <trkpt lat="46.54271" lon="0.34973">
        <ele>122.2</ele>
        <time>2021-05-02T17:00:18Z</time>
      </trkpt>
      <trkpt lat="46.54267" lon="0.34977">
        <ele>122.2</ele>
        <time>2021-05-02T17:00:20Z</time>
      </trkpt>
      <trkpt lat="46.54261" lon="0.34987">
        <ele>121.8</ele>
        <time>2021-05-02T17:00:23Z</time>
      </trkpt>
      <trkpt lat="46.54259" lon="0.34995">
        <ele>121.8</ele>
        <time>2021-05-02T17:00:25Z</time>
      </trkpt>
      <trkpt lat="46.5426" lon="0.34999">
        <ele>121.6</ele>
        <time>2021-05-02T17:00:26Z</time>
      </trkpt>
      <trkpt lat="46.54261" lon="0.35003">
        <ele>121.4</ele>
        <time>2021-05-02T17:00:27Z</time>
      </trkpt>
      <trkpt lat="46.54264" lon="0.35008">
        <ele>121.4</ele>
        <time>2021-05-02T17:00:29Z</time>
      </trkpt>
      <trkpt lat="46.54265" lon="0.35011">
        <ele>121.6</ele>
        <time>2021-05-02T17:00:30Z</time>
      </trkpt>
      <trkpt lat="46.5427" lon="0.35019">
        <ele>122.4</ele>
        <time>2021-05-02T17:00:33Z</time>
      </trkpt>
      <trkpt lat="46.54273" lon="0.35027">
        <ele>123.2</ele>
        <time>2021-05-02T17:00:35Z</time>
      </trkpt>
      <trkpt lat="46.54274" lon="0.3503">
        <ele>123.6</ele>
        <time>2021-05-02T17:00:36Z</time>
      </trkpt>
      <trkpt lat="46.54278" lon="0.35037">
        <ele>123.8</ele>
        <time>2021-05-02T17:00:38Z</time>
      </trkpt>
      <trkpt lat="46.54281" lon="0.35045">
        <ele>124</ele>
        <time>2021-05-02T17:00:40Z</time>
      </trkpt>
      <trkpt lat="46.54283" lon="0.35047">
        <ele>124.4</ele>
        <time>2021-05-02T17:00:41Z</time>
      </trkpt>
      <trkpt lat="46.54286" lon="0.35049">
        <ele>124.6</ele>
        <time>2021-05-02T17:00:43Z</time>
      </trkpt>
      <trkpt lat="46.54288" lon="0.3505">
        <ele>124.6</ele>
        <time>2021-05-02T17:00:44Z</time>
      </trkpt>
      <trkpt lat="46.54292" lon="0.35051">
        <ele>125</ele>
        <time>2021-05-02T17:00:46Z</time>
      </trkpt>
      <trkpt lat="46.54297" lon="0.35051">
        <ele>125</ele>
        <time>2021-05-02T17:00:48Z</time>
      </trkpt>
      <trkpt lat="46.54303" lon="0.3505">
        <ele>125</ele>
        <time>2021-05-02T17:00:51Z</time>
      </trkpt>
      <trkpt lat="46.54304" lon="0.35048">
        <ele>125</ele>
        <time>2021-05-02T17:00:52Z</time>
      </trkpt>
      <trkpt lat="46.54307" lon="0.35043">
        <ele>124.8</ele>
        <time>2021-05-02T17:00:54Z</time>
      </trkpt>
      <trkpt lat="46.54309" lon="0.35039">
        <ele>125</ele>
        <time>2021-05-02T17:00:55Z</time>
      </trkpt>
      <trkpt lat="46.54311" lon="0.35037">
        <ele>125</ele>
        <time>2021-05-02T17:00:56Z</time>
      </trkpt>
      <trkpt lat="46.54316" lon="0.35024">
        <ele>125</ele>
        <time>2021-05-02T17:01:00Z</time>
      </trkpt>
      <trkpt lat="46.54326" lon="0.35003">
        <ele>124.6</ele>
        <time>2021-05-02T17:01:06Z</time>
      </trkpt>
      <trkpt lat="46.54339" lon="0.34988">
        <ele>124.4</ele>
        <time>2021-05-02T17:01:12Z</time>
      </trkpt>
      <trkpt lat="46.54338" lon="0.34984">
        <ele>123.8</ele>
        <time>2021-05-02T17:01:14Z</time>
      </trkpt>
      <trkpt lat="46.54337" lon="0.34981">
        <ele>123.6</ele>
        <time>2021-05-02T17:01:15Z</time>
      </trkpt>
      <trkpt lat="46.54336" lon="0.3498">
        <ele>123.4</ele>
        <time>2021-05-02T17:01:16Z</time>
      </trkpt>
      <trkpt lat="46.54335" lon="0.34979">
        <ele>123.6</ele>
        <time>2021-05-02T17:01:18Z</time>
      </trkpt>
      <trkpt lat="46.54329" lon="0.34978">
        <ele>124</ele>
        <time>2021-05-02T17:01:21Z</time>
      </trkpt>
      <trkpt lat="46.54315" lon="0.34979">
        <ele>124</ele>
        <time>2021-05-02T17:01:27Z</time>
      </trkpt>
      <trkpt lat="46.5431" lon="0.3498">
        <ele>124</ele>
        <time>2021-05-02T17:01:29Z</time>
      </trkpt>
      <trkpt lat="46.54305" lon="0.34981">
        <ele>123.8</ele>
        <time>2021-05-02T17:01:31Z</time>
      </trkpt>
      <trkpt lat="46.54304" lon="0.34979">
        <ele>123.8</ele>
        <time>2021-05-02T17:01:32Z</time>
      </trkpt>
      <trkpt lat="46.54304" lon="0.34976">
        <ele>123.8</ele>
        <time>2021-05-02T17:01:33Z</time>
      </trkpt>
      <trkpt lat="46.54305" lon="0.34967">
        <ele>124</ele>
        <time>2021-05-02T17:01:35Z</time>
      </trkpt>
      <trkpt lat="46.54306" lon="0.34962">
        <ele>124</ele>
        <time>2021-05-02T17:01:36Z</time>
      </trkpt>
      <trkpt lat="46.54307" lon="0.34953">
        <ele>124</ele>
        <time>2021-05-02T17:01:38Z</time>
      </trkpt>
      <trkpt lat="46.54307" lon="0.34949">
        <ele>124</ele>
        <time>2021-05-02T17:01:39Z</time>
      </trkpt>
      <trkpt lat="46.54306" lon="0.34943">
        <ele>124</ele>
        <time>2021-05-02T17:01:40Z</time>
      </trkpt>
      <trkpt lat="46.54301" lon="0.34922">
        <ele>124.2</ele>
        <time>2021-05-02T17:01:44Z</time>
      </trkpt>
      <trkpt lat="46.543" lon="0.34916">
        <ele>124</ele>
        <time>2021-05-02T17:01:45Z</time>
      </trkpt>
      <trkpt lat="46.543" lon="0.3491">
        <ele>124.2</ele>
        <time>2021-05-02T17:01:46Z</time>
      </trkpt>
      <trkpt lat="46.54295" lon="0.349">
        <ele>124.2</ele>
        <time>2021-05-02T17:01:48Z</time>
      </trkpt>
      <trkpt lat="46.54292" lon="0.34898">
        <ele>124.4</ele>
        <time>2021-05-02T17:01:49Z</time>
      </trkpt>
      <trkpt lat="46.54288" lon="0.34893">
        <ele>124.6</ele>
        <time>2021-05-02T17:01:51Z</time>
      </trkpt>
      <trkpt lat="46.54287" lon="0.34889">
        <ele>124.8</ele>
        <time>2021-05-02T17:01:52Z</time>
      </trkpt>
      <trkpt lat="46.54284" lon="0.34885">
        <ele>125</ele>
        <time>2021-05-02T17:01:53Z</time>
      </trkpt>
      <trkpt lat="46.54282" lon="0.34875">
        <ele>125.2</ele>
        <time>2021-05-02T17:01:55Z</time>
      </trkpt>
      <trkpt lat="46.54275" lon="0.34855">
        <ele>125.2</ele>
        <time>2021-05-02T17:01:58Z</time>
      </trkpt>
      <trkpt lat="46.54273" lon="0.34828">
        <ele>125.2</ele>
        <time>2021-05-02T17:02:02Z</time>
      </trkpt>
      <trkpt lat="46.5427" lon="0.34813">
        <ele>125.2</ele>
        <time>2021-05-02T17:02:06Z</time>
      </trkpt>
      <trkpt lat="46.54269" lon="0.34808">
        <ele>125.2</ele>
        <time>2021-05-02T17:02:07Z</time>
      </trkpt>
      <trkpt lat="46.5427" lon="0.34797">
        <ele>125</ele>
        <time>2021-05-02T17:02:09Z</time>
      </trkpt>
      <trkpt lat="46.54271" lon="0.34791">
        <ele>125</ele>
        <time>2021-05-02T17:02:10Z</time>
      </trkpt>
      <trkpt lat="46.54271" lon="0.34772">
        <ele>124.8</ele>
        <time>2021-05-02T17:02:14Z</time>
      </trkpt>
      <trkpt lat="46.5427" lon="0.34747">
        <ele>124.6</ele>
        <time>2021-05-02T17:02:19Z</time>
      </trkpt>
      <trkpt lat="46.54271" lon="0.34725">
        <ele>124.6</ele>
        <time>2021-05-02T17:02:22Z</time>
      </trkpt>
      <trkpt lat="46.54273" lon="0.34714">
        <ele>124</ele>
        <time>2021-05-02T17:02:24Z</time>
      </trkpt>
      <trkpt lat="46.54276" lon="0.34705">
        <ele>123.8</ele>
        <time>2021-05-02T17:02:27Z</time>
      </trkpt>
      <trkpt lat="46.54277" lon="0.34704">
        <ele>123.8</ele>
        <time>2021-05-02T17:02:28Z</time>
      </trkpt>
      <trkpt lat="46.5428" lon="0.34701">
        <ele>123.8</ele>
        <time>2021-05-02T17:02:30Z</time>
      </trkpt>
      <trkpt lat="46.54282" lon="0.34694">
        <ele>123.8</ele>
        <time>2021-05-02T17:02:32Z</time>
      </trkpt>
      <trkpt lat="46.54285" lon="0.34684">
        <ele>123.8</ele>
        <time>2021-05-02T17:02:34Z</time>
      </trkpt>
      <trkpt lat="46.54288" lon="0.34674">
        <ele>123.4</ele>
        <time>2021-05-02T17:02:36Z</time>
      </trkpt>
      <trkpt lat="46.5429" lon="0.34669">
        <ele>123.2</ele>
        <time>2021-05-02T17:02:37Z</time>
      </trkpt>
      <trkpt lat="46.54294" lon="0.34661">
        <ele>123.2</ele>
        <time>2021-05-02T17:02:39Z</time>
      </trkpt>
      <trkpt lat="46.54296" lon="0.34656">
        <ele>123</ele>
        <time>2021-05-02T17:02:40Z</time>
      </trkpt>
      <trkpt lat="46.54298" lon="0.34651">
        <ele>123</ele>
        <time>2021-05-02T17:02:41Z</time>
      </trkpt>
      <trkpt lat="46.54305" lon="0.34645">
        <ele>123</ele>
        <time>2021-05-02T17:02:43Z</time>
      </trkpt>
      <trkpt lat="46.54306" lon="0.34642">
        <ele>123</ele>
        <time>2021-05-02T17:02:44Z</time>
      </trkpt>
      <trkpt lat="46.54314" lon="0.34633">
        <ele>123.2</ele>
        <time>2021-05-02T17:02:48Z</time>
      </trkpt>
      <trkpt lat="46.54317" lon="0.34628">
        <ele>123.6</ele>
        <time>2021-05-02T17:02:50Z</time>
      </trkpt>
      <trkpt lat="46.54326" lon="0.34608">
        <ele>124</ele>
        <time>2021-05-02T17:02:56Z</time>
      </trkpt>
      <trkpt lat="46.54335" lon="0.34606">
        <ele>124.6</ele>
        <time>2021-05-02T17:03:00Z</time>
      </trkpt>
      <trkpt lat="46.54337" lon="0.34603">
        <ele>124.6</ele>
        <time>2021-05-02T17:03:01Z</time>
      </trkpt>
      <trkpt lat="46.54352" lon="0.34589">
        <ele>124.6</ele>
        <time>2021-05-02T17:03:06Z</time>
      </trkpt>
      <trkpt lat="46.54371" lon="0.34564">
        <ele>124.2</ele>
        <time>2021-05-02T17:03:11Z</time>
      </trkpt>
      <trkpt lat="46.54377" lon="0.34546">
        <ele>123.8</ele>
        <time>2021-05-02T17:03:16Z</time>
      </trkpt>
      <trkpt lat="46.54392" lon="0.34529">
        <ele>124</ele>
        <time>2021-05-02T17:03:21Z</time>
      </trkpt>
      <trkpt lat="46.54401" lon="0.34518">
        <ele>123.8</ele>
        <time>2021-05-02T17:03:24Z</time>
      </trkpt>
      <trkpt lat="46.5441" lon="0.34505">
        <ele>123.8</ele>
        <time>2021-05-02T17:03:26Z</time>
      </trkpt>
      <trkpt lat="46.5441" lon="0.34494">
        <ele>123.4</ele>
        <time>2021-05-02T17:03:28Z</time>
      </trkpt>
      <trkpt lat="46.54408" lon="0.34489">
        <ele>123.4</ele>
        <time>2021-05-02T17:03:29Z</time>
      </trkpt>
      <trkpt lat="46.54393" lon="0.34451">
        <ele>123.2</ele>
        <time>2021-05-02T17:03:36Z</time>
      </trkpt>
      <trkpt lat="46.54392" lon="0.34446">
        <ele>123.4</ele>
        <time>2021-05-02T17:03:37Z</time>
      </trkpt>
      <trkpt lat="46.54385" lon="0.34416">
        <ele>123</ele>
        <time>2021-05-02T17:03:43Z</time>
      </trkpt>
      <trkpt lat="46.54379" lon="0.34392">
        <ele>123</ele>
        <time>2021-05-02T17:03:48Z</time>
      </trkpt>
      <trkpt lat="46.54375" lon="0.34382">
        <ele>123</ele>
        <time>2021-05-02T17:03:50Z</time>
      </trkpt>
      <trkpt lat="46.54367" lon="0.34354">
        <ele>122.8</ele>
        <time>2021-05-02T17:03:56Z</time>
      </trkpt>
      <trkpt lat="46.54367" lon="0.3435">
        <ele>122.8</ele>
        <time>2021-05-02T17:03:57Z</time>
      </trkpt>
      <trkpt lat="46.54364" lon="0.34334">
        <ele>122.8</ele>
        <time>2021-05-02T17:04:00Z</time>
      </trkpt>
      <trkpt lat="46.54358" lon="0.34323">
        <ele>122.8</ele>
        <time>2021-05-02T17:04:02Z</time>
      </trkpt>
      <trkpt lat="46.54352" lon="0.34312">
        <ele>122.8</ele>
        <time>2021-05-02T17:04:04Z</time>
      </trkpt>
      <trkpt lat="46.54347" lon="0.34308">
        <ele>122.8</ele>
        <time>2021-05-02T17:04:05Z</time>
      </trkpt>
      <trkpt lat="46.54343" lon="0.34305">
        <ele>122.8</ele>
        <time>2021-05-02T17:04:06Z</time>
      </trkpt>
      <trkpt lat="46.54322" lon="0.34298">
        <ele>123.2</ele>
        <time>2021-05-02T17:04:10Z</time>
      </trkpt>
      <trkpt lat="46.54318" lon="0.34298">
        <ele>123.4</ele>
        <time>2021-05-02T17:04:11Z</time>
      </trkpt>
      <trkpt lat="46.54309" lon="0.34297">
        <ele>123.6</ele>
        <time>2021-05-02T17:04:13Z</time>
      </trkpt>
      <trkpt lat="46.54305" lon="0.34296">
        <ele>123.6</ele>
        <time>2021-05-02T17:04:14Z</time>
      </trkpt>
      <trkpt lat="46.543" lon="0.34293">
        <ele>123.8</ele>
        <time>2021-05-02T17:04:15Z</time>
      </trkpt>
      <trkpt lat="46.54288" lon="0.34288">
        <ele>124.4</ele>
        <time>2021-05-02T17:04:18Z</time>
      </trkpt>
      <trkpt lat="46.54283" lon="0.34286">
        <ele>124.4</ele>
        <time>2021-05-02T17:04:19Z</time>
      </trkpt>
      <trkpt lat="46.54269" lon="0.34281">
        <ele>124.8</ele>
        <time>2021-05-02T17:04:22Z</time>
      </trkpt>
      <trkpt lat="46.5426" lon="0.34278">
        <ele>124.8</ele>
        <time>2021-05-02T17:04:24Z</time>
      </trkpt>
      <trkpt lat="46.54255" lon="0.34276">
        <ele>124.6</ele>
        <time>2021-05-02T17:04:25Z</time>
      </trkpt>
      <trkpt lat="46.5425" lon="0.34275">
        <ele>124.6</ele>
        <time>2021-05-02T17:04:26Z</time>
      </trkpt>
      <trkpt lat="46.54243" lon="0.34268">
        <ele>124.4</ele>
        <time>2021-05-02T17:04:28Z</time>
      </trkpt>
      <trkpt lat="46.54242" lon="0.34263">
        <ele>124.4</ele>
        <time>2021-05-02T17:04:29Z</time>
      </trkpt>
      <trkpt lat="46.54241" lon="0.34257">
        <ele>124.6</ele>
        <time>2021-05-02T17:04:30Z</time>
      </trkpt>
      <trkpt lat="46.54241" lon="0.34244">
        <ele>124.6</ele>
        <time>2021-05-02T17:04:32Z</time>
      </trkpt>
      <trkpt lat="46.54241" lon="0.34238">
        <ele>124.6</ele>
        <time>2021-05-02T17:04:33Z</time>
      </trkpt>
      <trkpt lat="46.5424" lon="0.34231">
        <ele>124.6</ele>
        <time>2021-05-02T17:04:34Z</time>
      </trkpt>
      <trkpt lat="46.54237" lon="0.34203">
        <ele>124.6</ele>
        <time>2021-05-02T17:04:38Z</time>
      </trkpt>
      <trkpt lat="46.54235" lon="0.34189">
        <ele>124.4</ele>
        <time>2021-05-02T17:04:40Z</time>
      </trkpt>
      <trkpt lat="46.54227" lon="0.34161">
        <ele>124</ele>
        <time>2021-05-02T17:04:44Z</time>
      </trkpt>
      <trkpt lat="46.5422" lon="0.34134">
        <ele>124</ele>
        <time>2021-05-02T17:04:48Z</time>
      </trkpt>
      <trkpt lat="46.54219" lon="0.34126">
        <ele>124</ele>
        <time>2021-05-02T17:04:49Z</time>
      </trkpt>
      <trkpt lat="46.54215" lon="0.34087">
        <ele>123.8</ele>
        <time>2021-05-02T17:04:54Z</time>
      </trkpt>
      <trkpt lat="46.54213" lon="0.34067">
        <ele>122.4</ele>
        <time>2021-05-02T17:04:57Z</time>
      </trkpt>
      <trkpt lat="46.54211" lon="0.34061">
        <ele>121.8</ele>
        <time>2021-05-02T17:04:58Z</time>
      </trkpt>
      <trkpt lat="46.54206" lon="0.34059">
        <ele>121.6</ele>
        <time>2021-05-02T17:04:59Z</time>
      </trkpt>
      <trkpt lat="46.54203" lon="0.3406">
        <ele>121.2</ele>
        <time>2021-05-02T17:05:00Z</time>
      </trkpt>
      <trkpt lat="46.54199" lon="0.34065">
        <ele>120.8</ele>
        <time>2021-05-02T17:05:02Z</time>
      </trkpt>
      <trkpt lat="46.54191" lon="0.34079">
        <ele>120.4</ele>
        <time>2021-05-02T17:05:06Z</time>
      </trkpt>
      <trkpt lat="46.54187" lon="0.34084">
        <ele>120.8</ele>
        <time>2021-05-02T17:05:08Z</time>
      </trkpt>
      <trkpt lat="46.54183" lon="0.3409">
        <ele>121</ele>
        <time>2021-05-02T17:05:10Z</time>
      </trkpt>
      <trkpt lat="46.54176" lon="0.34102">
        <ele>121.4</ele>
        <time>2021-05-02T17:05:13Z</time>
      </trkpt>
      <trkpt lat="46.5417" lon="0.34111">
        <ele>121.6</ele>
        <time>2021-05-02T17:05:15Z</time>
      </trkpt>
      <trkpt lat="46.54168" lon="0.34116">
        <ele>121.8</ele>
        <time>2021-05-02T17:05:16Z</time>
      </trkpt>
      <trkpt lat="46.54157" lon="0.34133">
        <ele>121.8</ele>
        <time>2021-05-02T17:05:20Z</time>
      </trkpt>
      <trkpt lat="46.54147" lon="0.34154">
        <ele>121</ele>
        <time>2021-05-02T17:05:24Z</time>
      </trkpt>
      <trkpt lat="46.54144" lon="0.34159">
        <ele>120</ele>
        <time>2021-05-02T17:05:25Z</time>
      </trkpt>
      <trkpt lat="46.54143" lon="0.34163">
        <ele>119.4</ele>
        <time>2021-05-02T17:05:26Z</time>
      </trkpt>
      <trkpt lat="46.54141" lon="0.3417">
        <ele>119</ele>
        <time>2021-05-02T17:05:28Z</time>
      </trkpt>
      <trkpt lat="46.5414" lon="0.34175">
        <ele>119</ele>
        <time>2021-05-02T17:05:29Z</time>
      </trkpt>
      <trkpt lat="46.54138" lon="0.34187">
        <ele>118.6</ele>
        <time>2021-05-02T17:05:31Z</time>
      </trkpt>
      <trkpt lat="46.54135" lon="0.34198">
        <ele>118.6</ele>
        <time>2021-05-02T17:05:33Z</time>
      </trkpt>
      <trkpt lat="46.54132" lon="0.34206">
        <ele>118.8</ele>
        <time>2021-05-02T17:05:35Z</time>
      </trkpt>
      <trkpt lat="46.5413" lon="0.34212">
        <ele>119.2</ele>
        <time>2021-05-02T17:05:37Z</time>
      </trkpt>
      <trkpt lat="46.54123" lon="0.3423">
        <ele>119.6</ele>
        <time>2021-05-02T17:05:41Z</time>
      </trkpt>
      <trkpt lat="46.54119" lon="0.34239">
        <ele>119.2</ele>
        <time>2021-05-02T17:05:43Z</time>
      </trkpt>
      <trkpt lat="46.54113" lon="0.34253">
        <ele>118.8</ele>
        <time>2021-05-02T17:05:46Z</time>
      </trkpt>
      <trkpt lat="46.54108" lon="0.34258">
        <ele>118</ele>
        <time>2021-05-02T17:05:48Z</time>
      </trkpt>
      <trkpt lat="46.54106" lon="0.34262">
        <ele>117.8</ele>
        <time>2021-05-02T17:05:49Z</time>
      </trkpt>
      <trkpt lat="46.54106" lon="0.34266">
        <ele>117.2</ele>
        <time>2021-05-02T17:05:50Z</time>
      </trkpt>
      <trkpt lat="46.54105" lon="0.3427">
        <ele>116.8</ele>
        <time>2021-05-02T17:05:51Z</time>
      </trkpt>
      <trkpt lat="46.54104" lon="0.34274">
        <ele>116.8</ele>
        <time>2021-05-02T17:05:52Z</time>
      </trkpt>
      <trkpt lat="46.54097" lon="0.34287">
        <ele>115.4</ele>
        <time>2021-05-02T17:05:55Z</time>
      </trkpt>
      <trkpt lat="46.54092" lon="0.34295">
        <ele>114.2</ele>
        <time>2021-05-02T17:05:57Z</time>
      </trkpt>
      <trkpt lat="46.54086" lon="0.34304">
        <ele>112.8</ele>
        <time>2021-05-02T17:05:59Z</time>
      </trkpt>
      <trkpt lat="46.54082" lon="0.34308">
        <ele>112.2</ele>
        <time>2021-05-02T17:06:00Z</time>
      </trkpt>
      <trkpt lat="46.54077" lon="0.34318">
        <ele>111</ele>
        <time>2021-05-02T17:06:02Z</time>
      </trkpt>
      <trkpt lat="46.54076" lon="0.34322">
        <ele>110</ele>
        <time>2021-05-02T17:06:03Z</time>
      </trkpt>
      <trkpt lat="46.54075" lon="0.34326">
        <ele>109</ele>
        <time>2021-05-02T17:06:04Z</time>
      </trkpt>
      <trkpt lat="46.54076" lon="0.34335">
        <ele>108</ele>
        <time>2021-05-02T17:06:07Z</time>
      </trkpt>
      <trkpt lat="46.54075" lon="0.34338">
        <ele>108.2</ele>
        <time>2021-05-02T17:06:08Z</time>
      </trkpt>
      <trkpt lat="46.54068" lon="0.34347">
        <ele>108.6</ele>
        <time>2021-05-02T17:06:11Z</time>
      </trkpt>
      <trkpt lat="46.54062" lon="0.34354">
        <ele>108.4</ele>
        <time>2021-05-02T17:06:13Z</time>
      </trkpt>
      <trkpt lat="46.54059" lon="0.34358">
        <ele>107.6</ele>
        <time>2021-05-02T17:06:14Z</time>
      </trkpt>
      <trkpt lat="46.54056" lon="0.34363">
        <ele>107.2</ele>
        <time>2021-05-02T17:06:15Z</time>
      </trkpt>
      <trkpt lat="46.54051" lon="0.34373">
        <ele>106.6</ele>
        <time>2021-05-02T17:06:17Z</time>
      </trkpt>
      <trkpt lat="46.54048" lon="0.34378">
        <ele>106.6</ele>
        <time>2021-05-02T17:06:18Z</time>
      </trkpt>
      <trkpt lat="46.54044" lon="0.34381">
        <ele>106.4</ele>
        <time>2021-05-02T17:06:19Z</time>
      </trkpt>
      <trkpt lat="46.54041" lon="0.34382">
        <ele>106.4</ele>
        <time>2021-05-02T17:06:20Z</time>
      </trkpt>
      <trkpt lat="46.54037" lon="0.34382">
        <ele>106.4</ele>
        <time>2021-05-02T17:06:21Z</time>
      </trkpt>
      <trkpt lat="46.54028" lon="0.34379">
        <ele>105.8</ele>
        <time>2021-05-02T17:06:25Z</time>
      </trkpt>
      <trkpt lat="46.54027" lon="0.34376">
        <ele>105.4</ele>
        <time>2021-05-02T17:06:27Z</time>
      </trkpt>
      <trkpt lat="46.54027" lon="0.34367">
        <ele>105</ele>
        <time>2021-05-02T17:06:29Z</time>
      </trkpt>
      <trkpt lat="46.54027" lon="0.34358">
        <ele>103.2</ele>
        <time>2021-05-02T17:06:31Z</time>
      </trkpt>
      <trkpt lat="46.54025" lon="0.34352">
        <ele>101.4</ele>
        <time>2021-05-02T17:06:33Z</time>
      </trkpt>
      <trkpt lat="46.54021" lon="0.34344">
        <ele>99.2</ele>
        <time>2021-05-02T17:06:35Z</time>
      </trkpt>
      <trkpt lat="46.54018" lon="0.3434">
        <ele>97.2</ele>
        <time>2021-05-02T17:06:36Z</time>
      </trkpt>
      <trkpt lat="46.54015" lon="0.34338">
        <ele>95.4</ele>
        <time>2021-05-02T17:06:37Z</time>
      </trkpt>
      <trkpt lat="46.54013" lon="0.34335">
        <ele>94.4</ele>
        <time>2021-05-02T17:06:38Z</time>
      </trkpt>
      <trkpt lat="46.54011" lon="0.34332">
        <ele>92.4</ele>
        <time>2021-05-02T17:06:39Z</time>
      </trkpt>
      <trkpt lat="46.54007" lon="0.3433">
        <ele>89.8</ele>
        <time>2021-05-02T17:06:40Z</time>
      </trkpt>
      <trkpt lat="46.54004" lon="0.34328">
        <ele>88.2</ele>
        <time>2021-05-02T17:06:41Z</time>
      </trkpt>
      <trkpt lat="46.54001" lon="0.34327">
        <ele>87</ele>
        <time>2021-05-02T17:06:42Z</time>
      </trkpt>
      <trkpt lat="46.53997" lon="0.34322">
        <ele>84</ele>
        <time>2021-05-02T17:06:43Z</time>
      </trkpt>
      <trkpt lat="46.53992" lon="0.34321">
        <ele>82.4</ele>
        <time>2021-05-02T17:06:46Z</time>
      </trkpt>
      <trkpt lat="46.53989" lon="0.34323">
        <ele>82</ele>
        <time>2021-05-02T17:06:47Z</time>
      </trkpt>
      <trkpt lat="46.53981" lon="0.34329">
        <ele>81.6</ele>
        <time>2021-05-02T17:06:50Z</time>
      </trkpt>
      <trkpt lat="46.53976" lon="0.34333">
        <ele>81.8</ele>
        <time>2021-05-02T17:06:52Z</time>
      </trkpt>
      <trkpt lat="46.53962" lon="0.34347">
        <ele>82.4</ele>
        <time>2021-05-02T17:06:59Z</time>
      </trkpt>
      <trkpt lat="46.53951" lon="0.34359">
        <ele>83.4</ele>
        <time>2021-05-02T17:07:06Z</time>
      </trkpt>
      <trkpt lat="46.53948" lon="0.34361">
        <ele>83.6</ele>
        <time>2021-05-02T17:07:07Z</time>
      </trkpt>
      <trkpt lat="46.53936" lon="0.34373">
        <ele>84.6</ele>
        <time>2021-05-02T17:07:12Z</time>
      </trkpt>
      <trkpt lat="46.53933" lon="0.34376">
        <ele>84.8</ele>
        <time>2021-05-02T17:07:13Z</time>
      </trkpt>
      <trkpt lat="46.53919" lon="0.34398">
        <ele>85.8</ele>
        <time>2021-05-02T17:07:21Z</time>
      </trkpt>
      <trkpt lat="46.53913" lon="0.34416">
        <ele>86.8</ele>
        <time>2021-05-02T17:07:26Z</time>
      </trkpt>
      <trkpt lat="46.53913" lon="0.3442">
        <ele>87.2</ele>
        <time>2021-05-02T17:07:27Z</time>
      </trkpt>
      <trkpt lat="46.53913" lon="0.3443">
        <ele>88.2</ele>
        <time>2021-05-02T17:07:30Z</time>
      </trkpt>
      <trkpt lat="46.53914" lon="0.34437">
        <ele>89.2</ele>
        <time>2021-05-02T17:07:33Z</time>
      </trkpt>
      <trkpt lat="46.53915" lon="0.3444">
        <ele>89.2</ele>
        <time>2021-05-02T17:07:34Z</time>
      </trkpt>
      <trkpt lat="46.53915" lon="0.34443">
        <ele>89.6</ele>
        <time>2021-05-02T17:07:35Z</time>
      </trkpt>
      <trkpt lat="46.53919" lon="0.34453">
        <ele>90.4</ele>
        <time>2021-05-02T17:07:39Z</time>
      </trkpt>
      <trkpt lat="46.53919" lon="0.34456">
        <ele>90.8</ele>
        <time>2021-05-02T17:07:40Z</time>
      </trkpt>
      <trkpt lat="46.5392" lon="0.34463">
        <ele>91.4</ele>
        <time>2021-05-02T17:07:43Z</time>
      </trkpt>
      <trkpt lat="46.53921" lon="0.34466">
        <ele>91.8</ele>
        <time>2021-05-02T17:07:45Z</time>
      </trkpt>
      <trkpt lat="46.53922" lon="0.34467">
        <ele>92.2</ele>
        <time>2021-05-02T17:07:47Z</time>
      </trkpt>
      <trkpt lat="46.53925" lon="0.3447">
        <ele>92.6</ele>
        <time>2021-05-02T17:07:50Z</time>
      </trkpt>
      <trkpt lat="46.53926" lon="0.34474">
        <ele>93</ele>
        <time>2021-05-02T17:07:55Z</time>
      </trkpt>
      <trkpt lat="46.53925" lon="0.34477">
        <ele>93</ele>
        <time>2021-05-02T17:08:08Z</time>
      </trkpt>
      <trkpt lat="46.5392" lon="0.34485">
        <ele>93.2</ele>
        <time>2021-05-02T17:08:15Z</time>
      </trkpt>
      <trkpt lat="46.53916" lon="0.34487">
        <ele>93.2</ele>
        <time>2021-05-02T17:08:17Z</time>
      </trkpt>
      <trkpt lat="46.53901" lon="0.34493">
        <ele>93</ele>
        <time>2021-05-02T17:08:23Z</time>
      </trkpt>
      <trkpt lat="46.53876" lon="0.34498">
        <ele>93</ele>
        <time>2021-05-02T17:08:32Z</time>
      </trkpt>
      <trkpt lat="46.53858" lon="0.34499">
        <ele>93.8</ele>
        <time>2021-05-02T17:08:38Z</time>
      </trkpt>
      <trkpt lat="46.53852" lon="0.34499">
        <ele>94</ele>
        <time>2021-05-02T17:08:40Z</time>
      </trkpt>
      <trkpt lat="46.53825" lon="0.34488">
        <ele>94.4</ele>
        <time>2021-05-02T17:08:48Z</time>
      </trkpt>
      <trkpt lat="46.5381" lon="0.34484">
        <ele>94.4</ele>
        <time>2021-05-02T17:08:52Z</time>
      </trkpt>
      <trkpt lat="46.53803" lon="0.34481">
        <ele>94.4</ele>
        <time>2021-05-02T17:08:54Z</time>
      </trkpt>
      <trkpt lat="46.53781" lon="0.34475">
        <ele>94</ele>
        <time>2021-05-02T17:09:00Z</time>
      </trkpt>
      <trkpt lat="46.53756" lon="0.34463">
        <ele>93.8</ele>
        <time>2021-05-02T17:09:07Z</time>
      </trkpt>
      <trkpt lat="46.53727" lon="0.34452">
        <ele>93.6</ele>
        <time>2021-05-02T17:09:14Z</time>
      </trkpt>
      <trkpt lat="46.53697" lon="0.34436">
        <ele>93.2</ele>
        <time>2021-05-02T17:09:21Z</time>
      </trkpt>
      <trkpt lat="46.5366" lon="0.34419">
        <ele>93</ele>
        <time>2021-05-02T17:09:29Z</time>
      </trkpt>
      <trkpt lat="46.53647" lon="0.34413">
        <ele>92.6</ele>
        <time>2021-05-02T17:09:32Z</time>
      </trkpt>
      <trkpt lat="46.53628" lon="0.34407">
        <ele>91.8</ele>
        <time>2021-05-02T17:09:36Z</time>
      </trkpt>
      <trkpt lat="46.53597" lon="0.34407">
        <ele>91.8</ele>
        <time>2021-05-02T17:09:43Z</time>
      </trkpt>
      <trkpt lat="46.53593" lon="0.34407">
        <ele>92</ele>
        <time>2021-05-02T17:09:44Z</time>
      </trkpt>
      <trkpt lat="46.53584" lon="0.34405">
        <ele>92</ele>
        <time>2021-05-02T17:09:46Z</time>
      </trkpt>
      <trkpt lat="46.53575" lon="0.34401">
        <ele>91.8</ele>
        <time>2021-05-02T17:09:48Z</time>
      </trkpt>
      <trkpt lat="46.53566" lon="0.34396">
        <ele>91.4</ele>
        <time>2021-05-02T17:09:50Z</time>
      </trkpt>
      <trkpt lat="46.53546" lon="0.34379">
        <ele>91.6</ele>
        <time>2021-05-02T17:09:55Z</time>
      </trkpt>
      <trkpt lat="46.53514" lon="0.34361">
        <ele>92.4</ele>
        <time>2021-05-02T17:10:03Z</time>
      </trkpt>
      <trkpt lat="46.5351" lon="0.34359">
        <ele>92.8</ele>
        <time>2021-05-02T17:10:04Z</time>
      </trkpt>
      <trkpt lat="46.53476" lon="0.34347">
        <ele>93.8</ele>
        <time>2021-05-02T17:10:12Z</time>
      </trkpt>
      <trkpt lat="46.53472" lon="0.34346">
        <ele>94</ele>
        <time>2021-05-02T17:10:13Z</time>
      </trkpt>
      <trkpt lat="46.53468" lon="0.34344">
        <ele>94.2</ele>
        <time>2021-05-02T17:10:14Z</time>
      </trkpt>
      <trkpt lat="46.53447" lon="0.34337">
        <ele>94.4</ele>
        <time>2021-05-02T17:10:19Z</time>
      </trkpt>
      <trkpt lat="46.53439" lon="0.34337">
        <ele>94.4</ele>
        <time>2021-05-02T17:10:21Z</time>
      </trkpt>
      <trkpt lat="46.53414" lon="0.3434">
        <ele>94.8</ele>
        <time>2021-05-02T17:10:27Z</time>
      </trkpt>
      <trkpt lat="46.5341" lon="0.34339">
        <ele>94.8</ele>
        <time>2021-05-02T17:10:28Z</time>
      </trkpt>
      <trkpt lat="46.53384" lon="0.3433">
        <ele>94.2</ele>
        <time>2021-05-02T17:10:34Z</time>
      </trkpt>
      <trkpt lat="46.53375" lon="0.34323">
        <ele>93.8</ele>
        <time>2021-05-02T17:10:37Z</time>
      </trkpt>
      <trkpt lat="46.53364" lon="0.34314">
        <ele>94</ele>
        <time>2021-05-02T17:10:39Z</time>
      </trkpt>
      <trkpt lat="46.53361" lon="0.34311">
        <ele>94.2</ele>
        <time>2021-05-02T17:10:41Z</time>
      </trkpt>
      <trkpt lat="46.53346" lon="0.34296">
        <ele>94.2</ele>
        <time>2021-05-02T17:10:45Z</time>
      </trkpt>
      <trkpt lat="46.53323" lon="0.34275">
        <ele>94.4</ele>
        <time>2021-05-02T17:10:51Z</time>
      </trkpt>
      <trkpt lat="46.53303" lon="0.3426">
        <ele>95</ele>
        <time>2021-05-02T17:10:56Z</time>
      </trkpt>
      <trkpt lat="46.5329" lon="0.34252">
        <ele>94.8</ele>
        <time>2021-05-02T17:10:59Z</time>
      </trkpt>
      <trkpt lat="46.53255" lon="0.3423">
        <ele>95</ele>
        <time>2021-05-02T17:11:07Z</time>
      </trkpt>
      <trkpt lat="46.53232" lon="0.3421">
        <ele>94.8</ele>
        <time>2021-05-02T17:11:13Z</time>
      </trkpt>
      <trkpt lat="46.53212" lon="0.3419">
        <ele>95.4</ele>
        <time>2021-05-02T17:11:19Z</time>
      </trkpt>
      <trkpt lat="46.53205" lon="0.34183">
        <ele>95.2</ele>
        <time>2021-05-02T17:11:21Z</time>
      </trkpt>
      <trkpt lat="46.53178" lon="0.34154">
        <ele>94.6</ele>
        <time>2021-05-02T17:11:29Z</time>
      </trkpt>
      <trkpt lat="46.53165" lon="0.34135">
        <ele>94.6</ele>
        <time>2021-05-02T17:11:34Z</time>
      </trkpt>
      <trkpt lat="46.53159" lon="0.34127">
        <ele>94.6</ele>
        <time>2021-05-02T17:11:36Z</time>
      </trkpt>
      <trkpt lat="46.53142" lon="0.3411">
        <ele>94.4</ele>
        <time>2021-05-02T17:11:41Z</time>
      </trkpt>
      <trkpt lat="46.53135" lon="0.34105">
        <ele>94.2</ele>
        <time>2021-05-02T17:11:43Z</time>
      </trkpt>
      <trkpt lat="46.53118" lon="0.34096">
        <ele>93.8</ele>
        <time>2021-05-02T17:11:47Z</time>
      </trkpt>
      <trkpt lat="46.53113" lon="0.34094">
        <ele>93.8</ele>
        <time>2021-05-02T17:11:48Z</time>
      </trkpt>
      <trkpt lat="46.53105" lon="0.34089">
        <ele>93.6</ele>
        <time>2021-05-02T17:11:50Z</time>
      </trkpt>
      <trkpt lat="46.53071" lon="0.34069">
        <ele>92.8</ele>
        <time>2021-05-02T17:11:57Z</time>
      </trkpt>
      <trkpt lat="46.53049" lon="0.34056">
        <ele>91.6</ele>
        <time>2021-05-02T17:12:01Z</time>
      </trkpt>
      <trkpt lat="46.53043" lon="0.34054">
        <ele>91.4</ele>
        <time>2021-05-02T17:12:02Z</time>
      </trkpt>
      <trkpt lat="46.53037" lon="0.34053">
        <ele>91.4</ele>
        <time>2021-05-02T17:12:03Z</time>
      </trkpt>
      <trkpt lat="46.53021" lon="0.34056">
        <ele>90.6</ele>
        <time>2021-05-02T17:12:06Z</time>
      </trkpt>
      <trkpt lat="46.53016" lon="0.34057">
        <ele>90.4</ele>
        <time>2021-05-02T17:12:07Z</time>
      </trkpt>
      <trkpt lat="46.53011" lon="0.34057">
        <ele>90.4</ele>
        <time>2021-05-02T17:12:08Z</time>
      </trkpt>
      <trkpt lat="46.53" lon="0.34056">
        <ele>90.2</ele>
        <time>2021-05-02T17:12:10Z</time>
      </trkpt>
      <trkpt lat="46.5299" lon="0.34056">
        <ele>89.6</ele>
        <time>2021-05-02T17:12:12Z</time>
      </trkpt>
      <trkpt lat="46.52972" lon="0.34053">
        <ele>88.6</ele>
        <time>2021-05-02T17:12:16Z</time>
      </trkpt>
      <trkpt lat="46.52959" lon="0.34047">
        <ele>88.2</ele>
        <time>2021-05-02T17:12:19Z</time>
      </trkpt>
      <trkpt lat="46.52955" lon="0.34042">
        <ele>87.6</ele>
        <time>2021-05-02T17:12:20Z</time>
      </trkpt>
      <trkpt lat="46.52953" lon="0.34037">
        <ele>87.2</ele>
        <time>2021-05-02T17:12:21Z</time>
      </trkpt>
      <trkpt lat="46.52951" lon="0.3403">
        <ele>86.8</ele>
        <time>2021-05-02T17:12:22Z</time>
      </trkpt>
      <trkpt lat="46.52949" lon="0.34023">
        <ele>86.4</ele>
        <time>2021-05-02T17:12:23Z</time>
      </trkpt>
      <trkpt lat="46.52946" lon="0.33992">
        <ele>85.8</ele>
        <time>2021-05-02T17:12:27Z</time>
      </trkpt>
      <trkpt lat="46.52946" lon="0.33976">
        <ele>85.2</ele>
        <time>2021-05-02T17:12:29Z</time>
      </trkpt>
      <trkpt lat="46.52945" lon="0.33968">
        <ele>85</ele>
        <time>2021-05-02T17:12:30Z</time>
      </trkpt>
      <trkpt lat="46.52941" lon="0.33945">
        <ele>84.4</ele>
        <time>2021-05-02T17:12:33Z</time>
      </trkpt>
      <trkpt lat="46.52934" lon="0.33924">
        <ele>84</ele>
        <time>2021-05-02T17:12:36Z</time>
      </trkpt>
      <trkpt lat="46.52932" lon="0.33918">
        <ele>84</ele>
        <time>2021-05-02T17:12:37Z</time>
      </trkpt>
      <trkpt lat="46.52929" lon="0.33913">
        <ele>83.8</ele>
        <time>2021-05-02T17:12:38Z</time>
      </trkpt>
      <trkpt lat="46.52927" lon="0.33909">
        <ele>83.8</ele>
        <time>2021-05-02T17:12:39Z</time>
      </trkpt>
      <trkpt lat="46.52918" lon="0.33904">
        <ele>83.6</ele>
        <time>2021-05-02T17:12:41Z</time>
      </trkpt>
      <trkpt lat="46.52908" lon="0.33903">
        <ele>83.6</ele>
        <time>2021-05-02T17:12:43Z</time>
      </trkpt>
      <trkpt lat="46.52895" lon="0.33904">
        <ele>83.4</ele>
        <time>2021-05-02T17:12:46Z</time>
      </trkpt>
      <trkpt lat="46.52891" lon="0.33904">
        <ele>83.4</ele>
        <time>2021-05-02T17:12:47Z</time>
      </trkpt>
      <trkpt lat="46.5287" lon="0.33902">
        <ele>83.2</ele>
        <time>2021-05-02T17:12:52Z</time>
      </trkpt>
      <trkpt lat="46.52846" lon="0.33905">
        <ele>83.4</ele>
        <time>2021-05-02T17:12:58Z</time>
      </trkpt>
      <trkpt lat="46.5283" lon="0.33909">
        <ele>83</ele>
        <time>2021-05-02T17:13:02Z</time>
      </trkpt>
      <trkpt lat="46.5282" lon="0.33911">
        <ele>83.2</ele>
        <time>2021-05-02T17:13:05Z</time>
      </trkpt>
      <trkpt lat="46.52798" lon="0.33914">
        <ele>83</ele>
        <time>2021-05-02T17:13:12Z</time>
      </trkpt>
      <trkpt lat="46.52789" lon="0.3392">
        <ele>83</ele>
        <time>2021-05-02T17:13:15Z</time>
      </trkpt>
      <trkpt lat="46.52788" lon="0.33925">
        <ele>83</ele>
        <time>2021-05-02T17:13:16Z</time>
      </trkpt>
      <trkpt lat="46.52781" lon="0.33954">
        <ele>83.6</ele>
        <time>2021-05-02T17:13:21Z</time>
      </trkpt>
      <trkpt lat="46.52777" lon="0.33973">
        <ele>84</ele>
        <time>2021-05-02T17:13:24Z</time>
      </trkpt>
      <trkpt lat="46.52773" lon="0.3399">
        <ele>84.8</ele>
        <time>2021-05-02T17:13:27Z</time>
      </trkpt>
      <trkpt lat="46.5277" lon="0.33999">
        <ele>85.4</ele>
        <time>2021-05-02T17:13:29Z</time>
      </trkpt>
      <trkpt lat="46.52764" lon="0.34016">
        <ele>86.4</ele>
        <time>2021-05-02T17:13:33Z</time>
      </trkpt>
      <trkpt lat="46.52762" lon="0.34019">
        <ele>86.6</ele>
        <time>2021-05-02T17:13:34Z</time>
      </trkpt>
      <trkpt lat="46.52757" lon="0.34023">
        <ele>87.8</ele>
        <time>2021-05-02T17:13:36Z</time>
      </trkpt>
      <trkpt lat="46.52749" lon="0.34026">
        <ele>88.8</ele>
        <time>2021-05-02T17:13:39Z</time>
      </trkpt>
      <trkpt lat="46.52739" lon="0.3403">
        <ele>89.8</ele>
        <time>2021-05-02T17:13:43Z</time>
      </trkpt>
      <trkpt lat="46.52732" lon="0.34033">
        <ele>91.2</ele>
        <time>2021-05-02T17:13:46Z</time>
      </trkpt>
      <trkpt lat="46.52727" lon="0.34034">
        <ele>91.8</ele>
        <time>2021-05-02T17:13:48Z</time>
      </trkpt>
      <trkpt lat="46.52718" lon="0.34036">
        <ele>92.2</ele>
        <time>2021-05-02T17:13:51Z</time>
      </trkpt>
      <trkpt lat="46.52705" lon="0.3404">
        <ele>92.8</ele>
        <time>2021-05-02T17:13:56Z</time>
      </trkpt>
      <trkpt lat="46.52687" lon="0.34038">
        <ele>93</ele>
        <time>2021-05-02T17:14:02Z</time>
      </trkpt>
      <trkpt lat="46.52673" lon="0.34037">
        <ele>93.4</ele>
        <time>2021-05-02T17:14:06Z</time>
      </trkpt>
      <trkpt lat="46.52663" lon="0.34035">
        <ele>93.6</ele>
        <time>2021-05-02T17:14:09Z</time>
      </trkpt>
      <trkpt lat="46.52648" lon="0.34033">
        <ele>94</ele>
        <time>2021-05-02T17:14:14Z</time>
      </trkpt>
      <trkpt lat="46.52635" lon="0.34032">
        <ele>94.6</ele>
        <time>2021-05-02T17:14:18Z</time>
      </trkpt>
      <trkpt lat="46.52628" lon="0.34031">
        <ele>94.6</ele>
        <time>2021-05-02T17:14:20Z</time>
      </trkpt>
      <trkpt lat="46.52601" lon="0.34034">
        <ele>95.6</ele>
        <time>2021-05-02T17:14:28Z</time>
      </trkpt>
      <trkpt lat="46.5258" lon="0.34036">
        <ele>97</ele>
        <time>2021-05-02T17:14:35Z</time>
      </trkpt>
      <trkpt lat="46.52578" lon="0.34036">
        <ele>97.2</ele>
        <time>2021-05-02T17:14:36Z</time>
      </trkpt>
      <trkpt lat="46.52564" lon="0.34038">
        <ele>98</ele>
        <time>2021-05-02T17:14:41Z</time>
      </trkpt>
      <trkpt lat="46.5256" lon="0.34039">
        <ele>98.2</ele>
        <time>2021-05-02T17:14:43Z</time>
      </trkpt>
      <trkpt lat="46.52555" lon="0.34042">
        <ele>99.2</ele>
        <time>2021-05-02T17:14:46Z</time>
      </trkpt>
      <trkpt lat="46.52542" lon="0.34045">
        <ele>99.8</ele>
        <time>2021-05-02T17:14:52Z</time>
      </trkpt>
      <trkpt lat="46.52535" lon="0.34046">
        <ele>100.2</ele>
        <time>2021-05-02T17:14:55Z</time>
      </trkpt>
      <trkpt lat="46.52528" lon="0.3405">
        <ele>100.6</ele>
        <time>2021-05-02T17:15:00Z</time>
      </trkpt>
      <trkpt lat="46.52524" lon="0.34053">
        <ele>101.4</ele>
        <time>2021-05-02T17:15:02Z</time>
      </trkpt>
      <trkpt lat="46.52513" lon="0.34061">
        <ele>102.4</ele>
        <time>2021-05-02T17:15:07Z</time>
      </trkpt>
      <trkpt lat="46.52512" lon="0.34063">
        <ele>102.8</ele>
        <time>2021-05-02T17:15:08Z</time>
      </trkpt>
      <trkpt lat="46.52505" lon="0.34074">
        <ele>103.6</ele>
        <time>2021-05-02T17:15:13Z</time>
      </trkpt>
      <trkpt lat="46.52501" lon="0.34081">
        <ele>103.8</ele>
        <time>2021-05-02T17:15:16Z</time>
      </trkpt>
      <trkpt lat="46.52499" lon="0.34088">
        <ele>104.8</ele>
        <time>2021-05-02T17:15:19Z</time>
      </trkpt>
      <trkpt lat="46.52493" lon="0.341">
        <ele>105.6</ele>
        <time>2021-05-02T17:15:24Z</time>
      </trkpt>
      <trkpt lat="46.52492" lon="0.34102">
        <ele>106</ele>
        <time>2021-05-02T17:15:25Z</time>
      </trkpt>
      <trkpt lat="46.52486" lon="0.34116">
        <ele>107.2</ele>
        <time>2021-05-02T17:15:31Z</time>
      </trkpt>
      <trkpt lat="46.52484" lon="0.34119">
        <ele>107.4</ele>
        <time>2021-05-02T17:15:33Z</time>
      </trkpt>
      <trkpt lat="46.5248" lon="0.34126">
        <ele>108.4</ele>
        <time>2021-05-02T17:15:36Z</time>
      </trkpt>
      <trkpt lat="46.52475" lon="0.34136">
        <ele>109.6</ele>
        <time>2021-05-02T17:15:41Z</time>
      </trkpt>
      <trkpt lat="46.52475" lon="0.34138">
        <ele>109.8</ele>
        <time>2021-05-02T17:15:42Z</time>
      </trkpt>
      <trkpt lat="46.5247" lon="0.34147">
        <ele>110.6</ele>
        <time>2021-05-02T17:15:46Z</time>
      </trkpt>
      <trkpt lat="46.52468" lon="0.34152">
        <ele>111.4</ele>
        <time>2021-05-02T17:15:49Z</time>
      </trkpt>
      <trkpt lat="46.52465" lon="0.34157">
        <ele>111.8</ele>
        <time>2021-05-02T17:15:52Z</time>
      </trkpt>
      <trkpt lat="46.5246" lon="0.34164">
        <ele>112.8</ele>
        <time>2021-05-02T17:15:56Z</time>
      </trkpt>
      <trkpt lat="46.52458" lon="0.34166">
        <ele>113</ele>
        <time>2021-05-02T17:15:57Z</time>
      </trkpt>
      <trkpt lat="46.52448" lon="0.34181">
        <ele>114</ele>
        <time>2021-05-02T17:16:05Z</time>
      </trkpt>
      <trkpt lat="46.52447" lon="0.34184">
        <ele>114</ele>
        <time>2021-05-02T17:16:06Z</time>
      </trkpt>
      <trkpt lat="46.52441" lon="0.34204">
        <ele>115</ele>
        <time>2021-05-02T17:16:13Z</time>
      </trkpt>
      <trkpt lat="46.5244" lon="0.34207">
        <ele>115.2</ele>
        <time>2021-05-02T17:16:14Z</time>
      </trkpt>
      <trkpt lat="46.52433" lon="0.34229">
        <ele>116.2</ele>
        <time>2021-05-02T17:16:21Z</time>
      </trkpt>
      <trkpt lat="46.52433" lon="0.34233">
        <ele>116.2</ele>
        <time>2021-05-02T17:16:22Z</time>
      </trkpt>
      <trkpt lat="46.52427" lon="0.34256">
        <ele>116.8</ele>
        <time>2021-05-02T17:16:29Z</time>
      </trkpt>
      <trkpt lat="46.52413" lon="0.34263">
        <ele>116.6</ele>
        <time>2021-05-02T17:16:33Z</time>
      </trkpt>
      <trkpt lat="46.52389" lon="0.34274">
        <ele>114.8</ele>
        <time>2021-05-02T17:16:38Z</time>
      </trkpt>
      <trkpt lat="46.52385" lon="0.34276">
        <ele>113.4</ele>
        <time>2021-05-02T17:16:39Z</time>
      </trkpt>
      <trkpt lat="46.52381" lon="0.34278">
        <ele>112.4</ele>
        <time>2021-05-02T17:16:40Z</time>
      </trkpt>
      <trkpt lat="46.52377" lon="0.3428">
        <ele>111.6</ele>
        <time>2021-05-02T17:16:41Z</time>
      </trkpt>
      <trkpt lat="46.52373" lon="0.34283">
        <ele>111.4</ele>
        <time>2021-05-02T17:16:42Z</time>
      </trkpt>
      <trkpt lat="46.52368" lon="0.34286">
        <ele>110.6</ele>
        <time>2021-05-02T17:16:43Z</time>
      </trkpt>
      <trkpt lat="46.52363" lon="0.34288">
        <ele>110</ele>
        <time>2021-05-02T17:16:44Z</time>
      </trkpt>
      <trkpt lat="46.52353" lon="0.34292">
        <ele>109</ele>
        <time>2021-05-02T17:16:46Z</time>
      </trkpt>
      <trkpt lat="46.52347" lon="0.34294">
        <ele>108.6</ele>
        <time>2021-05-02T17:16:47Z</time>
      </trkpt>
      <trkpt lat="46.5234" lon="0.34294">
        <ele>108.2</ele>
        <time>2021-05-02T17:16:48Z</time>
      </trkpt>
      <trkpt lat="46.52332" lon="0.34294">
        <ele>108</ele>
        <time>2021-05-02T17:16:49Z</time>
      </trkpt>
      <trkpt lat="46.5232" lon="0.34292">
        <ele>107</ele>
        <time>2021-05-02T17:16:51Z</time>
      </trkpt>
      <trkpt lat="46.52316" lon="0.34293">
        <ele>106.4</ele>
        <time>2021-05-02T17:16:52Z</time>
      </trkpt>
      <trkpt lat="46.52309" lon="0.343">
        <ele>105</ele>
        <time>2021-05-02T17:16:53Z</time>
      </trkpt>
      <trkpt lat="46.52309" lon="0.343">
        <ele>105</ele>
        <time>2021-05-02T17:16:54Z</time>
      </trkpt>
      <trkpt lat="46.523" lon="0.34307">
        <ele>103.8</ele>
        <time>2021-05-02T17:16:56Z</time>
      </trkpt>
      <trkpt lat="46.52293" lon="0.34312">
        <ele>102.8</ele>
        <time>2021-05-02T17:16:57Z</time>
      </trkpt>
      <trkpt lat="46.52286" lon="0.34318">
        <ele>102</ele>
        <time>2021-05-02T17:16:58Z</time>
      </trkpt>
      <trkpt lat="46.52272" lon="0.34329">
        <ele>100.8</ele>
        <time>2021-05-02T17:17:00Z</time>
      </trkpt>
      <trkpt lat="46.52265" lon="0.34333">
        <ele>100.6</ele>
        <time>2021-05-02T17:17:01Z</time>
      </trkpt>
      <trkpt lat="46.52258" lon="0.34335">
        <ele>100.2</ele>
        <time>2021-05-02T17:17:02Z</time>
      </trkpt>
      <trkpt lat="46.52245" lon="0.34338">
        <ele>99.4</ele>
        <time>2021-05-02T17:17:04Z</time>
      </trkpt>
      <trkpt lat="46.52239" lon="0.34339">
        <ele>99</ele>
        <time>2021-05-02T17:17:05Z</time>
      </trkpt>
      <trkpt lat="46.52234" lon="0.3434">
        <ele>98.8</ele>
        <time>2021-05-02T17:17:06Z</time>
      </trkpt>
      <trkpt lat="46.52227" lon="0.3434">
        <ele>98.4</ele>
        <time>2021-05-02T17:17:08Z</time>
      </trkpt>
      <trkpt lat="46.52223" lon="0.34339">
        <ele>98.2</ele>
        <time>2021-05-02T17:17:09Z</time>
      </trkpt>
      <trkpt lat="46.52218" lon="0.34338">
        <ele>98</ele>
        <time>2021-05-02T17:17:10Z</time>
      </trkpt>
      <trkpt lat="46.52208" lon="0.34335">
        <ele>97.8</ele>
        <time>2021-05-02T17:17:12Z</time>
      </trkpt>
      <trkpt lat="46.52199" lon="0.34333">
        <ele>97.6</ele>
        <time>2021-05-02T17:17:14Z</time>
      </trkpt>
      <trkpt lat="46.52186" lon="0.34327">
        <ele>97.6</ele>
        <time>2021-05-02T17:17:17Z</time>
      </trkpt>
      <trkpt lat="46.52177" lon="0.34321">
        <ele>97.6</ele>
        <time>2021-05-02T17:17:19Z</time>
      </trkpt>
      <trkpt lat="46.52166" lon="0.34314">
        <ele>96.6</ele>
        <time>2021-05-02T17:17:21Z</time>
      </trkpt>
      <trkpt lat="46.52149" lon="0.34307">
        <ele>96</ele>
        <time>2021-05-02T17:17:24Z</time>
      </trkpt>
      <trkpt lat="46.52142" lon="0.34307">
        <ele>96.4</ele>
        <time>2021-05-02T17:17:26Z</time>
      </trkpt>
      <trkpt lat="46.52134" lon="0.34308">
        <ele>97.4</ele>
        <time>2021-05-02T17:17:28Z</time>
      </trkpt>
      <trkpt lat="46.5213" lon="0.34308">
        <ele>98.4</ele>
        <time>2021-05-02T17:17:29Z</time>
      </trkpt>
      <trkpt lat="46.52119" lon="0.34308">
        <ele>99.6</ele>
        <time>2021-05-02T17:17:32Z</time>
      </trkpt>
      <trkpt lat="46.52115" lon="0.34308">
        <ele>99.6</ele>
        <time>2021-05-02T17:17:33Z</time>
      </trkpt>
      <trkpt lat="46.52089" lon="0.34312">
        <ele>99.4</ele>
        <time>2021-05-02T17:17:39Z</time>
      </trkpt>
      <trkpt lat="46.52075" lon="0.34316">
        <ele>98.4</ele>
        <time>2021-05-02T17:17:43Z</time>
      </trkpt>
      <trkpt lat="46.52063" lon="0.34318">
        <ele>97.8</ele>
        <time>2021-05-02T17:17:46Z</time>
      </trkpt>
      <trkpt lat="46.52054" lon="0.3432">
        <ele>97.2</ele>
        <time>2021-05-02T17:17:48Z</time>
      </trkpt>
      <trkpt lat="46.52032" lon="0.34326">
        <ele>96</ele>
        <time>2021-05-02T17:17:52Z</time>
      </trkpt>
      <trkpt lat="46.52025" lon="0.34328">
        <ele>95.6</ele>
        <time>2021-05-02T17:17:53Z</time>
      </trkpt>
      <trkpt lat="46.52014" lon="0.34334">
        <ele>95</ele>
        <time>2021-05-02T17:17:55Z</time>
      </trkpt>
      <trkpt lat="46.52009" lon="0.34337">
        <ele>94.8</ele>
        <time>2021-05-02T17:17:56Z</time>
      </trkpt>
      <trkpt lat="46.51989" lon="0.34351">
        <ele>95.2</ele>
        <time>2021-05-02T17:18:01Z</time>
      </trkpt>
      <trkpt lat="46.51983" lon="0.34356">
        <ele>96</ele>
        <time>2021-05-02T17:18:03Z</time>
      </trkpt>
      <trkpt lat="46.51976" lon="0.3436">
        <ele>97</ele>
        <time>2021-05-02T17:18:05Z</time>
      </trkpt>
      <trkpt lat="46.51968" lon="0.34365">
        <ele>98.6</ele>
        <time>2021-05-02T17:18:08Z</time>
      </trkpt>
      <trkpt lat="46.51961" lon="0.3437">
        <ele>99.8</ele>
        <time>2021-05-02T17:18:11Z</time>
      </trkpt>
      <trkpt lat="46.51953" lon="0.34377">
        <ele>101.2</ele>
        <time>2021-05-02T17:18:15Z</time>
      </trkpt>
      <trkpt lat="46.51946" lon="0.34383">
        <ele>102.4</ele>
        <time>2021-05-02T17:18:18Z</time>
      </trkpt>
      <trkpt lat="46.51936" lon="0.34391">
        <ele>103.6</ele>
        <time>2021-05-02T17:18:22Z</time>
      </trkpt>
      <trkpt lat="46.51934" lon="0.34393">
        <ele>104</ele>
        <time>2021-05-02T17:18:23Z</time>
      </trkpt>
      <trkpt lat="46.51926" lon="0.34402">
        <ele>104.8</ele>
        <time>2021-05-02T17:18:27Z</time>
      </trkpt>
      <trkpt lat="46.51921" lon="0.34407">
        <ele>105.6</ele>
        <time>2021-05-02T17:18:30Z</time>
      </trkpt>
      <trkpt lat="46.5192" lon="0.34408">
        <ele>105.8</ele>
        <time>2021-05-02T17:18:31Z</time>
      </trkpt>
      <trkpt lat="46.51909" lon="0.34417">
        <ele>106.8</ele>
        <time>2021-05-02T17:18:37Z</time>
      </trkpt>
      <trkpt lat="46.51907" lon="0.34419">
        <ele>107.2</ele>
        <time>2021-05-02T17:18:38Z</time>
      </trkpt>
      <trkpt lat="46.519" lon="0.34425">
        <ele>108.2</ele>
        <time>2021-05-02T17:18:42Z</time>
      </trkpt>
      <trkpt lat="46.51897" lon="0.34428">
        <ele>109.2</ele>
        <time>2021-05-02T17:18:45Z</time>
      </trkpt>
      <trkpt lat="46.51895" lon="0.34429">
        <ele>109.2</ele>
        <time>2021-05-02T17:18:46Z</time>
      </trkpt>
      <trkpt lat="46.51889" lon="0.34433">
        <ele>110.4</ele>
        <time>2021-05-02T17:18:51Z</time>
      </trkpt>
      <trkpt lat="46.51888" lon="0.34434">
        <ele>110.6</ele>
        <time>2021-05-02T17:18:52Z</time>
      </trkpt>
      <trkpt lat="46.51883" lon="0.34437">
        <ele>111.4</ele>
        <time>2021-05-02T17:18:56Z</time>
      </trkpt>
      <trkpt lat="46.51877" lon="0.34442">
        <ele>112</ele>
        <time>2021-05-02T17:19:00Z</time>
      </trkpt>
      <trkpt lat="46.51875" lon="0.34444">
        <ele>112.4</ele>
        <time>2021-05-02T17:19:02Z</time>
      </trkpt>
      <trkpt lat="46.5187" lon="0.34448">
        <ele>113.4</ele>
        <time>2021-05-02T17:19:06Z</time>
      </trkpt>
      <trkpt lat="46.51867" lon="0.3445">
        <ele>113.6</ele>
        <time>2021-05-02T17:19:08Z</time>
      </trkpt>
      <trkpt lat="46.51856" lon="0.34461">
        <ele>114.6</ele>
        <time>2021-05-02T17:19:15Z</time>
      </trkpt>
      <trkpt lat="46.51849" lon="0.3447">
        <ele>115.6</ele>
        <time>2021-05-02T17:19:20Z</time>
      </trkpt>
      <trkpt lat="46.51846" lon="0.34475">
        <ele>116.4</ele>
        <time>2021-05-02T17:19:23Z</time>
      </trkpt>
      <trkpt lat="46.51846" lon="0.34475">
        <ele>116.8</ele>
        <time>2021-05-02T17:19:26Z</time>
      </trkpt>
      <trkpt lat="46.51835" lon="0.34487">
        <ele>118</ele>
        <time>2021-05-02T17:19:31Z</time>
      </trkpt>
      <trkpt lat="46.51832" lon="0.3449">
        <ele>118.4</ele>
        <time>2021-05-02T17:19:33Z</time>
      </trkpt>
      <trkpt lat="46.51828" lon="0.34495">
        <ele>119</ele>
        <time>2021-05-02T17:19:36Z</time>
      </trkpt>
      <trkpt lat="46.5182" lon="0.34503">
        <ele>120.2</ele>
        <time>2021-05-02T17:19:41Z</time>
      </trkpt>
      <trkpt lat="46.51811" lon="0.34513">
        <ele>121.4</ele>
        <time>2021-05-02T17:19:47Z</time>
      </trkpt>
      <trkpt lat="46.51808" lon="0.34515">
        <ele>121.6</ele>
        <time>2021-05-02T17:19:49Z</time>
      </trkpt>
      <trkpt lat="46.51798" lon="0.34523">
        <ele>122.4</ele>
        <time>2021-05-02T17:19:54Z</time>
      </trkpt>
      <trkpt lat="46.51795" lon="0.34526">
        <ele>122.6</ele>
        <time>2021-05-02T17:19:56Z</time>
      </trkpt>
      <trkpt lat="46.51783" lon="0.34532">
        <ele>123.4</ele>
        <time>2021-05-02T17:20:01Z</time>
      </trkpt>
      <trkpt lat="46.51779" lon="0.34534">
        <ele>123.6</ele>
        <time>2021-05-02T17:20:03Z</time>
      </trkpt>
      <trkpt lat="46.51768" lon="0.34542">
        <ele>124.6</ele>
        <time>2021-05-02T17:20:08Z</time>
      </trkpt>
      <trkpt lat="46.51761" lon="0.34547">
        <ele>125.4</ele>
        <time>2021-05-02T17:20:12Z</time>
      </trkpt>
      <trkpt lat="46.51756" lon="0.3455">
        <ele>125.6</ele>
        <time>2021-05-02T17:20:14Z</time>
      </trkpt>
      <trkpt lat="46.51746" lon="0.34559">
        <ele>126.2</ele>
        <time>2021-05-02T17:20:19Z</time>
      </trkpt>
      <trkpt lat="46.51737" lon="0.34568">
        <ele>126.6</ele>
        <time>2021-05-02T17:20:23Z</time>
      </trkpt>
      <trkpt lat="46.51728" lon="0.34574">
        <ele>127.2</ele>
        <time>2021-05-02T17:20:26Z</time>
      </trkpt>
      <trkpt lat="46.51705" lon="0.34591">
        <ele>127.6</ele>
        <time>2021-05-02T17:20:33Z</time>
      </trkpt>
      <trkpt lat="46.51677" lon="0.34614">
        <ele>127.6</ele>
        <time>2021-05-02T17:20:41Z</time>
      </trkpt>
      <trkpt lat="46.51663" lon="0.34626">
        <ele>127.2</ele>
        <time>2021-05-02T17:20:45Z</time>
      </trkpt>
      <trkpt lat="46.51652" lon="0.34635">
        <ele>127</ele>
        <time>2021-05-02T17:20:48Z</time>
      </trkpt>
      <trkpt lat="46.51625" lon="0.34665">
        <ele>127</ele>
        <time>2021-05-02T17:20:55Z</time>
      </trkpt>
      <trkpt lat="46.51621" lon="0.3467">
        <ele>126.8</ele>
        <time>2021-05-02T17:20:56Z</time>
      </trkpt>
      <trkpt lat="46.51603" lon="0.34698">
        <ele>126.4</ele>
        <time>2021-05-02T17:21:01Z</time>
      </trkpt>
      <trkpt lat="46.51577" lon="0.34733">
        <ele>126.6</ele>
        <time>2021-05-02T17:21:08Z</time>
      </trkpt>
      <trkpt lat="46.51561" lon="0.34752">
        <ele>126.8</ele>
        <time>2021-05-02T17:21:13Z</time>
      </trkpt>
      <trkpt lat="46.51552" lon="0.34761">
        <ele>127.4</ele>
        <time>2021-05-02T17:21:16Z</time>
      </trkpt>
      <trkpt lat="46.51547" lon="0.34767">
        <ele>127.6</ele>
        <time>2021-05-02T17:21:18Z</time>
      </trkpt>
      <trkpt lat="46.51545" lon="0.34771">
        <ele>127.6</ele>
        <time>2021-05-02T17:21:19Z</time>
      </trkpt>
      <trkpt lat="46.5154" lon="0.3478">
        <ele>127.6</ele>
        <time>2021-05-02T17:21:21Z</time>
      </trkpt>
      <trkpt lat="46.51534" lon="0.34793">
        <ele>128</ele>
        <time>2021-05-02T17:21:24Z</time>
      </trkpt>
      <trkpt lat="46.51516" lon="0.34829">
        <ele>128</ele>
        <time>2021-05-02T17:21:30Z</time>
      </trkpt>
      <trkpt lat="46.51488" lon="0.34873">
        <ele>127</ele>
        <time>2021-05-02T17:21:36Z</time>
      </trkpt>
      <trkpt lat="46.51469" lon="0.349">
        <ele>126.6</ele>
        <time>2021-05-02T17:21:40Z</time>
      </trkpt>
      <trkpt lat="46.5146" lon="0.3491">
        <ele>126.2</ele>
        <time>2021-05-02T17:21:42Z</time>
      </trkpt>
      <trkpt lat="46.51441" lon="0.34927">
        <ele>125.4</ele>
        <time>2021-05-02T17:21:46Z</time>
      </trkpt>
      <trkpt lat="46.51436" lon="0.34932">
        <ele>125.2</ele>
        <time>2021-05-02T17:21:47Z</time>
      </trkpt>
      <trkpt lat="46.5142" lon="0.34953">
        <ele>124.2</ele>
        <time>2021-05-02T17:21:51Z</time>
      </trkpt>
      <trkpt lat="46.51413" lon="0.34964">
        <ele>123.6</ele>
        <time>2021-05-02T17:21:53Z</time>
      </trkpt>
      <trkpt lat="46.51408" lon="0.34974">
        <ele>122.8</ele>
        <time>2021-05-02T17:21:55Z</time>
      </trkpt>
      <trkpt lat="46.51406" lon="0.34977">
        <ele>122.2</ele>
        <time>2021-05-02T17:21:56Z</time>
      </trkpt>
      <trkpt lat="46.51405" lon="0.34979">
        <ele>121.8</ele>
        <time>2021-05-02T17:21:57Z</time>
      </trkpt>
      <trkpt lat="46.51402" lon="0.34982">
        <ele>121.4</ele>
        <time>2021-05-02T17:21:58Z</time>
      </trkpt>
      <trkpt lat="46.51391" lon="0.34999">
        <ele>120.8</ele>
        <time>2021-05-02T17:22:03Z</time>
      </trkpt>
      <trkpt lat="46.51378" lon="0.35014">
        <ele>121.8</ele>
        <time>2021-05-02T17:22:09Z</time>
      </trkpt>
      <trkpt lat="46.5137" lon="0.35018">
        <ele>122.6</ele>
        <time>2021-05-02T17:22:12Z</time>
      </trkpt>
      <trkpt lat="46.51359" lon="0.35022">
        <ele>123.8</ele>
        <time>2021-05-02T17:22:16Z</time>
      </trkpt>
      <trkpt lat="46.51354" lon="0.35025">
        <ele>124</ele>
        <time>2021-05-02T17:22:18Z</time>
      </trkpt>
      <trkpt lat="46.51347" lon="0.3503">
        <ele>124.8</ele>
        <time>2021-05-02T17:22:21Z</time>
      </trkpt>
      <trkpt lat="46.51336" lon="0.35036">
        <ele>126</ele>
        <time>2021-05-02T17:22:26Z</time>
      </trkpt>
      <trkpt lat="46.51321" lon="0.35034">
        <ele>126.4</ele>
        <time>2021-05-02T17:22:31Z</time>
      </trkpt>
      <trkpt lat="46.51302" lon="0.35032">
        <ele>126.2</ele>
        <time>2021-05-02T17:22:36Z</time>
      </trkpt>
      <trkpt lat="46.51271" lon="0.35026">
        <ele>125.2</ele>
        <time>2021-05-02T17:22:42Z</time>
      </trkpt>
      <trkpt lat="46.51266" lon="0.35023">
        <ele>125</ele>
        <time>2021-05-02T17:22:43Z</time>
      </trkpt>
      <trkpt lat="46.51257" lon="0.35016">
        <ele>124.8</ele>
        <time>2021-05-02T17:22:45Z</time>
      </trkpt>
      <trkpt lat="46.51245" lon="0.35017">
        <ele>123.8</ele>
        <time>2021-05-02T17:22:47Z</time>
      </trkpt>
      <trkpt lat="46.51238" lon="0.35018">
        <ele>123.6</ele>
        <time>2021-05-02T17:22:48Z</time>
      </trkpt>
      <trkpt lat="46.51199" lon="0.35017">
        <ele>123</ele>
        <time>2021-05-02T17:22:55Z</time>
      </trkpt>
      <trkpt lat="46.51162" lon="0.3501">
        <ele>123.4</ele>
        <time>2021-05-02T17:23:02Z</time>
      </trkpt>
      <trkpt lat="46.51112" lon="0.35001">
        <ele>124.2</ele>
        <time>2021-05-02T17:23:12Z</time>
      </trkpt>
      <trkpt lat="46.51094" lon="0.34998">
        <ele>124.4</ele>
        <time>2021-05-02T17:23:16Z</time>
      </trkpt>
      <trkpt lat="46.51082" lon="0.34997">
        <ele>124.4</ele>
        <time>2021-05-02T17:23:19Z</time>
      </trkpt>
      <trkpt lat="46.51078" lon="0.35008">
        <ele>124.8</ele>
        <time>2021-05-02T17:23:22Z</time>
      </trkpt>
      <trkpt lat="46.51076" lon="0.35038">
        <ele>125.8</ele>
        <time>2021-05-02T17:23:28Z</time>
      </trkpt>
      <trkpt lat="46.51075" lon="0.35043">
        <ele>126.2</ele>
        <time>2021-05-02T17:23:29Z</time>
      </trkpt>
      <trkpt lat="46.51071" lon="0.35066">
        <ele>127</ele>
        <time>2021-05-02T17:23:34Z</time>
      </trkpt>
      <trkpt lat="46.51068" lon="0.35078">
        <ele>128</ele>
        <time>2021-05-02T17:23:37Z</time>
      </trkpt>
      <trkpt lat="46.51068" lon="0.35082">
        <ele>128.4</ele>
        <time>2021-05-02T17:23:38Z</time>
      </trkpt>
      <trkpt lat="46.51065" lon="0.35097">
        <ele>129.4</ele>
        <time>2021-05-02T17:23:42Z</time>
      </trkpt>
      <trkpt lat="46.51065" lon="0.35101">
        <ele>129.6</ele>
        <time>2021-05-02T17:23:43Z</time>
      </trkpt>
      <trkpt lat="46.51063" lon="0.35115">
        <ele>130.4</ele>
        <time>2021-05-02T17:23:47Z</time>
      </trkpt>
      <trkpt lat="46.51061" lon="0.35131">
        <ele>131.4</ele>
        <time>2021-05-02T17:23:51Z</time>
      </trkpt>
      <trkpt lat="46.51061" lon="0.35134">
        <ele>131.6</ele>
        <time>2021-05-02T17:23:52Z</time>
      </trkpt>
      <trkpt lat="46.51058" lon="0.35163">
        <ele>132.2</ele>
        <time>2021-05-02T17:23:59Z</time>
      </trkpt>
      <trkpt lat="46.51056" lon="0.3518">
        <ele>132.6</ele>
        <time>2021-05-02T17:24:03Z</time>
      </trkpt>
      <trkpt lat="46.51055" lon="0.35197">
        <ele>133.2</ele>
        <time>2021-05-02T17:24:07Z</time>
      </trkpt>
      <trkpt lat="46.51054" lon="0.35206">
        <ele>133.6</ele>
        <time>2021-05-02T17:24:09Z</time>
      </trkpt>
      <trkpt lat="46.5105" lon="0.35235">
        <ele>134.8</ele>
        <time>2021-05-02T17:24:16Z</time>
      </trkpt>
      <trkpt lat="46.51046" lon="0.35271">
        <ele>135.8</ele>
        <time>2021-05-02T17:24:25Z</time>
      </trkpt>
      <trkpt lat="46.51042" lon="0.35297">
        <ele>136.6</ele>
        <time>2021-05-02T17:24:32Z</time>
      </trkpt>
      <trkpt lat="46.51041" lon="0.35306">
        <ele>136.8</ele>
        <time>2021-05-02T17:24:34Z</time>
      </trkpt>
      <trkpt lat="46.51036" lon="0.35329">
        <ele>137.4</ele>
        <time>2021-05-02T17:24:40Z</time>
      </trkpt>
      <trkpt lat="46.5103" lon="0.35352">
        <ele>137.8</ele>
        <time>2021-05-02T17:24:46Z</time>
      </trkpt>
      <trkpt lat="46.51028" lon="0.35367">
        <ele>138</ele>
        <time>2021-05-02T17:24:49Z</time>
      </trkpt>
      <trkpt lat="46.51021" lon="0.35391">
        <ele>138.4</ele>
        <time>2021-05-02T17:24:54Z</time>
      </trkpt>
      <trkpt lat="46.51009" lon="0.35422">
        <ele>138.4</ele>
        <time>2021-05-02T17:25:00Z</time>
      </trkpt>
      <trkpt lat="46.50983" lon="0.35458">
        <ele>138.6</ele>
        <time>2021-05-02T17:25:09Z</time>
      </trkpt>
      <trkpt lat="46.5096" lon="0.35493">
        <ele>138.8</ele>
        <time>2021-05-02T17:25:18Z</time>
      </trkpt>
      <trkpt lat="46.50951" lon="0.35512">
        <ele>138.8</ele>
        <time>2021-05-02T17:25:24Z</time>
      </trkpt>
      <trkpt lat="46.5095" lon="0.35526">
        <ele>139.2</ele>
        <time>2021-05-02T17:25:28Z</time>
      </trkpt>
      <trkpt lat="46.50949" lon="0.35529">
        <ele>139.4</ele>
        <time>2021-05-02T17:25:29Z</time>
      </trkpt>
      <trkpt lat="46.50937" lon="0.35548">
        <ele>140</ele>
        <time>2021-05-02T17:25:35Z</time>
      </trkpt>
      <trkpt lat="46.50936" lon="0.35552">
        <ele>140.2</ele>
        <time>2021-05-02T17:25:36Z</time>
      </trkpt>
      <trkpt lat="46.50921" lon="0.35576">
        <ele>140.6</ele>
        <time>2021-05-02T17:25:42Z</time>
      </trkpt>
      <trkpt lat="46.50904" lon="0.35605">
        <ele>141.6</ele>
        <time>2021-05-02T17:25:49Z</time>
      </trkpt>
      <trkpt lat="46.50899" lon="0.35611">
        <ele>141.8</ele>
        <time>2021-05-02T17:25:51Z</time>
      </trkpt>
      <trkpt lat="46.50886" lon="0.35631">
        <ele>142.2</ele>
        <time>2021-05-02T17:25:57Z</time>
      </trkpt>
      <trkpt lat="46.50878" lon="0.35643">
        <ele>142.6</ele>
        <time>2021-05-02T17:26:00Z</time>
      </trkpt>
      <trkpt lat="46.50867" lon="0.3566">
        <ele>143</ele>
        <time>2021-05-02T17:26:04Z</time>
      </trkpt>
      <trkpt lat="46.50847" lon="0.35682">
        <ele>143.4</ele>
        <time>2021-05-02T17:26:10Z</time>
      </trkpt>
      <trkpt lat="46.50835" lon="0.35705">
        <ele>143.6</ele>
        <time>2021-05-02T17:26:15Z</time>
      </trkpt>
      <trkpt lat="46.50828" lon="0.35719">
        <ele>143.8</ele>
        <time>2021-05-02T17:26:18Z</time>
      </trkpt>
      <trkpt lat="46.5082" lon="0.3573">
        <ele>143.4</ele>
        <time>2021-05-02T17:26:21Z</time>
      </trkpt>
      <trkpt lat="46.5081" lon="0.35743">
        <ele>143.4</ele>
        <time>2021-05-02T17:26:26Z</time>
      </trkpt>
      <trkpt lat="46.5081" lon="0.35746">
        <ele>143.4</ele>
        <time>2021-05-02T17:26:27Z</time>
      </trkpt>
      <trkpt lat="46.50813" lon="0.35749">
        <ele>143.4</ele>
        <time>2021-05-02T17:26:29Z</time>
      </trkpt>
      <trkpt lat="46.50817" lon="0.35751">
        <ele>143.6</ele>
        <time>2021-05-02T17:26:30Z</time>
      </trkpt>
      <trkpt lat="46.5084" lon="0.35766">
        <ele>143.8</ele>
        <time>2021-05-02T17:26:36Z</time>
      </trkpt>
      <trkpt lat="46.50869" lon="0.35783">
        <ele>144</ele>
        <time>2021-05-02T17:26:43Z</time>
      </trkpt>
      <trkpt lat="46.50874" lon="0.35791">
        <ele>144</ele>
        <time>2021-05-02T17:26:45Z</time>
      </trkpt>
      <trkpt lat="46.50875" lon="0.35796">
        <ele>144</ele>
        <time>2021-05-02T17:26:46Z</time>
      </trkpt>
      <trkpt lat="46.50876" lon="0.35822">
        <ele>144</ele>
        <time>2021-05-02T17:26:51Z</time>
      </trkpt>
      <trkpt lat="46.50862" lon="0.35858">
        <ele>143.8</ele>
        <time>2021-05-02T17:26:58Z</time>
      </trkpt>
      <trkpt lat="46.50847" lon="0.35883">
        <ele>143.6</ele>
        <time>2021-05-02T17:27:04Z</time>
      </trkpt>
      <trkpt lat="46.50842" lon="0.35893">
        <ele>143.6</ele>
        <time>2021-05-02T17:27:06Z</time>
      </trkpt>
      <trkpt lat="46.50841" lon="0.35903">
        <ele>143.2</ele>
        <time>2021-05-02T17:27:08Z</time>
      </trkpt>
      <trkpt lat="46.50846" lon="0.35938">
        <ele>142.4</ele>
        <time>2021-05-02T17:27:14Z</time>
      </trkpt>
      <trkpt lat="46.50847" lon="0.35944">
        <ele>142.4</ele>
        <time>2021-05-02T17:27:15Z</time>
      </trkpt>
      <trkpt lat="46.50849" lon="0.35967">
        <ele>141.4</ele>
        <time>2021-05-02T17:27:19Z</time>
      </trkpt>
      <trkpt lat="46.50848" lon="0.35971">
        <ele>141.4</ele>
        <time>2021-05-02T17:27:20Z</time>
      </trkpt>
      <trkpt lat="46.50839" lon="0.35977">
        <ele>140.6</ele>
        <time>2021-05-02T17:27:23Z</time>
      </trkpt>
      <trkpt lat="46.50831" lon="0.35985">
        <ele>140.6</ele>
        <time>2021-05-02T17:27:26Z</time>
      </trkpt>
      <trkpt lat="46.50831" lon="0.35989">
        <ele>140.6</ele>
        <time>2021-05-02T17:27:27Z</time>
      </trkpt>
      <trkpt lat="46.50834" lon="0.36006">
        <ele>140.6</ele>
        <time>2021-05-02T17:27:32Z</time>
      </trkpt>
      <trkpt lat="46.50834" lon="0.36032">
        <ele>140.8</ele>
        <time>2021-05-02T17:27:38Z</time>
      </trkpt>
      <trkpt lat="46.50825" lon="0.36037">
        <ele>141</ele>
        <time>2021-05-02T17:27:42Z</time>
      </trkpt>
      <trkpt lat="46.50807" lon="0.36044">
        <ele>141.2</ele>
        <time>2021-05-02T17:27:50Z</time>
      </trkpt>
      <trkpt lat="46.50792" lon="0.36048">
        <ele>141.2</ele>
        <time>2021-05-02T17:27:57Z</time>
      </trkpt>
      <trkpt lat="46.50785" lon="0.36051">
        <ele>141</ele>
        <time>2021-05-02T17:28:02Z</time>
      </trkpt>
      <trkpt lat="46.5078" lon="0.36053">
        <ele>139.8</ele>
        <time>2021-05-02T17:28:06Z</time>
      </trkpt>
      <trkpt lat="46.50778" lon="0.36054">
        <ele>138.6</ele>
        <time>2021-05-02T17:28:08Z</time>
      </trkpt>
      <trkpt lat="46.50777" lon="0.36056">
        <ele>137.6</ele>
        <time>2021-05-02T17:28:09Z</time>
      </trkpt>
      <trkpt lat="46.50777" lon="0.36059">
        <ele>137</ele>
        <time>2021-05-02T17:28:10Z</time>
      </trkpt>
      <trkpt lat="46.50775" lon="0.36074">
        <ele>136</ele>
        <time>2021-05-02T17:28:15Z</time>
      </trkpt>
      <trkpt lat="46.5078" lon="0.36091">
        <ele>135.8</ele>
        <time>2021-05-02T17:28:19Z</time>
      </trkpt>
      <trkpt lat="46.50769" lon="0.36116">
        <ele>136.4</ele>
        <time>2021-05-02T17:28:25Z</time>
      </trkpt>
      <trkpt lat="46.50764" lon="0.36122">
        <ele>137.6</ele>
        <time>2021-05-02T17:28:27Z</time>
      </trkpt>
      <trkpt lat="46.50753" lon="0.36144">
        <ele>138.4</ele>
        <time>2021-05-02T17:28:33Z</time>
      </trkpt>
      <trkpt lat="46.50752" lon="0.36149">
        <ele>138.6</ele>
        <time>2021-05-02T17:28:34Z</time>
      </trkpt>
      <trkpt lat="46.50747" lon="0.36181">
        <ele>138.2</ele>
        <time>2021-05-02T17:28:40Z</time>
      </trkpt>
      <trkpt lat="46.50739" lon="0.36233">
        <ele>137.6</ele>
        <time>2021-05-02T17:28:49Z</time>
      </trkpt>
      <trkpt lat="46.50736" lon="0.36251">
        <ele>137.6</ele>
        <time>2021-05-02T17:28:52Z</time>
      </trkpt>
      <trkpt lat="46.50735" lon="0.36264">
        <ele>137.4</ele>
        <time>2021-05-02T17:28:54Z</time>
      </trkpt>
      <trkpt lat="46.50733" lon="0.36277">
        <ele>137</ele>
        <time>2021-05-02T17:28:56Z</time>
      </trkpt>
      <trkpt lat="46.5073" lon="0.36297">
        <ele>136.4</ele>
        <time>2021-05-02T17:28:59Z</time>
      </trkpt>
      <trkpt lat="46.50728" lon="0.36317">
        <ele>136.2</ele>
        <time>2021-05-02T17:29:02Z</time>
      </trkpt>
      <trkpt lat="46.50723" lon="0.3635">
        <ele>135</ele>
        <time>2021-05-02T17:29:07Z</time>
      </trkpt>
      <trkpt lat="46.50721" lon="0.36365">
        <ele>134.8</ele>
        <time>2021-05-02T17:29:09Z</time>
      </trkpt>
      <trkpt lat="46.50716" lon="0.36402">
        <ele>134</ele>
        <time>2021-05-02T17:29:14Z</time>
      </trkpt>
      <trkpt lat="46.50711" lon="0.36435">
        <ele>132.8</ele>
        <time>2021-05-02T17:29:18Z</time>
      </trkpt>
      <trkpt lat="46.50709" lon="0.36444">
        <ele>132.4</ele>
        <time>2021-05-02T17:29:19Z</time>
      </trkpt>
      <trkpt lat="46.50703" lon="0.3648">
        <ele>131.6</ele>
        <time>2021-05-02T17:29:23Z</time>
      </trkpt>
      <trkpt lat="46.50702" lon="0.36488">
        <ele>131.4</ele>
        <time>2021-05-02T17:29:24Z</time>
      </trkpt>
      <trkpt lat="46.50701" lon="0.36497">
        <ele>131.4</ele>
        <time>2021-05-02T17:29:25Z</time>
      </trkpt>
      <trkpt lat="46.50695" lon="0.36542">
        <ele>130.6</ele>
        <time>2021-05-02T17:29:30Z</time>
      </trkpt>
      <trkpt lat="46.50692" lon="0.36559">
        <ele>130.2</ele>
        <time>2021-05-02T17:29:32Z</time>
      </trkpt>
      <trkpt lat="46.50688" lon="0.36574">
        <ele>130</ele>
        <time>2021-05-02T17:29:34Z</time>
      </trkpt>
      <trkpt lat="46.50682" lon="0.36587">
        <ele>129.8</ele>
        <time>2021-05-02T17:29:36Z</time>
      </trkpt>
      <trkpt lat="46.50664" lon="0.36607">
        <ele>130.4</ele>
        <time>2021-05-02T17:29:41Z</time>
      </trkpt>
      <trkpt lat="46.50647" lon="0.36626">
        <ele>131.6</ele>
        <time>2021-05-02T17:29:47Z</time>
      </trkpt>
      <trkpt lat="46.50642" lon="0.36638">
        <ele>132.6</ele>
        <time>2021-05-02T17:29:50Z</time>
      </trkpt>
      <trkpt lat="46.5064" lon="0.3665">
        <ele>133.4</ele>
        <time>2021-05-02T17:29:53Z</time>
      </trkpt>
      <trkpt lat="46.5064" lon="0.36654">
        <ele>133.8</ele>
        <time>2021-05-02T17:29:54Z</time>
      </trkpt>
      <trkpt lat="46.50638" lon="0.36675">
        <ele>135</ele>
        <time>2021-05-02T17:29:59Z</time>
      </trkpt>
      <trkpt lat="46.50637" lon="0.36688">
        <ele>135.6</ele>
        <time>2021-05-02T17:30:02Z</time>
      </trkpt>
      <trkpt lat="46.50636" lon="0.36696">
        <ele>136</ele>
        <time>2021-05-02T17:30:04Z</time>
      </trkpt>
      <trkpt lat="46.50633" lon="0.3672">
        <ele>137.2</ele>
        <time>2021-05-02T17:30:10Z</time>
      </trkpt>
      <trkpt lat="46.50632" lon="0.36724">
        <ele>137.4</ele>
        <time>2021-05-02T17:30:11Z</time>
      </trkpt>
      <trkpt lat="46.50635" lon="0.36741">
        <ele>138.2</ele>
        <time>2021-05-02T17:30:16Z</time>
      </trkpt>
      <trkpt lat="46.50636" lon="0.36745">
        <ele>138.2</ele>
        <time>2021-05-02T17:30:17Z</time>
      </trkpt>
      <trkpt lat="46.50641" lon="0.36771">
        <ele>139</ele>
        <time>2021-05-02T17:30:24Z</time>
      </trkpt>
      <trkpt lat="46.50641" lon="0.36783">
        <ele>139.2</ele>
        <time>2021-05-02T17:30:27Z</time>
      </trkpt>
      <trkpt lat="46.50639" lon="0.36802">
        <ele>139.8</ele>
        <time>2021-05-02T17:30:32Z</time>
      </trkpt>
      <trkpt lat="46.50638" lon="0.36809">
        <ele>140.4</ele>
        <time>2021-05-02T17:30:34Z</time>
      </trkpt>
      <trkpt lat="46.50633" lon="0.36827">
        <ele>140.8</ele>
        <time>2021-05-02T17:30:39Z</time>
      </trkpt>
      <trkpt lat="46.50625" lon="0.36851">
        <ele>141.2</ele>
        <time>2021-05-02T17:30:48Z</time>
      </trkpt>
      <trkpt lat="46.50623" lon="0.36852">
        <ele>141.4</ele>
        <time>2021-05-02T17:30:49Z</time>
      </trkpt>
      <trkpt lat="46.50622" lon="0.36852">
        <ele>141.4</ele>
        <time>2021-05-02T17:30:50Z</time>
      </trkpt>
      <trkpt lat="46.50618" lon="0.36854">
        <ele>141.6</ele>
        <time>2021-05-02T17:30:52Z</time>
      </trkpt>
      <trkpt lat="46.50617" lon="0.36856">
        <ele>141.6</ele>
        <time>2021-05-02T17:30:53Z</time>
      </trkpt>
      <trkpt lat="46.50618" lon="0.36859">
        <ele>141.6</ele>
        <time>2021-05-02T17:30:54Z</time>
      </trkpt>
      <trkpt lat="46.5062" lon="0.36861">
        <ele>141.6</ele>
        <time>2021-05-02T17:30:56Z</time>
      </trkpt>
      <trkpt lat="46.50623" lon="0.36861">
        <ele>141.4</ele>
        <time>2021-05-02T17:30:59Z</time>
      </trkpt>
    </trkseg>
  </trk>
</gpx>